<?xml version='1.0' encoding='UTF-8'?><gpx version="1.1" creator="JPX - https://github.com/jenetics/jpx" xmlns="http://www.topografix.com/GPX/1/1"><trk><trkseg><trkpt lat="45.4272217" lon="10.7892917"><ele>146.0</ele><time>2026-05-01T10:41:31.618Z</time></trkpt><trkpt lat="45.42715" lon="10.7893133"><ele>146.0</ele><time>2026-05-01T10:41:32.613Z</time></trkpt><trkpt lat="45.427085" lon="10.7893333"><ele>146.0</ele><time>2026-05-01T10:41:33.61Z</time></trkpt><trkpt lat="45.4269767" lon="10.789375"><ele>146.0</ele><time>2026-05-01T10:41:35.609Z</time></trkpt><trkpt lat="45.4269067" lon="10.78945"><ele>146.0</ele><time>2026-05-01T10:41:37.618Z</time></trkpt><trkpt lat="45.426925" lon="10.7895717"><ele>146.0</ele><time>2026-05-01T10:41:39.612Z</time></trkpt><trkpt lat="45.4269817" lon="10.7897167"><ele>145.66666666666666</ele><time>2026-05-01T10:41:41.618Z</time></trkpt><trkpt lat="45.42701" lon="10.7898033"><ele>145.33333333333331</ele><time>2026-05-01T10:41:42.602Z</time></trkpt><trkpt lat="45.4270367" lon="10.789955"><ele>145.0</ele><time>2026-05-01T10:41:44.613Z</time></trkpt><trkpt lat="45.4269867" lon="10.7900717"><ele>144.66666666666666</ele><time>2026-05-01T10:41:46.611Z</time></trkpt><trkpt lat="45.426925" lon="10.79011"><ele>144.33333333333334</ele><time>2026-05-01T10:41:47.609Z</time></trkpt><trkpt lat="45.4268467" lon="10.7901217"><ele>144.0</ele><time>2026-05-01T10:41:48.604Z</time></trkpt><trkpt lat="45.4267533" lon="10.7901233"><ele>144.0</ele><time>2026-05-01T10:41:49.615Z</time></trkpt><trkpt lat="45.4266583" lon="10.7901217"><ele>144.0</ele><time>2026-05-01T10:41:50.616Z</time></trkpt><trkpt lat="45.42657" lon="10.79013"><ele>144.0</ele><time>2026-05-01T10:41:51.613Z</time></trkpt><trkpt lat="45.4264933" lon="10.7901367"><ele>144.0</ele><time>2026-05-01T10:41:52.613Z</time></trkpt><trkpt lat="45.4264217" lon="10.79014"><ele>144.0</ele><time>2026-05-01T10:41:53.617Z</time></trkpt><trkpt lat="45.42635" lon="10.7901367"><ele>144.0</ele><time>2026-05-01T10:41:54.642Z</time></trkpt><trkpt lat="45.4262717" lon="10.7901217"><ele>142.5</ele><time>2026-05-01T10:41:55.625Z</time></trkpt><trkpt lat="45.4261917" lon="10.7900967"><ele>141.0</ele><time>2026-05-01T10:41:56.615Z</time></trkpt><trkpt lat="45.426115" lon="10.7900683"><ele>139.5</ele><time>2026-05-01T10:41:57.622Z</time></trkpt><trkpt lat="45.4260433" lon="10.7900483"><ele>138.0</ele><time>2026-05-01T10:41:58.614Z</time></trkpt><trkpt lat="45.4259383" lon="10.7900067"><ele>136.5</ele><time>2026-05-01T10:42:00.616Z</time></trkpt><trkpt lat="45.4259" lon="10.7899283"><ele>135.0</ele><time>2026-05-01T10:42:02.614Z</time></trkpt><trkpt lat="45.42592" lon="10.7897833"><ele>135.0</ele><time>2026-05-01T10:42:04.612Z</time></trkpt><trkpt lat="45.4259417" lon="10.789685"><ele>135.0</ele><time>2026-05-01T10:42:05.614Z</time></trkpt><trkpt lat="45.425975" lon="10.7895717"><ele>135.0</ele><time>2026-05-01T10:42:06.616Z</time></trkpt><trkpt lat="45.4260183" lon="10.7894517"><ele>135.0</ele><time>2026-05-01T10:42:07.606Z</time></trkpt><trkpt lat="45.4260617" lon="10.7893217"><ele>135.0</ele><time>2026-05-01T10:42:08.607Z</time></trkpt><trkpt lat="45.4261033" lon="10.7891733"><ele>134.5</ele><time>2026-05-01T10:42:09.617Z</time></trkpt><trkpt lat="45.426165" lon="10.78903"><ele>134.0</ele><time>2026-05-01T10:42:10.615Z</time></trkpt><trkpt lat="45.42625" lon="10.7889033"><ele>133.5</ele><time>2026-05-01T10:42:11.608Z</time></trkpt><trkpt lat="45.4263417" lon="10.7888"><ele>133.0</ele><time>2026-05-01T10:42:12.624Z</time></trkpt><trkpt lat="45.426435" lon="10.7887067"><ele>135.25</ele><time>2026-05-01T10:42:13.62Z</time></trkpt><trkpt lat="45.4265367" lon="10.7885883"><ele>137.5</ele><time>2026-05-01T10:42:14.625Z</time></trkpt><trkpt lat="45.426655" lon="10.78846"><ele>139.75</ele><time>2026-05-01T10:42:15.621Z</time></trkpt><trkpt lat="45.4267517" lon="10.7883433"><ele>142.0</ele><time>2026-05-01T10:42:16.616Z</time></trkpt><trkpt lat="45.4268367" lon="10.7882233"><ele>142.2</ele><time>2026-05-01T10:42:17.616Z</time></trkpt><trkpt lat="45.42691" lon="10.78813"><ele>142.39999999999998</ele><time>2026-05-01T10:42:18.61Z</time></trkpt><trkpt lat="45.4269717" lon="10.7880583"><ele>142.60000000000002</ele><time>2026-05-01T10:42:19.614Z</time></trkpt><trkpt lat="45.42703" lon="10.78799"><ele>142.8</ele><time>2026-05-01T10:42:21.63Z</time></trkpt><trkpt lat="45.426995" lon="10.7878733"><ele>143.0</ele><time>2026-05-01T10:42:27.64Z</time></trkpt><trkpt lat="45.4268717" lon="10.7877583"><ele>143.0</ele><time>2026-05-01T10:42:29.626Z</time></trkpt><trkpt lat="45.4267967" lon="10.7876867"><ele>143.0</ele><time>2026-05-01T10:42:30.613Z</time></trkpt><trkpt lat="45.4267067" lon="10.78759"><ele>143.0</ele><time>2026-05-01T10:42:31.616Z</time></trkpt><trkpt lat="45.4266317" lon="10.7875283"><ele>143.0</ele><time>2026-05-01T10:42:32.619Z</time></trkpt><trkpt lat="45.42654" lon="10.78746"><ele>143.0</ele><time>2026-05-01T10:42:33.611Z</time></trkpt><trkpt lat="45.4264583" lon="10.7874183"><ele>143.4</ele><time>2026-05-01T10:42:34.617Z</time></trkpt><trkpt lat="45.426395" lon="10.787365"><ele>143.8</ele><time>2026-05-01T10:42:35.619Z</time></trkpt><trkpt lat="45.4263067" lon="10.787335"><ele>144.2</ele><time>2026-05-01T10:42:36.617Z</time></trkpt><trkpt lat="45.4262083" lon="10.7873133"><ele>144.6</ele><time>2026-05-01T10:42:37.609Z</time></trkpt><trkpt lat="45.4261017" lon="10.7872183"><ele>145.0</ele><time>2026-05-01T10:42:38.616Z</time></trkpt><trkpt lat="45.4260067" lon="10.7871967"><ele>143.33333333333334</ele><time>2026-05-01T10:42:39.61Z</time></trkpt><trkpt lat="45.4259233" lon="10.787185"><ele>141.66666666666669</ele><time>2026-05-01T10:42:40.627Z</time></trkpt><trkpt lat="45.4258583" lon="10.7872433"><ele>140.0</ele><time>2026-05-01T10:42:41.622Z</time></trkpt><trkpt lat="45.425775" lon="10.7872617"><ele>138.33333333333334</ele><time>2026-05-01T10:42:42.613Z</time></trkpt><trkpt lat="45.4256817" lon="10.78723"><ele>136.66666666666666</ele><time>2026-05-01T10:42:43.608Z</time></trkpt><trkpt lat="45.4255867" lon="10.7871983"><ele>135.0</ele><time>2026-05-01T10:42:44.609Z</time></trkpt><trkpt lat="45.4255033" lon="10.78717"><ele>135.5</ele><time>2026-05-01T10:42:45.629Z</time></trkpt><trkpt lat="45.425435" lon="10.7871383"><ele>136.0</ele><time>2026-05-01T10:42:46.638Z</time></trkpt><trkpt lat="45.4253717" lon="10.78711"><ele>136.5</ele><time>2026-05-01T10:42:47.633Z</time></trkpt><trkpt lat="45.42526" lon="10.7870383"><ele>137.0</ele><time>2026-05-01T10:42:49.623Z</time></trkpt><trkpt lat="45.42517" lon="10.786945"><ele>137.5</ele><time>2026-05-01T10:42:51.616Z</time></trkpt><trkpt lat="45.4251317" lon="10.7868733"><ele>138.0</ele><time>2026-05-01T10:42:52.627Z</time></trkpt><trkpt lat="45.4250817" lon="10.7867533"><ele>138.16666666666666</ele><time>2026-05-01T10:42:54.632Z</time></trkpt><trkpt lat="45.4250517" lon="10.7866417"><ele>138.33333333333334</ele><time>2026-05-01T10:42:56.632Z</time></trkpt><trkpt lat="45.4250233" lon="10.78647"><ele>138.5</ele><time>2026-05-01T10:42:58.612Z</time></trkpt><trkpt lat="45.4250033" lon="10.7863817"><ele>138.66666666666669</ele><time>2026-05-01T10:42:59.608Z</time></trkpt><trkpt lat="45.424995" lon="10.786285"><ele>138.83333333333334</ele><time>2026-05-01T10:43:00.614Z</time></trkpt><trkpt lat="45.424995" lon="10.7861867"><ele>139.0</ele><time>2026-05-01T10:43:01.606Z</time></trkpt><trkpt lat="45.4249833" lon="10.78607"><ele>139.0</ele><time>2026-05-01T10:43:03.606Z</time></trkpt><trkpt lat="45.4249167" lon="10.786175"><ele>139.0</ele><time>2026-05-01T10:43:06.611Z</time></trkpt><trkpt lat="45.4249133" lon="10.7863267"><ele>139.0</ele><time>2026-05-01T10:43:08.612Z</time></trkpt><trkpt lat="45.424955" lon="10.78645"><ele>139.0</ele><time>2026-05-01T10:43:09.607Z</time></trkpt><trkpt lat="45.4249983" lon="10.78658"><ele>139.0</ele><time>2026-05-01T10:43:10.618Z</time></trkpt><trkpt lat="45.4250317" lon="10.7867317"><ele>139.0</ele><time>2026-05-01T10:43:11.609Z</time></trkpt><trkpt lat="45.4250883" lon="10.786835"><ele>139.0</ele><time>2026-05-01T10:43:12.606Z</time></trkpt><trkpt lat="45.4251117" lon="10.7869367"><ele>139.0</ele><time>2026-05-01T10:43:13.631Z</time></trkpt><trkpt lat="45.42512" lon="10.7870283"><ele>139.0</ele><time>2026-05-01T10:43:14.62Z</time></trkpt><trkpt lat="45.425105" lon="10.787175"><ele>139.0</ele><time>2026-05-01T10:43:16.618Z</time></trkpt><trkpt lat="45.4250767" lon="10.7872717"><ele>139.0</ele><time>2026-05-01T10:43:18.607Z</time></trkpt><trkpt lat="45.42504" lon="10.78745"><ele>138.83333333333334</ele><time>2026-05-01T10:43:20.615Z</time></trkpt><trkpt lat="45.4250183" lon="10.7875567"><ele>138.66666666666669</ele><time>2026-05-01T10:43:21.624Z</time></trkpt><trkpt lat="45.425" lon="10.7876583"><ele>138.5</ele><time>2026-05-01T10:43:22.603Z</time></trkpt><trkpt lat="45.4249467" lon="10.7878067"><ele>138.33333333333334</ele><time>2026-05-01T10:43:24.605Z</time></trkpt><trkpt lat="45.4249067" lon="10.7879"><ele>138.16666666666666</ele><time>2026-05-01T10:43:26.62Z</time></trkpt><trkpt lat="45.4249817" lon="10.7878383"><ele>138.0</ele><time>2026-05-01T10:43:30.62Z</time></trkpt><trkpt lat="45.4250033" lon="10.787735"><ele>138.0</ele><time>2026-05-01T10:43:31.611Z</time></trkpt><trkpt lat="45.42503" lon="10.7876233"><ele>138.0</ele><time>2026-05-01T10:43:32.621Z</time></trkpt><trkpt lat="45.4250567" lon="10.7874917"><ele>138.0</ele><time>2026-05-01T10:43:33.617Z</time></trkpt><trkpt lat="45.42508" lon="10.78735"><ele>138.0</ele><time>2026-05-01T10:43:34.611Z</time></trkpt><trkpt lat="45.4250967" lon="10.7872633"><ele>138.0</ele><time>2026-05-01T10:43:35.621Z</time></trkpt><trkpt lat="45.4250967" lon="10.78717"><ele>138.0</ele><time>2026-05-01T10:43:37.609Z</time></trkpt><trkpt lat="45.4249817" lon="10.7870867"><ele>138.0</ele><time>2026-05-01T10:43:39.612Z</time></trkpt><trkpt lat="45.4248833" lon="10.7870833"><ele>138.0</ele><time>2026-05-01T10:43:40.611Z</time></trkpt><trkpt lat="45.4247717" lon="10.78709"><ele>138.0</ele><time>2026-05-01T10:43:41.606Z</time></trkpt><trkpt lat="45.4246333" lon="10.7871417"><ele>138.0</ele><time>2026-05-01T10:43:42.607Z</time></trkpt><trkpt lat="45.4245067" lon="10.7871467"><ele>136.75</ele><time>2026-05-01T10:43:43.607Z</time></trkpt><trkpt lat="45.4243983" lon="10.7871383"><ele>135.5</ele><time>2026-05-01T10:43:44.625Z</time></trkpt><trkpt lat="45.4242767" lon="10.7871533"><ele>134.25</ele><time>2026-05-01T10:43:45.624Z</time></trkpt><trkpt lat="45.4241317" lon="10.7871867"><ele>133.0</ele><time>2026-05-01T10:43:46.616Z</time></trkpt><trkpt lat="45.4239983" lon="10.7871967"><ele>133.0</ele><time>2026-05-01T10:43:47.609Z</time></trkpt><trkpt lat="45.42389" lon="10.787185"><ele>133.0</ele><time>2026-05-01T10:43:48.608Z</time></trkpt><trkpt lat="45.42381" lon="10.787215"><ele>133.0</ele><time>2026-05-01T10:43:49.609Z</time></trkpt><trkpt lat="45.423715" lon="10.7871983"><ele>133.0</ele><time>2026-05-01T10:43:50.646Z</time></trkpt><trkpt lat="45.423635" lon="10.7872117"><ele>133.0</ele><time>2026-05-01T10:43:51.614Z</time></trkpt><trkpt lat="45.42357" lon="10.7872183"><ele>133.0</ele><time>2026-05-01T10:43:52.617Z</time></trkpt><trkpt lat="45.4234883" lon="10.787235"><ele>133.0</ele><time>2026-05-01T10:43:54.604Z</time></trkpt><trkpt lat="45.4236117" lon="10.787275"><ele>133.0</ele><time>2026-05-01T10:44:13.612Z</time></trkpt><trkpt lat="45.4236933" lon="10.7872717"><ele>133.0</ele><time>2026-05-01T10:44:14.634Z</time></trkpt><trkpt lat="45.4237917" lon="10.7872683"><ele>133.0</ele><time>2026-05-01T10:44:15.608Z</time></trkpt><trkpt lat="45.423915" lon="10.7872433"><ele>133.0</ele><time>2026-05-01T10:44:16.604Z</time></trkpt><trkpt lat="45.4240433" lon="10.7872117"><ele>133.0</ele><time>2026-05-01T10:44:17.624Z</time></trkpt><trkpt lat="45.4242083" lon="10.7871383"><ele>133.0</ele><time>2026-05-01T10:44:18.609Z</time></trkpt><trkpt lat="45.4243567" lon="10.78714"><ele>133.0</ele><time>2026-05-01T10:44:19.61Z</time></trkpt><trkpt lat="45.4245" lon="10.7871417"><ele>133.0</ele><time>2026-05-01T10:44:20.627Z</time></trkpt><trkpt lat="45.424645" lon="10.78715"><ele>133.0</ele><time>2026-05-01T10:44:21.616Z</time></trkpt><trkpt lat="45.4247583" lon="10.7871333"><ele>133.0</ele><time>2026-05-01T10:44:22.607Z</time></trkpt><trkpt lat="45.4248533" lon="10.7871167"><ele>133.0</ele><time>2026-05-01T10:44:23.609Z</time></trkpt><trkpt lat="45.4249433" lon="10.78711"><ele>133.0</ele><time>2026-05-01T10:44:24.611Z</time></trkpt><trkpt lat="45.4250167" lon="10.787145"><ele>133.0</ele><time>2026-05-01T10:44:25.61Z</time></trkpt><trkpt lat="45.42508" lon="10.7872033"><ele>133.0</ele><time>2026-05-01T10:44:27.619Z</time></trkpt><trkpt lat="45.4250583" lon="10.7873033"><ele>133.0</ele><time>2026-05-01T10:44:28.627Z</time></trkpt><trkpt lat="45.4250467" lon="10.787415"><ele>133.0</ele><time>2026-05-01T10:44:29.607Z</time></trkpt><trkpt lat="45.4250183" lon="10.7875433"><ele>133.0</ele><time>2026-05-01T10:44:30.62Z</time></trkpt><trkpt lat="45.42499" lon="10.7877033"><ele>133.0</ele><time>2026-05-01T10:44:31.612Z</time></trkpt><trkpt lat="45.4249533" lon="10.787885"><ele>133.0</ele><time>2026-05-01T10:44:32.604Z</time></trkpt><trkpt lat="45.4249117" lon="10.7881017"><ele>133.0</ele><time>2026-05-01T10:44:33.617Z</time></trkpt><trkpt lat="45.4248567" lon="10.7883483"><ele>133.0</ele><time>2026-05-01T10:44:34.613Z</time></trkpt><trkpt lat="45.4248" lon="10.78857"><ele>133.0</ele><time>2026-05-01T10:44:35.604Z</time></trkpt><trkpt lat="45.424755" lon="10.7887783"><ele>133.0</ele><time>2026-05-01T10:44:36.618Z</time></trkpt><trkpt lat="45.42472" lon="10.7889517"><ele>133.0</ele><time>2026-05-01T10:44:37.617Z</time></trkpt><trkpt lat="45.424685" lon="10.7891333"><ele>133.0</ele><time>2026-05-01T10:44:38.62Z</time></trkpt><trkpt lat="45.4246517" lon="10.789275"><ele>133.0</ele><time>2026-05-01T10:44:39.622Z</time></trkpt><trkpt lat="45.42462" lon="10.7894133"><ele>133.0</ele><time>2026-05-01T10:44:40.623Z</time></trkpt><trkpt lat="45.424565" lon="10.7895383"><ele>133.0</ele><time>2026-05-01T10:44:41.608Z</time></trkpt><trkpt lat="45.4244717" lon="10.7896083"><ele>133.0</ele><time>2026-05-01T10:44:42.616Z</time></trkpt><trkpt lat="45.4243683" lon="10.7896733"><ele>133.0</ele><time>2026-05-01T10:44:43.613Z</time></trkpt><trkpt lat="45.4242583" lon="10.7897483"><ele>133.0</ele><time>2026-05-01T10:44:44.611Z</time></trkpt><trkpt lat="45.4241383" lon="10.789815"><ele>133.0</ele><time>2026-05-01T10:44:45.607Z</time></trkpt><trkpt lat="45.4240533" lon="10.789865"><ele>133.0</ele><time>2026-05-01T10:44:46.621Z</time></trkpt><trkpt lat="45.4239683" lon="10.7899117"><ele>133.0</ele><time>2026-05-01T10:44:47.606Z</time></trkpt><trkpt lat="45.4238783" lon="10.789975"><ele>133.0</ele><time>2026-05-01T10:44:48.615Z</time></trkpt><trkpt lat="45.4237667" lon="10.790055"><ele>132.4</ele><time>2026-05-01T10:44:49.618Z</time></trkpt><trkpt lat="45.4236933" lon="10.7901017"><ele>131.8</ele><time>2026-05-01T10:44:50.616Z</time></trkpt><trkpt lat="45.4235983" lon="10.79013"><ele>131.2</ele><time>2026-05-01T10:44:51.613Z</time></trkpt><trkpt lat="45.4234783" lon="10.7901633"><ele>130.6</ele><time>2026-05-01T10:44:52.611Z</time></trkpt><trkpt lat="45.4233517" lon="10.7901717"><ele>130.0</ele><time>2026-05-01T10:44:53.614Z</time></trkpt><trkpt lat="45.4232267" lon="10.7901933"><ele>129.75</ele><time>2026-05-01T10:44:54.62Z</time></trkpt><trkpt lat="45.4231" lon="10.7902233"><ele>129.5</ele><time>2026-05-01T10:44:55.64Z</time></trkpt><trkpt lat="45.4229667" lon="10.79027"><ele>129.25</ele><time>2026-05-01T10:44:56.621Z</time></trkpt><trkpt lat="45.4228633" lon="10.7903133"><ele>129.0</ele><time>2026-05-01T10:44:57.615Z</time></trkpt><trkpt lat="45.4227583" lon="10.7903417"><ele>129.33333333333334</ele><time>2026-05-01T10:44:58.615Z</time></trkpt><trkpt lat="45.4226583" lon="10.7903483"><ele>129.66666666666666</ele><time>2026-05-01T10:44:59.617Z</time></trkpt><trkpt lat="45.4225667" lon="10.7903617"><ele>130.0</ele><time>2026-05-01T10:45:00.609Z</time></trkpt><trkpt lat="45.4224867" lon="10.7903733"><ele>130.33333333333331</ele><time>2026-05-01T10:45:01.615Z</time></trkpt><trkpt lat="45.422415" lon="10.7903817"><ele>130.66666666666666</ele><time>2026-05-01T10:45:02.617Z</time></trkpt><trkpt lat="45.422345" lon="10.7904133"><ele>131.0</ele><time>2026-05-01T10:45:03.614Z</time></trkpt><trkpt lat="45.4222783" lon="10.7904467"><ele>131.0</ele><time>2026-05-01T10:45:04.609Z</time></trkpt><trkpt lat="45.4221717" lon="10.7904917"><ele>131.0</ele><time>2026-05-01T10:45:06.611Z</time></trkpt><trkpt lat="45.4220733" lon="10.790445"><ele>131.0</ele><time>2026-05-01T10:45:08.619Z</time></trkpt><trkpt lat="45.4220017" lon="10.7902733"><ele>131.0</ele><time>2026-05-01T10:45:10.607Z</time></trkpt><trkpt lat="45.4219633" lon="10.7901617"><ele>131.0</ele><time>2026-05-01T10:45:11.624Z</time></trkpt><trkpt lat="45.421925" lon="10.79003"><ele>131.0</ele><time>2026-05-01T10:45:12.615Z</time></trkpt><trkpt lat="45.4218767" lon="10.7898917"><ele>131.0</ele><time>2026-05-01T10:45:13.613Z</time></trkpt><trkpt lat="45.4218283" lon="10.7897567"><ele>131.0</ele><time>2026-05-01T10:45:14.616Z</time></trkpt><trkpt lat="45.4217667" lon="10.7896083"><ele>131.0</ele><time>2026-05-01T10:45:15.614Z</time></trkpt><trkpt lat="45.4217167" lon="10.789455"><ele>130.75</ele><time>2026-05-01T10:45:16.609Z</time></trkpt><trkpt lat="45.4216467" lon="10.789315"><ele>130.5</ele><time>2026-05-01T10:45:17.606Z</time></trkpt><trkpt lat="45.4215783" lon="10.7891683"><ele>130.25</ele><time>2026-05-01T10:45:18.609Z</time></trkpt><trkpt lat="45.42148" lon="10.7890617"><ele>130.0</ele><time>2026-05-01T10:45:19.61Z</time></trkpt><trkpt lat="45.4213983" lon="10.7889517"><ele>130.0</ele><time>2026-05-01T10:45:20.608Z</time></trkpt><trkpt lat="45.4213267" lon="10.78887"><ele>130.0</ele><time>2026-05-01T10:45:21.61Z</time></trkpt><trkpt lat="45.421255" lon="10.78881"><ele>130.0</ele><time>2026-05-01T10:45:22.618Z</time></trkpt><trkpt lat="45.4211917" lon="10.788745"><ele>130.0</ele><time>2026-05-01T10:45:23.613Z</time></trkpt><trkpt lat="45.4211233" lon="10.788675"><ele>130.0</ele><time>2026-05-01T10:45:24.61Z</time></trkpt><trkpt lat="45.4210483" lon="10.7886017"><ele>130.0</ele><time>2026-05-01T10:45:25.617Z</time></trkpt><trkpt lat="45.4209683" lon="10.78853"><ele>129.8</ele><time>2026-05-01T10:45:26.609Z</time></trkpt><trkpt lat="45.420875" lon="10.7884333"><ele>129.6</ele><time>2026-05-01T10:45:27.609Z</time></trkpt><trkpt lat="45.420805" lon="10.7883567"><ele>129.4</ele><time>2026-05-01T10:45:28.621Z</time></trkpt><trkpt lat="45.4207217" lon="10.7882533"><ele>129.2</ele><time>2026-05-01T10:45:29.618Z</time></trkpt><trkpt lat="45.42064" lon="10.7881517"><ele>129.0</ele><time>2026-05-01T10:45:30.61Z</time></trkpt><trkpt lat="45.4205417" lon="10.7880583"><ele>128.0</ele><time>2026-05-01T10:45:31.631Z</time></trkpt><trkpt lat="45.420455" lon="10.7879517"><ele>127.0</ele><time>2026-05-01T10:45:32.616Z</time></trkpt><trkpt lat="45.4203717" lon="10.78782"><ele>126.0</ele><time>2026-05-01T10:45:33.62Z</time></trkpt><trkpt lat="45.4202783" lon="10.7876767"><ele>125.0</ele><time>2026-05-01T10:45:34.623Z</time></trkpt><trkpt lat="45.4201867" lon="10.78754"><ele>125.0</ele><time>2026-05-01T10:45:35.617Z</time></trkpt><trkpt lat="45.4201083" lon="10.7874233"><ele>125.0</ele><time>2026-05-01T10:45:36.617Z</time></trkpt><trkpt lat="45.420035" lon="10.7873267"><ele>125.0</ele><time>2026-05-01T10:45:37.618Z</time></trkpt><trkpt lat="45.41996" lon="10.7872517"><ele>125.0</ele><time>2026-05-01T10:45:38.626Z</time></trkpt><trkpt lat="45.41988" lon="10.78719"><ele>125.0</ele><time>2026-05-01T10:45:39.628Z</time></trkpt><trkpt lat="45.41979" lon="10.787135"><ele>125.0</ele><time>2026-05-01T10:45:40.621Z</time></trkpt><trkpt lat="45.4196917" lon="10.7870817"><ele>125.0</ele><time>2026-05-01T10:45:41.618Z</time></trkpt><trkpt lat="45.4195917" lon="10.78704"><ele>125.0</ele><time>2026-05-01T10:45:42.613Z</time></trkpt><trkpt lat="45.419505" lon="10.7869967"><ele>125.0</ele><time>2026-05-01T10:45:43.616Z</time></trkpt><trkpt lat="45.4194317" lon="10.7869633"><ele>125.0</ele><time>2026-05-01T10:45:44.617Z</time></trkpt><trkpt lat="45.4193233" lon="10.7869233"><ele>124.66666666666666</ele><time>2026-05-01T10:45:46.628Z</time></trkpt><trkpt lat="45.4192383" lon="10.7869867"><ele>124.33333333333333</ele><time>2026-05-01T10:45:48.62Z</time></trkpt><trkpt lat="45.419215" lon="10.7871"><ele>124.0</ele><time>2026-05-01T10:45:49.618Z</time></trkpt><trkpt lat="45.4191967" lon="10.7872117"><ele>123.66666666666666</ele><time>2026-05-01T10:45:50.613Z</time></trkpt><trkpt lat="45.4191783" lon="10.7873117"><ele>123.33333333333333</ele><time>2026-05-01T10:45:51.623Z</time></trkpt><trkpt lat="45.419155" lon="10.78743"><ele>123.0</ele><time>2026-05-01T10:45:53.621Z</time></trkpt><trkpt lat="45.4190533" lon="10.7874517"><ele>123.0</ele><time>2026-05-01T10:45:56.613Z</time></trkpt><trkpt lat="45.4189833" lon="10.7874283"><ele>123.00000000000001</ele><time>2026-05-01T10:45:57.619Z</time></trkpt><trkpt lat="45.4188983" lon="10.787385"><ele>123.00000000000001</ele><time>2026-05-01T10:45:58.61Z</time></trkpt><trkpt lat="45.4188133" lon="10.7873383"><ele>123.0</ele><time>2026-05-01T10:45:59.619Z</time></trkpt><trkpt lat="45.4187217" lon="10.7872783"><ele>123.0</ele><time>2026-05-01T10:46:00.61Z</time></trkpt><trkpt lat="45.41863" lon="10.7871767"><ele>123.5</ele><time>2026-05-01T10:46:01.633Z</time></trkpt><trkpt lat="45.4185217" lon="10.7870983"><ele>124.0</ele><time>2026-05-01T10:46:02.601Z</time></trkpt><trkpt lat="45.4184083" lon="10.7870167"><ele>124.5</ele><time>2026-05-01T10:46:03.612Z</time></trkpt><trkpt lat="45.4182817" lon="10.78693"><ele>125.0</ele><time>2026-05-01T10:46:04.605Z</time></trkpt><trkpt lat="45.41814" lon="10.7868483"><ele>125.0</ele><time>2026-05-01T10:46:05.609Z</time></trkpt><trkpt lat="45.4179867" lon="10.7867583"><ele>125.0</ele><time>2026-05-01T10:46:06.611Z</time></trkpt><trkpt lat="45.417845" lon="10.7866417"><ele>125.0</ele><time>2026-05-01T10:46:07.624Z</time></trkpt><trkpt lat="45.4176967" lon="10.7865567"><ele>125.0</ele><time>2026-05-01T10:46:08.603Z</time></trkpt><trkpt lat="45.4175267" lon="10.786485"><ele>125.0</ele><time>2026-05-01T10:46:09.619Z</time></trkpt><trkpt lat="45.4173617" lon="10.7864117"><ele>125.0</ele><time>2026-05-01T10:46:10.613Z</time></trkpt><trkpt lat="45.41723" lon="10.7863167"><ele>125.0</ele><time>2026-05-01T10:46:11.615Z</time></trkpt><trkpt lat="45.4171017" lon="10.7862367"><ele>125.0</ele><time>2026-05-01T10:46:12.611Z</time></trkpt><trkpt lat="45.4169733" lon="10.7861367"><ele>125.0</ele><time>2026-05-01T10:46:13.654Z</time></trkpt><trkpt lat="45.4168383" lon="10.7859683"><ele>125.0</ele><time>2026-05-01T10:46:14.604Z</time></trkpt><trkpt lat="45.41668" lon="10.7859033"><ele>125.0</ele><time>2026-05-01T10:46:15.611Z</time></trkpt><trkpt lat="45.416525" lon="10.7858067"><ele>125.0</ele><time>2026-05-01T10:46:16.609Z</time></trkpt><trkpt lat="45.4163683" lon="10.7857"><ele>124.0</ele><time>2026-05-01T10:46:17.61Z</time></trkpt><trkpt lat="45.4162417" lon="10.7856083"><ele>123.0</ele><time>2026-05-01T10:46:18.619Z</time></trkpt><trkpt lat="45.4161167" lon="10.7855183"><ele>122.0</ele><time>2026-05-01T10:46:19.621Z</time></trkpt><trkpt lat="45.4159617" lon="10.785445"><ele>121.0</ele><time>2026-05-01T10:46:20.606Z</time></trkpt><trkpt lat="45.415835" lon="10.78537"><ele>121.0</ele><time>2026-05-01T10:46:21.613Z</time></trkpt><trkpt lat="45.41569" lon="10.7852933"><ele>121.0</ele><time>2026-05-01T10:46:22.61Z</time></trkpt><trkpt lat="45.415565" lon="10.78519"><ele>121.0</ele><time>2026-05-01T10:46:23.614Z</time></trkpt><trkpt lat="45.41541" lon="10.785075"><ele>121.33333333333334</ele><time>2026-05-01T10:46:24.603Z</time></trkpt><trkpt lat="45.41527" lon="10.7849533"><ele>121.66666666666666</ele><time>2026-05-01T10:46:25.613Z</time></trkpt><trkpt lat="45.4151117" lon="10.7848433"><ele>122.0</ele><time>2026-05-01T10:46:26.608Z</time></trkpt><trkpt lat="45.414965" lon="10.7847583"><ele>122.0</ele><time>2026-05-01T10:46:27.602Z</time></trkpt><trkpt lat="45.41479" lon="10.784655"><ele>122.0</ele><time>2026-05-01T10:46:28.617Z</time></trkpt><trkpt lat="45.4146283" lon="10.78456"><ele>122.0</ele><time>2026-05-01T10:46:29.611Z</time></trkpt><trkpt lat="45.4144783" lon="10.7844617"><ele>122.0</ele><time>2026-05-01T10:46:30.622Z</time></trkpt><trkpt lat="45.4143117" lon="10.784375"><ele>122.0</ele><time>2026-05-01T10:46:31.625Z</time></trkpt><trkpt lat="45.414185" lon="10.78427"><ele>122.0</ele><time>2026-05-01T10:46:32.611Z</time></trkpt><trkpt lat="45.414085" lon="10.7842317"><ele>122.0</ele><time>2026-05-01T10:46:33.614Z</time></trkpt><trkpt lat="45.4139867" lon="10.7841083"><ele>122.75</ele><time>2026-05-01T10:46:35.614Z</time></trkpt><trkpt lat="45.4139067" lon="10.784045"><ele>123.5</ele><time>2026-05-01T10:46:36.607Z</time></trkpt><trkpt lat="45.4138017" lon="10.7839683"><ele>124.25</ele><time>2026-05-01T10:46:37.61Z</time></trkpt><trkpt lat="45.4136667" lon="10.7838967"><ele>125.0</ele><time>2026-05-01T10:46:38.609Z</time></trkpt><trkpt lat="45.4135217" lon="10.7838083"><ele>125.0</ele><time>2026-05-01T10:46:39.614Z</time></trkpt><trkpt lat="45.4133733" lon="10.7837017"><ele>125.0</ele><time>2026-05-01T10:46:40.617Z</time></trkpt><trkpt lat="45.4132017" lon="10.783605"><ele>125.0</ele><time>2026-05-01T10:46:41.619Z</time></trkpt><trkpt lat="45.4130183" lon="10.7834933"><ele>125.0</ele><time>2026-05-01T10:46:42.615Z</time></trkpt><trkpt lat="45.4128267" lon="10.7833683"><ele>125.0</ele><time>2026-05-01T10:46:43.61Z</time></trkpt><trkpt lat="45.41264" lon="10.783225"><ele>125.0</ele><time>2026-05-01T10:46:44.612Z</time></trkpt><trkpt lat="45.4124767" lon="10.78311"><ele>125.0</ele><time>2026-05-01T10:46:45.615Z</time></trkpt><trkpt lat="45.412345" lon="10.78301"><ele>125.0</ele><time>2026-05-01T10:46:46.616Z</time></trkpt><trkpt lat="45.4122217" lon="10.7829383"><ele>125.0</ele><time>2026-05-01T10:46:47.61Z</time></trkpt><trkpt lat="45.41213" lon="10.7829"><ele>125.0</ele><time>2026-05-01T10:46:48.612Z</time></trkpt><trkpt lat="45.4120617" lon="10.7828683"><ele>124.99999999999999</ele><time>2026-05-01T10:46:49.612Z</time></trkpt><trkpt lat="45.4120033" lon="10.7828333"><ele>125.0</ele><time>2026-05-01T10:46:50.615Z</time></trkpt><trkpt lat="45.4119383" lon="10.7827133"><ele>125.0</ele><time>2026-05-01T10:46:52.621Z</time></trkpt><trkpt lat="45.4119283" lon="10.7825617"><ele>125.0</ele><time>2026-05-01T10:46:54.619Z</time></trkpt><trkpt lat="45.411935" lon="10.7824717"><ele>124.99999999999999</ele><time>2026-05-01T10:46:55.605Z</time></trkpt><trkpt lat="45.4119433" lon="10.7823767"><ele>125.0</ele><time>2026-05-01T10:46:56.615Z</time></trkpt><trkpt lat="45.4119467" lon="10.7822817"><ele>125.99999999999999</ele><time>2026-05-01T10:46:57.622Z</time></trkpt><trkpt lat="45.4119467" lon="10.7821883"><ele>127.0</ele><time>2026-05-01T10:46:58.63Z</time></trkpt><trkpt lat="45.4119517" lon="10.7820967"><ele>128.0</ele><time>2026-05-01T10:46:59.619Z</time></trkpt><trkpt lat="45.41196" lon="10.7819483"><ele>129.0</ele><time>2026-05-01T10:47:01.616Z</time></trkpt><trkpt lat="45.4119633" lon="10.78185"><ele>130.0</ele><time>2026-05-01T10:47:03.619Z</time></trkpt><trkpt lat="45.41198" lon="10.7817483"><ele>131.0</ele><time>2026-05-01T10:47:05.608Z</time></trkpt><trkpt lat="45.4119933" lon="10.781605"><ele>132.6</ele><time>2026-05-01T10:47:07.618Z</time></trkpt><trkpt lat="45.4119567" lon="10.7814667"><ele>134.2</ele><time>2026-05-01T10:47:09.611Z</time></trkpt><trkpt lat="45.411905" lon="10.7814017"><ele>135.8</ele><time>2026-05-01T10:47:10.611Z</time></trkpt><trkpt lat="45.4118317" lon="10.7813183"><ele>137.4</ele><time>2026-05-01T10:47:11.612Z</time></trkpt><trkpt lat="45.4117533" lon="10.781215"><ele>139.0</ele><time>2026-05-01T10:47:12.61Z</time></trkpt><trkpt lat="45.411655" lon="10.781095"><ele>138.4</ele><time>2026-05-01T10:47:13.613Z</time></trkpt><trkpt lat="45.4115767" lon="10.7809567"><ele>137.8</ele><time>2026-05-01T10:47:14.641Z</time></trkpt><trkpt lat="45.41152" lon="10.780825"><ele>137.2</ele><time>2026-05-01T10:47:15.618Z</time></trkpt><trkpt lat="45.411465" lon="10.7807317"><ele>136.6</ele><time>2026-05-01T10:47:16.618Z</time></trkpt><trkpt lat="45.4114233" lon="10.7806433"><ele>136.0</ele><time>2026-05-01T10:47:17.612Z</time></trkpt><trkpt lat="45.411355" lon="10.7805467"><ele>136.5</ele><time>2026-05-01T10:47:19.623Z</time></trkpt><trkpt lat="45.4112667" lon="10.780575"><ele>137.0</ele><time>2026-05-01T10:47:21.615Z</time></trkpt><trkpt lat="45.411205" lon="10.780595"><ele>137.5</ele><time>2026-05-01T10:47:22.61Z</time></trkpt><trkpt lat="45.4111217" lon="10.7806117"><ele>138.0</ele><time>2026-05-01T10:47:23.611Z</time></trkpt><trkpt lat="45.4110333" lon="10.7806217"><ele>138.5</ele><time>2026-05-01T10:47:24.607Z</time></trkpt><trkpt lat="45.4109417" lon="10.78061"><ele>139.0</ele><time>2026-05-01T10:47:25.604Z</time></trkpt><trkpt lat="45.4108533" lon="10.7805783"><ele>139.0</ele><time>2026-05-01T10:47:26.61Z</time></trkpt><trkpt lat="45.4107667" lon="10.7805267"><ele>139.0</ele><time>2026-05-01T10:47:27.609Z</time></trkpt><trkpt lat="45.4106817" lon="10.7804567"><ele>139.0</ele><time>2026-05-01T10:47:28.606Z</time></trkpt><trkpt lat="45.4105933" lon="10.78038"><ele>139.0</ele><time>2026-05-01T10:47:29.619Z</time></trkpt><trkpt lat="45.4104983" lon="10.7802883"><ele>139.0</ele><time>2026-05-01T10:47:30.615Z</time></trkpt><trkpt lat="45.4103933" lon="10.780165"><ele>137.8</ele><time>2026-05-01T10:47:31.612Z</time></trkpt><trkpt lat="45.410295" lon="10.7800683"><ele>136.60000000000002</ele><time>2026-05-01T10:47:32.616Z</time></trkpt><trkpt lat="45.4102033" lon="10.7799533"><ele>135.4</ele><time>2026-05-01T10:47:33.616Z</time></trkpt><trkpt lat="45.4101467" lon="10.77986"><ele>134.20000000000002</ele><time>2026-05-01T10:47:34.62Z</time></trkpt><trkpt lat="45.41006" lon="10.7797767"><ele>133.0</ele><time>2026-05-01T10:47:35.618Z</time></trkpt><trkpt lat="45.4099833" lon="10.7796867"><ele>133.0</ele><time>2026-05-01T10:47:36.628Z</time></trkpt><trkpt lat="45.4098817" lon="10.7796433"><ele>133.0</ele><time>2026-05-01T10:47:37.623Z</time></trkpt><trkpt lat="45.4097783" lon="10.7796"><ele>133.0</ele><time>2026-05-01T10:47:38.61Z</time></trkpt><trkpt lat="45.4096667" lon="10.7795683"><ele>133.0</ele><time>2026-05-01T10:47:39.62Z</time></trkpt><trkpt lat="45.4095583" lon="10.779505"><ele>133.0</ele><time>2026-05-01T10:47:40.615Z</time></trkpt><trkpt lat="45.4094483" lon="10.7794417"><ele>133.0</ele><time>2026-05-01T10:47:41.61Z</time></trkpt><trkpt lat="45.409335" lon="10.7793683"><ele>133.0</ele><time>2026-05-01T10:47:42.612Z</time></trkpt><trkpt lat="45.409215" lon="10.7792783"><ele>133.0</ele><time>2026-05-01T10:47:43.619Z</time></trkpt><trkpt lat="45.4090967" lon="10.7791967"><ele>133.0</ele><time>2026-05-01T10:47:44.618Z</time></trkpt><trkpt lat="45.408985" lon="10.7791017"><ele>133.0</ele><time>2026-05-01T10:47:45.625Z</time></trkpt><trkpt lat="45.4088783" lon="10.7790117"><ele>133.0</ele><time>2026-05-01T10:47:46.613Z</time></trkpt><trkpt lat="45.4087733" lon="10.77892"><ele>133.0</ele><time>2026-05-01T10:47:47.608Z</time></trkpt><trkpt lat="45.4086767" lon="10.7788583"><ele>133.0</ele><time>2026-05-01T10:47:48.618Z</time></trkpt><trkpt lat="45.408605" lon="10.77878"><ele>133.0</ele><time>2026-05-01T10:47:49.626Z</time></trkpt><trkpt lat="45.408515" lon="10.7786983"><ele>133.0</ele><time>2026-05-01T10:47:51.608Z</time></trkpt><trkpt lat="45.4084183" lon="10.7787717"><ele>133.0</ele><time>2026-05-01T10:47:54.613Z</time></trkpt><trkpt lat="45.408375" lon="10.778855"><ele>133.0</ele><time>2026-05-01T10:47:55.617Z</time></trkpt><trkpt lat="45.408335" lon="10.7789483"><ele>133.0</ele><time>2026-05-01T10:47:56.617Z</time></trkpt><trkpt lat="45.4082933" lon="10.7790383"><ele>133.0</ele><time>2026-05-01T10:47:57.601Z</time></trkpt><trkpt lat="45.40824" lon="10.7791333"><ele>133.0</ele><time>2026-05-01T10:47:58.619Z</time></trkpt><trkpt lat="45.408195" lon="10.7792183"><ele>133.0</ele><time>2026-05-01T10:47:59.603Z</time></trkpt><trkpt lat="45.4081483" lon="10.7793117"><ele>133.0</ele><time>2026-05-01T10:48:00.602Z</time></trkpt><trkpt lat="45.4081017" lon="10.7794067"><ele>133.0</ele><time>2026-05-01T10:48:01.61Z</time></trkpt><trkpt lat="45.4080567" lon="10.7795"><ele>133.0</ele><time>2026-05-01T10:48:02.618Z</time></trkpt><trkpt lat="45.4080167" lon="10.77958"><ele>133.0</ele><time>2026-05-01T10:48:03.609Z</time></trkpt><trkpt lat="45.4079767" lon="10.779655"><ele>133.0</ele><time>2026-05-01T10:48:04.61Z</time></trkpt><trkpt lat="45.4079" lon="10.7797517"><ele>133.0</ele><time>2026-05-01T10:48:06.609Z</time></trkpt><trkpt lat="45.407835" lon="10.7797817"><ele>133.0</ele><time>2026-05-01T10:48:09.613Z</time></trkpt><trkpt lat="45.4077817" lon="10.7797067"><ele>133.0</ele><time>2026-05-01T10:48:11.628Z</time></trkpt><trkpt lat="45.4077133" lon="10.7795817"><ele>133.0</ele><time>2026-05-01T10:48:13.616Z</time></trkpt><trkpt lat="45.4076517" lon="10.77947"><ele>133.0</ele><time>2026-05-01T10:48:15.614Z</time></trkpt><trkpt lat="45.4075967" lon="10.77935"><ele>133.16666666666669</ele><time>2026-05-01T10:48:17.609Z</time></trkpt><trkpt lat="45.4075333" lon="10.7791917"><ele>133.33333333333334</ele><time>2026-05-01T10:48:19.604Z</time></trkpt><trkpt lat="45.407495" lon="10.7791017"><ele>133.5</ele><time>2026-05-01T10:48:20.616Z</time></trkpt><trkpt lat="45.4074533" lon="10.7790133"><ele>133.66666666666666</ele><time>2026-05-01T10:48:21.614Z</time></trkpt><trkpt lat="45.4074133" lon="10.77892"><ele>133.83333333333331</ele><time>2026-05-01T10:48:22.615Z</time></trkpt><trkpt lat="45.4073767" lon="10.7788367"><ele>134.0</ele><time>2026-05-01T10:48:23.611Z</time></trkpt><trkpt lat="45.4073417" lon="10.7787583"><ele>134.0</ele><time>2026-05-01T10:48:24.609Z</time></trkpt><trkpt lat="45.407295" lon="10.778615"><ele>134.0</ele><time>2026-05-01T10:48:26.616Z</time></trkpt><trkpt lat="45.4072467" lon="10.7784867"><ele>134.0</ele><time>2026-05-01T10:48:28.613Z</time></trkpt><trkpt lat="45.4071283" lon="10.7784233"><ele>134.0</ele><time>2026-05-01T10:48:30.623Z</time></trkpt><trkpt lat="45.4070667" lon="10.7783833"><ele>134.0</ele><time>2026-05-01T10:48:31.612Z</time></trkpt><trkpt lat="45.4070017" lon="10.7783383"><ele>133.4</ele><time>2026-05-01T10:48:32.608Z</time></trkpt><trkpt lat="45.4069317" lon="10.7782933"><ele>132.8</ele><time>2026-05-01T10:48:33.608Z</time></trkpt><trkpt lat="45.406845" lon="10.7782367"><ele>132.2</ele><time>2026-05-01T10:48:34.609Z</time></trkpt><trkpt lat="45.40676" lon="10.7781783"><ele>131.6</ele><time>2026-05-01T10:48:35.608Z</time></trkpt><trkpt lat="45.4066783" lon="10.7781283"><ele>131.0</ele><time>2026-05-01T10:48:36.61Z</time></trkpt><trkpt lat="45.4065833" lon="10.7780967"><ele>131.0</ele><time>2026-05-01T10:48:37.611Z</time></trkpt><trkpt lat="45.4064667" lon="10.7780867"><ele>131.0</ele><time>2026-05-01T10:48:38.613Z</time></trkpt><trkpt lat="45.4063433" lon="10.7781133"><ele>131.0</ele><time>2026-05-01T10:48:39.611Z</time></trkpt><trkpt lat="45.4062317" lon="10.7781283"><ele>131.0</ele><time>2026-05-01T10:48:40.611Z</time></trkpt><trkpt lat="45.4061167" lon="10.7781267"><ele>131.0</ele><time>2026-05-01T10:48:41.61Z</time></trkpt><trkpt lat="45.4060017" lon="10.778125"><ele>131.0</ele><time>2026-05-01T10:48:42.605Z</time></trkpt><trkpt lat="45.405885" lon="10.7781217"><ele>131.0</ele><time>2026-05-01T10:48:43.607Z</time></trkpt><trkpt lat="45.4057667" lon="10.7781333"><ele>131.0</ele><time>2026-05-01T10:48:44.601Z</time></trkpt><trkpt lat="45.4056467" lon="10.778165"><ele>131.0</ele><time>2026-05-01T10:48:45.619Z</time></trkpt><trkpt lat="45.4055267" lon="10.7782317"><ele>131.0</ele><time>2026-05-01T10:48:46.612Z</time></trkpt><trkpt lat="45.405405" lon="10.7783"><ele>131.0</ele><time>2026-05-01T10:48:47.611Z</time></trkpt><trkpt lat="45.4052683" lon="10.7783767"><ele>131.0</ele><time>2026-05-01T10:48:48.607Z</time></trkpt><trkpt lat="45.4051267" lon="10.7784117"><ele>131.0</ele><time>2026-05-01T10:48:49.609Z</time></trkpt><trkpt lat="45.4049883" lon="10.7784267"><ele>131.0</ele><time>2026-05-01T10:48:50.613Z</time></trkpt><trkpt lat="45.40485" lon="10.7784333"><ele>131.0</ele><time>2026-05-01T10:48:51.611Z</time></trkpt><trkpt lat="45.4047183" lon="10.7783983"><ele>131.0</ele><time>2026-05-01T10:48:52.63Z</time></trkpt><trkpt lat="45.4046083" lon="10.77835"><ele>131.0</ele><time>2026-05-01T10:48:53.617Z</time></trkpt><trkpt lat="45.4045233" lon="10.7782333"><ele>131.0</ele><time>2026-05-01T10:48:54.608Z</time></trkpt><trkpt lat="45.4044833" lon="10.7780317"><ele>131.0</ele><time>2026-05-01T10:48:55.604Z</time></trkpt><trkpt lat="45.4043617" lon="10.77791"><ele>131.0</ele><time>2026-05-01T10:48:56.609Z</time></trkpt><trkpt lat="45.4042767" lon="10.7777767"><ele>130.75</ele><time>2026-05-01T10:48:57.602Z</time></trkpt><trkpt lat="45.40417" lon="10.77767"><ele>130.5</ele><time>2026-05-01T10:48:58.611Z</time></trkpt><trkpt lat="45.4040483" lon="10.7776117"><ele>130.25</ele><time>2026-05-01T10:48:59.608Z</time></trkpt><trkpt lat="45.4038983" lon="10.7776083"><ele>130.0</ele><time>2026-05-01T10:49:00.618Z</time></trkpt><trkpt lat="45.4037183" lon="10.7776067"><ele>130.0</ele><time>2026-05-01T10:49:01.605Z</time></trkpt><trkpt lat="45.403545" lon="10.7775867"><ele>130.0</ele><time>2026-05-01T10:49:02.61Z</time></trkpt><trkpt lat="45.4033783" lon="10.777585"><ele>130.0</ele><time>2026-05-01T10:49:03.603Z</time></trkpt><trkpt lat="45.4032133" lon="10.777565"><ele>130.0</ele><time>2026-05-01T10:49:04.6Z</time></trkpt><trkpt lat="45.4030483" lon="10.777555"><ele>130.0</ele><time>2026-05-01T10:49:05.613Z</time></trkpt><trkpt lat="45.4029033" lon="10.77751"><ele>130.0</ele><time>2026-05-01T10:49:06.617Z</time></trkpt><trkpt lat="45.4027583" lon="10.777475"><ele>130.6</ele><time>2026-05-01T10:49:07.609Z</time></trkpt><trkpt lat="45.402665" lon="10.7774367"><ele>131.2</ele><time>2026-05-01T10:49:08.597Z</time></trkpt><trkpt lat="45.4025567" lon="10.777395"><ele>131.8</ele><time>2026-05-01T10:49:09.608Z</time></trkpt><trkpt lat="45.4024617" lon="10.7773383"><ele>132.4</ele><time>2026-05-01T10:49:10.601Z</time></trkpt><trkpt lat="45.4023733" lon="10.7772783"><ele>133.0</ele><time>2026-05-01T10:49:11.623Z</time></trkpt><trkpt lat="45.4023017" lon="10.7772133"><ele>133.0</ele><time>2026-05-01T10:49:12.612Z</time></trkpt><trkpt lat="45.4022367" lon="10.77714"><ele>133.0</ele><time>2026-05-01T10:49:13.607Z</time></trkpt><trkpt lat="45.4021517" lon="10.7770667"><ele>133.0</ele><time>2026-05-01T10:49:14.616Z</time></trkpt><trkpt lat="45.40207" lon="10.7769733"><ele>133.0</ele><time>2026-05-01T10:49:15.624Z</time></trkpt><trkpt lat="45.4019867" lon="10.7768817"><ele>133.0</ele><time>2026-05-01T10:49:16.598Z</time></trkpt><trkpt lat="45.4018967" lon="10.7767517"><ele>132.25</ele><time>2026-05-01T10:49:17.615Z</time></trkpt><trkpt lat="45.40179" lon="10.7766067"><ele>131.5</ele><time>2026-05-01T10:49:18.608Z</time></trkpt><trkpt lat="45.4016867" lon="10.7764667"><ele>130.75</ele><time>2026-05-01T10:49:19.609Z</time></trkpt><trkpt lat="45.4016233" lon="10.7763183"><ele>130.0</ele><time>2026-05-01T10:49:20.604Z</time></trkpt><trkpt lat="45.4015083" lon="10.7761783"><ele>127.33333333333334</ele><time>2026-05-01T10:49:21.616Z</time></trkpt><trkpt lat="45.4013883" lon="10.776015"><ele>124.66666666666666</ele><time>2026-05-01T10:49:22.608Z</time></trkpt><trkpt lat="45.4012633" lon="10.775855"><ele>122.0</ele><time>2026-05-01T10:49:23.608Z</time></trkpt><trkpt lat="45.4011333" lon="10.7757"><ele>121.66666666666666</ele><time>2026-05-01T10:49:24.608Z</time></trkpt><trkpt lat="45.401005" lon="10.7755333"><ele>121.33333333333334</ele><time>2026-05-01T10:49:25.611Z</time></trkpt><trkpt lat="45.40084" lon="10.77543"><ele>121.0</ele><time>2026-05-01T10:49:26.6Z</time></trkpt><trkpt lat="45.4006833" lon="10.7753133"><ele>121.0</ele><time>2026-05-01T10:49:27.601Z</time></trkpt><trkpt lat="45.40057" lon="10.7751917"><ele>121.0</ele><time>2026-05-01T10:49:28.606Z</time></trkpt><trkpt lat="45.400475" lon="10.7750667"><ele>121.0</ele><time>2026-05-01T10:49:29.608Z</time></trkpt><trkpt lat="45.400385" lon="10.77493"><ele>121.0</ele><time>2026-05-01T10:49:30.612Z</time></trkpt><trkpt lat="45.400325" lon="10.7747783"><ele>120.4</ele><time>2026-05-01T10:49:31.611Z</time></trkpt><trkpt lat="45.4002467" lon="10.7746683"><ele>119.8</ele><time>2026-05-01T10:49:32.608Z</time></trkpt><trkpt lat="45.40019" lon="10.774555"><ele>119.20000000000002</ele><time>2026-05-01T10:49:33.608Z</time></trkpt><trkpt lat="45.4001283" lon="10.774425"><ele>118.60000000000001</ele><time>2026-05-01T10:49:34.609Z</time></trkpt><trkpt lat="45.4000617" lon="10.7743083"><ele>118.0</ele><time>2026-05-01T10:49:35.607Z</time></trkpt><trkpt lat="45.3999817" lon="10.7741783"><ele>117.4</ele><time>2026-05-01T10:49:36.602Z</time></trkpt><trkpt lat="45.3999417" lon="10.774045"><ele>116.80000000000001</ele><time>2026-05-01T10:49:37.608Z</time></trkpt><trkpt lat="45.3999117" lon="10.7739017"><ele>116.2</ele><time>2026-05-01T10:49:38.601Z</time></trkpt><trkpt lat="45.399865" lon="10.773785"><ele>115.6</ele><time>2026-05-01T10:49:39.602Z</time></trkpt><trkpt lat="45.3998167" lon="10.7736233"><ele>115.0</ele><time>2026-05-01T10:49:40.603Z</time></trkpt><trkpt lat="45.3997783" lon="10.7735383"><ele>115.50000000000001</ele><time>2026-05-01T10:49:41.602Z</time></trkpt><trkpt lat="45.3997233" lon="10.7734733"><ele>116.0</ele><time>2026-05-01T10:49:42.6Z</time></trkpt><trkpt lat="45.3996717" lon="10.7734183"><ele>116.5</ele><time>2026-05-01T10:49:43.608Z</time></trkpt><trkpt lat="45.39959" lon="10.7734017"><ele>117.0</ele><time>2026-05-01T10:49:44.601Z</time></trkpt><trkpt lat="45.3994767" lon="10.7733717"><ele>117.50000000000001</ele><time>2026-05-01T10:49:45.607Z</time></trkpt><trkpt lat="45.39937" lon="10.7733383"><ele>118.0</ele><time>2026-05-01T10:49:46.603Z</time></trkpt><trkpt lat="45.3992567" lon="10.7733083"><ele>118.0</ele><time>2026-05-01T10:49:47.611Z</time></trkpt><trkpt lat="45.3991567" lon="10.7732383"><ele>118.0</ele><time>2026-05-01T10:49:48.598Z</time></trkpt><trkpt lat="45.3990683" lon="10.773175"><ele>118.0</ele><time>2026-05-01T10:49:49.602Z</time></trkpt><trkpt lat="45.39896" lon="10.7730917"><ele>118.0</ele><time>2026-05-01T10:49:50.609Z</time></trkpt><trkpt lat="45.3988183" lon="10.77302"><ele>117.25</ele><time>2026-05-01T10:49:51.611Z</time></trkpt><trkpt lat="45.398715" lon="10.7729683"><ele>116.5</ele><time>2026-05-01T10:49:52.6Z</time></trkpt><trkpt lat="45.39861" lon="10.772845"><ele>115.75</ele><time>2026-05-01T10:49:53.61Z</time></trkpt><trkpt lat="45.3985017" lon="10.7726883"><ele>115.0</ele><time>2026-05-01T10:49:54.609Z</time></trkpt><trkpt lat="45.3984117" lon="10.7725233"><ele>115.0</ele><time>2026-05-01T10:49:55.612Z</time></trkpt><trkpt lat="45.3983067" lon="10.7723583"><ele>115.0</ele><time>2026-05-01T10:49:56.61Z</time></trkpt><trkpt lat="45.3981983" lon="10.7722667"><ele>115.0</ele><time>2026-05-01T10:49:57.61Z</time></trkpt><trkpt lat="45.3980983" lon="10.7721867"><ele>115.0</ele><time>2026-05-01T10:49:58.608Z</time></trkpt><trkpt lat="45.3979983" lon="10.7721183"><ele>114.0</ele><time>2026-05-01T10:49:59.607Z</time></trkpt><trkpt lat="45.39789" lon="10.77205"><ele>113.0</ele><time>2026-05-01T10:50:00.606Z</time></trkpt><trkpt lat="45.39778" lon="10.7719817"><ele>112.0</ele><time>2026-05-01T10:50:01.602Z</time></trkpt><trkpt lat="45.3976717" lon="10.771935"><ele>111.0</ele><time>2026-05-01T10:50:02.611Z</time></trkpt><trkpt lat="45.397555" lon="10.771865"><ele>111.25</ele><time>2026-05-01T10:50:03.605Z</time></trkpt><trkpt lat="45.3974433" lon="10.7717933"><ele>111.5</ele><time>2026-05-01T10:50:04.608Z</time></trkpt><trkpt lat="45.3973283" lon="10.7716917"><ele>111.75</ele><time>2026-05-01T10:50:05.6Z</time></trkpt><trkpt lat="45.3972333" lon="10.7715867"><ele>112.0</ele><time>2026-05-01T10:50:06.609Z</time></trkpt><trkpt lat="45.3971167" lon="10.7714617"><ele>111.75</ele><time>2026-05-01T10:50:07.603Z</time></trkpt><trkpt lat="45.3970117" lon="10.7713383"><ele>111.5</ele><time>2026-05-01T10:50:08.605Z</time></trkpt><trkpt lat="45.396915" lon="10.7711983"><ele>111.25</ele><time>2026-05-01T10:50:09.606Z</time></trkpt><trkpt lat="45.396825" lon="10.7710467"><ele>111.0</ele><time>2026-05-01T10:50:10.603Z</time></trkpt><trkpt lat="45.396725" lon="10.7708933"><ele>111.0</ele><time>2026-05-01T10:50:11.606Z</time></trkpt><trkpt lat="45.3966367" lon="10.7707117"><ele>111.0</ele><time>2026-05-01T10:50:12.602Z</time></trkpt><trkpt lat="45.3965117" lon="10.77056"><ele>111.0</ele><time>2026-05-01T10:50:13.604Z</time></trkpt><trkpt lat="45.3964217" lon="10.7703983"><ele>111.66666666666666</ele><time>2026-05-01T10:50:14.607Z</time></trkpt><trkpt lat="45.3962933" lon="10.7702317"><ele>112.33333333333333</ele><time>2026-05-01T10:50:15.611Z</time></trkpt><trkpt lat="45.396165" lon="10.7700467"><ele>113.0</ele><time>2026-05-01T10:50:16.631Z</time></trkpt><trkpt lat="45.3960433" lon="10.7698883"><ele>113.0</ele><time>2026-05-01T10:50:17.61Z</time></trkpt><trkpt lat="45.39591" lon="10.7697217"><ele>113.0</ele><time>2026-05-01T10:50:18.611Z</time></trkpt><trkpt lat="45.3957933" lon="10.7695467"><ele>113.0</ele><time>2026-05-01T10:50:19.609Z</time></trkpt><trkpt lat="45.3956717" lon="10.7693683"><ele>110.66666666666666</ele><time>2026-05-01T10:50:20.61Z</time></trkpt><trkpt lat="45.3955767" lon="10.7691833"><ele>108.33333333333334</ele><time>2026-05-01T10:50:21.599Z</time></trkpt><trkpt lat="45.3954767" lon="10.769005"><ele>106.0</ele><time>2026-05-01T10:50:22.597Z</time></trkpt><trkpt lat="45.395355" lon="10.7687967"><ele>106.0</ele><time>2026-05-01T10:50:23.606Z</time></trkpt><trkpt lat="45.395245" lon="10.768595"><ele>106.0</ele><time>2026-05-01T10:50:24.605Z</time></trkpt><trkpt lat="45.395125" lon="10.7683933"><ele>106.0</ele><time>2026-05-01T10:50:25.604Z</time></trkpt><trkpt lat="45.3950117" lon="10.7682117"><ele>103.66666666666667</ele><time>2026-05-01T10:50:26.603Z</time></trkpt><trkpt lat="45.394915" lon="10.7680283"><ele>101.33333333333334</ele><time>2026-05-01T10:50:27.616Z</time></trkpt><trkpt lat="45.3948217" lon="10.7678667"><ele>99.0</ele><time>2026-05-01T10:50:28.6Z</time></trkpt><trkpt lat="45.394735" lon="10.7676933"><ele>98.0</ele><time>2026-05-01T10:50:29.601Z</time></trkpt><trkpt lat="45.394635" lon="10.7675333"><ele>97.0</ele><time>2026-05-01T10:50:30.601Z</time></trkpt><trkpt lat="45.3945333" lon="10.7673683"><ele>96.0</ele><time>2026-05-01T10:50:31.605Z</time></trkpt><trkpt lat="45.394425" lon="10.7671917"><ele>96.0</ele><time>2026-05-01T10:50:32.602Z</time></trkpt><trkpt lat="45.3943133" lon="10.76703"><ele>96.0</ele><time>2026-05-01T10:50:33.615Z</time></trkpt><trkpt lat="45.3941883" lon="10.7668633"><ele>96.0</ele><time>2026-05-01T10:50:34.607Z</time></trkpt><trkpt lat="45.3940767" lon="10.766705"><ele>96.25</ele><time>2026-05-01T10:50:35.612Z</time></trkpt><trkpt lat="45.39399" lon="10.7665583"><ele>96.5</ele><time>2026-05-01T10:50:36.607Z</time></trkpt><trkpt lat="45.3939033" lon="10.7664233"><ele>96.75</ele><time>2026-05-01T10:50:37.603Z</time></trkpt><trkpt lat="45.3938383" lon="10.7662983"><ele>97.0</ele><time>2026-05-01T10:50:38.605Z</time></trkpt><trkpt lat="45.3937533" lon="10.7661967"><ele>97.50000000000001</ele><time>2026-05-01T10:50:39.6Z</time></trkpt><trkpt lat="45.3936883" lon="10.766095"><ele>98.0</ele><time>2026-05-01T10:50:40.609Z</time></trkpt><trkpt lat="45.393645" lon="10.766005"><ele>98.5</ele><time>2026-05-01T10:50:41.603Z</time></trkpt><trkpt lat="45.3936017" lon="10.7659117"><ele>99.0</ele><time>2026-05-01T10:50:42.604Z</time></trkpt><trkpt lat="45.3935583" lon="10.76584"><ele>99.50000000000001</ele><time>2026-05-01T10:50:43.599Z</time></trkpt><trkpt lat="45.3935183" lon="10.7657483"><ele>100.0</ele><time>2026-05-01T10:50:45.608Z</time></trkpt><trkpt lat="45.3934283" lon="10.76565"><ele>100.2</ele><time>2026-05-01T10:50:59.613Z</time></trkpt><trkpt lat="45.3933633" lon="10.7655817"><ele>100.4</ele><time>2026-05-01T10:51:00.618Z</time></trkpt><trkpt lat="45.3932833" lon="10.765515"><ele>100.6</ele><time>2026-05-01T10:51:01.608Z</time></trkpt><trkpt lat="45.393165" lon="10.7654183"><ele>100.8</ele><time>2026-05-01T10:51:02.599Z</time></trkpt><trkpt lat="45.393055" lon="10.7653517"><ele>101.0</ele><time>2026-05-01T10:51:03.603Z</time></trkpt><trkpt lat="45.39293" lon="10.7652683"><ele>98.66666666666666</ele><time>2026-05-01T10:51:04.611Z</time></trkpt><trkpt lat="45.3928067" lon="10.7651783"><ele>96.33333333333333</ele><time>2026-05-01T10:51:05.603Z</time></trkpt><trkpt lat="45.392665" lon="10.7650817"><ele>94.0</ele><time>2026-05-01T10:51:06.607Z</time></trkpt><trkpt lat="45.3925" lon="10.7649867"><ele>94.0</ele><time>2026-05-01T10:51:07.603Z</time></trkpt><trkpt lat="45.3923467" lon="10.764875"><ele>94.0</ele><time>2026-05-01T10:51:08.607Z</time></trkpt><trkpt lat="45.3921983" lon="10.7647683"><ele>94.0</ele><time>2026-05-01T10:51:09.601Z</time></trkpt><trkpt lat="45.3920383" lon="10.76468"><ele>93.0</ele><time>2026-05-01T10:51:10.607Z</time></trkpt><trkpt lat="45.3919067" lon="10.7645933"><ele>92.0</ele><time>2026-05-01T10:51:11.61Z</time></trkpt><trkpt lat="45.3917867" lon="10.764495"><ele>91.0</ele><time>2026-05-01T10:51:12.608Z</time></trkpt><trkpt lat="45.391655" lon="10.7643983"><ele>90.0</ele><time>2026-05-01T10:51:13.61Z</time></trkpt><trkpt lat="45.3915167" lon="10.7643033"><ele>89.33333333333333</ele><time>2026-05-01T10:51:14.61Z</time></trkpt><trkpt lat="45.3913717" lon="10.7642"><ele>88.66666666666666</ele><time>2026-05-01T10:51:15.602Z</time></trkpt><trkpt lat="45.391225" lon="10.7641033"><ele>88.0</ele><time>2026-05-01T10:51:16.604Z</time></trkpt><trkpt lat="45.391075" lon="10.7639933"><ele>87.66666666666666</ele><time>2026-05-01T10:51:17.611Z</time></trkpt><trkpt lat="45.3909183" lon="10.76388"><ele>87.33333333333333</ele><time>2026-05-01T10:51:18.607Z</time></trkpt><trkpt lat="45.3907583" lon="10.76376"><ele>87.0</ele><time>2026-05-01T10:51:19.612Z</time></trkpt><trkpt lat="45.3906167" lon="10.7636367"><ele>91.33333333333334</ele><time>2026-05-01T10:51:20.606Z</time></trkpt><trkpt lat="45.390465" lon="10.7635133"><ele>95.66666666666667</ele><time>2026-05-01T10:51:21.613Z</time></trkpt><trkpt lat="45.3903117" lon="10.763395"><ele>100.0</ele><time>2026-05-01T10:51:22.609Z</time></trkpt><trkpt lat="45.3901417" lon="10.763275"><ele>100.0</ele><time>2026-05-01T10:51:23.614Z</time></trkpt><trkpt lat="45.3899767" lon="10.7631633"><ele>100.0</ele><time>2026-05-01T10:51:24.603Z</time></trkpt><trkpt lat="45.3898133" lon="10.7630717"><ele>100.0</ele><time>2026-05-01T10:51:25.598Z</time></trkpt><trkpt lat="45.3896567" lon="10.7629717"><ele>101.0</ele><time>2026-05-01T10:51:26.604Z</time></trkpt><trkpt lat="45.3895267" lon="10.7628583"><ele>102.0</ele><time>2026-05-01T10:51:27.612Z</time></trkpt><trkpt lat="45.3894367" lon="10.7627717"><ele>103.0</ele><time>2026-05-01T10:51:28.603Z</time></trkpt><trkpt lat="45.3893967" lon="10.7625917"><ele>104.0</ele><time>2026-05-01T10:51:29.61Z</time></trkpt><trkpt lat="45.389335" lon="10.7624017"><ele>104.0</ele><time>2026-05-01T10:51:30.611Z</time></trkpt><trkpt lat="45.389295" lon="10.7622283"><ele>104.0</ele><time>2026-05-01T10:51:31.603Z</time></trkpt><trkpt lat="45.389245" lon="10.7620583"><ele>104.0</ele><time>2026-05-01T10:51:32.611Z</time></trkpt><trkpt lat="45.389195" lon="10.761885"><ele>104.0</ele><time>2026-05-01T10:51:33.632Z</time></trkpt><trkpt lat="45.3891683" lon="10.7616883"><ele>105.0</ele><time>2026-05-01T10:51:34.6Z</time></trkpt><trkpt lat="45.3891567" lon="10.76149"><ele>106.0</ele><time>2026-05-01T10:51:35.601Z</time></trkpt><trkpt lat="45.38914" lon="10.7612833"><ele>107.0</ele><time>2026-05-01T10:51:36.61Z</time></trkpt><trkpt lat="45.3890667" lon="10.7611067"><ele>108.0</ele><time>2026-05-01T10:51:37.602Z</time></trkpt><trkpt lat="45.38896" lon="10.7609367"><ele>110.0</ele><time>2026-05-01T10:51:38.609Z</time></trkpt><trkpt lat="45.3888183" lon="10.7608333"><ele>112.0</ele><time>2026-05-01T10:51:39.608Z</time></trkpt><trkpt lat="45.388675" lon="10.76069"><ele>114.0</ele><time>2026-05-01T10:51:40.607Z</time></trkpt><trkpt lat="45.388535" lon="10.7605367"><ele>114.0</ele><time>2026-05-01T10:51:41.603Z</time></trkpt><trkpt lat="45.388385" lon="10.7604183"><ele>114.0</ele><time>2026-05-01T10:51:42.63Z</time></trkpt><trkpt lat="45.388235" lon="10.7602733"><ele>114.0</ele><time>2026-05-01T10:51:43.605Z</time></trkpt><trkpt lat="45.3880817" lon="10.7601183"><ele>115.0</ele><time>2026-05-01T10:51:44.598Z</time></trkpt><trkpt lat="45.3879517" lon="10.75993"><ele>116.0</ele><time>2026-05-01T10:51:45.608Z</time></trkpt><trkpt lat="45.387825" lon="10.7597233"><ele>117.0</ele><time>2026-05-01T10:51:46.615Z</time></trkpt><trkpt lat="45.387725" lon="10.7595183"><ele>117.0</ele><time>2026-05-01T10:51:47.603Z</time></trkpt><trkpt lat="45.3876217" lon="10.7593133"><ele>117.0</ele><time>2026-05-01T10:51:48.602Z</time></trkpt><trkpt lat="45.3875133" lon="10.75916"><ele>117.0</ele><time>2026-05-01T10:51:49.61Z</time></trkpt><trkpt lat="45.387385" lon="10.759025"><ele>117.0</ele><time>2026-05-01T10:51:50.601Z</time></trkpt><trkpt lat="45.38724" lon="10.7589167"><ele>117.0</ele><time>2026-05-01T10:51:51.605Z</time></trkpt><trkpt lat="45.38709" lon="10.7588217"><ele>117.0</ele><time>2026-05-01T10:51:52.61Z</time></trkpt><trkpt lat="45.3869483" lon="10.758715"><ele>119.75</ele><time>2026-05-01T10:51:53.606Z</time></trkpt><trkpt lat="45.386815" lon="10.7586133"><ele>122.5</ele><time>2026-05-01T10:51:54.6Z</time></trkpt><trkpt lat="45.3867283" lon="10.7585183"><ele>125.25</ele><time>2026-05-01T10:51:55.607Z</time></trkpt><trkpt lat="45.38663" lon="10.7583767"><ele>128.0</ele><time>2026-05-01T10:51:56.612Z</time></trkpt><trkpt lat="45.3865417" lon="10.7582067"><ele>128.33333333333331</ele><time>2026-05-01T10:51:57.602Z</time></trkpt><trkpt lat="45.38643" lon="10.7580067"><ele>128.66666666666666</ele><time>2026-05-01T10:51:58.605Z</time></trkpt><trkpt lat="45.3863167" lon="10.7577983"><ele>129.0</ele><time>2026-05-01T10:51:59.609Z</time></trkpt><trkpt lat="45.3861733" lon="10.7575833"><ele>129.0</ele><time>2026-05-01T10:52:00.603Z</time></trkpt><trkpt lat="45.3860283" lon="10.75743"><ele>129.0</ele><time>2026-05-01T10:52:01.607Z</time></trkpt><trkpt lat="45.385885" lon="10.757295"><ele>129.0</ele><time>2026-05-01T10:52:02.603Z</time></trkpt><trkpt lat="45.3857567" lon="10.7571633"><ele>129.0</ele><time>2026-05-01T10:52:03.608Z</time></trkpt><trkpt lat="45.3856517" lon="10.7570267"><ele>129.0</ele><time>2026-05-01T10:52:04.611Z</time></trkpt><trkpt lat="45.3855517" lon="10.756865"><ele>129.0</ele><time>2026-05-01T10:52:05.61Z</time></trkpt><trkpt lat="45.3854617" lon="10.75667"><ele>129.66666666666666</ele><time>2026-05-01T10:52:06.608Z</time></trkpt><trkpt lat="45.3853783" lon="10.7564567"><ele>130.33333333333331</ele><time>2026-05-01T10:52:07.608Z</time></trkpt><trkpt lat="45.3852883" lon="10.7562417"><ele>131.0</ele><time>2026-05-01T10:52:08.612Z</time></trkpt><trkpt lat="45.3851983" lon="10.7560283"><ele>131.0</ele><time>2026-05-01T10:52:09.61Z</time></trkpt><trkpt lat="45.38511" lon="10.7558133"><ele>131.0</ele><time>2026-05-01T10:52:10.61Z</time></trkpt><trkpt lat="45.38502" lon="10.75559"><ele>131.0</ele><time>2026-05-01T10:52:11.617Z</time></trkpt><trkpt lat="45.3849317" lon="10.7553483"><ele>131.33333333333331</ele><time>2026-05-01T10:52:12.607Z</time></trkpt><trkpt lat="45.3848467" lon="10.755085"><ele>131.66666666666666</ele><time>2026-05-01T10:52:13.609Z</time></trkpt><trkpt lat="45.3847667" lon="10.7547933"><ele>132.0</ele><time>2026-05-01T10:52:14.614Z</time></trkpt><trkpt lat="45.3846833" lon="10.75454"><ele>130.0</ele><time>2026-05-01T10:52:15.608Z</time></trkpt><trkpt lat="45.3846167" lon="10.75427"><ele>128.0</ele><time>2026-05-01T10:52:16.609Z</time></trkpt><trkpt lat="45.3845433" lon="10.75403"><ele>126.0</ele><time>2026-05-01T10:52:17.613Z</time></trkpt><trkpt lat="45.3844633" lon="10.753785"><ele>126.0</ele><time>2026-05-01T10:52:18.615Z</time></trkpt><trkpt lat="45.3843567" lon="10.753545"><ele>126.0</ele><time>2026-05-01T10:52:19.622Z</time></trkpt><trkpt lat="45.3842683" lon="10.753355"><ele>126.0</ele><time>2026-05-01T10:52:20.611Z</time></trkpt><trkpt lat="45.3841783" lon="10.7531833"><ele>126.75</ele><time>2026-05-01T10:52:21.604Z</time></trkpt><trkpt lat="45.3840883" lon="10.7530033"><ele>127.5</ele><time>2026-05-01T10:52:22.605Z</time></trkpt><trkpt lat="45.3839983" lon="10.752845"><ele>128.25</ele><time>2026-05-01T10:52:23.623Z</time></trkpt><trkpt lat="45.3839283" lon="10.75271"><ele>129.0</ele><time>2026-05-01T10:52:24.61Z</time></trkpt><trkpt lat="45.38388" lon="10.7525783"><ele>130.0</ele><time>2026-05-01T10:52:25.612Z</time></trkpt><trkpt lat="45.38384" lon="10.75241"><ele>131.0</ele><time>2026-05-01T10:52:26.619Z</time></trkpt><trkpt lat="45.3837933" lon="10.752265"><ele>132.0</ele><time>2026-05-01T10:52:27.614Z</time></trkpt><trkpt lat="45.383745" lon="10.75208"><ele>133.0</ele><time>2026-05-01T10:52:28.609Z</time></trkpt><trkpt lat="45.3836817" lon="10.7518967"><ele>132.0</ele><time>2026-05-01T10:52:29.605Z</time></trkpt><trkpt lat="45.383625" lon="10.751715"><ele>131.0</ele><time>2026-05-01T10:52:30.606Z</time></trkpt><trkpt lat="45.3835467" lon="10.75154"><ele>130.0</ele><time>2026-05-01T10:52:31.613Z</time></trkpt><trkpt lat="45.3834717" lon="10.7514133"><ele>129.0</ele><time>2026-05-01T10:52:32.607Z</time></trkpt><trkpt lat="45.3833683" lon="10.7513567"><ele>129.0</ele><time>2026-05-01T10:52:33.61Z</time></trkpt><trkpt lat="45.38326" lon="10.75132"><ele>129.0</ele><time>2026-05-01T10:52:34.614Z</time></trkpt><trkpt lat="45.3831283" lon="10.75132"><ele>129.0</ele><time>2026-05-01T10:52:35.61Z</time></trkpt><trkpt lat="45.38299" lon="10.751345"><ele>129.0</ele><time>2026-05-01T10:52:36.628Z</time></trkpt><trkpt lat="45.3828317" lon="10.7513467"><ele>128.33333333333334</ele><time>2026-05-01T10:52:37.613Z</time></trkpt><trkpt lat="45.3826883" lon="10.751385"><ele>127.66666666666667</ele><time>2026-05-01T10:52:38.61Z</time></trkpt><trkpt lat="45.3825333" lon="10.7514367"><ele>127.0</ele><time>2026-05-01T10:52:39.603Z</time></trkpt><trkpt lat="45.3823733" lon="10.7514883"><ele>127.0</ele><time>2026-05-01T10:52:40.61Z</time></trkpt><trkpt lat="45.3822217" lon="10.7515483"><ele>127.0</ele><time>2026-05-01T10:52:41.61Z</time></trkpt><trkpt lat="45.3820683" lon="10.7516067"><ele>127.0</ele><time>2026-05-01T10:52:42.61Z</time></trkpt><trkpt lat="45.3819083" lon="10.7516467"><ele>126.0</ele><time>2026-05-01T10:52:43.615Z</time></trkpt><trkpt lat="45.3817433" lon="10.7516733"><ele>125.0</ele><time>2026-05-01T10:52:44.616Z</time></trkpt><trkpt lat="45.3815767" lon="10.75169"><ele>124.0</ele><time>2026-05-01T10:52:45.608Z</time></trkpt><trkpt lat="45.3814183" lon="10.7517267"><ele>123.0</ele><time>2026-05-01T10:52:46.609Z</time></trkpt><trkpt lat="45.3812467" lon="10.7517483"><ele>122.0</ele><time>2026-05-01T10:52:47.605Z</time></trkpt><trkpt lat="45.3810867" lon="10.7517683"><ele>121.0</ele><time>2026-05-01T10:52:48.604Z</time></trkpt><trkpt lat="45.3809417" lon="10.7517583"><ele>121.0</ele><time>2026-05-01T10:52:49.61Z</time></trkpt><trkpt lat="45.3807967" lon="10.75177"><ele>121.0</ele><time>2026-05-01T10:52:50.612Z</time></trkpt><trkpt lat="45.380645" lon="10.7517867"><ele>121.0</ele><time>2026-05-01T10:52:51.606Z</time></trkpt><trkpt lat="45.380495" lon="10.7517933"><ele>121.0</ele><time>2026-05-01T10:52:52.599Z</time></trkpt><trkpt lat="45.380345" lon="10.7517983"><ele>120.66666666666667</ele><time>2026-05-01T10:52:53.608Z</time></trkpt><trkpt lat="45.3802033" lon="10.7517617"><ele>120.33333333333334</ele><time>2026-05-01T10:52:54.612Z</time></trkpt><trkpt lat="45.380065" lon="10.7516917"><ele>120.0</ele><time>2026-05-01T10:52:55.612Z</time></trkpt><trkpt lat="45.3799133" lon="10.751585"><ele>120.0</ele><time>2026-05-01T10:52:56.608Z</time></trkpt><trkpt lat="45.37975" lon="10.7514533"><ele>120.0</ele><time>2026-05-01T10:52:57.609Z</time></trkpt><trkpt lat="45.3795633" lon="10.7513667"><ele>120.0</ele><time>2026-05-01T10:52:58.605Z</time></trkpt><trkpt lat="45.3793617" lon="10.75131"><ele>118.5</ele><time>2026-05-01T10:52:59.621Z</time></trkpt><trkpt lat="45.3791183" lon="10.7512917"><ele>117.0</ele><time>2026-05-01T10:53:00.606Z</time></trkpt><trkpt lat="45.3788883" lon="10.751305"><ele>116.33333333333334</ele><time>2026-05-01T10:53:01.602Z</time></trkpt><trkpt lat="45.37868" lon="10.751315"><ele>115.66666666666667</ele><time>2026-05-01T10:53:02.605Z</time></trkpt><trkpt lat="45.3784833" lon="10.751325"><ele>115.0</ele><time>2026-05-01T10:53:03.611Z</time></trkpt><trkpt lat="45.3782983" lon="10.7513433"><ele>115.0</ele><time>2026-05-01T10:53:04.6Z</time></trkpt><trkpt lat="45.3781183" lon="10.7513883"><ele>115.0</ele><time>2026-05-01T10:53:05.614Z</time></trkpt><trkpt lat="45.3779883" lon="10.7514"><ele>115.0</ele><time>2026-05-01T10:53:06.607Z</time></trkpt><trkpt lat="45.3778483" lon="10.7514433"><ele>117.33333333333334</ele><time>2026-05-01T10:53:07.602Z</time></trkpt><trkpt lat="45.377715" lon="10.751525"><ele>119.66666666666666</ele><time>2026-05-01T10:53:08.604Z</time></trkpt><trkpt lat="45.3775883" lon="10.7516133"><ele>122.0</ele><time>2026-05-01T10:53:09.605Z</time></trkpt><trkpt lat="45.3774417" lon="10.7517317"><ele>122.0</ele><time>2026-05-01T10:53:10.599Z</time></trkpt><trkpt lat="45.377305" lon="10.751815"><ele>122.0</ele><time>2026-05-01T10:53:11.605Z</time></trkpt><trkpt lat="45.3771667" lon="10.7518883"><ele>122.0</ele><time>2026-05-01T10:53:12.608Z</time></trkpt><trkpt lat="45.377025" lon="10.7519433"><ele>122.0</ele><time>2026-05-01T10:53:13.61Z</time></trkpt><trkpt lat="45.3768683" lon="10.7519717"><ele>120.0</ele><time>2026-05-01T10:53:14.605Z</time></trkpt><trkpt lat="45.376685" lon="10.7519817"><ele>118.0</ele><time>2026-05-01T10:53:15.609Z</time></trkpt><trkpt lat="45.3765133" lon="10.7519683"><ele>116.0</ele><time>2026-05-01T10:53:16.602Z</time></trkpt><trkpt lat="45.3763483" lon="10.7519283"><ele>116.0</ele><time>2026-05-01T10:53:17.606Z</time></trkpt><trkpt lat="45.37617" lon="10.75189"><ele>116.0</ele><time>2026-05-01T10:53:18.606Z</time></trkpt><trkpt lat="45.3759933" lon="10.7518483"><ele>116.0</ele><time>2026-05-01T10:53:19.609Z</time></trkpt><trkpt lat="45.3758283" lon="10.7517983"><ele>116.66666666666666</ele><time>2026-05-01T10:53:20.615Z</time></trkpt><trkpt lat="45.375655" lon="10.7517517"><ele>117.33333333333334</ele><time>2026-05-01T10:53:21.607Z</time></trkpt><trkpt lat="45.3754767" lon="10.75169"><ele>118.0</ele><time>2026-05-01T10:53:22.603Z</time></trkpt><trkpt lat="45.3752917" lon="10.7516433"><ele>118.0</ele><time>2026-05-01T10:53:23.609Z</time></trkpt><trkpt lat="45.3750967" lon="10.7516"><ele>118.0</ele><time>2026-05-01T10:53:24.604Z</time></trkpt><trkpt lat="45.3748967" lon="10.7515833"><ele>118.0</ele><time>2026-05-01T10:53:25.608Z</time></trkpt><trkpt lat="45.3746767" lon="10.751535"><ele>117.66666666666667</ele><time>2026-05-01T10:53:26.607Z</time></trkpt><trkpt lat="45.3744683" lon="10.75148"><ele>117.33333333333334</ele><time>2026-05-01T10:53:27.615Z</time></trkpt><trkpt lat="45.3742617" lon="10.7514383"><ele>117.0</ele><time>2026-05-01T10:53:28.609Z</time></trkpt><trkpt lat="45.37406" lon="10.7513833"><ele>116.66666666666666</ele><time>2026-05-01T10:53:29.613Z</time></trkpt><trkpt lat="45.3738417" lon="10.751345"><ele>116.33333333333333</ele><time>2026-05-01T10:53:30.612Z</time></trkpt><trkpt lat="45.3736133" lon="10.7513217"><ele>116.0</ele><time>2026-05-01T10:53:31.608Z</time></trkpt><trkpt lat="45.3734067" lon="10.7513267"><ele>116.0</ele><time>2026-05-01T10:53:32.606Z</time></trkpt><trkpt lat="45.3732067" lon="10.7513317"><ele>116.0</ele><time>2026-05-01T10:53:33.606Z</time></trkpt><trkpt lat="45.37301" lon="10.7513567"><ele>116.0</ele><time>2026-05-01T10:53:34.615Z</time></trkpt><trkpt lat="45.3728433" lon="10.75139"><ele>116.25</ele><time>2026-05-01T10:53:35.628Z</time></trkpt><trkpt lat="45.3726783" lon="10.7514067"><ele>116.5</ele><time>2026-05-01T10:53:36.605Z</time></trkpt><trkpt lat="45.372545" lon="10.7514567"><ele>116.75</ele><time>2026-05-01T10:53:37.616Z</time></trkpt><trkpt lat="45.3724417" lon="10.751475"><ele>117.0</ele><time>2026-05-01T10:53:38.608Z</time></trkpt><trkpt lat="45.37236" lon="10.7514883"><ele>117.0</ele><time>2026-05-01T10:53:39.612Z</time></trkpt><trkpt lat="45.372265" lon="10.75149"><ele>116.99999999999999</ele><time>2026-05-01T10:53:41.619Z</time></trkpt><trkpt lat="45.3721533" lon="10.75145"><ele>116.99999999999999</ele><time>2026-05-01T10:54:03.609Z</time></trkpt><trkpt lat="45.37207" lon="10.7513817"><ele>117.0</ele><time>2026-05-01T10:54:04.6Z</time></trkpt><trkpt lat="45.3719567" lon="10.751305"><ele>117.0</ele><time>2026-05-01T10:54:05.603Z</time></trkpt><trkpt lat="45.37189" lon="10.7512117"><ele>115.83333333333333</ele><time>2026-05-01T10:54:06.61Z</time></trkpt><trkpt lat="45.3718267" lon="10.7511567"><ele>114.66666666666666</ele><time>2026-05-01T10:54:07.606Z</time></trkpt><trkpt lat="45.371735" lon="10.751095"><ele>113.5</ele><time>2026-05-01T10:54:09.609Z</time></trkpt><trkpt lat="45.3716683" lon="10.751015"><ele>112.33333333333333</ele><time>2026-05-01T10:54:12.608Z</time></trkpt><trkpt lat="45.371595" lon="10.7509167"><ele>111.16666666666666</ele><time>2026-05-01T10:54:14.603Z</time></trkpt><trkpt lat="45.371535" lon="10.7508467"><ele>110.0</ele><time>2026-05-01T10:54:15.611Z</time></trkpt><trkpt lat="45.371465" lon="10.7507667"><ele>109.99999999999999</ele><time>2026-05-01T10:54:16.603Z</time></trkpt><trkpt lat="45.3714017" lon="10.75067"><ele>110.0</ele><time>2026-05-01T10:54:17.603Z</time></trkpt><trkpt lat="45.371325" lon="10.7505767"><ele>110.0</ele><time>2026-05-01T10:54:18.612Z</time></trkpt><trkpt lat="45.3712733" lon="10.7504983"><ele>110.0</ele><time>2026-05-01T10:54:19.606Z</time></trkpt><trkpt lat="45.3712217" lon="10.7504367"><ele>109.99999999999999</ele><time>2026-05-01T10:54:20.603Z</time></trkpt><trkpt lat="45.37117" lon="10.7503833"><ele>110.0</ele><time>2026-05-01T10:54:21.6Z</time></trkpt><trkpt lat="45.3711033" lon="10.7503017"><ele>108.8</ele><time>2026-05-01T10:54:23.61Z</time></trkpt><trkpt lat="45.371045" lon="10.750255"><ele>107.6</ele><time>2026-05-01T10:54:35.602Z</time></trkpt><trkpt lat="45.3709983" lon="10.75038"><ele>106.4</ele><time>2026-05-01T10:54:37.601Z</time></trkpt><trkpt lat="45.370975" lon="10.7505033"><ele>105.2</ele><time>2026-05-01T10:54:38.605Z</time></trkpt><trkpt lat="45.3709467" lon="10.7506467"><ele>104.0</ele><time>2026-05-01T10:54:39.602Z</time></trkpt><trkpt lat="45.3709183" lon="10.750845"><ele>104.0</ele><time>2026-05-01T10:54:40.619Z</time></trkpt><trkpt lat="45.3708867" lon="10.75101"><ele>104.0</ele><time>2026-05-01T10:54:41.617Z</time></trkpt><trkpt lat="45.3708533" lon="10.7511817"><ele>104.0</ele><time>2026-05-01T10:54:42.603Z</time></trkpt><trkpt lat="45.370835" lon="10.7513517"><ele>104.0</ele><time>2026-05-01T10:54:43.603Z</time></trkpt><trkpt lat="45.370825" lon="10.7515233"><ele>104.0</ele><time>2026-05-01T10:54:44.613Z</time></trkpt><trkpt lat="45.37082" lon="10.751695"><ele>104.0</ele><time>2026-05-01T10:54:45.607Z</time></trkpt><trkpt lat="45.3708467" lon="10.7518583"><ele>104.0</ele><time>2026-05-01T10:54:46.615Z</time></trkpt><trkpt lat="45.37087" lon="10.7520183"><ele>104.0</ele><time>2026-05-01T10:54:47.604Z</time></trkpt><trkpt lat="45.3709183" lon="10.7522083"><ele>104.0</ele><time>2026-05-01T10:54:48.613Z</time></trkpt><trkpt lat="45.3709567" lon="10.7523717"><ele>104.0</ele><time>2026-05-01T10:54:49.604Z</time></trkpt><trkpt lat="45.3709917" lon="10.7525083"><ele>104.0</ele><time>2026-05-01T10:54:50.609Z</time></trkpt><trkpt lat="45.3710133" lon="10.7526183"><ele>104.0</ele><time>2026-05-01T10:54:51.613Z</time></trkpt><trkpt lat="45.371035" lon="10.7527167"><ele>104.0</ele><time>2026-05-01T10:54:52.606Z</time></trkpt><trkpt lat="45.3709983" lon="10.7528333"><ele>104.0</ele><time>2026-05-01T10:54:54.607Z</time></trkpt><trkpt lat="45.3708967" lon="10.752885"><ele>104.0</ele><time>2026-05-01T10:54:56.606Z</time></trkpt><trkpt lat="45.3708133" lon="10.7528883"><ele>104.0</ele><time>2026-05-01T10:54:57.607Z</time></trkpt><trkpt lat="45.37071" lon="10.7528967"><ele>104.0</ele><time>2026-05-01T10:54:58.607Z</time></trkpt><trkpt lat="45.37058" lon="10.7529133"><ele>104.0</ele><time>2026-05-01T10:54:59.607Z</time></trkpt><trkpt lat="45.3704517" lon="10.7529333"><ele>103.5</ele><time>2026-05-01T10:55:00.603Z</time></trkpt><trkpt lat="45.370315" lon="10.752975"><ele>103.0</ele><time>2026-05-01T10:55:01.606Z</time></trkpt><trkpt lat="45.3701983" lon="10.75298"><ele>102.5</ele><time>2026-05-01T10:55:02.604Z</time></trkpt><trkpt lat="45.370075" lon="10.7530133"><ele>102.0</ele><time>2026-05-01T10:55:03.614Z</time></trkpt><trkpt lat="45.3699483" lon="10.7530367"><ele>102.0</ele><time>2026-05-01T10:55:04.61Z</time></trkpt><trkpt lat="45.369825" lon="10.7530517"><ele>102.0</ele><time>2026-05-01T10:55:05.606Z</time></trkpt><trkpt lat="45.369705" lon="10.75308"><ele>102.0</ele><time>2026-05-01T10:55:06.607Z</time></trkpt><trkpt lat="45.3695833" lon="10.7530967"><ele>102.0</ele><time>2026-05-01T10:55:07.616Z</time></trkpt><trkpt lat="45.3694533" lon="10.7531033"><ele>101.75</ele><time>2026-05-01T10:55:08.606Z</time></trkpt><trkpt lat="45.369335" lon="10.7531283"><ele>101.5</ele><time>2026-05-01T10:55:09.615Z</time></trkpt><trkpt lat="45.36924" lon="10.7531333"><ele>101.25</ele><time>2026-05-01T10:55:10.612Z</time></trkpt><trkpt lat="45.3691183" lon="10.7531733"><ele>101.0</ele><time>2026-05-01T10:55:11.609Z</time></trkpt><trkpt lat="45.3689817" lon="10.7532033"><ele>100.25</ele><time>2026-05-01T10:55:12.605Z</time></trkpt><trkpt lat="45.36883" lon="10.7532583"><ele>99.5</ele><time>2026-05-01T10:55:13.614Z</time></trkpt><trkpt lat="45.3686967" lon="10.7533183"><ele>98.75</ele><time>2026-05-01T10:55:14.614Z</time></trkpt><trkpt lat="45.368575" lon="10.7533783"><ele>98.0</ele><time>2026-05-01T10:55:15.615Z</time></trkpt><trkpt lat="45.3684383" lon="10.7534033"><ele>98.0</ele><time>2026-05-01T10:55:16.604Z</time></trkpt><trkpt lat="45.3683317" lon="10.7534317"><ele>98.0</ele><time>2026-05-01T10:55:17.613Z</time></trkpt><trkpt lat="45.3682233" lon="10.7534533"><ele>98.0</ele><time>2026-05-01T10:55:18.603Z</time></trkpt><trkpt lat="45.3681183" lon="10.7535017"><ele>98.0</ele><time>2026-05-01T10:55:19.603Z</time></trkpt><trkpt lat="45.3679833" lon="10.7535483"><ele>96.75</ele><time>2026-05-01T10:55:20.61Z</time></trkpt><trkpt lat="45.367855" lon="10.753595"><ele>95.5</ele><time>2026-05-01T10:55:21.607Z</time></trkpt><trkpt lat="45.3677167" lon="10.75366"><ele>94.25</ele><time>2026-05-01T10:55:22.603Z</time></trkpt><trkpt lat="45.3675767" lon="10.7536683"><ele>93.0</ele><time>2026-05-01T10:55:23.607Z</time></trkpt><trkpt lat="45.3674483" lon="10.7537183"><ele>93.0</ele><time>2026-05-01T10:55:24.616Z</time></trkpt><trkpt lat="45.3673217" lon="10.7537717"><ele>93.0</ele><time>2026-05-01T10:55:25.603Z</time></trkpt><trkpt lat="45.367175" lon="10.7538333"><ele>93.0</ele><time>2026-05-01T10:55:26.604Z</time></trkpt><trkpt lat="45.3670417" lon="10.7538533"><ele>93.0</ele><time>2026-05-01T10:55:27.619Z</time></trkpt><trkpt lat="45.36692" lon="10.7539117"><ele>93.0</ele><time>2026-05-01T10:55:28.613Z</time></trkpt><trkpt lat="45.3668267" lon="10.7539483"><ele>93.0</ele><time>2026-05-01T10:55:29.612Z</time></trkpt><trkpt lat="45.3667517" lon="10.7539817"><ele>93.0</ele><time>2026-05-01T10:55:30.604Z</time></trkpt><trkpt lat="45.3666867" lon="10.75398"><ele>93.0</ele><time>2026-05-01T10:55:31.608Z</time></trkpt><trkpt lat="45.3665883" lon="10.7540117"><ele>93.0</ele><time>2026-05-01T10:55:33.613Z</time></trkpt><trkpt lat="45.366515" lon="10.75403"><ele>93.0</ele><time>2026-05-01T10:55:36.614Z</time></trkpt><trkpt lat="45.366465" lon="10.753955"><ele>93.0</ele><time>2026-05-01T10:55:38.604Z</time></trkpt><trkpt lat="45.366435" lon="10.7538667"><ele>93.0</ele><time>2026-05-01T10:55:39.607Z</time></trkpt><trkpt lat="45.3664017" lon="10.7537367"><ele>93.0</ele><time>2026-05-01T10:55:40.614Z</time></trkpt><trkpt lat="45.3663567" lon="10.7535967"><ele>93.0</ele><time>2026-05-01T10:55:41.614Z</time></trkpt><trkpt lat="45.3663133" lon="10.75344"><ele>93.0</ele><time>2026-05-01T10:55:42.613Z</time></trkpt><trkpt lat="45.36626" lon="10.7532683"><ele>93.25</ele><time>2026-05-01T10:55:43.619Z</time></trkpt><trkpt lat="45.366195" lon="10.7531183"><ele>93.5</ele><time>2026-05-01T10:55:44.596Z</time></trkpt><trkpt lat="45.36613" lon="10.752965"><ele>93.75</ele><time>2026-05-01T10:55:45.6Z</time></trkpt><trkpt lat="45.36606" lon="10.7528167"><ele>94.0</ele><time>2026-05-01T10:55:46.603Z</time></trkpt><trkpt lat="45.3659933" lon="10.7526533"><ele>94.0</ele><time>2026-05-01T10:55:47.606Z</time></trkpt><trkpt lat="45.3659217" lon="10.752485"><ele>94.0</ele><time>2026-05-01T10:55:48.606Z</time></trkpt><trkpt lat="45.3658583" lon="10.7523233"><ele>94.0</ele><time>2026-05-01T10:55:49.612Z</time></trkpt><trkpt lat="45.365795" lon="10.7521667"><ele>94.0</ele><time>2026-05-01T10:55:50.606Z</time></trkpt><trkpt lat="45.36572" lon="10.7520333"><ele>94.0</ele><time>2026-05-01T10:55:51.61Z</time></trkpt><trkpt lat="45.36567" lon="10.7519067"><ele>94.0</ele><time>2026-05-01T10:55:52.604Z</time></trkpt><trkpt lat="45.36561" lon="10.7518067"><ele>94.0</ele><time>2026-05-01T10:55:53.616Z</time></trkpt><trkpt lat="45.36555" lon="10.7517083"><ele>94.0</ele><time>2026-05-01T10:55:54.602Z</time></trkpt><trkpt lat="45.3654817" lon="10.7515967"><ele>94.0</ele><time>2026-05-01T10:55:55.601Z</time></trkpt><trkpt lat="45.3654083" lon="10.7514833"><ele>94.0</ele><time>2026-05-01T10:55:56.605Z</time></trkpt><trkpt lat="45.3653283" lon="10.75135"><ele>94.0</ele><time>2026-05-01T10:55:57.599Z</time></trkpt><trkpt lat="45.365255" lon="10.7512067"><ele>94.0</ele><time>2026-05-01T10:55:58.603Z</time></trkpt><trkpt lat="45.36517" lon="10.7510383"><ele>94.0</ele><time>2026-05-01T10:55:59.609Z</time></trkpt><trkpt lat="45.365085" lon="10.750865"><ele>94.5</ele><time>2026-05-01T10:56:00.601Z</time></trkpt><trkpt lat="45.3650017" lon="10.750705"><ele>95.0</ele><time>2026-05-01T10:56:01.602Z</time></trkpt><trkpt lat="45.3649117" lon="10.7505383"><ele>95.5</ele><time>2026-05-01T10:56:02.602Z</time></trkpt><trkpt lat="45.3648533" lon="10.7503667"><ele>96.0</ele><time>2026-05-01T10:56:03.61Z</time></trkpt><trkpt lat="45.36478" lon="10.7501783"><ele>95.0</ele><time>2026-05-01T10:56:04.64Z</time></trkpt><trkpt lat="45.364695" lon="10.7499733"><ele>94.0</ele><time>2026-05-01T10:56:05.608Z</time></trkpt><trkpt lat="45.3645983" lon="10.7497567"><ele>93.0</ele><time>2026-05-01T10:56:06.601Z</time></trkpt><trkpt lat="45.364515" lon="10.7495383"><ele>93.0</ele><time>2026-05-01T10:56:07.613Z</time></trkpt><trkpt lat="45.3644133" lon="10.74933"><ele>93.0</ele><time>2026-05-01T10:56:08.599Z</time></trkpt><trkpt lat="45.3643317" lon="10.7491133"><ele>93.0</ele><time>2026-05-01T10:56:09.6Z</time></trkpt><trkpt lat="45.3642483" lon="10.7489167"><ele>93.0</ele><time>2026-05-01T10:56:10.599Z</time></trkpt><trkpt lat="45.3641783" lon="10.7487383"><ele>93.0</ele><time>2026-05-01T10:56:11.61Z</time></trkpt><trkpt lat="45.36411" lon="10.74856"><ele>93.0</ele><time>2026-05-01T10:56:12.604Z</time></trkpt><trkpt lat="45.36406" lon="10.7484033"><ele>93.0</ele><time>2026-05-01T10:56:13.605Z</time></trkpt><trkpt lat="45.36402" lon="10.7482533"><ele>92.75</ele><time>2026-05-01T10:56:14.61Z</time></trkpt><trkpt lat="45.3639617" lon="10.7481317"><ele>92.5</ele><time>2026-05-01T10:56:15.601Z</time></trkpt><trkpt lat="45.3638667" lon="10.748"><ele>92.25</ele><time>2026-05-01T10:56:16.598Z</time></trkpt><trkpt lat="45.363805" lon="10.7478167"><ele>92.0</ele><time>2026-05-01T10:56:17.601Z</time></trkpt><trkpt lat="45.3637267" lon="10.7476583"><ele>92.0</ele><time>2026-05-01T10:56:18.608Z</time></trkpt><trkpt lat="45.363645" lon="10.7475117"><ele>92.0</ele><time>2026-05-01T10:56:19.604Z</time></trkpt><trkpt lat="45.3635467" lon="10.7473617"><ele>92.0</ele><time>2026-05-01T10:56:20.61Z</time></trkpt><trkpt lat="45.3634383" lon="10.7472"><ele>92.0</ele><time>2026-05-01T10:56:21.605Z</time></trkpt><trkpt lat="45.3633317" lon="10.7470333"><ele>92.0</ele><time>2026-05-01T10:56:22.599Z</time></trkpt><trkpt lat="45.3632367" lon="10.7468567"><ele>92.0</ele><time>2026-05-01T10:56:23.603Z</time></trkpt><trkpt lat="45.3631617" lon="10.746655"><ele>92.0</ele><time>2026-05-01T10:56:24.61Z</time></trkpt><trkpt lat="45.3630783" lon="10.7464617"><ele>92.0</ele><time>2026-05-01T10:56:25.601Z</time></trkpt><trkpt lat="45.363005" lon="10.7462233"><ele>92.0</ele><time>2026-05-01T10:56:26.612Z</time></trkpt><trkpt lat="45.362935" lon="10.74599"><ele>92.0</ele><time>2026-05-01T10:56:27.601Z</time></trkpt><trkpt lat="45.36285" lon="10.74575"><ele>92.33333333333334</ele><time>2026-05-01T10:56:28.61Z</time></trkpt><trkpt lat="45.3627717" lon="10.7454967"><ele>92.66666666666667</ele><time>2026-05-01T10:56:29.603Z</time></trkpt><trkpt lat="45.36271" lon="10.7452383"><ele>93.0</ele><time>2026-05-01T10:56:30.607Z</time></trkpt><trkpt lat="45.3626317" lon="10.74499"><ele>93.0</ele><time>2026-05-01T10:56:31.606Z</time></trkpt><trkpt lat="45.362565" lon="10.74476"><ele>93.0</ele><time>2026-05-01T10:56:32.604Z</time></trkpt><trkpt lat="45.3625017" lon="10.7445233"><ele>93.0</ele><time>2026-05-01T10:56:33.611Z</time></trkpt><trkpt lat="45.362435" lon="10.7443167"><ele>93.0</ele><time>2026-05-01T10:56:34.601Z</time></trkpt><trkpt lat="45.3623467" lon="10.7441017"><ele>93.0</ele><time>2026-05-01T10:56:35.613Z</time></trkpt><trkpt lat="45.3622833" lon="10.7439"><ele>93.0</ele><time>2026-05-01T10:56:36.61Z</time></trkpt><trkpt lat="45.3622133" lon="10.7437067"><ele>92.66666666666667</ele><time>2026-05-01T10:56:37.603Z</time></trkpt><trkpt lat="45.3621417" lon="10.7435067"><ele>92.33333333333334</ele><time>2026-05-01T10:56:38.601Z</time></trkpt><trkpt lat="45.3620983" lon="10.743305"><ele>92.0</ele><time>2026-05-01T10:56:39.61Z</time></trkpt><trkpt lat="45.362015" lon="10.7430867"><ele>92.0</ele><time>2026-05-01T10:56:40.603Z</time></trkpt><trkpt lat="45.36196" lon="10.7428333"><ele>92.0</ele><time>2026-05-01T10:56:41.599Z</time></trkpt><trkpt lat="45.3618883" lon="10.742585"><ele>92.0</ele><time>2026-05-01T10:56:42.604Z</time></trkpt><trkpt lat="45.36182" lon="10.7423017"><ele>92.0</ele><time>2026-05-01T10:56:43.606Z</time></trkpt><trkpt lat="45.3617467" lon="10.7420483"><ele>92.0</ele><time>2026-05-01T10:56:44.61Z</time></trkpt><trkpt lat="45.3616733" lon="10.74181"><ele>92.0</ele><time>2026-05-01T10:56:45.605Z</time></trkpt><trkpt lat="45.3616033" lon="10.7415467"><ele>92.0</ele><time>2026-05-01T10:56:46.606Z</time></trkpt><trkpt lat="45.3615283" lon="10.7412817"><ele>92.0</ele><time>2026-05-01T10:56:47.609Z</time></trkpt><trkpt lat="45.3614267" lon="10.7410067"><ele>92.0</ele><time>2026-05-01T10:56:48.605Z</time></trkpt><trkpt lat="45.3613117" lon="10.7407483"><ele>93.33333333333334</ele><time>2026-05-01T10:56:49.607Z</time></trkpt><trkpt lat="45.3612217" lon="10.7405267"><ele>94.66666666666667</ele><time>2026-05-01T10:56:50.599Z</time></trkpt><trkpt lat="45.36115" lon="10.7403183"><ele>96.0</ele><time>2026-05-01T10:56:51.602Z</time></trkpt><trkpt lat="45.3610883" lon="10.740165"><ele>96.0</ele><time>2026-05-01T10:56:52.605Z</time></trkpt><trkpt lat="45.3610133" lon="10.74002"><ele>96.0</ele><time>2026-05-01T10:56:53.601Z</time></trkpt><trkpt lat="45.36094" lon="10.7399033"><ele>96.0</ele><time>2026-05-01T10:56:54.604Z</time></trkpt><trkpt lat="45.3609017" lon="10.73977"><ele>96.0</ele><time>2026-05-01T10:56:56.611Z</time></trkpt><trkpt lat="45.3608167" lon="10.73967"><ele>96.0</ele><time>2026-05-01T10:57:04.62Z</time></trkpt><trkpt lat="45.360755" lon="10.73964"><ele>96.0</ele><time>2026-05-01T10:57:05.626Z</time></trkpt><trkpt lat="45.360685" lon="10.7396"><ele>96.0</ele><time>2026-05-01T10:57:06.606Z</time></trkpt><trkpt lat="45.360605" lon="10.7395617"><ele>96.0</ele><time>2026-05-01T10:57:07.6Z</time></trkpt><trkpt lat="45.3605183" lon="10.7395233"><ele>96.0</ele><time>2026-05-01T10:57:08.602Z</time></trkpt><trkpt lat="45.360425" lon="10.73947"><ele>96.0</ele><time>2026-05-01T10:57:09.609Z</time></trkpt><trkpt lat="45.36033" lon="10.7394133"><ele>95.5</ele><time>2026-05-01T10:57:10.602Z</time></trkpt><trkpt lat="45.3602383" lon="10.7393517"><ele>95.0</ele><time>2026-05-01T10:57:11.623Z</time></trkpt><trkpt lat="45.3601533" lon="10.7392967"><ele>94.5</ele><time>2026-05-01T10:57:12.618Z</time></trkpt><trkpt lat="45.3600833" lon="10.73924"><ele>94.0</ele><time>2026-05-01T10:57:13.629Z</time></trkpt><trkpt lat="45.3600283" lon="10.73917"><ele>93.5</ele><time>2026-05-01T10:57:14.599Z</time></trkpt><trkpt lat="45.35997" lon="10.7391"><ele>93.0</ele><time>2026-05-01T10:57:15.604Z</time></trkpt><trkpt lat="45.3598533" lon="10.739025"><ele>93.0</ele><time>2026-05-01T10:57:17.604Z</time></trkpt><trkpt lat="45.359785" lon="10.7390367"><ele>93.0</ele><time>2026-05-01T10:57:18.61Z</time></trkpt><trkpt lat="45.3597033" lon="10.73907"><ele>93.0</ele><time>2026-05-01T10:57:19.607Z</time></trkpt><trkpt lat="45.3596067" lon="10.7390833"><ele>93.0</ele><time>2026-05-01T10:57:20.596Z</time></trkpt><trkpt lat="45.3594933" lon="10.73908"><ele>93.0</ele><time>2026-05-01T10:57:21.603Z</time></trkpt><trkpt lat="45.3593683" lon="10.73907"><ele>93.0</ele><time>2026-05-01T10:57:22.605Z</time></trkpt><trkpt lat="45.3592383" lon="10.7390583"><ele>93.0</ele><time>2026-05-01T10:57:23.607Z</time></trkpt><trkpt lat="45.359105" lon="10.7390433"><ele>93.0</ele><time>2026-05-01T10:57:24.608Z</time></trkpt><trkpt lat="45.3589733" lon="10.7390217"><ele>93.0</ele><time>2026-05-01T10:57:25.608Z</time></trkpt><trkpt lat="45.35885" lon="10.7390017"><ele>93.0</ele><time>2026-05-01T10:57:26.599Z</time></trkpt><trkpt lat="45.35874" lon="10.7389883"><ele>93.0</ele><time>2026-05-01T10:57:27.611Z</time></trkpt><trkpt lat="45.3586417" lon="10.7389767"><ele>93.0</ele><time>2026-05-01T10:57:28.609Z</time></trkpt><trkpt lat="45.35855" lon="10.7389633"><ele>93.0</ele><time>2026-05-01T10:57:29.602Z</time></trkpt><trkpt lat="45.3584583" lon="10.738945"><ele>93.0</ele><time>2026-05-01T10:57:30.612Z</time></trkpt><trkpt lat="45.358355" lon="10.738925"><ele>93.0</ele><time>2026-05-01T10:57:31.606Z</time></trkpt><trkpt lat="45.358255" lon="10.738895"><ele>93.0</ele><time>2026-05-01T10:57:32.602Z</time></trkpt><trkpt lat="45.358135" lon="10.7388733"><ele>93.0</ele><time>2026-05-01T10:57:33.601Z</time></trkpt><trkpt lat="45.3580183" lon="10.7388417"><ele>93.0</ele><time>2026-05-01T10:57:34.611Z</time></trkpt><trkpt lat="45.3578983" lon="10.7388017"><ele>92.80000000000001</ele><time>2026-05-01T10:57:35.605Z</time></trkpt><trkpt lat="45.3577867" lon="10.7387717"><ele>92.6</ele><time>2026-05-01T10:57:36.604Z</time></trkpt><trkpt lat="45.35769" lon="10.7387733"><ele>92.4</ele><time>2026-05-01T10:57:37.6Z</time></trkpt><trkpt lat="45.3575967" lon="10.7387617"><ele>92.19999999999999</ele><time>2026-05-01T10:57:38.599Z</time></trkpt><trkpt lat="45.3575" lon="10.73873"><ele>92.0</ele><time>2026-05-01T10:57:39.601Z</time></trkpt><trkpt lat="45.3574017" lon="10.73871"><ele>92.0</ele><time>2026-05-01T10:57:40.617Z</time></trkpt><trkpt lat="45.357285" lon="10.738685"><ele>92.0</ele><time>2026-05-01T10:57:41.608Z</time></trkpt><trkpt lat="45.35718" lon="10.738645"><ele>92.0</ele><time>2026-05-01T10:57:42.602Z</time></trkpt><trkpt lat="45.3570667" lon="10.738615"><ele>92.0</ele><time>2026-05-01T10:57:43.61Z</time></trkpt><trkpt lat="45.3569517" lon="10.7385833"><ele>92.0</ele><time>2026-05-01T10:57:44.604Z</time></trkpt><trkpt lat="45.3568383" lon="10.7385417"><ele>92.0</ele><time>2026-05-01T10:57:45.612Z</time></trkpt><trkpt lat="45.35672" lon="10.7385083"><ele>92.0</ele><time>2026-05-01T10:57:46.601Z</time></trkpt><trkpt lat="45.3565917" lon="10.7384867"><ele>92.0</ele><time>2026-05-01T10:57:47.6Z</time></trkpt><trkpt lat="45.3564783" lon="10.7384833"><ele>92.0</ele><time>2026-05-01T10:57:48.603Z</time></trkpt><trkpt lat="45.35637" lon="10.73847"><ele>92.0</ele><time>2026-05-01T10:57:49.6Z</time></trkpt><trkpt lat="45.3563" lon="10.73844"><ele>92.0</ele><time>2026-05-01T10:57:50.6Z</time></trkpt><trkpt lat="45.3562233" lon="10.7383833"><ele>92.0</ele><time>2026-05-01T10:57:51.602Z</time></trkpt><trkpt lat="45.356135" lon="10.7383567"><ele>92.0</ele><time>2026-05-01T10:57:52.599Z</time></trkpt><trkpt lat="45.35605" lon="10.7383317"><ele>92.0</ele><time>2026-05-01T10:57:53.612Z</time></trkpt><trkpt lat="45.3559633" lon="10.7383133"><ele>91.8</ele><time>2026-05-01T10:57:54.601Z</time></trkpt><trkpt lat="45.3558467" lon="10.7382717"><ele>91.6</ele><time>2026-05-01T10:57:55.606Z</time></trkpt><trkpt lat="45.3557417" lon="10.7382367"><ele>91.39999999999999</ele><time>2026-05-01T10:57:56.6Z</time></trkpt><trkpt lat="45.3556283" lon="10.7381983"><ele>91.19999999999999</ele><time>2026-05-01T10:57:57.611Z</time></trkpt><trkpt lat="45.355545" lon="10.7381583"><ele>91.0</ele><time>2026-05-01T10:57:58.599Z</time></trkpt><trkpt lat="45.355445" lon="10.7381467"><ele>91.0</ele><time>2026-05-01T10:57:59.6Z</time></trkpt><trkpt lat="45.35534" lon="10.7380783"><ele>91.0</ele><time>2026-05-01T10:58:00.605Z</time></trkpt><trkpt lat="45.3552283" lon="10.738065"><ele>91.0</ele><time>2026-05-01T10:58:01.604Z</time></trkpt><trkpt lat="45.35512" lon="10.7380533"><ele>91.0</ele><time>2026-05-01T10:58:02.601Z</time></trkpt><trkpt lat="45.3550083" lon="10.7380167"><ele>91.0</ele><time>2026-05-01T10:58:03.616Z</time></trkpt><trkpt lat="45.35488" lon="10.73799"><ele>91.0</ele><time>2026-05-01T10:58:04.61Z</time></trkpt><trkpt lat="45.3547467" lon="10.7379117"><ele>91.0</ele><time>2026-05-01T10:58:05.608Z</time></trkpt><trkpt lat="45.35463" lon="10.7378417"><ele>91.0</ele><time>2026-05-01T10:58:06.612Z</time></trkpt><trkpt lat="45.3545133" lon="10.7377667"><ele>90.5</ele><time>2026-05-01T10:58:07.606Z</time></trkpt><trkpt lat="45.3544" lon="10.7376833"><ele>90.0</ele><time>2026-05-01T10:58:08.607Z</time></trkpt><trkpt lat="45.3542917" lon="10.737615"><ele>89.5</ele><time>2026-05-01T10:58:09.613Z</time></trkpt><trkpt lat="45.3541717" lon="10.737545"><ele>89.0</ele><time>2026-05-01T10:58:10.613Z</time></trkpt><trkpt lat="45.35408" lon="10.7374683"><ele>89.0</ele><time>2026-05-01T10:58:11.614Z</time></trkpt><trkpt lat="45.3539717" lon="10.7373883"><ele>89.0</ele><time>2026-05-01T10:58:13.613Z</time></trkpt><trkpt lat="45.3538833" lon="10.7373567"><ele>89.0</ele><time>2026-05-01T10:58:15.615Z</time></trkpt><trkpt lat="45.35381" lon="10.7372433"><ele>89.0</ele><time>2026-05-01T10:58:26.61Z</time></trkpt><trkpt lat="45.353695" lon="10.737185"><ele>89.0</ele><time>2026-05-01T10:58:28.603Z</time></trkpt><trkpt lat="45.3536233" lon="10.7371783"><ele>88.80000000000001</ele><time>2026-05-01T10:58:29.616Z</time></trkpt><trkpt lat="45.353545" lon="10.7371583"><ele>88.60000000000001</ele><time>2026-05-01T10:58:30.61Z</time></trkpt><trkpt lat="45.353465" lon="10.7371083"><ele>88.4</ele><time>2026-05-01T10:58:31.616Z</time></trkpt><trkpt lat="45.3533833" lon="10.7369833"><ele>88.2</ele><time>2026-05-01T10:58:32.632Z</time></trkpt><trkpt lat="45.353285" lon="10.7368217"><ele>88.0</ele><time>2026-05-01T10:58:33.601Z</time></trkpt><trkpt lat="45.3531833" lon="10.7366983"><ele>88.0</ele><time>2026-05-01T10:58:34.619Z</time></trkpt><trkpt lat="45.353095" lon="10.73659"><ele>88.0</ele><time>2026-05-01T10:58:35.618Z</time></trkpt><trkpt lat="45.35303" lon="10.73649"><ele>88.0</ele><time>2026-05-01T10:58:36.605Z</time></trkpt><trkpt lat="45.3529717" lon="10.7364233"><ele>88.0</ele><time>2026-05-01T10:58:37.612Z</time></trkpt><trkpt lat="45.35292" lon="10.73635"><ele>88.0</ele><time>2026-05-01T10:58:38.61Z</time></trkpt><trkpt lat="45.3528617" lon="10.73626"><ele>88.0</ele><time>2026-05-01T10:58:39.61Z</time></trkpt><trkpt lat="45.3527983" lon="10.7361617"><ele>88.0</ele><time>2026-05-01T10:58:40.614Z</time></trkpt><trkpt lat="45.3527417" lon="10.7360533"><ele>88.0</ele><time>2026-05-01T10:58:41.612Z</time></trkpt><trkpt lat="45.3527117" lon="10.73594"><ele>88.0</ele><time>2026-05-01T10:58:42.613Z</time></trkpt><trkpt lat="45.3526933" lon="10.7358217"><ele>88.0</ele><time>2026-05-01T10:58:43.613Z</time></trkpt><trkpt lat="45.3526867" lon="10.7357"><ele>88.0</ele><time>2026-05-01T10:58:44.613Z</time></trkpt><trkpt lat="45.35268" lon="10.7355883"><ele>88.0</ele><time>2026-05-01T10:58:45.628Z</time></trkpt><trkpt lat="45.352675" lon="10.7354883"><ele>88.2</ele><time>2026-05-01T10:58:46.63Z</time></trkpt><trkpt lat="45.3526467" lon="10.735355"><ele>88.4</ele><time>2026-05-01T10:58:48.609Z</time></trkpt><trkpt lat="45.3525633" lon="10.73531"><ele>88.60000000000001</ele><time>2026-05-01T10:58:50.615Z</time></trkpt><trkpt lat="45.3524383" lon="10.7353183"><ele>88.80000000000001</ele><time>2026-05-01T10:58:52.608Z</time></trkpt><trkpt lat="45.3523217" lon="10.7353083"><ele>89.0</ele><time>2026-05-01T10:58:54.616Z</time></trkpt><trkpt lat="45.35221" lon="10.73522"><ele>88.83333333333334</ele><time>2026-05-01T10:58:56.601Z</time></trkpt><trkpt lat="45.3521633" lon="10.73512"><ele>88.66666666666667</ele><time>2026-05-01T10:58:57.608Z</time></trkpt><trkpt lat="45.3521267" lon="10.7349917"><ele>88.5</ele><time>2026-05-01T10:58:58.611Z</time></trkpt><trkpt lat="45.3520917" lon="10.7348817"><ele>88.33333333333333</ele><time>2026-05-01T10:58:59.615Z</time></trkpt><trkpt lat="45.3520533" lon="10.7347833"><ele>88.16666666666666</ele><time>2026-05-01T10:59:00.617Z</time></trkpt><trkpt lat="45.35202" lon="10.7346917"><ele>88.0</ele><time>2026-05-01T10:59:01.616Z</time></trkpt><trkpt lat="45.3519983" lon="10.7346033"><ele>88.0</ele><time>2026-05-01T10:59:02.601Z</time></trkpt><trkpt lat="45.3519233" lon="10.73445"><ele>88.0</ele><time>2026-05-01T10:59:04.609Z</time></trkpt><trkpt lat="45.3518817" lon="10.734365"><ele>88.0</ele><time>2026-05-01T10:59:05.609Z</time></trkpt><trkpt lat="45.3518417" lon="10.734275"><ele>88.0</ele><time>2026-05-01T10:59:06.611Z</time></trkpt><trkpt lat="45.3518017" lon="10.73419"><ele>88.0</ele><time>2026-05-01T10:59:07.608Z</time></trkpt><trkpt lat="45.3517533" lon="10.7340367"><ele>87.83333333333333</ele><time>2026-05-01T10:59:09.608Z</time></trkpt><trkpt lat="45.3517283" lon="10.7339283"><ele>87.66666666666666</ele><time>2026-05-01T10:59:11.612Z</time></trkpt><trkpt lat="45.351685" lon="10.7338333"><ele>87.5</ele><time>2026-05-01T10:59:14.603Z</time></trkpt><trkpt lat="45.35161" lon="10.7338217"><ele>87.33333333333333</ele><time>2026-05-01T10:59:16.605Z</time></trkpt><trkpt lat="45.351485" lon="10.73382"><ele>87.16666666666667</ele><time>2026-05-01T10:59:18.599Z</time></trkpt><trkpt lat="45.35141" lon="10.733805"><ele>87.0</ele><time>2026-05-01T10:59:19.603Z</time></trkpt><trkpt lat="45.3513217" lon="10.7337867"><ele>87.0</ele><time>2026-05-01T10:59:20.606Z</time></trkpt><trkpt lat="45.3512267" lon="10.7337733"><ele>87.0</ele><time>2026-05-01T10:59:21.613Z</time></trkpt><trkpt lat="45.3511033" lon="10.733755"><ele>87.0</ele><time>2026-05-01T10:59:22.608Z</time></trkpt><trkpt lat="45.3509667" lon="10.7337583"><ele>87.0</ele><time>2026-05-01T10:59:23.607Z</time></trkpt><trkpt lat="45.3508483" lon="10.7337"><ele>87.0</ele><time>2026-05-01T10:59:24.597Z</time></trkpt><trkpt lat="45.35073" lon="10.7336417"><ele>87.0</ele><time>2026-05-01T10:59:25.601Z</time></trkpt><trkpt lat="45.3505983" lon="10.7336083"><ele>87.0</ele><time>2026-05-01T10:59:26.604Z</time></trkpt><trkpt lat="45.3504833" lon="10.7335717"><ele>87.0</ele><time>2026-05-01T10:59:27.607Z</time></trkpt><trkpt lat="45.3503617" lon="10.73356"><ele>86.25</ele><time>2026-05-01T10:59:28.596Z</time></trkpt><trkpt lat="45.3502233" lon="10.7335517"><ele>85.5</ele><time>2026-05-01T10:59:29.608Z</time></trkpt><trkpt lat="45.3500983" lon="10.7335283"><ele>84.75</ele><time>2026-05-01T10:59:30.609Z</time></trkpt><trkpt lat="45.3499833" lon="10.7335167"><ele>84.0</ele><time>2026-05-01T10:59:31.606Z</time></trkpt><trkpt lat="45.3498567" lon="10.7335"><ele>84.0</ele><time>2026-05-01T10:59:32.604Z</time></trkpt><trkpt lat="45.349725" lon="10.73347"><ele>84.0</ele><time>2026-05-01T10:59:33.598Z</time></trkpt><trkpt lat="45.3496083" lon="10.7334317"><ele>84.0</ele><time>2026-05-01T10:59:34.603Z</time></trkpt><trkpt lat="45.3494867" lon="10.7333983"><ele>84.0</ele><time>2026-05-01T10:59:35.597Z</time></trkpt><trkpt lat="45.3493617" lon="10.7333683"><ele>84.0</ele><time>2026-05-01T10:59:36.61Z</time></trkpt><trkpt lat="45.3492333" lon="10.7333383"><ele>84.0</ele><time>2026-05-01T10:59:37.6Z</time></trkpt><trkpt lat="45.3491083" lon="10.7333067"><ele>84.0</ele><time>2026-05-01T10:59:38.61Z</time></trkpt><trkpt lat="45.3489817" lon="10.7332733"><ele>84.0</ele><time>2026-05-01T10:59:39.608Z</time></trkpt><trkpt lat="45.348855" lon="10.7332417"><ele>84.0</ele><time>2026-05-01T10:59:40.6Z</time></trkpt><trkpt lat="45.348725" lon="10.733215"><ele>84.0</ele><time>2026-05-01T10:59:41.608Z</time></trkpt><trkpt lat="45.3485917" lon="10.7331983"><ele>84.0</ele><time>2026-05-01T10:59:42.606Z</time></trkpt><trkpt lat="45.3484533" lon="10.7331883"><ele>84.0</ele><time>2026-05-01T10:59:43.602Z</time></trkpt><trkpt lat="45.3483167" lon="10.7331917"><ele>84.0</ele><time>2026-05-01T10:59:44.604Z</time></trkpt><trkpt lat="45.34818" lon="10.733205"><ele>84.0</ele><time>2026-05-01T10:59:45.615Z</time></trkpt><trkpt lat="45.3480467" lon="10.733225"><ele>84.0</ele><time>2026-05-01T10:59:46.599Z</time></trkpt><trkpt lat="45.3479267" lon="10.7332483"><ele>84.0</ele><time>2026-05-01T10:59:47.605Z</time></trkpt><trkpt lat="45.34782" lon="10.7332683"><ele>83.4</ele><time>2026-05-01T10:59:48.612Z</time></trkpt><trkpt lat="45.347715" lon="10.7333"><ele>82.80000000000001</ele><time>2026-05-01T10:59:49.609Z</time></trkpt><trkpt lat="45.3476217" lon="10.7333233"><ele>82.19999999999999</ele><time>2026-05-01T10:59:50.613Z</time></trkpt><trkpt lat="45.3475183" lon="10.7333567"><ele>81.6</ele><time>2026-05-01T10:59:51.609Z</time></trkpt><trkpt lat="45.3474117" lon="10.73339"><ele>81.0</ele><time>2026-05-01T10:59:52.619Z</time></trkpt><trkpt lat="45.3473033" lon="10.73341"><ele>81.0</ele><time>2026-05-01T10:59:53.614Z</time></trkpt><trkpt lat="45.347195" lon="10.7334617"><ele>81.0</ele><time>2026-05-01T10:59:54.616Z</time></trkpt><trkpt lat="45.3470867" lon="10.7334633"><ele>81.0</ele><time>2026-05-01T10:59:55.613Z</time></trkpt><trkpt lat="45.3469983" lon="10.7334983"><ele>81.0</ele><time>2026-05-01T10:59:56.602Z</time></trkpt><trkpt lat="45.3469067" lon="10.73353"><ele>81.0</ele><time>2026-05-01T10:59:57.604Z</time></trkpt><trkpt lat="45.3468033" lon="10.7335617"><ele>81.0</ele><time>2026-05-01T10:59:58.609Z</time></trkpt><trkpt lat="45.3466833" lon="10.7336133"><ele>81.0</ele><time>2026-05-01T10:59:59.603Z</time></trkpt><trkpt lat="45.3465617" lon="10.7336483"><ele>81.0</ele><time>2026-05-01T11:00:00.603Z</time></trkpt><trkpt lat="45.3464433" lon="10.7336783"><ele>81.0</ele><time>2026-05-01T11:00:01.604Z</time></trkpt><trkpt lat="45.3463183" lon="10.733735"><ele>81.0</ele><time>2026-05-01T11:00:02.61Z</time></trkpt><trkpt lat="45.3461917" lon="10.7337717"><ele>81.0</ele><time>2026-05-01T11:00:03.6Z</time></trkpt><trkpt lat="45.3460467" lon="10.7338"><ele>81.0</ele><time>2026-05-01T11:00:04.605Z</time></trkpt><trkpt lat="45.3459133" lon="10.7338117"><ele>81.0</ele><time>2026-05-01T11:00:05.607Z</time></trkpt><trkpt lat="45.34577" lon="10.73382"><ele>81.0</ele><time>2026-05-01T11:00:06.613Z</time></trkpt><trkpt lat="45.3456383" lon="10.733795"><ele>81.0</ele><time>2026-05-01T11:00:07.6Z</time></trkpt><trkpt lat="45.34551" lon="10.7338217"><ele>81.0</ele><time>2026-05-01T11:00:08.604Z</time></trkpt><trkpt lat="45.3453667" lon="10.7338617"><ele>81.0</ele><time>2026-05-01T11:00:09.603Z</time></trkpt><trkpt lat="45.3452167" lon="10.7338917"><ele>81.0</ele><time>2026-05-01T11:00:10.604Z</time></trkpt><trkpt lat="45.3450617" lon="10.7339167"><ele>81.0</ele><time>2026-05-01T11:00:11.604Z</time></trkpt><trkpt lat="45.3449267" lon="10.7339533"><ele>81.0</ele><time>2026-05-01T11:00:12.602Z</time></trkpt><trkpt lat="45.3447883" lon="10.7339783"><ele>81.0</ele><time>2026-05-01T11:00:13.606Z</time></trkpt><trkpt lat="45.34464" lon="10.7340167"><ele>81.0</ele><time>2026-05-01T11:00:14.619Z</time></trkpt><trkpt lat="45.3445" lon="10.73406"><ele>81.0</ele><time>2026-05-01T11:00:15.603Z</time></trkpt><trkpt lat="45.344365" lon="10.7340933"><ele>81.0</ele><time>2026-05-01T11:00:16.604Z</time></trkpt><trkpt lat="45.3442283" lon="10.7341483"><ele>81.0</ele><time>2026-05-01T11:00:17.608Z</time></trkpt><trkpt lat="45.3440933" lon="10.734195"><ele>81.0</ele><time>2026-05-01T11:00:18.607Z</time></trkpt><trkpt lat="45.3439667" lon="10.7342467"><ele>81.0</ele><time>2026-05-01T11:00:19.605Z</time></trkpt><trkpt lat="45.3438167" lon="10.7343133"><ele>81.0</ele><time>2026-05-01T11:00:20.6Z</time></trkpt><trkpt lat="45.3436833" lon="10.73436"><ele>81.0</ele><time>2026-05-01T11:00:21.61Z</time></trkpt><trkpt lat="45.3435317" lon="10.734395"><ele>81.0</ele><time>2026-05-01T11:00:22.6Z</time></trkpt><trkpt lat="45.34339" lon="10.7344533"><ele>81.0</ele><time>2026-05-01T11:00:23.608Z</time></trkpt><trkpt lat="45.3432567" lon="10.7344883"><ele>81.0</ele><time>2026-05-01T11:00:24.604Z</time></trkpt><trkpt lat="45.3431017" lon="10.73452"><ele>81.0</ele><time>2026-05-01T11:00:25.61Z</time></trkpt><trkpt lat="45.3429517" lon="10.73454"><ele>81.0</ele><time>2026-05-01T11:00:26.599Z</time></trkpt><trkpt lat="45.3428133" lon="10.7345567"><ele>81.0</ele><time>2026-05-01T11:00:27.607Z</time></trkpt><trkpt lat="45.3426567" lon="10.7345617"><ele>81.0</ele><time>2026-05-01T11:00:28.598Z</time></trkpt><trkpt lat="45.342505" lon="10.73451"><ele>81.0</ele><time>2026-05-01T11:00:29.602Z</time></trkpt><trkpt lat="45.3423533" lon="10.7344533"><ele>81.0</ele><time>2026-05-01T11:00:30.606Z</time></trkpt><trkpt lat="45.3421917" lon="10.7344067"><ele>81.0</ele><time>2026-05-01T11:00:31.599Z</time></trkpt><trkpt lat="45.342025" lon="10.7343583"><ele>80.33333333333333</ele><time>2026-05-01T11:00:32.602Z</time></trkpt><trkpt lat="45.3418517" lon="10.7343033"><ele>79.66666666666666</ele><time>2026-05-01T11:00:33.613Z</time></trkpt><trkpt lat="45.3416883" lon="10.734255"><ele>79.0</ele><time>2026-05-01T11:00:34.616Z</time></trkpt><trkpt lat="45.3415333" lon="10.7341933"><ele>80.0</ele><time>2026-05-01T11:00:35.604Z</time></trkpt><trkpt lat="45.341375" lon="10.7341383"><ele>81.0</ele><time>2026-05-01T11:00:36.61Z</time></trkpt><trkpt lat="45.34121" lon="10.7341"><ele>82.0</ele><time>2026-05-01T11:00:37.605Z</time></trkpt><trkpt lat="45.3410517" lon="10.7340533"><ele>82.0</ele><time>2026-05-01T11:00:38.605Z</time></trkpt><trkpt lat="45.3408783" lon="10.7340233"><ele>82.0</ele><time>2026-05-01T11:00:39.604Z</time></trkpt><trkpt lat="45.340715" lon="10.7339983"><ele>82.0</ele><time>2026-05-01T11:00:40.599Z</time></trkpt><trkpt lat="45.3405533" lon="10.73395"><ele>81.33333333333333</ele><time>2026-05-01T11:00:41.602Z</time></trkpt><trkpt lat="45.3403767" lon="10.73392"><ele>80.66666666666667</ele><time>2026-05-01T11:00:42.604Z</time></trkpt><trkpt lat="45.3402167" lon="10.733875"><ele>80.0</ele><time>2026-05-01T11:00:43.602Z</time></trkpt><trkpt lat="45.3400533" lon="10.7338433"><ele>80.0</ele><time>2026-05-01T11:00:44.599Z</time></trkpt><trkpt lat="45.339875" lon="10.7337983"><ele>80.0</ele><time>2026-05-01T11:00:45.605Z</time></trkpt><trkpt lat="45.3397083" lon="10.7337417"><ele>80.0</ele><time>2026-05-01T11:00:46.605Z</time></trkpt><trkpt lat="45.3395467" lon="10.7336717"><ele>79.66666666666667</ele><time>2026-05-01T11:00:47.614Z</time></trkpt><trkpt lat="45.3393867" lon="10.7336333"><ele>79.33333333333333</ele><time>2026-05-01T11:00:48.602Z</time></trkpt><trkpt lat="45.3392267" lon="10.7335633"><ele>79.0</ele><time>2026-05-01T11:00:49.61Z</time></trkpt><trkpt lat="45.3391" lon="10.733515"><ele>79.0</ele><time>2026-05-01T11:00:50.599Z</time></trkpt><trkpt lat="45.3389833" lon="10.7334717"><ele>79.0</ele><time>2026-05-01T11:00:51.607Z</time></trkpt><trkpt lat="45.338865" lon="10.73342"><ele>79.0</ele><time>2026-05-01T11:00:52.6Z</time></trkpt><trkpt lat="45.3387367" lon="10.7333683"><ele>79.0</ele><time>2026-05-01T11:00:53.612Z</time></trkpt><trkpt lat="45.3386167" lon="10.733335"><ele>79.0</ele><time>2026-05-01T11:00:54.607Z</time></trkpt><trkpt lat="45.3384833" lon="10.7332917"><ele>79.0</ele><time>2026-05-01T11:00:55.611Z</time></trkpt><trkpt lat="45.3383517" lon="10.7332483"><ele>79.0</ele><time>2026-05-01T11:00:56.599Z</time></trkpt><trkpt lat="45.33822" lon="10.733205"><ele>79.0</ele><time>2026-05-01T11:00:57.607Z</time></trkpt><trkpt lat="45.3380967" lon="10.7331567"><ele>79.5</ele><time>2026-05-01T11:00:58.597Z</time></trkpt><trkpt lat="45.33797" lon="10.7331067"><ele>80.0</ele><time>2026-05-01T11:00:59.609Z</time></trkpt><trkpt lat="45.3378417" lon="10.7330617"><ele>80.5</ele><time>2026-05-01T11:01:00.604Z</time></trkpt><trkpt lat="45.3377033" lon="10.7330133"><ele>81.0</ele><time>2026-05-01T11:01:01.601Z</time></trkpt><trkpt lat="45.3375733" lon="10.7329833"><ele>81.0</ele><time>2026-05-01T11:01:02.598Z</time></trkpt><trkpt lat="45.337425" lon="10.7329717"><ele>81.0</ele><time>2026-05-01T11:01:03.6Z</time></trkpt><trkpt lat="45.3372917" lon="10.7329583"><ele>81.0</ele><time>2026-05-01T11:01:04.608Z</time></trkpt><trkpt lat="45.3371517" lon="10.7329383"><ele>81.0</ele><time>2026-05-01T11:01:05.601Z</time></trkpt><trkpt lat="45.3370133" lon="10.73293"><ele>80.75</ele><time>2026-05-01T11:01:06.606Z</time></trkpt><trkpt lat="45.3368483" lon="10.732905"><ele>80.5</ele><time>2026-05-01T11:01:07.615Z</time></trkpt><trkpt lat="45.3367033" lon="10.7328983"><ele>80.25</ele><time>2026-05-01T11:01:08.607Z</time></trkpt><trkpt lat="45.336575" lon="10.732845"><ele>80.0</ele><time>2026-05-01T11:01:09.609Z</time></trkpt><trkpt lat="45.336455" lon="10.7328133"><ele>79.5</ele><time>2026-05-01T11:01:10.612Z</time></trkpt><trkpt lat="45.3363167" lon="10.732825"><ele>79.0</ele><time>2026-05-01T11:01:11.603Z</time></trkpt><trkpt lat="45.3361867" lon="10.7328083"><ele>78.5</ele><time>2026-05-01T11:01:12.609Z</time></trkpt><trkpt lat="45.3360567" lon="10.7327933"><ele>78.0</ele><time>2026-05-01T11:01:13.621Z</time></trkpt><trkpt lat="45.33592" lon="10.7327917"><ele>78.0</ele><time>2026-05-01T11:01:14.618Z</time></trkpt><trkpt lat="45.335785" lon="10.73281"><ele>78.0</ele><time>2026-05-01T11:01:15.612Z</time></trkpt><trkpt lat="45.33569" lon="10.7328017"><ele>78.0</ele><time>2026-05-01T11:01:16.612Z</time></trkpt><trkpt lat="45.3356083" lon="10.7327917"><ele>78.0</ele><time>2026-05-01T11:01:17.601Z</time></trkpt><trkpt lat="45.335545" lon="10.7327783"><ele>78.0</ele><time>2026-05-01T11:01:18.605Z</time></trkpt><trkpt lat="45.335465" lon="10.7327867"><ele>78.2</ele><time>2026-05-01T11:01:19.605Z</time></trkpt><trkpt lat="45.335385" lon="10.7327267"><ele>78.4</ele><time>2026-05-01T11:01:21.617Z</time></trkpt><trkpt lat="45.3353317" lon="10.73257"><ele>78.60000000000001</ele><time>2026-05-01T11:01:23.613Z</time></trkpt><trkpt lat="45.3353183" lon="10.7324333"><ele>78.8</ele><time>2026-05-01T11:01:24.608Z</time></trkpt><trkpt lat="45.3352933" lon="10.7323333"><ele>79.0</ele><time>2026-05-01T11:01:25.604Z</time></trkpt><trkpt lat="45.3352317" lon="10.73225"><ele>78.66666666666666</ele><time>2026-05-01T11:01:26.602Z</time></trkpt><trkpt lat="45.3351667" lon="10.73219"><ele>78.33333333333333</ele><time>2026-05-01T11:01:27.609Z</time></trkpt><trkpt lat="45.3350983" lon="10.7321333"><ele>78.0</ele><time>2026-05-01T11:01:28.599Z</time></trkpt><trkpt lat="45.335035" lon="10.7320983"><ele>77.66666666666667</ele><time>2026-05-01T11:01:29.607Z</time></trkpt><trkpt lat="45.3349683" lon="10.73208"><ele>77.33333333333334</ele><time>2026-05-01T11:01:30.604Z</time></trkpt><trkpt lat="45.3348367" lon="10.7320717"><ele>77.0</ele><time>2026-05-01T11:01:32.601Z</time></trkpt><trkpt lat="45.33476" lon="10.7320983"><ele>76.16666666666667</ele><time>2026-05-01T11:01:33.602Z</time></trkpt><trkpt lat="45.3346767" lon="10.7321267"><ele>75.33333333333334</ele><time>2026-05-01T11:01:34.61Z</time></trkpt><trkpt lat="45.334595" lon="10.7321717"><ele>74.5</ele><time>2026-05-01T11:01:35.601Z</time></trkpt><trkpt lat="45.3345167" lon="10.73221"><ele>73.66666666666667</ele><time>2026-05-01T11:01:36.6Z</time></trkpt><trkpt lat="45.3344367" lon="10.7322433"><ele>72.83333333333333</ele><time>2026-05-01T11:01:37.61Z</time></trkpt><trkpt lat="45.3343567" lon="10.732295"><ele>72.0</ele><time>2026-05-01T11:01:38.606Z</time></trkpt><trkpt lat="45.3342967" lon="10.73238"><ele>72.0</ele><time>2026-05-01T11:01:39.601Z</time></trkpt><trkpt lat="45.3342267" lon="10.7324633"><ele>72.0</ele><time>2026-05-01T11:01:40.602Z</time></trkpt><trkpt lat="45.334155" lon="10.7325233"><ele>72.0</ele><time>2026-05-01T11:01:41.599Z</time></trkpt><trkpt lat="45.3340817" lon="10.7325617"><ele>72.0</ele><time>2026-05-01T11:01:42.62Z</time></trkpt><trkpt lat="45.3340083" lon="10.732605"><ele>72.0</ele><time>2026-05-01T11:01:43.598Z</time></trkpt><trkpt lat="45.333935" lon="10.7326367"><ele>72.0</ele><time>2026-05-01T11:01:44.6Z</time></trkpt><trkpt lat="45.3338367" lon="10.73265"><ele>70.33333333333333</ele><time>2026-05-01T11:01:45.6Z</time></trkpt><trkpt lat="45.333745" lon="10.7326583"><ele>68.66666666666667</ele><time>2026-05-01T11:01:46.601Z</time></trkpt><trkpt lat="45.3336683" lon="10.7326617"><ele>67.0</ele><time>2026-05-01T11:01:47.603Z</time></trkpt><trkpt lat="45.333595" lon="10.7326367"><ele>65.33333333333334</ele><time>2026-05-01T11:01:48.6Z</time></trkpt><trkpt lat="45.3335067" lon="10.7326"><ele>63.66666666666667</ele><time>2026-05-01T11:01:49.606Z</time></trkpt><trkpt lat="45.3334133" lon="10.7325367"><ele>62.0</ele><time>2026-05-01T11:01:50.606Z</time></trkpt><trkpt lat="45.3332917" lon="10.7325183"><ele>62.0</ele><time>2026-05-01T11:01:51.601Z</time></trkpt><trkpt lat="45.3331617" lon="10.732515"><ele>62.0</ele><time>2026-05-01T11:01:52.598Z</time></trkpt><trkpt lat="45.33303" lon="10.7324983"><ele>62.0</ele><time>2026-05-01T11:01:53.608Z</time></trkpt><trkpt lat="45.3328933" lon="10.7324867"><ele>62.0</ele><time>2026-05-01T11:01:54.603Z</time></trkpt><trkpt lat="45.3327633" lon="10.7324783"><ele>61.5</ele><time>2026-05-01T11:01:55.602Z</time></trkpt><trkpt lat="45.3326267" lon="10.7324817"><ele>61.0</ele><time>2026-05-01T11:01:56.601Z</time></trkpt><trkpt lat="45.3325033" lon="10.73245"><ele>60.5</ele><time>2026-05-01T11:01:57.608Z</time></trkpt><trkpt lat="45.332375" lon="10.7323967"><ele>60.0</ele><time>2026-05-01T11:01:58.602Z</time></trkpt><trkpt lat="45.332245" lon="10.7323317"><ele>60.0</ele><time>2026-05-01T11:01:59.607Z</time></trkpt><trkpt lat="45.3321133" lon="10.7322533"><ele>60.0</ele><time>2026-05-01T11:02:00.609Z</time></trkpt><trkpt lat="45.3319783" lon="10.732175"><ele>60.0</ele><time>2026-05-01T11:02:01.603Z</time></trkpt><trkpt lat="45.33182" lon="10.7320683"><ele>60.0</ele><time>2026-05-01T11:02:02.592Z</time></trkpt><trkpt lat="45.331705" lon="10.73199"><ele>60.0</ele><time>2026-05-01T11:02:03.604Z</time></trkpt><trkpt lat="45.3315617" lon="10.7318983"><ele>60.0</ele><time>2026-05-01T11:02:04.597Z</time></trkpt><trkpt lat="45.3314067" lon="10.7318033"><ele>60.0</ele><time>2026-05-01T11:02:05.604Z</time></trkpt><trkpt lat="45.331255" lon="10.731715"><ele>60.0</ele><time>2026-05-01T11:02:06.613Z</time></trkpt><trkpt lat="45.3310983" lon="10.7316233"><ele>60.0</ele><time>2026-05-01T11:02:07.603Z</time></trkpt><trkpt lat="45.3309467" lon="10.731545"><ele>60.0</ele><time>2026-05-01T11:02:08.597Z</time></trkpt><trkpt lat="45.3308083" lon="10.7314733"><ele>60.0</ele><time>2026-05-01T11:02:09.65Z</time></trkpt><trkpt lat="45.330675" lon="10.7314083"><ele>60.0</ele><time>2026-05-01T11:02:10.607Z</time></trkpt><trkpt lat="45.33055" lon="10.731355"><ele>60.0</ele><time>2026-05-01T11:02:11.604Z</time></trkpt><trkpt lat="45.3304183" lon="10.7313033"><ele>60.25</ele><time>2026-05-01T11:02:12.612Z</time></trkpt><trkpt lat="45.3302867" lon="10.7312517"><ele>60.5</ele><time>2026-05-01T11:02:13.603Z</time></trkpt><trkpt lat="45.330155" lon="10.731195"><ele>60.75</ele><time>2026-05-01T11:02:14.605Z</time></trkpt><trkpt lat="45.330025" lon="10.7311433"><ele>61.0</ele><time>2026-05-01T11:02:15.607Z</time></trkpt><trkpt lat="45.3298917" lon="10.731095"><ele>60.666666666666664</ele><time>2026-05-01T11:02:16.609Z</time></trkpt><trkpt lat="45.3297383" lon="10.7310483"><ele>60.33333333333333</ele><time>2026-05-01T11:02:17.601Z</time></trkpt><trkpt lat="45.329585" lon="10.730995"><ele>60.0</ele><time>2026-05-01T11:02:18.605Z</time></trkpt><trkpt lat="45.3294517" lon="10.7309383"><ele>59.75</ele><time>2026-05-01T11:02:19.612Z</time></trkpt><trkpt lat="45.32932" lon="10.7308767"><ele>59.5</ele><time>2026-05-01T11:02:20.605Z</time></trkpt><trkpt lat="45.3291883" lon="10.7308283"><ele>59.25</ele><time>2026-05-01T11:02:21.601Z</time></trkpt><trkpt lat="45.3290667" lon="10.7307783"><ele>59.0</ele><time>2026-05-01T11:02:22.603Z</time></trkpt><trkpt lat="45.3289417" lon="10.7307167"><ele>59.5</ele><time>2026-05-01T11:02:23.608Z</time></trkpt><trkpt lat="45.3288267" lon="10.7306667"><ele>60.0</ele><time>2026-05-01T11:02:24.6Z</time></trkpt><trkpt lat="45.328715" lon="10.7306233"><ele>60.5</ele><time>2026-05-01T11:02:25.61Z</time></trkpt><trkpt lat="45.3286133" lon="10.7305833"><ele>61.0</ele><time>2026-05-01T11:02:26.601Z</time></trkpt><trkpt lat="45.3285083" lon="10.7305467"><ele>61.0</ele><time>2026-05-01T11:02:27.603Z</time></trkpt><trkpt lat="45.328405" lon="10.73053"><ele>60.99999999999999</ele><time>2026-05-01T11:02:28.6Z</time></trkpt><trkpt lat="45.3283217" lon="10.7305117"><ele>60.99999999999999</ele><time>2026-05-01T11:02:29.602Z</time></trkpt><trkpt lat="45.32822" lon="10.7304517"><ele>61.0</ele><time>2026-05-01T11:02:30.606Z</time></trkpt><trkpt lat="45.328145" lon="10.730395"><ele>61.0</ele><time>2026-05-01T11:02:31.611Z</time></trkpt><trkpt lat="45.32803" lon="10.7303567"><ele>60.4</ele><time>2026-05-01T11:02:32.61Z</time></trkpt><trkpt lat="45.327925" lon="10.7303183"><ele>59.8</ele><time>2026-05-01T11:02:33.611Z</time></trkpt><trkpt lat="45.327835" lon="10.73027"><ele>59.199999999999996</ele><time>2026-05-01T11:02:34.602Z</time></trkpt><trkpt lat="45.3277533" lon="10.7302417"><ele>58.599999999999994</ele><time>2026-05-01T11:02:35.604Z</time></trkpt><trkpt lat="45.3276767" lon="10.730215"><ele>58.0</ele><time>2026-05-01T11:02:36.618Z</time></trkpt><trkpt lat="45.3275933" lon="10.730175"><ele>58.0</ele><time>2026-05-01T11:02:37.608Z</time></trkpt><trkpt lat="45.3275133" lon="10.730115"><ele>58.0</ele><time>2026-05-01T11:02:38.609Z</time></trkpt><trkpt lat="45.3274117" lon="10.7300617"><ele>58.0</ele><time>2026-05-01T11:02:39.62Z</time></trkpt><trkpt lat="45.3273" lon="10.7300133"><ele>58.0</ele><time>2026-05-01T11:02:40.602Z</time></trkpt><trkpt lat="45.3271667" lon="10.7299783"><ele>58.0</ele><time>2026-05-01T11:02:41.607Z</time></trkpt><trkpt lat="45.3270067" lon="10.7299717"><ele>58.0</ele><time>2026-05-01T11:02:42.621Z</time></trkpt><trkpt lat="45.3268967" lon="10.7299183"><ele>58.0</ele><time>2026-05-01T11:02:43.602Z</time></trkpt><trkpt lat="45.326795" lon="10.7298817"><ele>58.0</ele><time>2026-05-01T11:02:44.612Z</time></trkpt><trkpt lat="45.3267117" lon="10.7298433"><ele>57.99999999999999</ele><time>2026-05-01T11:02:45.61Z</time></trkpt><trkpt lat="45.3266367" lon="10.7298117"><ele>58.0</ele><time>2026-05-01T11:02:46.607Z</time></trkpt><trkpt lat="45.3265667" lon="10.72979"><ele>58.0</ele><time>2026-05-01T11:02:47.608Z</time></trkpt><trkpt lat="45.32648" lon="10.7297583"><ele>58.0</ele><time>2026-05-01T11:02:49.612Z</time></trkpt><trkpt lat="45.3264083" lon="10.7297883"><ele>57.99999999999999</ele><time>2026-05-01T11:02:51.607Z</time></trkpt><trkpt lat="45.32633" lon="10.7299167"><ele>58.0</ele><time>2026-05-01T11:02:53.606Z</time></trkpt><trkpt lat="45.3262183" lon="10.7299767"><ele>58.4</ele><time>2026-05-01T11:02:55.603Z</time></trkpt><trkpt lat="45.3261333" lon="10.7299517"><ele>58.8</ele><time>2026-05-01T11:02:56.593Z</time></trkpt><trkpt lat="45.3260517" lon="10.72991"><ele>59.2</ele><time>2026-05-01T11:02:57.61Z</time></trkpt><trkpt lat="45.325965" lon="10.7298417"><ele>59.6</ele><time>2026-05-01T11:02:58.605Z</time></trkpt><trkpt lat="45.32586" lon="10.7297917"><ele>60.0</ele><time>2026-05-01T11:02:59.597Z</time></trkpt><trkpt lat="45.3257867" lon="10.729765"><ele>60.0</ele><time>2026-05-01T11:03:00.602Z</time></trkpt><trkpt lat="45.3256917" lon="10.7297433"><ele>60.0</ele><time>2026-05-01T11:03:01.61Z</time></trkpt><trkpt lat="45.3256" lon="10.729725"><ele>60.0</ele><time>2026-05-01T11:03:02.599Z</time></trkpt><trkpt lat="45.325485" lon="10.7296933"><ele>60.0</ele><time>2026-05-01T11:03:03.604Z</time></trkpt><trkpt lat="45.32536" lon="10.7296567"><ele>60.0</ele><time>2026-05-01T11:03:04.598Z</time></trkpt><trkpt lat="45.325225" lon="10.7296217"><ele>60.0</ele><time>2026-05-01T11:03:05.602Z</time></trkpt><trkpt lat="45.3250867" lon="10.729595"><ele>60.0</ele><time>2026-05-01T11:03:06.602Z</time></trkpt><trkpt lat="45.3249533" lon="10.729545"><ele>60.0</ele><time>2026-05-01T11:03:07.615Z</time></trkpt><trkpt lat="45.3248183" lon="10.72951"><ele>60.0</ele><time>2026-05-01T11:03:08.601Z</time></trkpt><trkpt lat="45.3247017" lon="10.7294717"><ele>60.0</ele><time>2026-05-01T11:03:09.61Z</time></trkpt><trkpt lat="45.3245967" lon="10.7294583"><ele>60.0</ele><time>2026-05-01T11:03:10.608Z</time></trkpt><trkpt lat="45.3244983" lon="10.729445"><ele>60.0</ele><time>2026-05-01T11:03:11.603Z</time></trkpt><trkpt lat="45.324395" lon="10.7294233"><ele>60.0</ele><time>2026-05-01T11:03:12.603Z</time></trkpt><trkpt lat="45.324285" lon="10.7293967"><ele>60.0</ele><time>2026-05-01T11:03:13.607Z</time></trkpt><trkpt lat="45.3241667" lon="10.729355"><ele>60.25</ele><time>2026-05-01T11:03:14.604Z</time></trkpt><trkpt lat="45.32404" lon="10.72932"><ele>60.5</ele><time>2026-05-01T11:03:15.6Z</time></trkpt><trkpt lat="45.323915" lon="10.72928"><ele>60.75</ele><time>2026-05-01T11:03:16.601Z</time></trkpt><trkpt lat="45.3237933" lon="10.729235"><ele>61.0</ele><time>2026-05-01T11:03:17.601Z</time></trkpt><trkpt lat="45.323665" lon="10.7292117"><ele>61.0</ele><time>2026-05-01T11:03:18.602Z</time></trkpt><trkpt lat="45.3235317" lon="10.7291717"><ele>61.0</ele><time>2026-05-01T11:03:19.602Z</time></trkpt><trkpt lat="45.3233983" lon="10.7291333"><ele>61.0</ele><time>2026-05-01T11:03:20.601Z</time></trkpt><trkpt lat="45.3232533" lon="10.7291"><ele>61.0</ele><time>2026-05-01T11:03:21.6Z</time></trkpt><trkpt lat="45.3231117" lon="10.7290517"><ele>61.0</ele><time>2026-05-01T11:03:22.601Z</time></trkpt><trkpt lat="45.3229683" lon="10.7290083"><ele>61.0</ele><time>2026-05-01T11:03:23.611Z</time></trkpt><trkpt lat="45.32284" lon="10.7289667"><ele>61.0</ele><time>2026-05-01T11:03:24.62Z</time></trkpt><trkpt lat="45.3227233" lon="10.72891"><ele>61.0</ele><time>2026-05-01T11:03:25.616Z</time></trkpt><trkpt lat="45.3226117" lon="10.728875"><ele>60.99999999999999</ele><time>2026-05-01T11:03:26.604Z</time></trkpt><trkpt lat="45.32252" lon="10.7288367"><ele>61.0</ele><time>2026-05-01T11:03:27.603Z</time></trkpt><trkpt lat="45.3224333" lon="10.72883"><ele>61.0</ele><time>2026-05-01T11:03:28.608Z</time></trkpt><trkpt lat="45.3223483" lon="10.7288"><ele>61.0</ele><time>2026-05-01T11:03:29.62Z</time></trkpt><trkpt lat="45.3222617" lon="10.72877"><ele>60.99999999999999</ele><time>2026-05-01T11:03:30.607Z</time></trkpt><trkpt lat="45.3221817" lon="10.7287367"><ele>61.0</ele><time>2026-05-01T11:03:31.606Z</time></trkpt><trkpt lat="45.322115" lon="10.7287117"><ele>60.99999999999999</ele><time>2026-05-01T11:03:32.604Z</time></trkpt><trkpt lat="45.3220533" lon="10.7286917"><ele>61.0</ele><time>2026-05-01T11:03:33.622Z</time></trkpt><trkpt lat="45.321965" lon="10.7286667"><ele>61.0</ele><time>2026-05-01T11:03:35.603Z</time></trkpt><trkpt lat="45.3219" lon="10.7286617"><ele>61.0</ele><time>2026-05-01T11:03:37.606Z</time></trkpt><trkpt lat="45.3219417" lon="10.7287533"><ele>60.99999999999999</ele><time>2026-05-01T11:03:46.604Z</time></trkpt><trkpt lat="45.322065" lon="10.7287583"><ele>61.0</ele><time>2026-05-01T11:03:48.627Z</time></trkpt><trkpt lat="45.3221317" lon="10.72877"><ele>60.99999999999999</ele><time>2026-05-01T11:03:49.604Z</time></trkpt><trkpt lat="45.32221" lon="10.72879"><ele>61.0</ele><time>2026-05-01T11:03:50.609Z</time></trkpt><trkpt lat="45.3222883" lon="10.7288167"><ele>61.0</ele><time>2026-05-01T11:03:51.604Z</time></trkpt><trkpt lat="45.3223633" lon="10.7288417"><ele>61.0</ele><time>2026-05-01T11:03:52.623Z</time></trkpt><trkpt lat="45.32244" lon="10.7288633"><ele>60.99999999999999</ele><time>2026-05-01T11:03:53.603Z</time></trkpt><trkpt lat="45.3225183" lon="10.7288867"><ele>61.0</ele><time>2026-05-01T11:03:54.61Z</time></trkpt><trkpt lat="45.3226" lon="10.7289067"><ele>61.0</ele><time>2026-05-01T11:03:55.608Z</time></trkpt><trkpt lat="45.3226833" lon="10.7289317"><ele>60.99999999999999</ele><time>2026-05-01T11:03:56.61Z</time></trkpt><trkpt lat="45.322775" lon="10.7289633"><ele>60.99999999999999</ele><time>2026-05-01T11:03:57.602Z</time></trkpt><trkpt lat="45.32288" lon="10.7289933"><ele>61.0</ele><time>2026-05-01T11:03:58.611Z</time></trkpt><trkpt lat="45.323" lon="10.7290233"><ele>61.0</ele><time>2026-05-01T11:03:59.613Z</time></trkpt><trkpt lat="45.3231083" lon="10.7290667"><ele>61.0</ele><time>2026-05-01T11:04:00.608Z</time></trkpt><trkpt lat="45.3232417" lon="10.7291017"><ele>61.0</ele><time>2026-05-01T11:04:01.609Z</time></trkpt><trkpt lat="45.32336" lon="10.7291433"><ele>61.0</ele><time>2026-05-01T11:04:02.6Z</time></trkpt><trkpt lat="45.32349" lon="10.7291733"><ele>61.0</ele><time>2026-05-01T11:04:03.6Z</time></trkpt><trkpt lat="45.3236117" lon="10.729205"><ele>61.0</ele><time>2026-05-01T11:04:04.597Z</time></trkpt><trkpt lat="45.3237133" lon="10.7292317"><ele>60.99999999999999</ele><time>2026-05-01T11:04:05.605Z</time></trkpt><trkpt lat="45.3238083" lon="10.7292683"><ele>60.99999999999999</ele><time>2026-05-01T11:04:06.605Z</time></trkpt><trkpt lat="45.3238917" lon="10.7293017"><ele>61.0</ele><time>2026-05-01T11:04:07.609Z</time></trkpt><trkpt lat="45.324005" lon="10.7293183"><ele>61.0</ele><time>2026-05-01T11:04:08.595Z</time></trkpt><trkpt lat="45.324115" lon="10.7293517"><ele>61.0</ele><time>2026-05-01T11:04:09.602Z</time></trkpt><trkpt lat="45.3242267" lon="10.72938"><ele>61.0</ele><time>2026-05-01T11:04:10.599Z</time></trkpt><trkpt lat="45.324365" lon="10.7294317"><ele>61.0</ele><time>2026-05-01T11:04:11.603Z</time></trkpt><trkpt lat="45.324485" lon="10.7294717"><ele>61.0</ele><time>2026-05-01T11:04:12.607Z</time></trkpt><trkpt lat="45.3245917" lon="10.72949"><ele>61.0</ele><time>2026-05-01T11:04:13.6Z</time></trkpt><trkpt lat="45.324715" lon="10.7295233"><ele>61.0</ele><time>2026-05-01T11:04:14.613Z</time></trkpt><trkpt lat="45.324845" lon="10.7295617"><ele>61.0</ele><time>2026-05-01T11:04:15.601Z</time></trkpt><trkpt lat="45.324965" lon="10.7295883"><ele>61.0</ele><time>2026-05-01T11:04:16.597Z</time></trkpt><trkpt lat="45.325105" lon="10.729625"><ele>61.0</ele><time>2026-05-01T11:04:17.604Z</time></trkpt><trkpt lat="45.3252367" lon="10.7296617"><ele>61.0</ele><time>2026-05-01T11:04:18.604Z</time></trkpt><trkpt lat="45.3253517" lon="10.729695"><ele>61.0</ele><time>2026-05-01T11:04:19.616Z</time></trkpt><trkpt lat="45.3254583" lon="10.7297267"><ele>61.0</ele><time>2026-05-01T11:04:20.611Z</time></trkpt><trkpt lat="45.3255567" lon="10.729755"><ele>60.83333333333333</ele><time>2026-05-01T11:04:21.6Z</time></trkpt><trkpt lat="45.3256417" lon="10.7297833"><ele>60.666666666666664</ele><time>2026-05-01T11:04:22.599Z</time></trkpt><trkpt lat="45.32572" lon="10.7298"><ele>60.5</ele><time>2026-05-01T11:04:23.599Z</time></trkpt><trkpt lat="45.3257933" lon="10.7298283"><ele>60.33333333333333</ele><time>2026-05-01T11:04:24.608Z</time></trkpt><trkpt lat="45.325875" lon="10.729865"><ele>60.166666666666664</ele><time>2026-05-01T11:04:25.602Z</time></trkpt><trkpt lat="45.3259833" lon="10.7299017"><ele>60.0</ele><time>2026-05-01T11:04:26.605Z</time></trkpt><trkpt lat="45.3260833" lon="10.7299333"><ele>60.0</ele><time>2026-05-01T11:04:27.608Z</time></trkpt><trkpt lat="45.3261783" lon="10.72995"><ele>60.0</ele><time>2026-05-01T11:04:28.599Z</time></trkpt><trkpt lat="45.3262483" lon="10.7299733"><ele>60.0</ele><time>2026-05-01T11:04:29.603Z</time></trkpt><trkpt lat="45.3263233" lon="10.73002"><ele>60.0</ele><time>2026-05-01T11:04:31.606Z</time></trkpt><trkpt lat="45.3263983" lon="10.7299617"><ele>60.0</ele><time>2026-05-01T11:04:34.593Z</time></trkpt><trkpt lat="45.32644" lon="10.7297967"><ele>59.8</ele><time>2026-05-01T11:04:36.603Z</time></trkpt><trkpt lat="45.3264517" lon="10.729685"><ele>59.6</ele><time>2026-05-01T11:04:37.61Z</time></trkpt><trkpt lat="45.3264617" lon="10.72956"><ele>59.400000000000006</ele><time>2026-05-01T11:04:38.601Z</time></trkpt><trkpt lat="45.3264717" lon="10.7294267"><ele>59.2</ele><time>2026-05-01T11:04:39.638Z</time></trkpt><trkpt lat="45.326475" lon="10.7292667"><ele>59.0</ele><time>2026-05-01T11:04:40.599Z</time></trkpt><trkpt lat="45.326485" lon="10.7290983"><ele>59.0</ele><time>2026-05-01T11:04:41.602Z</time></trkpt><trkpt lat="45.3265" lon="10.728925"><ele>59.0</ele><time>2026-05-01T11:04:42.609Z</time></trkpt><trkpt lat="45.3265267" lon="10.7287517"><ele>59.0</ele><time>2026-05-01T11:04:43.598Z</time></trkpt><trkpt lat="45.3265367" lon="10.728555"><ele>59.0</ele><time>2026-05-01T11:04:44.6Z</time></trkpt><trkpt lat="45.32655" lon="10.7283717"><ele>58.25</ele><time>2026-05-01T11:04:45.602Z</time></trkpt><trkpt lat="45.3265667" lon="10.7281717"><ele>57.5</ele><time>2026-05-01T11:04:46.639Z</time></trkpt><trkpt lat="45.3265783" lon="10.72797"><ele>56.75</ele><time>2026-05-01T11:04:47.601Z</time></trkpt><trkpt lat="45.326615" lon="10.7277717"><ele>56.0</ele><time>2026-05-01T11:04:48.647Z</time></trkpt><trkpt lat="45.326645" lon="10.72759"><ele>56.0</ele><time>2026-05-01T11:04:49.621Z</time></trkpt><trkpt lat="45.3266517" lon="10.7273967"><ele>56.0</ele><time>2026-05-01T11:04:50.607Z</time></trkpt><trkpt lat="45.3266717" lon="10.7272283"><ele>56.0</ele><time>2026-05-01T11:04:51.603Z</time></trkpt><trkpt lat="45.326695" lon="10.727045"><ele>56.0</ele><time>2026-05-01T11:04:52.608Z</time></trkpt><trkpt lat="45.3267183" lon="10.72692"><ele>56.333333333333336</ele><time>2026-05-01T11:04:53.602Z</time></trkpt><trkpt lat="45.326735" lon="10.7268267"><ele>56.66666666666667</ele><time>2026-05-01T11:04:54.604Z</time></trkpt><trkpt lat="45.326765" lon="10.7267183"><ele>57.0</ele><time>2026-05-01T11:04:56.606Z</time></trkpt><trkpt lat="45.3267017" lon="10.7267517"><ele>57.33333333333333</ele><time>2026-05-01T11:05:06.604Z</time></trkpt><trkpt lat="45.3266367" lon="10.72675"><ele>57.666666666666664</ele><time>2026-05-01T11:05:07.605Z</time></trkpt><trkpt lat="45.3265483" lon="10.72676"><ele>58.0</ele><time>2026-05-01T11:05:08.6Z</time></trkpt><trkpt lat="45.3264517" lon="10.7267767"><ele>58.25</ele><time>2026-05-01T11:05:09.605Z</time></trkpt><trkpt lat="45.32633" lon="10.7268233"><ele>58.5</ele><time>2026-05-01T11:05:10.599Z</time></trkpt><trkpt lat="45.3262167" lon="10.7268383"><ele>58.75</ele><time>2026-05-01T11:05:11.603Z</time></trkpt><trkpt lat="45.32609" lon="10.7268433"><ele>59.0</ele><time>2026-05-01T11:05:12.616Z</time></trkpt><trkpt lat="45.3259567" lon="10.7268483"><ele>59.0</ele><time>2026-05-01T11:05:13.598Z</time></trkpt><trkpt lat="45.32582" lon="10.7268367"><ele>59.00000000000001</ele><time>2026-05-01T11:05:14.6Z</time></trkpt><trkpt lat="45.3257233" lon="10.72683"><ele>59.00000000000001</ele><time>2026-05-01T11:05:15.601Z</time></trkpt><trkpt lat="45.3256183" lon="10.7268167"><ele>59.0</ele><time>2026-05-01T11:05:16.6Z</time></trkpt><trkpt lat="45.32553" lon="10.7267917"><ele>59.0</ele><time>2026-05-01T11:05:17.605Z</time></trkpt><trkpt lat="45.3254433" lon="10.7267617"><ele>59.333333333333336</ele><time>2026-05-01T11:05:18.607Z</time></trkpt><trkpt lat="45.3253683" lon="10.726745"><ele>59.66666666666667</ele><time>2026-05-01T11:05:19.601Z</time></trkpt><trkpt lat="45.3253033" lon="10.726725"><ele>60.0</ele><time>2026-05-01T11:05:20.599Z</time></trkpt><trkpt lat="45.3252367" lon="10.7267067"><ele>60.33333333333333</ele><time>2026-05-01T11:05:21.607Z</time></trkpt><trkpt lat="45.3251583" lon="10.7266967"><ele>60.666666666666664</ele><time>2026-05-01T11:05:22.606Z</time></trkpt><trkpt lat="45.3250667" lon="10.7266883"><ele>61.0</ele><time>2026-05-01T11:05:23.609Z</time></trkpt><trkpt lat="45.324965" lon="10.7266783"><ele>60.99999999999999</ele><time>2026-05-01T11:05:24.609Z</time></trkpt><trkpt lat="45.3248667" lon="10.7266667"><ele>61.0</ele><time>2026-05-01T11:05:25.605Z</time></trkpt><trkpt lat="45.32478" lon="10.7266267"><ele>61.0</ele><time>2026-05-01T11:05:26.601Z</time></trkpt><trkpt lat="45.324685" lon="10.7266367"><ele>61.0</ele><time>2026-05-01T11:05:27.6Z</time></trkpt><trkpt lat="45.3246067" lon="10.72662"><ele>60.99999999999999</ele><time>2026-05-01T11:05:28.603Z</time></trkpt><trkpt lat="45.3245283" lon="10.72661"><ele>61.0</ele><time>2026-05-01T11:05:29.598Z</time></trkpt><trkpt lat="45.32443" lon="10.7265933"><ele>61.25</ele><time>2026-05-01T11:05:30.614Z</time></trkpt><trkpt lat="45.32432" lon="10.726605"><ele>61.5</ele><time>2026-05-01T11:05:31.604Z</time></trkpt><trkpt lat="45.3241767" lon="10.72663"><ele>61.75</ele><time>2026-05-01T11:05:32.601Z</time></trkpt><trkpt lat="45.3240767" lon="10.7265883"><ele>62.0</ele><time>2026-05-01T11:05:33.608Z</time></trkpt><trkpt lat="45.3239533" lon="10.72658"><ele>61.8</ele><time>2026-05-01T11:05:34.601Z</time></trkpt><trkpt lat="45.32385" lon="10.7265767"><ele>61.6</ele><time>2026-05-01T11:05:35.603Z</time></trkpt><trkpt lat="45.3237433" lon="10.726555"><ele>61.39999999999999</ele><time>2026-05-01T11:05:36.602Z</time></trkpt><trkpt lat="45.3236333" lon="10.7265383"><ele>61.199999999999996</ele><time>2026-05-01T11:05:37.604Z</time></trkpt><trkpt lat="45.3235083" lon="10.72653"><ele>61.0</ele><time>2026-05-01T11:05:38.596Z</time></trkpt><trkpt lat="45.3234" lon="10.7265217"><ele>61.0</ele><time>2026-05-01T11:05:39.603Z</time></trkpt><trkpt lat="45.3232733" lon="10.72649"><ele>61.0</ele><time>2026-05-01T11:05:40.601Z</time></trkpt><trkpt lat="45.3231583" lon="10.7264567"><ele>61.0</ele><time>2026-05-01T11:05:41.606Z</time></trkpt><trkpt lat="45.32303" lon="10.7264383"><ele>61.0</ele><time>2026-05-01T11:05:42.608Z</time></trkpt><trkpt lat="45.3229133" lon="10.7264333"><ele>60.4</ele><time>2026-05-01T11:05:43.603Z</time></trkpt><trkpt lat="45.322795" lon="10.7264233"><ele>59.8</ele><time>2026-05-01T11:05:44.598Z</time></trkpt><trkpt lat="45.3226917" lon="10.7264167"><ele>59.199999999999996</ele><time>2026-05-01T11:05:45.602Z</time></trkpt><trkpt lat="45.3225717" lon="10.7263817"><ele>58.599999999999994</ele><time>2026-05-01T11:05:46.597Z</time></trkpt><trkpt lat="45.32247" lon="10.7263483"><ele>58.0</ele><time>2026-05-01T11:05:47.602Z</time></trkpt><trkpt lat="45.3223383" lon="10.7263367"><ele>57.99999999999999</ele><time>2026-05-01T11:05:48.597Z</time></trkpt><trkpt lat="45.3222317" lon="10.7263267"><ele>58.0</ele><time>2026-05-01T11:05:49.599Z</time></trkpt><trkpt lat="45.3221567" lon="10.7263267"><ele>58.0</ele><time>2026-05-01T11:05:50.605Z</time></trkpt><trkpt lat="45.3220683" lon="10.7263117"><ele>58.0</ele><time>2026-05-01T11:05:51.608Z</time></trkpt><trkpt lat="45.3219967" lon="10.7263"><ele>57.99999999999999</ele><time>2026-05-01T11:05:52.603Z</time></trkpt><trkpt lat="45.3219317" lon="10.7262817"><ele>58.0</ele><time>2026-05-01T11:05:53.603Z</time></trkpt><trkpt lat="45.32186" lon="10.7262767"><ele>58.0</ele><time>2026-05-01T11:05:55.598Z</time></trkpt><trkpt lat="45.3218117" lon="10.726345"><ele>58.0</ele><time>2026-05-01T11:05:57.603Z</time></trkpt><trkpt lat="45.3217583" lon="10.7265017"><ele>58.0</ele><time>2026-05-01T11:05:59.611Z</time></trkpt><trkpt lat="45.3217233" lon="10.7266117"><ele>58.0</ele><time>2026-05-01T11:06:00.604Z</time></trkpt><trkpt lat="45.3216867" lon="10.7267333"><ele>58.0</ele><time>2026-05-01T11:06:01.602Z</time></trkpt><trkpt lat="45.3216633" lon="10.726885"><ele>58.25</ele><time>2026-05-01T11:06:02.614Z</time></trkpt><trkpt lat="45.3216083" lon="10.7270317"><ele>58.5</ele><time>2026-05-01T11:06:03.597Z</time></trkpt><trkpt lat="45.3215533" lon="10.727185"><ele>58.75</ele><time>2026-05-01T11:06:04.603Z</time></trkpt><trkpt lat="45.3215183" lon="10.7273383"><ele>59.0</ele><time>2026-05-01T11:06:05.603Z</time></trkpt><trkpt lat="45.3214717" lon="10.7274683"><ele>59.0</ele><time>2026-05-01T11:06:06.615Z</time></trkpt><trkpt lat="45.321425" lon="10.7276133"><ele>59.00000000000001</ele><time>2026-05-01T11:06:07.606Z</time></trkpt><trkpt lat="45.3213717" lon="10.7277767"><ele>59.00000000000001</ele><time>2026-05-01T11:06:08.604Z</time></trkpt><trkpt lat="45.3213117" lon="10.727915"><ele>59.0</ele><time>2026-05-01T11:06:09.613Z</time></trkpt><trkpt lat="45.3212717" lon="10.7280367"><ele>59.0</ele><time>2026-05-01T11:06:10.606Z</time></trkpt><trkpt lat="45.3212217" lon="10.7281817"><ele>59.0</ele><time>2026-05-01T11:06:11.602Z</time></trkpt><trkpt lat="45.3211967" lon="10.728275"><ele>59.0</ele><time>2026-05-01T11:06:12.609Z</time></trkpt><trkpt lat="45.321175" lon="10.72837"><ele>59.0</ele><time>2026-05-01T11:06:13.602Z</time></trkpt><trkpt lat="45.3211083" lon="10.7284667"><ele>59.0</ele><time>2026-05-01T11:06:15.607Z</time></trkpt><trkpt lat="45.3210417" lon="10.72845"><ele>59.0</ele><time>2026-05-01T11:06:17.598Z</time></trkpt><trkpt lat="45.32098" lon="10.7283867"><ele>59.0</ele><time>2026-05-01T11:06:22.607Z</time></trkpt><trkpt lat="45.3209967" lon="10.7283"><ele>59.0</ele><time>2026-05-01T11:06:24.604Z</time></trkpt><trkpt lat="45.3210483" lon="10.7281383"><ele>59.0</ele><time>2026-05-01T11:06:26.608Z</time></trkpt><trkpt lat="45.3210783" lon="10.728035"><ele>59.00000000000001</ele><time>2026-05-01T11:06:27.629Z</time></trkpt><trkpt lat="45.3211133" lon="10.72791"><ele>59.00000000000001</ele><time>2026-05-01T11:06:28.607Z</time></trkpt><trkpt lat="45.3211533" lon="10.7277733"><ele>59.0</ele><time>2026-05-01T11:06:29.603Z</time></trkpt><trkpt lat="45.321195" lon="10.727605"><ele>59.0</ele><time>2026-05-01T11:06:30.606Z</time></trkpt><trkpt lat="45.32125" lon="10.7274133"><ele>58.800000000000004</ele><time>2026-05-01T11:06:31.601Z</time></trkpt><trkpt lat="45.321295" lon="10.7272583"><ele>58.60000000000001</ele><time>2026-05-01T11:06:32.619Z</time></trkpt><trkpt lat="45.32134" lon="10.72712"><ele>58.4</ele><time>2026-05-01T11:06:33.61Z</time></trkpt><trkpt lat="45.32138" lon="10.72699"><ele>58.2</ele><time>2026-05-01T11:06:34.6Z</time></trkpt><trkpt lat="45.3214333" lon="10.7268683"><ele>58.0</ele><time>2026-05-01T11:06:35.606Z</time></trkpt><trkpt lat="45.3214633" lon="10.7267517"><ele>58.0</ele><time>2026-05-01T11:06:36.613Z</time></trkpt><trkpt lat="45.3215017" lon="10.7266133"><ele>58.0</ele><time>2026-05-01T11:06:37.62Z</time></trkpt><trkpt lat="45.3215333" lon="10.7264633"><ele>58.0</ele><time>2026-05-01T11:06:38.619Z</time></trkpt><trkpt lat="45.3215683" lon="10.726335"><ele>58.0</ele><time>2026-05-01T11:06:39.607Z</time></trkpt><trkpt lat="45.321595" lon="10.726215"><ele>58.0</ele><time>2026-05-01T11:06:40.596Z</time></trkpt><trkpt lat="45.3216217" lon="10.726115"><ele>57.666666666666664</ele><time>2026-05-01T11:06:41.608Z</time></trkpt><trkpt lat="45.32164" lon="10.7260233"><ele>57.33333333333333</ele><time>2026-05-01T11:06:42.627Z</time></trkpt><trkpt lat="45.3216667" lon="10.7258783"><ele>57.0</ele><time>2026-05-01T11:06:44.609Z</time></trkpt><trkpt lat="45.321665" lon="10.72577"><ele>56.66666666666667</ele><time>2026-05-01T11:06:46.601Z</time></trkpt><trkpt lat="45.321685" lon="10.7256567"><ele>56.333333333333336</ele><time>2026-05-01T11:06:53.608Z</time></trkpt><trkpt lat="45.3217" lon="10.7255583"><ele>56.0</ele><time>2026-05-01T11:06:54.601Z</time></trkpt><trkpt lat="45.321725" lon="10.7254417"><ele>56.0</ele><time>2026-05-01T11:06:55.609Z</time></trkpt><trkpt lat="45.3217467" lon="10.7252967"><ele>55.99999999999999</ele><time>2026-05-01T11:06:56.65Z</time></trkpt><trkpt lat="45.3217817" lon="10.7251233"><ele>55.99999999999999</ele><time>2026-05-01T11:06:57.606Z</time></trkpt><trkpt lat="45.321825" lon="10.7249683"><ele>56.0</ele><time>2026-05-01T11:06:58.607Z</time></trkpt><trkpt lat="45.3218517" lon="10.724845"><ele>56.0</ele><time>2026-05-01T11:06:59.602Z</time></trkpt><trkpt lat="45.321875" lon="10.7247067"><ele>55.4</ele><time>2026-05-01T11:07:00.614Z</time></trkpt><trkpt lat="45.32189" lon="10.7245567"><ele>54.8</ele><time>2026-05-01T11:07:01.596Z</time></trkpt><trkpt lat="45.321905" lon="10.7244067"><ele>54.199999999999996</ele><time>2026-05-01T11:07:02.608Z</time></trkpt><trkpt lat="45.32192" lon="10.7242517"><ele>53.599999999999994</ele><time>2026-05-01T11:07:03.6Z</time></trkpt><trkpt lat="45.3219367" lon="10.72412"><ele>53.0</ele><time>2026-05-01T11:07:04.607Z</time></trkpt><trkpt lat="45.32195" lon="10.72402"><ele>52.833333333333336</ele><time>2026-05-01T11:07:05.62Z</time></trkpt><trkpt lat="45.3219667" lon="10.7239333"><ele>52.66666666666667</ele><time>2026-05-01T11:07:06.62Z</time></trkpt><trkpt lat="45.3219983" lon="10.723845"><ele>52.5</ele><time>2026-05-01T11:07:07.616Z</time></trkpt><trkpt lat="45.322055" lon="10.7237433"><ele>52.33333333333333</ele><time>2026-05-01T11:07:08.612Z</time></trkpt><trkpt lat="45.3221067" lon="10.7236467"><ele>52.166666666666664</ele><time>2026-05-01T11:07:09.611Z</time></trkpt><trkpt lat="45.32216" lon="10.7235417"><ele>52.0</ele><time>2026-05-01T11:07:10.618Z</time></trkpt><trkpt lat="45.3222267" lon="10.723425"><ele>52.166666666666664</ele><time>2026-05-01T11:07:11.609Z</time></trkpt><trkpt lat="45.32227" lon="10.7233083"><ele>52.33333333333333</ele><time>2026-05-01T11:07:12.617Z</time></trkpt><trkpt lat="45.3223133" lon="10.7231983"><ele>52.5</ele><time>2026-05-01T11:07:13.631Z</time></trkpt><trkpt lat="45.3223483" lon="10.723075"><ele>52.66666666666667</ele><time>2026-05-01T11:07:14.626Z</time></trkpt><trkpt lat="45.3223733" lon="10.7229517"><ele>52.833333333333336</ele><time>2026-05-01T11:07:15.687Z</time></trkpt><trkpt lat="45.3224133" lon="10.7228533"><ele>53.0</ele><time>2026-05-01T11:07:16.608Z</time></trkpt><trkpt lat="45.322455" lon="10.7227517"><ele>52.833333333333336</ele><time>2026-05-01T11:07:17.617Z</time></trkpt><trkpt lat="45.3225017" lon="10.7226417"><ele>52.66666666666667</ele><time>2026-05-01T11:07:18.635Z</time></trkpt><trkpt lat="45.3225467" lon="10.7225583"><ele>52.5</ele><time>2026-05-01T11:07:19.609Z</time></trkpt><trkpt lat="45.3225917" lon="10.7224833"><ele>52.33333333333333</ele><time>2026-05-01T11:07:20.606Z</time></trkpt><trkpt lat="45.32264" lon="10.72235"><ele>52.166666666666664</ele><time>2026-05-01T11:07:22.611Z</time></trkpt><trkpt lat="45.3226483" lon="10.7222233"><ele>52.0</ele><time>2026-05-01T11:07:35.611Z</time></trkpt><trkpt lat="45.32259" lon="10.72233"><ele>51.99999999999999</ele><time>2026-05-01T11:07:43.612Z</time></trkpt><trkpt lat="45.3225517" lon="10.7224717"><ele>52.0</ele><time>2026-05-01T11:07:45.614Z</time></trkpt><trkpt lat="45.3225233" lon="10.722565"><ele>52.0</ele><time>2026-05-01T11:07:46.61Z</time></trkpt><trkpt lat="45.3224883" lon="10.72267"><ele>52.0</ele><time>2026-05-01T11:07:47.621Z</time></trkpt><trkpt lat="45.322445" lon="10.7227867"><ele>51.99999999999999</ele><time>2026-05-01T11:07:48.613Z</time></trkpt><trkpt lat="45.3224267" lon="10.7229017"><ele>52.0</ele><time>2026-05-01T11:07:49.615Z</time></trkpt><trkpt lat="45.3223783" lon="10.7230433"><ele>52.0</ele><time>2026-05-01T11:07:50.606Z</time></trkpt><trkpt lat="45.32234" lon="10.7231667"><ele>52.0</ele><time>2026-05-01T11:07:51.61Z</time></trkpt><trkpt lat="45.3223033" lon="10.723285"><ele>52.0</ele><time>2026-05-01T11:07:52.618Z</time></trkpt><trkpt lat="45.3222533" lon="10.72342"><ele>52.0</ele><time>2026-05-01T11:07:53.603Z</time></trkpt><trkpt lat="45.3222067" lon="10.7235483"><ele>52.0</ele><time>2026-05-01T11:07:54.604Z</time></trkpt><trkpt lat="45.3221583" lon="10.7236567"><ele>52.0</ele><time>2026-05-01T11:07:55.608Z</time></trkpt><trkpt lat="45.322075" lon="10.7238083"><ele>52.0</ele><time>2026-05-01T11:07:57.603Z</time></trkpt><trkpt lat="45.322035" lon="10.7239317"><ele>52.0</ele><time>2026-05-01T11:07:58.608Z</time></trkpt><trkpt lat="45.3219933" lon="10.7240633"><ele>52.0</ele><time>2026-05-01T11:07:59.601Z</time></trkpt><trkpt lat="45.3219667" lon="10.7242333"><ele>52.0</ele><time>2026-05-01T11:08:00.601Z</time></trkpt><trkpt lat="45.3219333" lon="10.724395"><ele>52.0</ele><time>2026-05-01T11:08:01.606Z</time></trkpt><trkpt lat="45.321895" lon="10.7245533"><ele>52.0</ele><time>2026-05-01T11:08:02.609Z</time></trkpt><trkpt lat="45.3218567" lon="10.7247217"><ele>52.0</ele><time>2026-05-01T11:08:03.602Z</time></trkpt><trkpt lat="45.32183" lon="10.724895"><ele>52.25</ele><time>2026-05-01T11:08:04.609Z</time></trkpt><trkpt lat="45.3217917" lon="10.7250833"><ele>52.5</ele><time>2026-05-01T11:08:05.6Z</time></trkpt><trkpt lat="45.3217683" lon="10.725255"><ele>52.75</ele><time>2026-05-01T11:08:06.615Z</time></trkpt><trkpt lat="45.3217433" lon="10.7253967"><ele>53.0</ele><time>2026-05-01T11:08:07.605Z</time></trkpt><trkpt lat="45.3217" lon="10.725535"><ele>53.50000000000001</ele><time>2026-05-01T11:08:08.609Z</time></trkpt><trkpt lat="45.3216433" lon="10.7256517"><ele>54.0</ele><time>2026-05-01T11:08:10.607Z</time></trkpt><trkpt lat="45.3216" lon="10.7257233"><ele>54.5</ele><time>2026-05-01T11:08:12.608Z</time></trkpt><trkpt lat="45.3215167" lon="10.7256517"><ele>55.0</ele><time>2026-05-01T11:08:14.608Z</time></trkpt><trkpt lat="45.3214483" lon="10.72561"><ele>55.50000000000001</ele><time>2026-05-01T11:08:15.6Z</time></trkpt><trkpt lat="45.3213867" lon="10.7255467"><ele>56.0</ele><time>2026-05-01T11:08:16.6Z</time></trkpt><trkpt lat="45.3213083" lon="10.7254933"><ele>55.8</ele><time>2026-05-01T11:08:17.607Z</time></trkpt><trkpt lat="45.3212217" lon="10.7254467"><ele>55.599999999999994</ele><time>2026-05-01T11:08:18.603Z</time></trkpt><trkpt lat="45.3211267" lon="10.725405"><ele>55.4</ele><time>2026-05-01T11:08:19.615Z</time></trkpt><trkpt lat="45.3210533" lon="10.7253383"><ele>55.2</ele><time>2026-05-01T11:08:20.602Z</time></trkpt><trkpt lat="45.3209767" lon="10.72527"><ele>55.0</ele><time>2026-05-01T11:08:21.611Z</time></trkpt><trkpt lat="45.3209017" lon="10.7252"><ele>54.99999999999999</ele><time>2026-05-01T11:08:22.606Z</time></trkpt><trkpt lat="45.3208233" lon="10.7251183"><ele>55.0</ele><time>2026-05-01T11:08:23.62Z</time></trkpt><trkpt lat="45.320755" lon="10.72504"><ele>55.0</ele><time>2026-05-01T11:08:24.607Z</time></trkpt><trkpt lat="45.3207067" lon="10.7249733"><ele>55.0</ele><time>2026-05-01T11:08:25.6Z</time></trkpt><trkpt lat="45.3206333" lon="10.7248867"><ele>54.99999999999999</ele><time>2026-05-01T11:08:26.602Z</time></trkpt><trkpt lat="45.3205633" lon="10.7247883"><ele>55.0</ele><time>2026-05-01T11:08:27.608Z</time></trkpt><trkpt lat="45.3204733" lon="10.724695"><ele>54.99999999999999</ele><time>2026-05-01T11:08:28.603Z</time></trkpt><trkpt lat="45.320395" lon="10.7246167"><ele>55.0</ele><time>2026-05-01T11:08:29.603Z</time></trkpt><trkpt lat="45.3203417" lon="10.7245383"><ele>55.0</ele><time>2026-05-01T11:08:30.607Z</time></trkpt><trkpt lat="45.3202767" lon="10.7244733"><ele>55.0</ele><time>2026-05-01T11:08:31.607Z</time></trkpt><trkpt lat="45.32022" lon="10.7244267"><ele>54.99999999999999</ele><time>2026-05-01T11:08:32.601Z</time></trkpt><trkpt lat="45.320155" lon="10.724405"><ele>55.0</ele><time>2026-05-01T11:08:33.602Z</time></trkpt><trkpt lat="45.3200917" lon="10.72437"><ele>55.0</ele><time>2026-05-01T11:08:34.601Z</time></trkpt><trkpt lat="45.3200283" lon="10.7243183"><ele>55.0</ele><time>2026-05-01T11:08:35.598Z</time></trkpt><trkpt lat="45.3199733" lon="10.7242333"><ele>55.0</ele><time>2026-05-01T11:08:36.608Z</time></trkpt><trkpt lat="45.3199167" lon="10.724125"><ele>55.0</ele><time>2026-05-01T11:08:37.603Z</time></trkpt><trkpt lat="45.319865" lon="10.7239883"><ele>55.0</ele><time>2026-05-01T11:08:38.605Z</time></trkpt><trkpt lat="45.3198117" lon="10.72387"><ele>55.0</ele><time>2026-05-01T11:08:39.608Z</time></trkpt><trkpt lat="45.3197517" lon="10.7237633"><ele>55.0</ele><time>2026-05-01T11:08:40.602Z</time></trkpt><trkpt lat="45.3196817" lon="10.7236433"><ele>55.0</ele><time>2026-05-01T11:08:41.608Z</time></trkpt><trkpt lat="45.3196317" lon="10.7235017"><ele>55.0</ele><time>2026-05-01T11:08:42.61Z</time></trkpt><trkpt lat="45.3195783" lon="10.7233833"><ele>55.0</ele><time>2026-05-01T11:08:43.606Z</time></trkpt><trkpt lat="45.3195183" lon="10.7232633"><ele>54.6</ele><time>2026-05-01T11:08:44.61Z</time></trkpt><trkpt lat="45.3194467" lon="10.7231533"><ele>54.2</ele><time>2026-05-01T11:08:45.609Z</time></trkpt><trkpt lat="45.3193783" lon="10.72303"><ele>53.8</ele><time>2026-05-01T11:08:46.606Z</time></trkpt><trkpt lat="45.31932" lon="10.7229367"><ele>53.4</ele><time>2026-05-01T11:08:47.601Z</time></trkpt><trkpt lat="45.31925" lon="10.72282"><ele>53.0</ele><time>2026-05-01T11:08:48.6Z</time></trkpt><trkpt lat="45.3192" lon="10.7227283"><ele>52.833333333333336</ele><time>2026-05-01T11:08:49.603Z</time></trkpt><trkpt lat="45.3191483" lon="10.7226317"><ele>52.66666666666667</ele><time>2026-05-01T11:08:50.596Z</time></trkpt><trkpt lat="45.3190933" lon="10.7225433"><ele>52.5</ele><time>2026-05-01T11:08:51.603Z</time></trkpt><trkpt lat="45.319045" lon="10.7224667"><ele>52.33333333333333</ele><time>2026-05-01T11:08:52.597Z</time></trkpt><trkpt lat="45.3189867" lon="10.7223517"><ele>52.166666666666664</ele><time>2026-05-01T11:08:54.601Z</time></trkpt><trkpt lat="45.3189217" lon="10.7222767"><ele>52.0</ele><time>2026-05-01T11:08:57.594Z</time></trkpt><trkpt lat="45.3188683" lon="10.7221933"><ele>51.99999999999999</ele><time>2026-05-01T11:09:00.603Z</time></trkpt><trkpt lat="45.318785" lon="10.7221167"><ele>52.0</ele><time>2026-05-01T11:09:02.6Z</time></trkpt><trkpt lat="45.3187233" lon="10.722055"><ele>52.0</ele><time>2026-05-01T11:09:03.607Z</time></trkpt><trkpt lat="45.3186567" lon="10.721985"><ele>52.0</ele><time>2026-05-01T11:09:04.595Z</time></trkpt><trkpt lat="45.318585" lon="10.7219167"><ele>51.99999999999999</ele><time>2026-05-01T11:09:05.604Z</time></trkpt><trkpt lat="45.3185083" lon="10.7218483"><ele>52.0</ele><time>2026-05-01T11:09:06.599Z</time></trkpt><trkpt lat="45.3183483" lon="10.7217317"><ele>51.99999999999999</ele><time>2026-05-01T11:09:08.601Z</time></trkpt><trkpt lat="45.318275" lon="10.7216817"><ele>52.0</ele><time>2026-05-01T11:09:09.61Z</time></trkpt><trkpt lat="45.3182233" lon="10.721615"><ele>52.0</ele><time>2026-05-01T11:09:10.603Z</time></trkpt><trkpt lat="45.3181667" lon="10.721525"><ele>52.0</ele><time>2026-05-01T11:09:11.599Z</time></trkpt><trkpt lat="45.3180983" lon="10.7214283"><ele>51.99999999999999</ele><time>2026-05-01T11:09:12.617Z</time></trkpt><trkpt lat="45.3180533" lon="10.721325"><ele>52.0</ele><time>2026-05-01T11:09:13.603Z</time></trkpt><trkpt lat="45.3180167" lon="10.7212067"><ele>52.0</ele><time>2026-05-01T11:09:14.604Z</time></trkpt><trkpt lat="45.3179967" lon="10.7210967"><ele>52.0</ele><time>2026-05-01T11:09:15.601Z</time></trkpt><trkpt lat="45.3179633" lon="10.7209933"><ele>52.0</ele><time>2026-05-01T11:09:16.6Z</time></trkpt><trkpt lat="45.3179283" lon="10.7209117"><ele>52.0</ele><time>2026-05-01T11:09:17.634Z</time></trkpt><trkpt lat="45.3178633" lon="10.72083"><ele>52.0</ele><time>2026-05-01T11:09:19.605Z</time></trkpt><trkpt lat="45.3177133" lon="10.720815"><ele>51.5</ele><time>2026-05-01T11:09:21.602Z</time></trkpt><trkpt lat="45.3175983" lon="10.7208383"><ele>51.0</ele><time>2026-05-01T11:09:22.603Z</time></trkpt><trkpt lat="45.3174767" lon="10.7208883"><ele>50.5</ele><time>2026-05-01T11:09:23.605Z</time></trkpt><trkpt lat="45.3173417" lon="10.720895"><ele>50.0</ele><time>2026-05-01T11:09:24.6Z</time></trkpt><trkpt lat="45.3171983" lon="10.7209233"><ele>50.0</ele><time>2026-05-01T11:09:25.617Z</time></trkpt><trkpt lat="45.3170567" lon="10.7209217"><ele>50.0</ele><time>2026-05-01T11:09:26.599Z</time></trkpt><trkpt lat="45.316925" lon="10.7209467"><ele>50.0</ele><time>2026-05-01T11:09:27.604Z</time></trkpt><trkpt lat="45.316785" lon="10.7209383"><ele>50.0</ele><time>2026-05-01T11:09:28.601Z</time></trkpt><trkpt lat="45.31667" lon="10.7209567"><ele>50.0</ele><time>2026-05-01T11:09:29.618Z</time></trkpt><trkpt lat="45.3165333" lon="10.7209667"><ele>50.0</ele><time>2026-05-01T11:09:30.607Z</time></trkpt><trkpt lat="45.3163983" lon="10.7209733"><ele>50.0</ele><time>2026-05-01T11:09:31.608Z</time></trkpt><trkpt lat="45.3162483" lon="10.7209767"><ele>50.0</ele><time>2026-05-01T11:09:32.606Z</time></trkpt><trkpt lat="45.316105" lon="10.7209883"><ele>50.25</ele><time>2026-05-01T11:09:33.606Z</time></trkpt><trkpt lat="45.3159717" lon="10.7209867"><ele>50.5</ele><time>2026-05-01T11:09:34.602Z</time></trkpt><trkpt lat="45.315855" lon="10.7209967"><ele>50.75</ele><time>2026-05-01T11:09:35.607Z</time></trkpt><trkpt lat="45.31572" lon="10.720995"><ele>51.0</ele><time>2026-05-01T11:09:36.606Z</time></trkpt><trkpt lat="45.3155933" lon="10.7209867"><ele>50.75</ele><time>2026-05-01T11:09:37.607Z</time></trkpt><trkpt lat="45.3154683" lon="10.72098"><ele>50.5</ele><time>2026-05-01T11:09:38.622Z</time></trkpt><trkpt lat="45.315335" lon="10.7209867"><ele>50.25</ele><time>2026-05-01T11:09:39.617Z</time></trkpt><trkpt lat="45.3151967" lon="10.7209967"><ele>50.0</ele><time>2026-05-01T11:09:40.639Z</time></trkpt><trkpt lat="45.3150633" lon="10.7209983"><ele>50.0</ele><time>2026-05-01T11:09:41.608Z</time></trkpt><trkpt lat="45.3149517" lon="10.72101"><ele>50.0</ele><time>2026-05-01T11:09:42.603Z</time></trkpt><trkpt lat="45.3148733" lon="10.7209967"><ele>50.0</ele><time>2026-05-01T11:09:43.606Z</time></trkpt><trkpt lat="45.3147883" lon="10.7210117"><ele>50.0</ele><time>2026-05-01T11:09:44.604Z</time></trkpt><trkpt lat="45.3147133" lon="10.7210083"><ele>50.0</ele><time>2026-05-01T11:09:45.61Z</time></trkpt><trkpt lat="45.31462" lon="10.720915"><ele>50.4</ele><time>2026-05-01T11:09:47.604Z</time></trkpt><trkpt lat="45.3145917" lon="10.720835"><ele>50.8</ele><time>2026-05-01T11:09:48.613Z</time></trkpt><trkpt lat="45.3145533" lon="10.7206867"><ele>51.2</ele><time>2026-05-01T11:09:50.607Z</time></trkpt><trkpt lat="45.31451" lon="10.7205517"><ele>51.6</ele><time>2026-05-01T11:09:52.601Z</time></trkpt><trkpt lat="45.31447" lon="10.7204167"><ele>52.0</ele><time>2026-05-01T11:09:54.601Z</time></trkpt><trkpt lat="45.3144317" lon="10.7202817"><ele>51.99999999999999</ele><time>2026-05-01T11:09:56.599Z</time></trkpt><trkpt lat="45.3143883" lon="10.7201183"><ele>52.0</ele><time>2026-05-01T11:09:58.602Z</time></trkpt><trkpt lat="45.3143617" lon="10.72003"><ele>52.0</ele><time>2026-05-01T11:09:59.604Z</time></trkpt><trkpt lat="45.31434" lon="10.7199417"><ele>52.0</ele><time>2026-05-01T11:10:00.601Z</time></trkpt><trkpt lat="45.3143117" lon="10.7198017"><ele>51.99999999999999</ele><time>2026-05-01T11:10:02.598Z</time></trkpt><trkpt lat="45.31433" lon="10.7197033"><ele>52.0</ele><time>2026-05-01T11:10:04.598Z</time></trkpt><trkpt lat="45.3142717" lon="10.7197617"><ele>52.0</ele><time>2026-05-01T11:10:09.616Z</time></trkpt><trkpt lat="45.31434" lon="10.7199383"><ele>52.0</ele><time>2026-05-01T11:10:11.611Z</time></trkpt><trkpt lat="45.314385" lon="10.7200467"><ele>52.0</ele><time>2026-05-01T11:10:12.636Z</time></trkpt><trkpt lat="45.3144283" lon="10.7201733"><ele>52.0</ele><time>2026-05-01T11:10:13.623Z</time></trkpt><trkpt lat="45.3144633" lon="10.72032"><ele>52.0</ele><time>2026-05-01T11:10:14.604Z</time></trkpt><trkpt lat="45.314525" lon="10.720455"><ele>51.99999999999999</ele><time>2026-05-01T11:10:15.6Z</time></trkpt><trkpt lat="45.314565" lon="10.7205817"><ele>52.0</ele><time>2026-05-01T11:10:16.609Z</time></trkpt><trkpt lat="45.3145983" lon="10.7206817"><ele>52.0</ele><time>2026-05-01T11:10:17.595Z</time></trkpt><trkpt lat="45.3146367" lon="10.7207733"><ele>52.0</ele><time>2026-05-01T11:10:18.605Z</time></trkpt><trkpt lat="45.3146617" lon="10.7208667"><ele>51.99999999999999</ele><time>2026-05-01T11:10:19.605Z</time></trkpt><trkpt lat="45.3146833" lon="10.721"><ele>52.0</ele><time>2026-05-01T11:10:21.601Z</time></trkpt><trkpt lat="45.314605" lon="10.7210833"><ele>52.0</ele><time>2026-05-01T11:10:24.602Z</time></trkpt><trkpt lat="45.3145333" lon="10.72107"><ele>52.0</ele><time>2026-05-01T11:10:25.596Z</time></trkpt><trkpt lat="45.31445" lon="10.72105"><ele>52.0</ele><time>2026-05-01T11:10:26.6Z</time></trkpt><trkpt lat="45.3143633" lon="10.7210483"><ele>52.0</ele><time>2026-05-01T11:10:27.593Z</time></trkpt><trkpt lat="45.3142367" lon="10.7210683"><ele>52.0</ele><time>2026-05-01T11:10:28.596Z</time></trkpt><trkpt lat="45.314125" lon="10.721055"><ele>52.0</ele><time>2026-05-01T11:10:29.61Z</time></trkpt><trkpt lat="45.3140217" lon="10.72104"><ele>52.0</ele><time>2026-05-01T11:10:30.606Z</time></trkpt><trkpt lat="45.313905" lon="10.7210233"><ele>52.0</ele><time>2026-05-01T11:10:31.605Z</time></trkpt><trkpt lat="45.3137767" lon="10.7210417"><ele>52.0</ele><time>2026-05-01T11:10:32.595Z</time></trkpt><trkpt lat="45.3136317" lon="10.7210617"><ele>51.25</ele><time>2026-05-01T11:10:33.602Z</time></trkpt><trkpt lat="45.3135033" lon="10.721035"><ele>50.5</ele><time>2026-05-01T11:10:34.659Z</time></trkpt><trkpt lat="45.3133633" lon="10.7210083"><ele>49.75</ele><time>2026-05-01T11:10:35.605Z</time></trkpt><trkpt lat="45.313215" lon="10.7210117"><ele>49.0</ele><time>2026-05-01T11:10:36.614Z</time></trkpt><trkpt lat="45.3130517" lon="10.7210083"><ele>48.666666666666664</ele><time>2026-05-01T11:10:37.6Z</time></trkpt><trkpt lat="45.312875" lon="10.720995"><ele>48.33333333333333</ele><time>2026-05-01T11:10:38.614Z</time></trkpt><trkpt lat="45.3127033" lon="10.72099"><ele>48.0</ele><time>2026-05-01T11:10:39.603Z</time></trkpt><trkpt lat="45.3125267" lon="10.72099"><ele>48.0</ele><time>2026-05-01T11:10:40.608Z</time></trkpt><trkpt lat="45.3123483" lon="10.7209933"><ele>48.0</ele><time>2026-05-01T11:10:41.621Z</time></trkpt><trkpt lat="45.312165" lon="10.7210033"><ele>48.0</ele><time>2026-05-01T11:10:42.616Z</time></trkpt><trkpt lat="45.311995" lon="10.7210067"><ele>47.75</ele><time>2026-05-01T11:10:43.608Z</time></trkpt><trkpt lat="45.3118383" lon="10.7210033"><ele>47.5</ele><time>2026-05-01T11:10:44.622Z</time></trkpt><trkpt lat="45.3116967" lon="10.7209983"><ele>47.25</ele><time>2026-05-01T11:10:45.607Z</time></trkpt><trkpt lat="45.3115733" lon="10.7209867"><ele>47.0</ele><time>2026-05-01T11:10:46.607Z</time></trkpt><trkpt lat="45.31143" lon="10.721"><ele>47.33333333333333</ele><time>2026-05-01T11:10:47.603Z</time></trkpt><trkpt lat="45.3112883" lon="10.7210067"><ele>47.666666666666664</ele><time>2026-05-01T11:10:48.609Z</time></trkpt><trkpt lat="45.3111367" lon="10.7209983"><ele>48.0</ele><time>2026-05-01T11:10:49.607Z</time></trkpt><trkpt lat="45.3109733" lon="10.721005"><ele>48.0</ele><time>2026-05-01T11:10:50.608Z</time></trkpt><trkpt lat="45.3108233" lon="10.7209983"><ele>48.0</ele><time>2026-05-01T11:10:51.603Z</time></trkpt><trkpt lat="45.310695" lon="10.7210083"><ele>48.0</ele><time>2026-05-01T11:10:52.607Z</time></trkpt><trkpt lat="45.31059" lon="10.721"><ele>48.0</ele><time>2026-05-01T11:10:53.605Z</time></trkpt><trkpt lat="45.3104983" lon="10.7209933"><ele>48.0</ele><time>2026-05-01T11:10:54.613Z</time></trkpt><trkpt lat="45.310425" lon="10.7210133"><ele>48.0</ele><time>2026-05-01T11:10:55.614Z</time></trkpt><trkpt lat="45.3103133" lon="10.721025"><ele>48.0</ele><time>2026-05-01T11:10:57.619Z</time></trkpt><trkpt lat="45.3102567" lon="10.7209133"><ele>48.0</ele><time>2026-05-01T11:10:59.6Z</time></trkpt><trkpt lat="45.3102317" lon="10.720805"><ele>48.0</ele><time>2026-05-01T11:11:00.603Z</time></trkpt><trkpt lat="45.31021" lon="10.7206783"><ele>48.0</ele><time>2026-05-01T11:11:01.602Z</time></trkpt><trkpt lat="45.31019" lon="10.7205517"><ele>48.0</ele><time>2026-05-01T11:11:02.609Z</time></trkpt><trkpt lat="45.3101817" lon="10.720415"><ele>48.0</ele><time>2026-05-01T11:11:03.618Z</time></trkpt><trkpt lat="45.3101367" lon="10.7202633"><ele>48.0</ele><time>2026-05-01T11:11:04.592Z</time></trkpt><trkpt lat="45.3101267" lon="10.7201217"><ele>48.0</ele><time>2026-05-01T11:11:05.602Z</time></trkpt><trkpt lat="45.31011" lon="10.71999"><ele>48.2</ele><time>2026-05-01T11:11:06.612Z</time></trkpt><trkpt lat="45.3100917" lon="10.7198683"><ele>48.4</ele><time>2026-05-01T11:11:07.633Z</time></trkpt><trkpt lat="45.31004" lon="10.7197233"><ele>48.6</ele><time>2026-05-01T11:11:08.605Z</time></trkpt><trkpt lat="45.3100267" lon="10.7195833"><ele>48.800000000000004</ele><time>2026-05-01T11:11:09.622Z</time></trkpt><trkpt lat="45.310005" lon="10.7194283"><ele>49.0</ele><time>2026-05-01T11:11:10.623Z</time></trkpt><trkpt lat="45.309985" lon="10.71926"><ele>49.25</ele><time>2026-05-01T11:11:11.612Z</time></trkpt><trkpt lat="45.30996" lon="10.7191083"><ele>49.5</ele><time>2026-05-01T11:11:12.604Z</time></trkpt><trkpt lat="45.30993" lon="10.7189533"><ele>49.75</ele><time>2026-05-01T11:11:13.621Z</time></trkpt><trkpt lat="45.3099033" lon="10.7188017"><ele>50.0</ele><time>2026-05-01T11:11:14.623Z</time></trkpt><trkpt lat="45.30987" lon="10.718625"><ele>49.75</ele><time>2026-05-01T11:11:15.607Z</time></trkpt><trkpt lat="45.3098733" lon="10.7184433"><ele>49.5</ele><time>2026-05-01T11:11:16.61Z</time></trkpt><trkpt lat="45.3098183" lon="10.7182833"><ele>49.25</ele><time>2026-05-01T11:11:17.603Z</time></trkpt><trkpt lat="45.3097733" lon="10.7181"><ele>49.0</ele><time>2026-05-01T11:11:18.608Z</time></trkpt><trkpt lat="45.309745" lon="10.7179317"><ele>49.0</ele><time>2026-05-01T11:11:19.607Z</time></trkpt><trkpt lat="45.3097067" lon="10.71778"><ele>49.0</ele><time>2026-05-01T11:11:20.608Z</time></trkpt><trkpt lat="45.3096583" lon="10.717635"><ele>49.0</ele><time>2026-05-01T11:11:21.6Z</time></trkpt><trkpt lat="45.30962" lon="10.71746"><ele>49.0</ele><time>2026-05-01T11:11:22.604Z</time></trkpt><trkpt lat="45.309585" lon="10.7172733"><ele>49.0</ele><time>2026-05-01T11:11:23.608Z</time></trkpt><trkpt lat="45.3095383" lon="10.7170717"><ele>49.0</ele><time>2026-05-01T11:11:24.608Z</time></trkpt><trkpt lat="45.3094917" lon="10.7168583"><ele>49.0</ele><time>2026-05-01T11:11:25.614Z</time></trkpt><trkpt lat="45.3094483" lon="10.7166133"><ele>49.0</ele><time>2026-05-01T11:11:26.609Z</time></trkpt><trkpt lat="45.309395" lon="10.7164133"><ele>49.0</ele><time>2026-05-01T11:11:27.614Z</time></trkpt><trkpt lat="45.3093733" lon="10.7162117"><ele>49.0</ele><time>2026-05-01T11:11:28.607Z</time></trkpt><trkpt lat="45.3093567" lon="10.7160267"><ele>49.0</ele><time>2026-05-01T11:11:29.612Z</time></trkpt><trkpt lat="45.3093233" lon="10.7158483"><ele>49.2</ele><time>2026-05-01T11:11:30.61Z</time></trkpt><trkpt lat="45.3092833" lon="10.7156767"><ele>49.400000000000006</ele><time>2026-05-01T11:11:31.606Z</time></trkpt><trkpt lat="45.309265" lon="10.71552"><ele>49.6</ele><time>2026-05-01T11:11:32.603Z</time></trkpt><trkpt lat="45.3092383" lon="10.7153733"><ele>49.8</ele><time>2026-05-01T11:11:33.603Z</time></trkpt><trkpt lat="45.309235" lon="10.7152433"><ele>50.0</ele><time>2026-05-01T11:11:34.6Z</time></trkpt><trkpt lat="45.3092133" lon="10.7151467"><ele>50.00000000000001</ele><time>2026-05-01T11:11:35.614Z</time></trkpt><trkpt lat="45.3091733" lon="10.71502"><ele>50.0</ele><time>2026-05-01T11:11:37.592Z</time></trkpt><trkpt lat="45.309145" lon="10.7149283"><ele>50.0</ele><time>2026-05-01T11:11:40.603Z</time></trkpt><trkpt lat="45.30907" lon="10.7148783"><ele>50.0</ele><time>2026-05-01T11:11:42.61Z</time></trkpt><trkpt lat="45.309" lon="10.714875"><ele>50.00000000000001</ele><time>2026-05-01T11:11:43.6Z</time></trkpt><trkpt lat="45.308915" lon="10.7148833"><ele>50.0</ele><time>2026-05-01T11:11:44.602Z</time></trkpt><trkpt lat="45.308815" lon="10.714895"><ele>50.0</ele><time>2026-05-01T11:11:45.615Z</time></trkpt><trkpt lat="45.3087033" lon="10.714915"><ele>50.0</ele><time>2026-05-01T11:11:46.608Z</time></trkpt><trkpt lat="45.3085717" lon="10.7149217"><ele>50.0</ele><time>2026-05-01T11:11:47.612Z</time></trkpt><trkpt lat="45.3084467" lon="10.7149383"><ele>50.0</ele><time>2026-05-01T11:11:48.605Z</time></trkpt><trkpt lat="45.3083167" lon="10.7149583"><ele>50.0</ele><time>2026-05-01T11:11:49.606Z</time></trkpt><trkpt lat="45.3081633" lon="10.7149917"><ele>50.0</ele><time>2026-05-01T11:11:50.603Z</time></trkpt><trkpt lat="45.3080117" lon="10.715045"><ele>50.0</ele><time>2026-05-01T11:11:51.603Z</time></trkpt><trkpt lat="45.3078583" lon="10.7151083"><ele>49.75</ele><time>2026-05-01T11:11:52.603Z</time></trkpt><trkpt lat="45.3077083" lon="10.715155"><ele>49.5</ele><time>2026-05-01T11:11:53.608Z</time></trkpt><trkpt lat="45.3075783" lon="10.715195"><ele>49.25</ele><time>2026-05-01T11:11:54.602Z</time></trkpt><trkpt lat="45.307465" lon="10.7152417"><ele>49.0</ele><time>2026-05-01T11:11:55.607Z</time></trkpt><trkpt lat="45.3073717" lon="10.7152817"><ele>49.0</ele><time>2026-05-01T11:11:56.612Z</time></trkpt><trkpt lat="45.307295" lon="10.7153183"><ele>49.0</ele><time>2026-05-01T11:11:57.607Z</time></trkpt><trkpt lat="45.3071783" lon="10.7153517"><ele>49.0</ele><time>2026-05-01T11:11:59.601Z</time></trkpt><trkpt lat="45.307135" lon="10.7152717"><ele>49.0</ele><time>2026-05-01T11:12:01.603Z</time></trkpt><trkpt lat="45.3071167" lon="10.7150883"><ele>49.0</ele><time>2026-05-01T11:12:03.592Z</time></trkpt><trkpt lat="45.30712" lon="10.7149833"><ele>48.99999999999999</ele><time>2026-05-01T11:12:04.595Z</time></trkpt><trkpt lat="45.3071233" lon="10.7148917"><ele>49.0</ele><time>2026-05-01T11:12:05.605Z</time></trkpt><trkpt lat="45.3071117" lon="10.714765"><ele>49.0</ele><time>2026-05-01T11:12:07.602Z</time></trkpt><trkpt lat="45.3070383" lon="10.714715"><ele>49.0</ele><time>2026-05-01T11:12:09.598Z</time></trkpt><trkpt lat="45.3069733" lon="10.7147083"><ele>48.99999999999999</ele><time>2026-05-01T11:12:10.596Z</time></trkpt><trkpt lat="45.3069017" lon="10.71469"><ele>49.0</ele><time>2026-05-01T11:12:11.6Z</time></trkpt><trkpt lat="45.3068167" lon="10.71468"><ele>48.99999999999999</ele><time>2026-05-01T11:12:12.6Z</time></trkpt><trkpt lat="45.3067317" lon="10.7146533"><ele>49.0</ele><time>2026-05-01T11:12:13.597Z</time></trkpt><trkpt lat="45.3066433" lon="10.7146167"><ele>49.0</ele><time>2026-05-01T11:12:14.599Z</time></trkpt><trkpt lat="45.30653" lon="10.714595"><ele>49.0</ele><time>2026-05-01T11:12:15.597Z</time></trkpt><trkpt lat="45.3064617" lon="10.7145533"><ele>48.99999999999999</ele><time>2026-05-01T11:12:16.599Z</time></trkpt><trkpt lat="45.3063983" lon="10.7145083"><ele>49.0</ele><time>2026-05-01T11:12:18.608Z</time></trkpt><trkpt lat="45.3063883" lon="10.7146"><ele>48.99999999999999</ele><time>2026-05-01T11:12:22.593Z</time></trkpt><trkpt lat="45.30646" lon="10.71461"><ele>49.0</ele><time>2026-05-01T11:12:24.597Z</time></trkpt><trkpt lat="45.306565" lon="10.7146283"><ele>49.0</ele><time>2026-05-01T11:12:26.605Z</time></trkpt><trkpt lat="45.3066333" lon="10.7146583"><ele>49.0</ele><time>2026-05-01T11:12:27.607Z</time></trkpt><trkpt lat="45.3067183" lon="10.71469"><ele>48.99999999999999</ele><time>2026-05-01T11:12:28.603Z</time></trkpt><trkpt lat="45.3068083" lon="10.71472"><ele>49.0</ele><time>2026-05-01T11:12:29.602Z</time></trkpt><trkpt lat="45.3068917" lon="10.714735"><ele>49.0</ele><time>2026-05-01T11:12:30.612Z</time></trkpt><trkpt lat="45.306965" lon="10.7147483"><ele>49.0</ele><time>2026-05-01T11:12:31.6Z</time></trkpt><trkpt lat="45.3070667" lon="10.7147583"><ele>49.0</ele><time>2026-05-01T11:12:33.612Z</time></trkpt><trkpt lat="45.30713" lon="10.7146567"><ele>49.0</ele><time>2026-05-01T11:12:36.598Z</time></trkpt><trkpt lat="45.30713" lon="10.7144833"><ele>49.0</ele><time>2026-05-01T11:12:38.599Z</time></trkpt><trkpt lat="45.3071317" lon="10.7143733"><ele>48.83333333333333</ele><time>2026-05-01T11:12:39.607Z</time></trkpt><trkpt lat="45.3071433" lon="10.7142567"><ele>48.666666666666664</ele><time>2026-05-01T11:12:40.6Z</time></trkpt><trkpt lat="45.3071617" lon="10.7141467"><ele>48.5</ele><time>2026-05-01T11:12:41.603Z</time></trkpt><trkpt lat="45.30719" lon="10.7140367"><ele>48.33333333333333</ele><time>2026-05-01T11:12:42.608Z</time></trkpt><trkpt lat="45.3072233" lon="10.7139283"><ele>48.166666666666664</ele><time>2026-05-01T11:12:43.604Z</time></trkpt><trkpt lat="45.30726" lon="10.7138283"><ele>48.0</ele><time>2026-05-01T11:12:44.598Z</time></trkpt><trkpt lat="45.3072917" lon="10.7137417"><ele>48.0</ele><time>2026-05-01T11:12:45.599Z</time></trkpt><trkpt lat="45.30734" lon="10.7136233"><ele>48.0</ele><time>2026-05-01T11:12:47.6Z</time></trkpt><trkpt lat="45.3073367" lon="10.7135067"><ele>48.0</ele><time>2026-05-01T11:12:57.594Z</time></trkpt><trkpt lat="45.3072667" lon="10.7134367"><ele>48.0</ele><time>2026-05-01T11:12:59.611Z</time></trkpt><trkpt lat="45.3071717" lon="10.71337"><ele>48.0</ele><time>2026-05-01T11:13:01.635Z</time></trkpt><trkpt lat="45.3071167" lon="10.7133217"><ele>48.0</ele><time>2026-05-01T11:13:02.608Z</time></trkpt><trkpt lat="45.3070517" lon="10.713265"><ele>48.0</ele><time>2026-05-01T11:13:03.612Z</time></trkpt><trkpt lat="45.3069717" lon="10.7132017"><ele>48.0</ele><time>2026-05-01T11:13:04.614Z</time></trkpt><trkpt lat="45.3068767" lon="10.71313"><ele>48.0</ele><time>2026-05-01T11:13:05.602Z</time></trkpt><trkpt lat="45.3067717" lon="10.7130467"><ele>48.0</ele><time>2026-05-01T11:13:06.602Z</time></trkpt><trkpt lat="45.3066567" lon="10.71296"><ele>48.0</ele><time>2026-05-01T11:13:07.607Z</time></trkpt><trkpt lat="45.3065317" lon="10.7128683"><ele>48.0</ele><time>2026-05-01T11:13:08.611Z</time></trkpt><trkpt lat="45.3064067" lon="10.7127733"><ele>48.0</ele><time>2026-05-01T11:13:09.608Z</time></trkpt><trkpt lat="45.306285" lon="10.7126833"><ele>48.0</ele><time>2026-05-01T11:13:10.599Z</time></trkpt><trkpt lat="45.3061667" lon="10.7125967"><ele>48.0</ele><time>2026-05-01T11:13:11.609Z</time></trkpt><trkpt lat="45.30606" lon="10.71252"><ele>48.0</ele><time>2026-05-01T11:13:12.599Z</time></trkpt><trkpt lat="45.30595" lon="10.7124467"><ele>48.0</ele><time>2026-05-01T11:13:13.618Z</time></trkpt><trkpt lat="45.3058233" lon="10.7123833"><ele>48.0</ele><time>2026-05-01T11:13:14.6Z</time></trkpt><trkpt lat="45.3056967" lon="10.7123033"><ele>48.0</ele><time>2026-05-01T11:13:15.608Z</time></trkpt><trkpt lat="45.3055767" lon="10.71223"><ele>48.2</ele><time>2026-05-01T11:13:16.604Z</time></trkpt><trkpt lat="45.305485" lon="10.71218"><ele>48.4</ele><time>2026-05-01T11:13:17.607Z</time></trkpt><trkpt lat="45.30539" lon="10.7121467"><ele>48.6</ele><time>2026-05-01T11:13:18.607Z</time></trkpt><trkpt lat="45.305305" lon="10.71216"><ele>48.800000000000004</ele><time>2026-05-01T11:13:19.599Z</time></trkpt><trkpt lat="45.3052117" lon="10.7120833"><ele>49.0</ele><time>2026-05-01T11:13:21.612Z</time></trkpt><trkpt lat="45.3051583" lon="10.7119333"><ele>48.6</ele><time>2026-05-01T11:13:23.6Z</time></trkpt><trkpt lat="45.3051517" lon="10.7118083"><ele>48.2</ele><time>2026-05-01T11:13:24.601Z</time></trkpt><trkpt lat="45.3051383" lon="10.7116783"><ele>47.800000000000004</ele><time>2026-05-01T11:13:25.594Z</time></trkpt><trkpt lat="45.3051383" lon="10.7115383"><ele>47.400000000000006</ele><time>2026-05-01T11:13:26.601Z</time></trkpt><trkpt lat="45.3051583" lon="10.7113767"><ele>47.0</ele><time>2026-05-01T11:13:27.597Z</time></trkpt><trkpt lat="45.3051767" lon="10.7112083"><ele>47.0</ele><time>2026-05-01T11:13:28.607Z</time></trkpt><trkpt lat="45.3052033" lon="10.71103"><ele>47.0</ele><time>2026-05-01T11:13:29.601Z</time></trkpt><trkpt lat="45.3052367" lon="10.7108367"><ele>47.0</ele><time>2026-05-01T11:13:30.605Z</time></trkpt><trkpt lat="45.3052733" lon="10.710605"><ele>47.0</ele><time>2026-05-01T11:13:31.604Z</time></trkpt><trkpt lat="45.305305" lon="10.7104"><ele>46.75</ele><time>2026-05-01T11:13:32.601Z</time></trkpt><trkpt lat="45.305325" lon="10.7102167"><ele>46.5</ele><time>2026-05-01T11:13:33.616Z</time></trkpt><trkpt lat="45.30539" lon="10.7100417"><ele>46.25</ele><time>2026-05-01T11:13:34.605Z</time></trkpt><trkpt lat="45.3053983" lon="10.7098883"><ele>46.0</ele><time>2026-05-01T11:13:35.6Z</time></trkpt><trkpt lat="45.3053967" lon="10.7097267"><ele>46.0</ele><time>2026-05-01T11:13:36.618Z</time></trkpt><trkpt lat="45.3053683" lon="10.709565"><ele>46.0</ele><time>2026-05-01T11:13:37.604Z</time></trkpt><trkpt lat="45.3053267" lon="10.709395"><ele>46.0</ele><time>2026-05-01T11:13:38.603Z</time></trkpt><trkpt lat="45.305285" lon="10.709235"><ele>46.0</ele><time>2026-05-01T11:13:39.598Z</time></trkpt><trkpt lat="45.3052383" lon="10.7090867"><ele>46.0</ele><time>2026-05-01T11:13:40.603Z</time></trkpt><trkpt lat="45.305195" lon="10.708975"><ele>46.0</ele><time>2026-05-01T11:13:41.613Z</time></trkpt><trkpt lat="45.3051467" lon="10.7088317"><ele>46.0</ele><time>2026-05-01T11:13:42.612Z</time></trkpt><trkpt lat="45.3050933" lon="10.7087033"><ele>46.0</ele><time>2026-05-01T11:13:43.605Z</time></trkpt><trkpt lat="45.305015" lon="10.708605"><ele>46.0</ele><time>2026-05-01T11:13:44.604Z</time></trkpt><trkpt lat="45.30496" lon="10.7085167"><ele>46.333333333333336</ele><time>2026-05-01T11:13:45.612Z</time></trkpt><trkpt lat="45.3047833" lon="10.7084467"><ele>46.666666666666664</ele><time>2026-05-01T11:13:46.6Z</time></trkpt><trkpt lat="45.3046" lon="10.708375"><ele>47.0</ele><time>2026-05-01T11:13:47.609Z</time></trkpt><trkpt lat="45.3044633" lon="10.7082983"><ele>47.0</ele><time>2026-05-01T11:13:48.599Z</time></trkpt><trkpt lat="45.3043883" lon="10.70822"><ele>47.0</ele><time>2026-05-01T11:13:49.647Z</time></trkpt><trkpt lat="45.3042733" lon="10.708155"><ele>47.0</ele><time>2026-05-01T11:13:50.604Z</time></trkpt><trkpt lat="45.30411" lon="10.7081117"><ele>47.0</ele><time>2026-05-01T11:13:51.602Z</time></trkpt><trkpt lat="45.30402" lon="10.7081083"><ele>46.5</ele><time>2026-05-01T11:13:52.596Z</time></trkpt><trkpt lat="45.30385" lon="10.7080983"><ele>46.0</ele><time>2026-05-01T11:13:53.613Z</time></trkpt><trkpt lat="45.3037067" lon="10.70809"><ele>45.5</ele><time>2026-05-01T11:13:54.609Z</time></trkpt><trkpt lat="45.3035767" lon="10.7080833"><ele>45.0</ele><time>2026-05-01T11:13:55.625Z</time></trkpt><trkpt lat="45.3034617" lon="10.708065"><ele>45.0</ele><time>2026-05-01T11:13:56.619Z</time></trkpt><trkpt lat="45.30337" lon="10.7080533"><ele>45.0</ele><time>2026-05-01T11:13:57.602Z</time></trkpt><trkpt lat="45.3032767" lon="10.7080567"><ele>45.0</ele><time>2026-05-01T11:13:58.61Z</time></trkpt><trkpt lat="45.303205" lon="10.7080583"><ele>45.0</ele><time>2026-05-01T11:13:59.602Z</time></trkpt><trkpt lat="45.3031133" lon="10.708015"><ele>45.0</ele><time>2026-05-01T11:14:01.627Z</time></trkpt><trkpt lat="45.3030683" lon="10.7080933"><ele>45.0</ele><time>2026-05-01T11:14:04.629Z</time></trkpt><trkpt lat="45.303065" lon="10.7081933"><ele>45.0</ele><time>2026-05-01T11:14:06.606Z</time></trkpt><trkpt lat="45.3030933" lon="10.708355"><ele>45.0</ele><time>2026-05-01T11:14:08.614Z</time></trkpt><trkpt lat="45.3031" lon="10.7084667"><ele>45.0</ele><time>2026-05-01T11:14:09.607Z</time></trkpt><trkpt lat="45.30311" lon="10.7085983"><ele>45.0</ele><time>2026-05-01T11:14:10.6Z</time></trkpt><trkpt lat="45.3031033" lon="10.7087717"><ele>45.0</ele><time>2026-05-01T11:14:11.603Z</time></trkpt><trkpt lat="45.3031167" lon="10.708935"><ele>44.75</ele><time>2026-05-01T11:14:12.598Z</time></trkpt><trkpt lat="45.3031267" lon="10.709085"><ele>44.5</ele><time>2026-05-01T11:14:13.599Z</time></trkpt><trkpt lat="45.30312" lon="10.709255"><ele>44.25</ele><time>2026-05-01T11:14:14.597Z</time></trkpt><trkpt lat="45.3031033" lon="10.7094233"><ele>44.0</ele><time>2026-05-01T11:14:15.607Z</time></trkpt><trkpt lat="45.3030717" lon="10.7095717"><ele>44.0</ele><time>2026-05-01T11:14:16.596Z</time></trkpt><trkpt lat="45.3030567" lon="10.709725"><ele>44.0</ele><time>2026-05-01T11:14:17.609Z</time></trkpt><trkpt lat="45.3030383" lon="10.7098567"><ele>44.0</ele><time>2026-05-01T11:14:18.607Z</time></trkpt><trkpt lat="45.302995" lon="10.7100217"><ele>44.0</ele><time>2026-05-01T11:14:19.612Z</time></trkpt><trkpt lat="45.3029633" lon="10.710215"><ele>44.0</ele><time>2026-05-01T11:14:20.604Z</time></trkpt><trkpt lat="45.3029167" lon="10.710365"><ele>44.0</ele><time>2026-05-01T11:14:21.602Z</time></trkpt><trkpt lat="45.3029117" lon="10.7105083"><ele>44.0</ele><time>2026-05-01T11:14:22.601Z</time></trkpt><trkpt lat="45.302885" lon="10.7106417"><ele>44.0</ele><time>2026-05-01T11:14:23.602Z</time></trkpt><trkpt lat="45.3028367" lon="10.7107633"><ele>44.0</ele><time>2026-05-01T11:14:24.603Z</time></trkpt><trkpt lat="45.302785" lon="10.710875"><ele>44.0</ele><time>2026-05-01T11:14:25.607Z</time></trkpt><trkpt lat="45.3027333" lon="10.71099"><ele>44.0</ele><time>2026-05-01T11:14:26.6Z</time></trkpt><trkpt lat="45.30267" lon="10.7111117"><ele>44.0</ele><time>2026-05-01T11:14:27.597Z</time></trkpt><trkpt lat="45.3026083" lon="10.711245"><ele>44.0</ele><time>2026-05-01T11:14:28.599Z</time></trkpt><trkpt lat="45.3025483" lon="10.71139"><ele>44.0</ele><time>2026-05-01T11:14:29.607Z</time></trkpt><trkpt lat="45.3024783" lon="10.7115233"><ele>44.25</ele><time>2026-05-01T11:14:30.605Z</time></trkpt><trkpt lat="45.30241" lon="10.71165"><ele>44.5</ele><time>2026-05-01T11:14:31.606Z</time></trkpt><trkpt lat="45.3023417" lon="10.71178"><ele>44.75</ele><time>2026-05-01T11:14:32.603Z</time></trkpt><trkpt lat="45.3022683" lon="10.7119083"><ele>45.0</ele><time>2026-05-01T11:14:33.606Z</time></trkpt><trkpt lat="45.30219" lon="10.7120317"><ele>45.0</ele><time>2026-05-01T11:14:34.617Z</time></trkpt><trkpt lat="45.30212" lon="10.7121583"><ele>45.0</ele><time>2026-05-01T11:14:35.608Z</time></trkpt><trkpt lat="45.3020533" lon="10.7123167"><ele>45.0</ele><time>2026-05-01T11:14:36.607Z</time></trkpt><trkpt lat="45.3019767" lon="10.7124483"><ele>45.0</ele><time>2026-05-01T11:14:37.611Z</time></trkpt><trkpt lat="45.3019017" lon="10.7125733"><ele>45.0</ele><time>2026-05-01T11:14:38.602Z</time></trkpt><trkpt lat="45.3018283" lon="10.7126967"><ele>45.0</ele><time>2026-05-01T11:14:39.614Z</time></trkpt><trkpt lat="45.301765" lon="10.7127667"><ele>45.0</ele><time>2026-05-01T11:14:40.608Z</time></trkpt><trkpt lat="45.3017117" lon="10.7128467"><ele>45.0</ele><time>2026-05-01T11:14:41.599Z</time></trkpt><trkpt lat="45.3016567" lon="10.7129133"><ele>45.0</ele><time>2026-05-01T11:14:42.608Z</time></trkpt><trkpt lat="45.301615" lon="10.7129817"><ele>45.0</ele><time>2026-05-01T11:14:43.608Z</time></trkpt><trkpt lat="45.3015417" lon="10.71311"><ele>44.5</ele><time>2026-05-01T11:14:45.599Z</time></trkpt><trkpt lat="45.3014833" lon="10.7132033"><ele>44.0</ele><time>2026-05-01T11:14:47.613Z</time></trkpt><trkpt lat="45.3014567" lon="10.7133183"><ele>43.5</ele><time>2026-05-01T11:14:50.607Z</time></trkpt><trkpt lat="45.3014817" lon="10.7132"><ele>43.0</ele><time>2026-05-01T11:16:07.605Z</time></trkpt><trkpt lat="45.3015317" lon="10.71313"><ele>42.5</ele><time>2026-05-01T11:16:08.645Z</time></trkpt><trkpt lat="45.30159" lon="10.7130483"><ele>42.0</ele><time>2026-05-01T11:16:09.612Z</time></trkpt><trkpt lat="45.30165" lon="10.712955"><ele>42.0</ele><time>2026-05-01T11:16:10.603Z</time></trkpt><trkpt lat="45.3017133" lon="10.7128483"><ele>42.0</ele><time>2026-05-01T11:16:11.606Z</time></trkpt><trkpt lat="45.301775" lon="10.712705"><ele>42.0</ele><time>2026-05-01T11:16:12.603Z</time></trkpt><trkpt lat="45.301855" lon="10.7125933"><ele>42.0</ele><time>2026-05-01T11:16:13.619Z</time></trkpt><trkpt lat="45.3019283" lon="10.7124517"><ele>42.0</ele><time>2026-05-01T11:16:14.597Z</time></trkpt><trkpt lat="45.302005" lon="10.7123033"><ele>42.0</ele><time>2026-05-01T11:16:15.59Z</time></trkpt><trkpt lat="45.3021" lon="10.7121633"><ele>42.0</ele><time>2026-05-01T11:16:16.602Z</time></trkpt><trkpt lat="45.302205" lon="10.712015"><ele>42.0</ele><time>2026-05-01T11:16:17.606Z</time></trkpt><trkpt lat="45.30229" lon="10.71184"><ele>42.0</ele><time>2026-05-01T11:16:18.601Z</time></trkpt><trkpt lat="45.3023933" lon="10.71167"><ele>42.0</ele><time>2026-05-01T11:16:19.596Z</time></trkpt><trkpt lat="45.302515" lon="10.7115167"><ele>42.0</ele><time>2026-05-01T11:16:20.602Z</time></trkpt><trkpt lat="45.30259" lon="10.7113617"><ele>42.0</ele><time>2026-05-01T11:16:21.613Z</time></trkpt><trkpt lat="45.302665" lon="10.71121"><ele>42.0</ele><time>2026-05-01T11:16:22.596Z</time></trkpt><trkpt lat="45.3027367" lon="10.711055"><ele>42.0</ele><time>2026-05-01T11:16:23.607Z</time></trkpt><trkpt lat="45.3027833" lon="10.7108867"><ele>42.0</ele><time>2026-05-01T11:16:24.604Z</time></trkpt><trkpt lat="45.3028317" lon="10.7106967"><ele>42.5</ele><time>2026-05-01T11:16:25.606Z</time></trkpt><trkpt lat="45.3028783" lon="10.7105383"><ele>43.0</ele><time>2026-05-01T11:16:26.601Z</time></trkpt><trkpt lat="45.3029367" lon="10.710355"><ele>43.5</ele><time>2026-05-01T11:16:27.609Z</time></trkpt><trkpt lat="45.302975" lon="10.7101833"><ele>44.0</ele><time>2026-05-01T11:16:28.6Z</time></trkpt><trkpt lat="45.3030183" lon="10.7099917"><ele>44.0</ele><time>2026-05-01T11:16:29.599Z</time></trkpt><trkpt lat="45.3030533" lon="10.7097967"><ele>44.0</ele><time>2026-05-01T11:16:30.602Z</time></trkpt><trkpt lat="45.30308" lon="10.7096017"><ele>44.0</ele><time>2026-05-01T11:16:31.602Z</time></trkpt><trkpt lat="45.3031017" lon="10.7094017"><ele>44.0</ele><time>2026-05-01T11:16:32.596Z</time></trkpt><trkpt lat="45.3031133" lon="10.709205"><ele>43.75</ele><time>2026-05-01T11:16:33.605Z</time></trkpt><trkpt lat="45.3031233" lon="10.7090033"><ele>43.5</ele><time>2026-05-01T11:16:34.599Z</time></trkpt><trkpt lat="45.3031283" lon="10.708815"><ele>43.25</ele><time>2026-05-01T11:16:35.617Z</time></trkpt><trkpt lat="45.3031283" lon="10.7086417"><ele>43.0</ele><time>2026-05-01T11:16:36.605Z</time></trkpt><trkpt lat="45.3031217" lon="10.7085"><ele>43.4</ele><time>2026-05-01T11:16:37.603Z</time></trkpt><trkpt lat="45.3031083" lon="10.708385"><ele>43.8</ele><time>2026-05-01T11:16:38.598Z</time></trkpt><trkpt lat="45.30311" lon="10.7082867"><ele>44.2</ele><time>2026-05-01T11:16:39.603Z</time></trkpt><trkpt lat="45.3031033" lon="10.70816"><ele>44.6</ele><time>2026-05-01T11:16:41.592Z</time></trkpt><trkpt lat="45.3030233" lon="10.7080483"><ele>45.0</ele><time>2026-05-01T11:16:51.592Z</time></trkpt><trkpt lat="45.3029067" lon="10.70801"><ele>45.166666666666664</ele><time>2026-05-01T11:16:53.613Z</time></trkpt><trkpt lat="45.3028267" lon="10.707995"><ele>45.333333333333336</ele><time>2026-05-01T11:16:54.592Z</time></trkpt><trkpt lat="45.3027533" lon="10.7079867"><ele>45.5</ele><time>2026-05-01T11:16:55.601Z</time></trkpt><trkpt lat="45.302685" lon="10.707975"><ele>45.66666666666667</ele><time>2026-05-01T11:16:56.59Z</time></trkpt><trkpt lat="45.3025933" lon="10.7079667"><ele>45.833333333333336</ele><time>2026-05-01T11:16:58.6Z</time></trkpt><trkpt lat="45.30254" lon="10.7080383"><ele>46.0</ele><time>2026-05-01T11:17:15.605Z</time></trkpt><trkpt lat="45.302545" lon="10.7081967"><ele>46.0</ele><time>2026-05-01T11:17:17.607Z</time></trkpt><trkpt lat="45.30255" lon="10.7082983"><ele>46.0</ele><time>2026-05-01T11:17:18.607Z</time></trkpt><trkpt lat="45.3025683" lon="10.7084717"><ele>46.0</ele><time>2026-05-01T11:17:20.603Z</time></trkpt><trkpt lat="45.30256" lon="10.708625"><ele>46.0</ele><time>2026-05-01T11:17:22.593Z</time></trkpt><trkpt lat="45.3025433" lon="10.7087667"><ele>46.0</ele><time>2026-05-01T11:17:24.604Z</time></trkpt><trkpt lat="45.3025067" lon="10.7089317"><ele>45.833333333333336</ele><time>2026-05-01T11:17:26.601Z</time></trkpt><trkpt lat="45.3024783" lon="10.7090233"><ele>45.66666666666667</ele><time>2026-05-01T11:17:27.599Z</time></trkpt><trkpt lat="45.3024583" lon="10.7091183"><ele>45.5</ele><time>2026-05-01T11:17:28.596Z</time></trkpt><trkpt lat="45.3024317" lon="10.7093"><ele>45.333333333333336</ele><time>2026-05-01T11:17:30.602Z</time></trkpt><trkpt lat="45.30242" lon="10.7094083"><ele>45.166666666666664</ele><time>2026-05-01T11:17:31.602Z</time></trkpt><trkpt lat="45.3024133" lon="10.70952"><ele>45.0</ele><time>2026-05-01T11:17:32.602Z</time></trkpt><trkpt lat="45.302415" lon="10.7096283"><ele>44.857142857142854</ele><time>2026-05-01T11:17:33.598Z</time></trkpt><trkpt lat="45.3024133" lon="10.7097333"><ele>44.714285714285715</ele><time>2026-05-01T11:17:34.602Z</time></trkpt><trkpt lat="45.302395" lon="10.7098217"><ele>44.57142857142857</ele><time>2026-05-01T11:17:35.595Z</time></trkpt><trkpt lat="45.30238" lon="10.7099183"><ele>44.42857142857143</ele><time>2026-05-01T11:17:36.599Z</time></trkpt><trkpt lat="45.3023733" lon="10.710015"><ele>44.285714285714285</ele><time>2026-05-01T11:17:37.602Z</time></trkpt><trkpt lat="45.3023567" lon="10.71012"><ele>44.142857142857146</ele><time>2026-05-01T11:17:38.6Z</time></trkpt><trkpt lat="45.3023433" lon="10.7102267"><ele>44.0</ele><time>2026-05-01T11:17:39.604Z</time></trkpt><trkpt lat="45.3023217" lon="10.71034"><ele>44.0</ele><time>2026-05-01T11:17:40.599Z</time></trkpt><trkpt lat="45.3023067" lon="10.71045"><ele>44.0</ele><time>2026-05-01T11:17:41.611Z</time></trkpt><trkpt lat="45.3022883" lon="10.7105517"><ele>44.0</ele><time>2026-05-01T11:17:42.604Z</time></trkpt><trkpt lat="45.3022767" lon="10.7106483"><ele>44.0</ele><time>2026-05-01T11:17:43.615Z</time></trkpt><trkpt lat="45.30226" lon="10.7107933"><ele>44.0</ele><time>2026-05-01T11:17:45.599Z</time></trkpt><trkpt lat="45.3022167" lon="10.7109367"><ele>44.0</ele><time>2026-05-01T11:17:47.603Z</time></trkpt><trkpt lat="45.3021517" lon="10.711065"><ele>44.2</ele><time>2026-05-01T11:17:49.601Z</time></trkpt><trkpt lat="45.3020533" lon="10.711145"><ele>44.400000000000006</ele><time>2026-05-01T11:17:51.605Z</time></trkpt><trkpt lat="45.3019917" lon="10.7111767"><ele>44.6</ele><time>2026-05-01T11:17:52.595Z</time></trkpt><trkpt lat="45.3019083" lon="10.7112333"><ele>44.8</ele><time>2026-05-01T11:17:54.6Z</time></trkpt><trkpt lat="45.301835" lon="10.7113233"><ele>45.0</ele><time>2026-05-01T11:17:56.602Z</time></trkpt><trkpt lat="45.3017867" lon="10.7114867"><ele>45.0</ele><time>2026-05-01T11:17:58.6Z</time></trkpt><trkpt lat="45.3017767" lon="10.7115817"><ele>45.0</ele><time>2026-05-01T11:17:59.605Z</time></trkpt><trkpt lat="45.3017633" lon="10.711685"><ele>45.0</ele><time>2026-05-01T11:18:00.602Z</time></trkpt><trkpt lat="45.3017483" lon="10.7117983"><ele>45.0</ele><time>2026-05-01T11:18:01.601Z</time></trkpt><trkpt lat="45.3017367" lon="10.7119167"><ele>45.0</ele><time>2026-05-01T11:18:02.617Z</time></trkpt><trkpt lat="45.3017217" lon="10.7120383"><ele>45.0</ele><time>2026-05-01T11:18:03.608Z</time></trkpt><trkpt lat="45.3017083" lon="10.7121467"><ele>45.0</ele><time>2026-05-01T11:18:04.605Z</time></trkpt><trkpt lat="45.3016883" lon="10.7122483"><ele>45.0</ele><time>2026-05-01T11:18:05.607Z</time></trkpt><trkpt lat="45.3016733" lon="10.7123417"><ele>45.0</ele><time>2026-05-01T11:18:06.619Z</time></trkpt><trkpt lat="45.3016517" lon="10.712445"><ele>45.0</ele><time>2026-05-01T11:18:07.603Z</time></trkpt><trkpt lat="45.3016283" lon="10.7125367"><ele>45.0</ele><time>2026-05-01T11:18:08.606Z</time></trkpt><trkpt lat="45.3015967" lon="10.7126783"><ele>45.0</ele><time>2026-05-01T11:18:10.603Z</time></trkpt><trkpt lat="45.301595" lon="10.712775"><ele>44.5</ele><time>2026-05-01T11:18:12.608Z</time></trkpt><trkpt lat="45.301585" lon="10.71287"><ele>44.0</ele><time>2026-05-01T11:18:14.612Z</time></trkpt><trkpt lat="45.3015617" lon="10.7130067"><ele>43.5</ele><time>2026-05-01T11:18:17.598Z</time></trkpt><trkpt lat="45.3015283" lon="10.7131083"><ele>43.0</ele><time>2026-05-01T11:18:19.617Z</time></trkpt><trkpt lat="45.3014883" lon="10.7131867"><ele>42.5</ele><time>2026-05-01T11:18:21.61Z</time></trkpt><trkpt lat="45.3014617" lon="10.7132833"><ele>42.0</ele><time>2026-05-01T11:18:24.6Z</time></trkpt><trkpt lat="45.301545" lon="10.7132817"><ele>42.0</ele><time>2026-05-01T11:18:27.599Z</time></trkpt><trkpt lat="45.3015683" lon="10.7131583"><ele>42.0</ele><time>2026-05-01T11:18:29.603Z</time></trkpt><trkpt lat="45.3016" lon="10.7129783"><ele>42.0</ele><time>2026-05-01T11:18:31.623Z</time></trkpt><trkpt lat="45.3016333" lon="10.7128917"><ele>42.0</ele><time>2026-05-01T11:18:32.601Z</time></trkpt><trkpt lat="45.3017" lon="10.7128083"><ele>42.0</ele><time>2026-05-01T11:18:33.611Z</time></trkpt><trkpt lat="45.3017683" lon="10.7127233"><ele>42.75</ele><time>2026-05-01T11:18:34.599Z</time></trkpt><trkpt lat="45.301845" lon="10.7126383"><ele>43.5</ele><time>2026-05-01T11:18:35.607Z</time></trkpt><trkpt lat="45.3019117" lon="10.7125083"><ele>44.25</ele><time>2026-05-01T11:18:36.592Z</time></trkpt><trkpt lat="45.302" lon="10.7123817"><ele>45.0</ele><time>2026-05-01T11:18:37.615Z</time></trkpt><trkpt lat="45.3020867" lon="10.71224"><ele>45.0</ele><time>2026-05-01T11:18:38.614Z</time></trkpt><trkpt lat="45.302185" lon="10.7120867"><ele>45.0</ele><time>2026-05-01T11:18:39.624Z</time></trkpt><trkpt lat="45.3022983" lon="10.7119167"><ele>45.0</ele><time>2026-05-01T11:18:40.608Z</time></trkpt><trkpt lat="45.3023783" lon="10.71175"><ele>44.0</ele><time>2026-05-01T11:18:41.615Z</time></trkpt><trkpt lat="45.3024583" lon="10.711575"><ele>43.0</ele><time>2026-05-01T11:18:42.621Z</time></trkpt><trkpt lat="45.3025767" lon="10.71139"><ele>42.0</ele><time>2026-05-01T11:18:43.605Z</time></trkpt><trkpt lat="45.3026517" lon="10.711225"><ele>42.666666666666664</ele><time>2026-05-01T11:18:44.614Z</time></trkpt><trkpt lat="45.3027333" lon="10.7110233"><ele>43.33333333333333</ele><time>2026-05-01T11:18:45.602Z</time></trkpt><trkpt lat="45.3028067" lon="10.7107983"><ele>44.0</ele><time>2026-05-01T11:18:46.626Z</time></trkpt><trkpt lat="45.3028517" lon="10.7106067"><ele>44.0</ele><time>2026-05-01T11:18:47.613Z</time></trkpt><trkpt lat="45.3029133" lon="10.710385"><ele>44.0</ele><time>2026-05-01T11:18:48.608Z</time></trkpt><trkpt lat="45.3029783" lon="10.7101733"><ele>44.0</ele><time>2026-05-01T11:18:49.63Z</time></trkpt><trkpt lat="45.3030533" lon="10.70993"><ele>43.666666666666664</ele><time>2026-05-01T11:18:50.607Z</time></trkpt><trkpt lat="45.3030867" lon="10.709695"><ele>43.333333333333336</ele><time>2026-05-01T11:18:51.608Z</time></trkpt><trkpt lat="45.3031" lon="10.7094117"><ele>43.0</ele><time>2026-05-01T11:18:52.605Z</time></trkpt><trkpt lat="45.3031317" lon="10.7091367"><ele>43.0</ele><time>2026-05-01T11:18:53.612Z</time></trkpt><trkpt lat="45.303135" lon="10.70889"><ele>43.0</ele><time>2026-05-01T11:18:54.612Z</time></trkpt><trkpt lat="45.3031283" lon="10.7086433"><ele>43.0</ele><time>2026-05-01T11:18:55.611Z</time></trkpt><trkpt lat="45.3031267" lon="10.70845"><ele>43.4</ele><time>2026-05-01T11:18:56.603Z</time></trkpt><trkpt lat="45.3031233" lon="10.7083133"><ele>43.8</ele><time>2026-05-01T11:18:57.604Z</time></trkpt><trkpt lat="45.3031167" lon="10.7082083"><ele>44.2</ele><time>2026-05-01T11:18:58.599Z</time></trkpt><trkpt lat="45.30312" lon="10.7080883"><ele>44.6</ele><time>2026-05-01T11:19:00.601Z</time></trkpt><trkpt lat="45.3029967" lon="10.70803"><ele>45.0</ele><time>2026-05-01T11:19:09.6Z</time></trkpt><trkpt lat="45.30291" lon="10.7080117"><ele>45.2</ele><time>2026-05-01T11:19:10.61Z</time></trkpt><trkpt lat="45.3028" lon="10.707995"><ele>45.4</ele><time>2026-05-01T11:19:11.596Z</time></trkpt><trkpt lat="45.3027" lon="10.7079983"><ele>45.599999999999994</ele><time>2026-05-01T11:19:12.611Z</time></trkpt><trkpt lat="45.3026167" lon="10.7079383"><ele>45.8</ele><time>2026-05-01T11:19:13.61Z</time></trkpt><trkpt lat="45.302555" lon="10.7078433"><ele>46.0</ele><time>2026-05-01T11:19:14.61Z</time></trkpt><trkpt lat="45.3025133" lon="10.7077017"><ele>46.0</ele><time>2026-05-01T11:19:15.612Z</time></trkpt><trkpt lat="45.3025133" lon="10.7075383"><ele>46.0</ele><time>2026-05-01T11:19:16.62Z</time></trkpt><trkpt lat="45.3025217" lon="10.7073567"><ele>46.0</ele><time>2026-05-01T11:19:17.602Z</time></trkpt><trkpt lat="45.3025367" lon="10.707165"><ele>46.0</ele><time>2026-05-01T11:19:18.606Z</time></trkpt><trkpt lat="45.3025233" lon="10.70699"><ele>46.0</ele><time>2026-05-01T11:19:19.606Z</time></trkpt><trkpt lat="45.3025117" lon="10.7068267"><ele>46.0</ele><time>2026-05-01T11:19:20.614Z</time></trkpt><trkpt lat="45.3025133" lon="10.7066667"><ele>46.0</ele><time>2026-05-01T11:19:21.61Z</time></trkpt><trkpt lat="45.302515" lon="10.7065467"><ele>46.0</ele><time>2026-05-01T11:19:22.611Z</time></trkpt><trkpt lat="45.30252" lon="10.7064417"><ele>46.0</ele><time>2026-05-01T11:19:23.605Z</time></trkpt><trkpt lat="45.302465" lon="10.70639"><ele>46.0</ele><time>2026-05-01T11:19:25.609Z</time></trkpt><trkpt lat="45.30237" lon="10.70651"><ele>46.0</ele><time>2026-05-01T11:19:27.6Z</time></trkpt><trkpt lat="45.302325" lon="10.70661"><ele>46.0</ele><time>2026-05-01T11:19:28.605Z</time></trkpt><trkpt lat="45.3022833" lon="10.70671"><ele>46.0</ele><time>2026-05-01T11:19:29.607Z</time></trkpt><trkpt lat="45.302245" lon="10.706785"><ele>46.0</ele><time>2026-05-01T11:19:30.602Z</time></trkpt><trkpt lat="45.3021617" lon="10.7068483"><ele>46.0</ele><time>2026-05-01T11:19:32.604Z</time></trkpt><trkpt lat="45.302085" lon="10.706815"><ele>46.0</ele><time>2026-05-01T11:19:33.619Z</time></trkpt><trkpt lat="45.30199" lon="10.7067783"><ele>46.0</ele><time>2026-05-01T11:19:34.605Z</time></trkpt><trkpt lat="45.3018767" lon="10.70672"><ele>46.0</ele><time>2026-05-01T11:19:35.609Z</time></trkpt><trkpt lat="45.3017767" lon="10.7066667"><ele>46.0</ele><time>2026-05-01T11:19:36.606Z</time></trkpt><trkpt lat="45.301685" lon="10.7066133"><ele>46.0</ele><time>2026-05-01T11:19:37.611Z</time></trkpt><trkpt lat="45.3015783" lon="10.70658"><ele>46.0</ele><time>2026-05-01T11:19:38.611Z</time></trkpt><trkpt lat="45.3014633" lon="10.7065383"><ele>46.0</ele><time>2026-05-01T11:19:39.598Z</time></trkpt><trkpt lat="45.301345" lon="10.7064917"><ele>46.0</ele><time>2026-05-01T11:19:40.603Z</time></trkpt><trkpt lat="45.30122" lon="10.7064633"><ele>46.0</ele><time>2026-05-01T11:19:41.602Z</time></trkpt><trkpt lat="45.3011" lon="10.7064483"><ele>46.0</ele><time>2026-05-01T11:19:42.607Z</time></trkpt><trkpt lat="45.301" lon="10.7064117"><ele>46.0</ele><time>2026-05-01T11:19:43.609Z</time></trkpt><trkpt lat="45.3008883" lon="10.7063867"><ele>46.0</ele><time>2026-05-01T11:19:44.597Z</time></trkpt><trkpt lat="45.3007617" lon="10.706365"><ele>46.0</ele><time>2026-05-01T11:19:45.602Z</time></trkpt><trkpt lat="45.3006583" lon="10.7063133"><ele>46.0</ele><time>2026-05-01T11:19:46.606Z</time></trkpt><trkpt lat="45.300545" lon="10.7062867"><ele>46.0</ele><time>2026-05-01T11:19:47.594Z</time></trkpt><trkpt lat="45.3004217" lon="10.7062583"><ele>46.0</ele><time>2026-05-01T11:19:48.61Z</time></trkpt><trkpt lat="45.3003183" lon="10.7062533"><ele>46.0</ele><time>2026-05-01T11:19:49.599Z</time></trkpt><trkpt lat="45.3002433" lon="10.70622"><ele>46.0</ele><time>2026-05-01T11:19:50.606Z</time></trkpt><trkpt lat="45.3001533" lon="10.7061917"><ele>46.0</ele><time>2026-05-01T11:19:51.605Z</time></trkpt><trkpt lat="45.3000717" lon="10.70615"><ele>46.0</ele><time>2026-05-01T11:19:52.607Z</time></trkpt><trkpt lat="45.2999667" lon="10.7061033"><ele>46.0</ele><time>2026-05-01T11:19:53.597Z</time></trkpt><trkpt lat="45.2998517" lon="10.7060633"><ele>46.0</ele><time>2026-05-01T11:19:54.611Z</time></trkpt><trkpt lat="45.2997383" lon="10.7060167"><ele>46.0</ele><time>2026-05-01T11:19:55.604Z</time></trkpt><trkpt lat="45.2996217" lon="10.7059783"><ele>46.0</ele><time>2026-05-01T11:19:56.603Z</time></trkpt><trkpt lat="45.2995033" lon="10.70595"><ele>46.0</ele><time>2026-05-01T11:19:57.611Z</time></trkpt><trkpt lat="45.29939" lon="10.7059317"><ele>46.0</ele><time>2026-05-01T11:19:58.611Z</time></trkpt><trkpt lat="45.299275" lon="10.70593"><ele>46.0</ele><time>2026-05-01T11:19:59.601Z</time></trkpt><trkpt lat="45.2991683" lon="10.7059367"><ele>46.0</ele><time>2026-05-01T11:20:00.599Z</time></trkpt><trkpt lat="45.2990467" lon="10.705955"><ele>46.0</ele><time>2026-05-01T11:20:01.606Z</time></trkpt><trkpt lat="45.2989733" lon="10.7059633"><ele>46.0</ele><time>2026-05-01T11:20:02.603Z</time></trkpt><trkpt lat="45.298855" lon="10.7059767"><ele>46.0</ele><time>2026-05-01T11:20:03.606Z</time></trkpt><trkpt lat="45.29874" lon="10.70598"><ele>46.0</ele><time>2026-05-01T11:20:04.609Z</time></trkpt><trkpt lat="45.298625" lon="10.7059833"><ele>46.0</ele><time>2026-05-01T11:20:05.609Z</time></trkpt><trkpt lat="45.2985083" lon="10.7059867"><ele>46.0</ele><time>2026-05-01T11:20:06.596Z</time></trkpt><trkpt lat="45.2983867" lon="10.706025"><ele>46.0</ele><time>2026-05-01T11:20:07.603Z</time></trkpt><trkpt lat="45.2982533" lon="10.7060717"><ele>46.0</ele><time>2026-05-01T11:20:08.607Z</time></trkpt><trkpt lat="45.2981667" lon="10.70607"><ele>46.0</ele><time>2026-05-01T11:20:09.609Z</time></trkpt><trkpt lat="45.29806" lon="10.70605"><ele>46.0</ele><time>2026-05-01T11:20:10.6Z</time></trkpt><trkpt lat="45.2979233" lon="10.7060467"><ele>46.0</ele><time>2026-05-01T11:20:11.601Z</time></trkpt><trkpt lat="45.2978" lon="10.7060367"><ele>46.0</ele><time>2026-05-01T11:20:12.602Z</time></trkpt><trkpt lat="45.2977" lon="10.7060367"><ele>46.0</ele><time>2026-05-01T11:20:13.603Z</time></trkpt><trkpt lat="45.2975983" lon="10.7060233"><ele>46.0</ele><time>2026-05-01T11:20:14.603Z</time></trkpt><trkpt lat="45.2975333" lon="10.70603"><ele>46.0</ele><time>2026-05-01T11:20:15.597Z</time></trkpt><trkpt lat="45.2974667" lon="10.7060333"><ele>46.0</ele><time>2026-05-01T11:20:16.603Z</time></trkpt><trkpt lat="45.29734" lon="10.70604"><ele>46.0</ele><time>2026-05-01T11:20:18.612Z</time></trkpt><trkpt lat="45.2972333" lon="10.7060483"><ele>46.0</ele><time>2026-05-01T11:20:20.602Z</time></trkpt><trkpt lat="45.297165" lon="10.7060483"><ele>46.0</ele><time>2026-05-01T11:20:22.601Z</time></trkpt><trkpt lat="45.2970733" lon="10.706135"><ele>46.0</ele><time>2026-05-01T11:20:25.602Z</time></trkpt><trkpt lat="45.29703" lon="10.7062"><ele>46.199999999999996</ele><time>2026-05-01T11:20:26.615Z</time></trkpt><trkpt lat="45.2969683" lon="10.7062817"><ele>46.4</ele><time>2026-05-01T11:20:27.602Z</time></trkpt><trkpt lat="45.296905" lon="10.7063433"><ele>46.6</ele><time>2026-05-01T11:20:28.599Z</time></trkpt><trkpt lat="45.296835" lon="10.70639"><ele>46.8</ele><time>2026-05-01T11:20:29.605Z</time></trkpt><trkpt lat="45.2967433" lon="10.70643"><ele>47.0</ele><time>2026-05-01T11:20:30.602Z</time></trkpt><trkpt lat="45.2966267" lon="10.7064567"><ele>47.0</ele><time>2026-05-01T11:20:31.598Z</time></trkpt><trkpt lat="45.2965233" lon="10.7065117"><ele>47.0</ele><time>2026-05-01T11:20:32.602Z</time></trkpt><trkpt lat="45.2964183" lon="10.7065383"><ele>47.0</ele><time>2026-05-01T11:20:33.601Z</time></trkpt><trkpt lat="45.2963283" lon="10.7065867"><ele>47.0</ele><time>2026-05-01T11:20:34.607Z</time></trkpt><trkpt lat="45.2962467" lon="10.7066233"><ele>47.0</ele><time>2026-05-01T11:20:35.604Z</time></trkpt><trkpt lat="45.2961667" lon="10.70667"><ele>47.166666666666664</ele><time>2026-05-01T11:20:36.61Z</time></trkpt><trkpt lat="45.2960967" lon="10.70674"><ele>47.33333333333333</ele><time>2026-05-01T11:20:37.607Z</time></trkpt><trkpt lat="45.2960133" lon="10.70677"><ele>47.5</ele><time>2026-05-01T11:20:38.605Z</time></trkpt><trkpt lat="45.295925" lon="10.7068117"><ele>47.666666666666664</ele><time>2026-05-01T11:20:39.608Z</time></trkpt><trkpt lat="45.2958317" lon="10.7068133"><ele>47.833333333333336</ele><time>2026-05-01T11:20:40.599Z</time></trkpt><trkpt lat="45.295745" lon="10.70684"><ele>48.0</ele><time>2026-05-01T11:20:41.61Z</time></trkpt><trkpt lat="45.2956617" lon="10.7068633"><ele>47.666666666666664</ele><time>2026-05-01T11:20:42.61Z</time></trkpt><trkpt lat="45.2955767" lon="10.7068967"><ele>47.333333333333336</ele><time>2026-05-01T11:20:43.608Z</time></trkpt><trkpt lat="45.2954967" lon="10.7069383"><ele>47.0</ele><time>2026-05-01T11:20:44.6Z</time></trkpt><trkpt lat="45.2954267" lon="10.7069683"><ele>46.66666666666667</ele><time>2026-05-01T11:20:45.602Z</time></trkpt><trkpt lat="45.2953633" lon="10.7069983"><ele>46.333333333333336</ele><time>2026-05-01T11:20:46.601Z</time></trkpt><trkpt lat="45.2952567" lon="10.7070383"><ele>46.0</ele><time>2026-05-01T11:20:48.61Z</time></trkpt><trkpt lat="45.2951867" lon="10.70704"><ele>45.66666666666667</ele><time>2026-05-01T11:20:51.597Z</time></trkpt><trkpt lat="45.295175" lon="10.7071933"><ele>45.333333333333336</ele><time>2026-05-01T11:20:54.601Z</time></trkpt><trkpt lat="45.29518" lon="10.707305"><ele>45.0</ele><time>2026-05-01T11:20:55.604Z</time></trkpt><trkpt lat="45.2951817" lon="10.7074233"><ele>44.666666666666664</ele><time>2026-05-01T11:20:56.603Z</time></trkpt><trkpt lat="45.29518" lon="10.70755"><ele>44.33333333333333</ele><time>2026-05-01T11:20:57.609Z</time></trkpt><trkpt lat="45.295185" lon="10.7076733"><ele>44.0</ele><time>2026-05-01T11:20:58.602Z</time></trkpt><trkpt lat="45.29519" lon="10.7077933"><ele>44.0</ele><time>2026-05-01T11:20:59.599Z</time></trkpt><trkpt lat="45.2951917" lon="10.707925"><ele>44.0</ele><time>2026-05-01T11:21:00.599Z</time></trkpt><trkpt lat="45.295195" lon="10.7080517"><ele>44.0</ele><time>2026-05-01T11:21:01.625Z</time></trkpt><trkpt lat="45.2951867" lon="10.7081867"><ele>44.0</ele><time>2026-05-01T11:21:02.602Z</time></trkpt><trkpt lat="45.2952067" lon="10.70834"><ele>44.0</ele><time>2026-05-01T11:21:03.608Z</time></trkpt><trkpt lat="45.29521" lon="10.708515"><ele>43.800000000000004</ele><time>2026-05-01T11:21:04.645Z</time></trkpt><trkpt lat="45.2952067" lon="10.708695"><ele>43.6</ele><time>2026-05-01T11:21:05.601Z</time></trkpt><trkpt lat="45.29522" lon="10.708845"><ele>43.4</ele><time>2026-05-01T11:21:06.593Z</time></trkpt><trkpt lat="45.29524" lon="10.7089917"><ele>43.2</ele><time>2026-05-01T11:21:07.602Z</time></trkpt><trkpt lat="45.2952517" lon="10.7091383"><ele>43.0</ele><time>2026-05-01T11:21:08.604Z</time></trkpt><trkpt lat="45.2952633" lon="10.7092767"><ele>43.25</ele><time>2026-05-01T11:21:09.604Z</time></trkpt><trkpt lat="45.2952933" lon="10.7094367"><ele>43.5</ele><time>2026-05-01T11:21:10.599Z</time></trkpt><trkpt lat="45.2952983" lon="10.7096067"><ele>43.75</ele><time>2026-05-01T11:21:11.601Z</time></trkpt><trkpt lat="45.2953017" lon="10.7097683"><ele>44.0</ele><time>2026-05-01T11:21:12.603Z</time></trkpt><trkpt lat="45.2953333" lon="10.7099467"><ele>44.0</ele><time>2026-05-01T11:21:13.601Z</time></trkpt><trkpt lat="45.2953667" lon="10.7101233"><ele>44.0</ele><time>2026-05-01T11:21:14.609Z</time></trkpt><trkpt lat="45.295375" lon="10.710295"><ele>44.0</ele><time>2026-05-01T11:21:15.599Z</time></trkpt><trkpt lat="45.2953933" lon="10.710455"><ele>44.0</ele><time>2026-05-01T11:21:16.653Z</time></trkpt><trkpt lat="45.2954083" lon="10.7106383"><ele>44.0</ele><time>2026-05-01T11:21:17.597Z</time></trkpt><trkpt lat="45.29543" lon="10.7108417"><ele>44.0</ele><time>2026-05-01T11:21:18.612Z</time></trkpt><trkpt lat="45.2954367" lon="10.7110267"><ele>44.0</ele><time>2026-05-01T11:21:19.599Z</time></trkpt><trkpt lat="45.2954583" lon="10.7112233"><ele>44.0</ele><time>2026-05-01T11:21:20.607Z</time></trkpt><trkpt lat="45.2954617" lon="10.7114283"><ele>44.5</ele><time>2026-05-01T11:21:21.599Z</time></trkpt><trkpt lat="45.2954633" lon="10.7116567"><ele>45.0</ele><time>2026-05-01T11:21:22.6Z</time></trkpt><trkpt lat="45.29547" lon="10.7118433"><ele>45.5</ele><time>2026-05-01T11:21:23.603Z</time></trkpt><trkpt lat="45.2954567" lon="10.7120367"><ele>46.0</ele><time>2026-05-01T11:21:24.601Z</time></trkpt><trkpt lat="45.2954617" lon="10.7122017"><ele>46.0</ele><time>2026-05-01T11:21:25.599Z</time></trkpt><trkpt lat="45.2954767" lon="10.712355"><ele>46.0</ele><time>2026-05-01T11:21:26.603Z</time></trkpt><trkpt lat="45.2954817" lon="10.712505"><ele>46.0</ele><time>2026-05-01T11:21:27.61Z</time></trkpt><trkpt lat="45.295455" lon="10.712675"><ele>46.0</ele><time>2026-05-01T11:21:28.594Z</time></trkpt><trkpt lat="45.2954567" lon="10.7127867"><ele>46.0</ele><time>2026-05-01T11:21:29.59Z</time></trkpt><trkpt lat="45.2954383" lon="10.7128933"><ele>45.5</ele><time>2026-05-01T11:21:30.604Z</time></trkpt><trkpt lat="45.2953917" lon="10.713"><ele>45.0</ele><time>2026-05-01T11:21:31.6Z</time></trkpt><trkpt lat="45.2952967" lon="10.7130733"><ele>44.5</ele><time>2026-05-01T11:21:32.602Z</time></trkpt><trkpt lat="45.2951817" lon="10.7131317"><ele>44.0</ele><time>2026-05-01T11:21:33.603Z</time></trkpt><trkpt lat="45.295045" lon="10.7131683"><ele>44.0</ele><time>2026-05-01T11:21:34.603Z</time></trkpt><trkpt lat="45.2949583" lon="10.713215"><ele>44.0</ele><time>2026-05-01T11:21:35.596Z</time></trkpt><trkpt lat="45.2948467" lon="10.7132767"><ele>44.0</ele><time>2026-05-01T11:21:36.598Z</time></trkpt><trkpt lat="45.2947933" lon="10.713345"><ele>44.0</ele><time>2026-05-01T11:21:37.604Z</time></trkpt><trkpt lat="45.2947533" lon="10.7134483"><ele>44.0</ele><time>2026-05-01T11:21:38.599Z</time></trkpt><trkpt lat="45.29472" lon="10.7135683"><ele>43.75</ele><time>2026-05-01T11:21:39.605Z</time></trkpt><trkpt lat="45.2947083" lon="10.7137283"><ele>43.5</ele><time>2026-05-01T11:21:40.599Z</time></trkpt><trkpt lat="45.2947183" lon="10.7139117"><ele>43.25</ele><time>2026-05-01T11:21:41.604Z</time></trkpt><trkpt lat="45.294745" lon="10.7140633"><ele>43.0</ele><time>2026-05-01T11:21:42.601Z</time></trkpt><trkpt lat="45.29474" lon="10.7142033"><ele>42.8</ele><time>2026-05-01T11:21:43.604Z</time></trkpt><trkpt lat="45.2947633" lon="10.7143433"><ele>42.599999999999994</ele><time>2026-05-01T11:21:44.602Z</time></trkpt><trkpt lat="45.29476" lon="10.714495"><ele>42.400000000000006</ele><time>2026-05-01T11:21:45.6Z</time></trkpt><trkpt lat="45.2947433" lon="10.7146283"><ele>42.2</ele><time>2026-05-01T11:21:46.604Z</time></trkpt><trkpt lat="45.294715" lon="10.7147483"><ele>42.0</ele><time>2026-05-01T11:21:47.6Z</time></trkpt><trkpt lat="45.294635" lon="10.714855"><ele>42.2</ele><time>2026-05-01T11:21:48.611Z</time></trkpt><trkpt lat="45.2945417" lon="10.71494"><ele>42.400000000000006</ele><time>2026-05-01T11:21:49.593Z</time></trkpt><trkpt lat="45.2944567" lon="10.7149967"><ele>42.599999999999994</ele><time>2026-05-01T11:21:50.598Z</time></trkpt><trkpt lat="45.294375" lon="10.7150683"><ele>42.8</ele><time>2026-05-01T11:21:51.596Z</time></trkpt><trkpt lat="45.2943283" lon="10.7151617"><ele>43.0</ele><time>2026-05-01T11:21:52.597Z</time></trkpt><trkpt lat="45.294275" lon="10.7153"><ele>43.0</ele><time>2026-05-01T11:21:53.601Z</time></trkpt><trkpt lat="45.2942283" lon="10.71544"><ele>43.0</ele><time>2026-05-01T11:21:54.606Z</time></trkpt><trkpt lat="45.294185" lon="10.7156"><ele>43.0</ele><time>2026-05-01T11:21:55.596Z</time></trkpt><trkpt lat="45.294175" lon="10.715775"><ele>43.0</ele><time>2026-05-01T11:21:56.597Z</time></trkpt><trkpt lat="45.2941617" lon="10.7159433"><ele>43.16666666666667</ele><time>2026-05-01T11:21:57.592Z</time></trkpt><trkpt lat="45.29416" lon="10.716075"><ele>43.333333333333336</ele><time>2026-05-01T11:21:58.606Z</time></trkpt><trkpt lat="45.2941583" lon="10.7162167"><ele>43.5</ele><time>2026-05-01T11:21:59.602Z</time></trkpt><trkpt lat="45.2941533" lon="10.7163383"><ele>43.666666666666664</ele><time>2026-05-01T11:22:00.602Z</time></trkpt><trkpt lat="45.29415" lon="10.716445"><ele>43.83333333333333</ele><time>2026-05-01T11:22:01.595Z</time></trkpt><trkpt lat="45.2941433" lon="10.71654"><ele>44.0</ele><time>2026-05-01T11:22:02.607Z</time></trkpt><trkpt lat="45.29413" lon="10.7166633"><ele>44.0</ele><time>2026-05-01T11:22:04.593Z</time></trkpt><trkpt lat="45.2940817" lon="10.71674"><ele>44.0</ele><time>2026-05-01T11:22:06.613Z</time></trkpt><trkpt lat="45.2939683" lon="10.7168467"><ele>44.0</ele><time>2026-05-01T11:22:08.599Z</time></trkpt><trkpt lat="45.293875" lon="10.7169133"><ele>44.0</ele><time>2026-05-01T11:22:09.645Z</time></trkpt><trkpt lat="45.2937583" lon="10.716985"><ele>44.0</ele><time>2026-05-01T11:22:10.603Z</time></trkpt><trkpt lat="45.2936417" lon="10.71705"><ele>44.0</ele><time>2026-05-01T11:22:11.599Z</time></trkpt><trkpt lat="45.29349" lon="10.7171517"><ele>44.0</ele><time>2026-05-01T11:22:12.597Z</time></trkpt><trkpt lat="45.29336" lon="10.71726"><ele>44.0</ele><time>2026-05-01T11:22:13.6Z</time></trkpt><trkpt lat="45.2932217" lon="10.7173517"><ele>44.0</ele><time>2026-05-01T11:22:14.598Z</time></trkpt><trkpt lat="45.2930917" lon="10.7174433"><ele>44.0</ele><time>2026-05-01T11:22:15.607Z</time></trkpt><trkpt lat="45.292985" lon="10.7175333"><ele>44.0</ele><time>2026-05-01T11:22:16.599Z</time></trkpt><trkpt lat="45.2929017" lon="10.717585"><ele>44.0</ele><time>2026-05-01T11:22:17.604Z</time></trkpt><trkpt lat="45.2928317" lon="10.7176567"><ele>44.0</ele><time>2026-05-01T11:22:18.603Z</time></trkpt><trkpt lat="45.29277" lon="10.7176817"><ele>44.0</ele><time>2026-05-01T11:22:19.606Z</time></trkpt><trkpt lat="45.292715" lon="10.7177617"><ele>44.0</ele><time>2026-05-01T11:22:20.611Z</time></trkpt><trkpt lat="45.2926667" lon="10.71787"><ele>44.0</ele><time>2026-05-01T11:22:21.605Z</time></trkpt><trkpt lat="45.2926267" lon="10.7179967"><ele>44.0</ele><time>2026-05-01T11:22:22.61Z</time></trkpt><trkpt lat="45.29258" lon="10.7181483"><ele>44.0</ele><time>2026-05-01T11:22:23.607Z</time></trkpt><trkpt lat="45.29253" lon="10.71832"><ele>44.0</ele><time>2026-05-01T11:22:24.604Z</time></trkpt><trkpt lat="45.2925" lon="10.7184933"><ele>44.0</ele><time>2026-05-01T11:22:25.604Z</time></trkpt><trkpt lat="45.2925033" lon="10.71862"><ele>44.0</ele><time>2026-05-01T11:22:26.603Z</time></trkpt><trkpt lat="45.2924933" lon="10.718745"><ele>44.0</ele><time>2026-05-01T11:22:27.605Z</time></trkpt><trkpt lat="45.2925167" lon="10.7188783"><ele>44.0</ele><time>2026-05-01T11:22:28.621Z</time></trkpt><trkpt lat="45.29257" lon="10.7189883"><ele>43.800000000000004</ele><time>2026-05-01T11:22:29.596Z</time></trkpt><trkpt lat="45.29262" lon="10.719135"><ele>43.6</ele><time>2026-05-01T11:22:30.611Z</time></trkpt><trkpt lat="45.2926733" lon="10.71926"><ele>43.4</ele><time>2026-05-01T11:22:31.603Z</time></trkpt><trkpt lat="45.2927283" lon="10.7194117"><ele>43.2</ele><time>2026-05-01T11:22:32.603Z</time></trkpt><trkpt lat="45.2928083" lon="10.719465"><ele>43.0</ele><time>2026-05-01T11:22:33.6Z</time></trkpt><trkpt lat="45.292865" lon="10.719505"><ele>43.0</ele><time>2026-05-01T11:22:34.613Z</time></trkpt><trkpt lat="45.29291" lon="10.7195867"><ele>43.0</ele><time>2026-05-01T11:22:36.598Z</time></trkpt><trkpt lat="45.2929033" lon="10.719685"><ele>43.0</ele><time>2026-05-01T11:22:40.597Z</time></trkpt><trkpt lat="45.2928483" lon="10.7198283"><ele>43.0</ele><time>2026-05-01T11:22:42.595Z</time></trkpt><trkpt lat="45.292795" lon="10.7199717"><ele>43.0</ele><time>2026-05-01T11:22:44.6Z</time></trkpt><trkpt lat="45.292695" lon="10.7200617"><ele>43.0</ele><time>2026-05-01T11:22:46.595Z</time></trkpt><trkpt lat="45.2926183" lon="10.7200933"><ele>43.0</ele><time>2026-05-01T11:22:47.608Z</time></trkpt><trkpt lat="45.2925333" lon="10.7201183"><ele>43.0</ele><time>2026-05-01T11:22:48.594Z</time></trkpt><trkpt lat="45.2924383" lon="10.7201467"><ele>43.0</ele><time>2026-05-01T11:22:49.611Z</time></trkpt><trkpt lat="45.2923367" lon="10.72017"><ele>43.0</ele><time>2026-05-01T11:22:50.603Z</time></trkpt><trkpt lat="45.292235" lon="10.7202133"><ele>42.8</ele><time>2026-05-01T11:22:51.636Z</time></trkpt><trkpt lat="45.2921667" lon="10.7202117"><ele>42.599999999999994</ele><time>2026-05-01T11:22:52.596Z</time></trkpt><trkpt lat="45.2920817" lon="10.7202233"><ele>42.400000000000006</ele><time>2026-05-01T11:22:53.608Z</time></trkpt><trkpt lat="45.291975" lon="10.72024"><ele>42.2</ele><time>2026-05-01T11:22:54.604Z</time></trkpt><trkpt lat="45.2918633" lon="10.7202583"><ele>42.0</ele><time>2026-05-01T11:22:55.602Z</time></trkpt><trkpt lat="45.2917433" lon="10.7202583"><ele>41.8</ele><time>2026-05-01T11:22:56.603Z</time></trkpt><trkpt lat="45.2916233" lon="10.7202467"><ele>41.6</ele><time>2026-05-01T11:22:57.605Z</time></trkpt><trkpt lat="45.2915117" lon="10.7202617"><ele>41.4</ele><time>2026-05-01T11:22:58.599Z</time></trkpt><trkpt lat="45.2914133" lon="10.7202883"><ele>41.199999999999996</ele><time>2026-05-01T11:22:59.598Z</time></trkpt><trkpt lat="45.2913333" lon="10.720265"><ele>41.0</ele><time>2026-05-01T11:23:00.609Z</time></trkpt><trkpt lat="45.2912667" lon="10.7202567"><ele>41.0</ele><time>2026-05-01T11:23:01.605Z</time></trkpt><trkpt lat="45.2911917" lon="10.7202433"><ele>41.0</ele><time>2026-05-01T11:23:02.605Z</time></trkpt><trkpt lat="45.29111" lon="10.7202333"><ele>41.0</ele><time>2026-05-01T11:23:03.603Z</time></trkpt><trkpt lat="45.2910217" lon="10.720205"><ele>41.0</ele><time>2026-05-01T11:23:04.604Z</time></trkpt><trkpt lat="45.2909383" lon="10.7201567"><ele>41.0</ele><time>2026-05-01T11:23:05.598Z</time></trkpt><trkpt lat="45.2908567" lon="10.72011"><ele>41.0</ele><time>2026-05-01T11:23:06.602Z</time></trkpt><trkpt lat="45.2907783" lon="10.7200567"><ele>41.0</ele><time>2026-05-01T11:23:07.609Z</time></trkpt><trkpt lat="45.290705" lon="10.7199917"><ele>41.0</ele><time>2026-05-01T11:23:08.596Z</time></trkpt><trkpt lat="45.290625" lon="10.7199367"><ele>41.0</ele><time>2026-05-01T11:23:09.604Z</time></trkpt><trkpt lat="45.290555" lon="10.71988"><ele>41.0</ele><time>2026-05-01T11:23:10.604Z</time></trkpt><trkpt lat="45.2904867" lon="10.7198217"><ele>41.0</ele><time>2026-05-01T11:23:11.597Z</time></trkpt><trkpt lat="45.290415" lon="10.71977"><ele>41.0</ele><time>2026-05-01T11:23:12.596Z</time></trkpt><trkpt lat="45.29034" lon="10.7197083"><ele>40.8</ele><time>2026-05-01T11:23:13.605Z</time></trkpt><trkpt lat="45.2902567" lon="10.7196383"><ele>40.599999999999994</ele><time>2026-05-01T11:23:14.598Z</time></trkpt><trkpt lat="45.2901733" lon="10.7195567"><ele>40.4</ele><time>2026-05-01T11:23:15.605Z</time></trkpt><trkpt lat="45.2900817" lon="10.7194767"><ele>40.2</ele><time>2026-05-01T11:23:16.602Z</time></trkpt><trkpt lat="45.2899967" lon="10.719415"><ele>40.0</ele><time>2026-05-01T11:23:17.599Z</time></trkpt><trkpt lat="45.2899133" lon="10.7193583"><ele>40.0</ele><time>2026-05-01T11:23:18.598Z</time></trkpt><trkpt lat="45.2898283" lon="10.71933"><ele>40.0</ele><time>2026-05-01T11:23:19.596Z</time></trkpt><trkpt lat="45.28975" lon="10.71931"><ele>40.0</ele><time>2026-05-01T11:23:20.599Z</time></trkpt><trkpt lat="45.2896667" lon="10.7192833"><ele>40.0</ele><time>2026-05-01T11:23:21.592Z</time></trkpt><trkpt lat="45.2895983" lon="10.7192633"><ele>40.0</ele><time>2026-05-01T11:23:22.596Z</time></trkpt><trkpt lat="45.2894867" lon="10.7192633"><ele>40.0</ele><time>2026-05-01T11:23:24.596Z</time></trkpt><trkpt lat="45.2893933" lon="10.71934"><ele>40.0</ele><time>2026-05-01T11:23:26.601Z</time></trkpt><trkpt lat="45.2893383" lon="10.7195117"><ele>40.0</ele><time>2026-05-01T11:23:28.596Z</time></trkpt><trkpt lat="45.2893117" lon="10.7196267"><ele>40.0</ele><time>2026-05-01T11:23:29.606Z</time></trkpt><trkpt lat="45.2892833" lon="10.7197533"><ele>40.0</ele><time>2026-05-01T11:23:30.607Z</time></trkpt><trkpt lat="45.2892583" lon="10.7198683"><ele>40.0</ele><time>2026-05-01T11:23:31.6Z</time></trkpt><trkpt lat="45.2892367" lon="10.7199683"><ele>40.0</ele><time>2026-05-01T11:23:32.596Z</time></trkpt><trkpt lat="45.2892117" lon="10.7200683"><ele>40.0</ele><time>2026-05-01T11:23:33.608Z</time></trkpt><trkpt lat="45.2891867" lon="10.720165"><ele>40.0</ele><time>2026-05-01T11:23:34.612Z</time></trkpt><trkpt lat="45.2891333" lon="10.720295"><ele>40.0</ele><time>2026-05-01T11:23:36.6Z</time></trkpt><trkpt lat="45.2890683" lon="10.720305"><ele>40.0</ele><time>2026-05-01T11:23:38.601Z</time></trkpt><trkpt lat="45.2889667" lon="10.7201883"><ele>40.0</ele><time>2026-05-01T11:23:40.594Z</time></trkpt><trkpt lat="45.28891" lon="10.720105"><ele>40.4</ele><time>2026-05-01T11:23:41.609Z</time></trkpt><trkpt lat="45.2888433" lon="10.7200117"><ele>40.8</ele><time>2026-05-01T11:23:42.601Z</time></trkpt><trkpt lat="45.2887767" lon="10.7199067"><ele>41.2</ele><time>2026-05-01T11:23:43.591Z</time></trkpt><trkpt lat="45.2886917" lon="10.7198267"><ele>41.6</ele><time>2026-05-01T11:23:44.593Z</time></trkpt><trkpt lat="45.2886267" lon="10.719745"><ele>42.0</ele><time>2026-05-01T11:23:45.603Z</time></trkpt><trkpt lat="45.2885433" lon="10.7196633"><ele>42.0</ele><time>2026-05-01T11:23:46.627Z</time></trkpt><trkpt lat="45.2884567" lon="10.7195783"><ele>42.0</ele><time>2026-05-01T11:23:47.597Z</time></trkpt><trkpt lat="45.28838" lon="10.7194733"><ele>42.0</ele><time>2026-05-01T11:23:48.606Z</time></trkpt><trkpt lat="45.2882883" lon="10.7194083"><ele>42.0</ele><time>2026-05-01T11:23:49.612Z</time></trkpt><trkpt lat="45.2881967" lon="10.7193233"><ele>42.0</ele><time>2026-05-01T11:23:50.594Z</time></trkpt><trkpt lat="45.2881" lon="10.71927"><ele>42.0</ele><time>2026-05-01T11:23:51.602Z</time></trkpt><trkpt lat="45.288015" lon="10.7192183"><ele>42.0</ele><time>2026-05-01T11:23:52.616Z</time></trkpt><trkpt lat="45.2879433" lon="10.7191533"><ele>42.0</ele><time>2026-05-01T11:23:53.597Z</time></trkpt><trkpt lat="45.287865" lon="10.7190667"><ele>42.0</ele><time>2026-05-01T11:23:54.618Z</time></trkpt><trkpt lat="45.28779" lon="10.7189667"><ele>42.0</ele><time>2026-05-01T11:23:55.602Z</time></trkpt><trkpt lat="45.2876967" lon="10.71886"><ele>42.0</ele><time>2026-05-01T11:23:56.589Z</time></trkpt><trkpt lat="45.2876033" lon="10.71875"><ele>42.0</ele><time>2026-05-01T11:23:57.601Z</time></trkpt><trkpt lat="45.2875083" lon="10.7186317"><ele>42.0</ele><time>2026-05-01T11:23:58.602Z</time></trkpt><trkpt lat="45.2874133" lon="10.7185083"><ele>42.0</ele><time>2026-05-01T11:23:59.607Z</time></trkpt><trkpt lat="45.2873133" lon="10.718385"><ele>41.8</ele><time>2026-05-01T11:24:00.609Z</time></trkpt><trkpt lat="45.287215" lon="10.718265"><ele>41.6</ele><time>2026-05-01T11:24:01.609Z</time></trkpt><trkpt lat="45.2871233" lon="10.7181667"><ele>41.4</ele><time>2026-05-01T11:24:02.616Z</time></trkpt><trkpt lat="45.2870433" lon="10.7180833"><ele>41.199999999999996</ele><time>2026-05-01T11:24:03.608Z</time></trkpt><trkpt lat="45.2869883" lon="10.7180167"><ele>41.0</ele><time>2026-05-01T11:24:04.608Z</time></trkpt><trkpt lat="45.28693" lon="10.7179583"><ele>41.0</ele><time>2026-05-01T11:24:05.598Z</time></trkpt><trkpt lat="45.286865" lon="10.7178967"><ele>41.0</ele><time>2026-05-01T11:24:06.598Z</time></trkpt><trkpt lat="45.2868017" lon="10.717825"><ele>41.0</ele><time>2026-05-01T11:24:07.633Z</time></trkpt><trkpt lat="45.28675" lon="10.7177583"><ele>41.0</ele><time>2026-05-01T11:24:08.607Z</time></trkpt><trkpt lat="45.286665" lon="10.7176633"><ele>41.0</ele><time>2026-05-01T11:24:10.617Z</time></trkpt><trkpt lat="45.2866067" lon="10.71762"><ele>41.0</ele><time>2026-05-01T11:24:12.592Z</time></trkpt><trkpt lat="45.2865233" lon="10.7175533"><ele>40.8</ele><time>2026-05-01T11:24:14.61Z</time></trkpt><trkpt lat="45.2864733" lon="10.717495"><ele>40.599999999999994</ele><time>2026-05-01T11:24:15.596Z</time></trkpt><trkpt lat="45.286415" lon="10.7174183"><ele>40.4</ele><time>2026-05-01T11:24:16.595Z</time></trkpt><trkpt lat="45.2863333" lon="10.7173233"><ele>40.2</ele><time>2026-05-01T11:24:17.602Z</time></trkpt><trkpt lat="45.2862267" lon="10.71719"><ele>40.0</ele><time>2026-05-01T11:24:18.6Z</time></trkpt><trkpt lat="45.2861067" lon="10.7170533"><ele>40.0</ele><time>2026-05-01T11:24:19.61Z</time></trkpt><trkpt lat="45.2859867" lon="10.7169267"><ele>40.0</ele><time>2026-05-01T11:24:20.601Z</time></trkpt><trkpt lat="45.2858583" lon="10.7168083"><ele>40.0</ele><time>2026-05-01T11:24:21.606Z</time></trkpt><trkpt lat="45.2857567" lon="10.716695"><ele>40.0</ele><time>2026-05-01T11:24:22.604Z</time></trkpt><trkpt lat="45.2856683" lon="10.7165683"><ele>40.0</ele><time>2026-05-01T11:24:23.612Z</time></trkpt><trkpt lat="45.2855933" lon="10.7164933"><ele>40.0</ele><time>2026-05-01T11:24:24.598Z</time></trkpt><trkpt lat="45.2855317" lon="10.7164033"><ele>40.0</ele><time>2026-05-01T11:24:25.621Z</time></trkpt><trkpt lat="45.2854783" lon="10.71633"><ele>40.0</ele><time>2026-05-01T11:24:26.612Z</time></trkpt><trkpt lat="45.2854417" lon="10.7161983"><ele>40.0</ele><time>2026-05-01T11:24:28.612Z</time></trkpt><trkpt lat="45.2854767" lon="10.71604"><ele>40.0</ele><time>2026-05-01T11:24:30.607Z</time></trkpt><trkpt lat="45.2854983" lon="10.715955"><ele>40.0</ele><time>2026-05-01T11:24:31.599Z</time></trkpt><trkpt lat="45.2855267" lon="10.71581"><ele>40.0</ele><time>2026-05-01T11:24:33.599Z</time></trkpt><trkpt lat="45.28548" lon="10.7156483"><ele>40.0</ele><time>2026-05-01T11:24:35.603Z</time></trkpt><trkpt lat="45.2854267" lon="10.7155617"><ele>40.0</ele><time>2026-05-01T11:24:36.605Z</time></trkpt><trkpt lat="45.2853517" lon="10.715465"><ele>40.0</ele><time>2026-05-01T11:24:37.598Z</time></trkpt><trkpt lat="45.28528" lon="10.7153533"><ele>40.0</ele><time>2026-05-01T11:24:38.619Z</time></trkpt><trkpt lat="45.28522" lon="10.7152433"><ele>40.0</ele><time>2026-05-01T11:24:39.613Z</time></trkpt><trkpt lat="45.2851683" lon="10.7151483"><ele>40.0</ele><time>2026-05-01T11:24:40.602Z</time></trkpt><trkpt lat="45.2851233" lon="10.7150717"><ele>40.0</ele><time>2026-05-01T11:24:41.615Z</time></trkpt><trkpt lat="45.285065" lon="10.7149667"><ele>40.2</ele><time>2026-05-01T11:24:43.611Z</time></trkpt><trkpt lat="45.28506" lon="10.714835"><ele>40.4</ele><time>2026-05-01T11:24:45.613Z</time></trkpt><trkpt lat="45.2851" lon="10.7146383"><ele>40.599999999999994</ele><time>2026-05-01T11:24:47.609Z</time></trkpt><trkpt lat="45.2851033" lon="10.7145483"><ele>40.8</ele><time>2026-05-01T11:24:49.612Z</time></trkpt><trkpt lat="45.2849717" lon="10.714495"><ele>41.0</ele><time>2026-05-01T11:24:55.607Z</time></trkpt><trkpt lat="45.28489" lon="10.714465"><ele>41.0</ele><time>2026-05-01T11:24:56.601Z</time></trkpt><trkpt lat="45.2847867" lon="10.7144467"><ele>41.0</ele><time>2026-05-01T11:24:57.599Z</time></trkpt><trkpt lat="45.284695" lon="10.7144033"><ele>41.0</ele><time>2026-05-01T11:24:58.605Z</time></trkpt><trkpt lat="45.2846383" lon="10.7143483"><ele>41.0</ele><time>2026-05-01T11:24:59.605Z</time></trkpt><trkpt lat="45.284575" lon="10.7142683"><ele>41.0</ele><time>2026-05-01T11:25:00.593Z</time></trkpt><trkpt lat="45.2845267" lon="10.71417"><ele>41.0</ele><time>2026-05-01T11:25:01.611Z</time></trkpt><trkpt lat="45.2845267" lon="10.7140117"><ele>40.5</ele><time>2026-05-01T11:25:02.602Z</time></trkpt><trkpt lat="45.2845267" lon="10.7138367"><ele>40.0</ele><time>2026-05-01T11:25:03.601Z</time></trkpt><trkpt lat="45.2845167" lon="10.7136417"><ele>39.5</ele><time>2026-05-01T11:25:04.607Z</time></trkpt><trkpt lat="45.2845333" lon="10.7134583"><ele>39.0</ele><time>2026-05-01T11:25:05.621Z</time></trkpt><trkpt lat="45.284535" lon="10.7132617"><ele>39.0</ele><time>2026-05-01T11:25:06.605Z</time></trkpt><trkpt lat="45.2845417" lon="10.7130917"><ele>39.0</ele><time>2026-05-01T11:25:07.597Z</time></trkpt><trkpt lat="45.2844417" lon="10.7129583"><ele>39.0</ele><time>2026-05-01T11:25:08.601Z</time></trkpt><trkpt lat="45.28434" lon="10.71282"><ele>39.0</ele><time>2026-05-01T11:25:09.614Z</time></trkpt><trkpt lat="45.2842033" lon="10.712695"><ele>39.0</ele><time>2026-05-01T11:25:10.622Z</time></trkpt><trkpt lat="45.2841017" lon="10.712575"><ele>39.0</ele><time>2026-05-01T11:25:11.605Z</time></trkpt><trkpt lat="45.2840033" lon="10.7124333"><ele>39.0</ele><time>2026-05-01T11:25:12.597Z</time></trkpt><trkpt lat="45.2839017" lon="10.71228"><ele>39.0</ele><time>2026-05-01T11:25:13.599Z</time></trkpt><trkpt lat="45.28383" lon="10.7121083"><ele>39.0</ele><time>2026-05-01T11:25:14.611Z</time></trkpt><trkpt lat="45.2837233" lon="10.7119433"><ele>39.0</ele><time>2026-05-01T11:25:15.622Z</time></trkpt><trkpt lat="45.2836267" lon="10.7117533"><ele>39.0</ele><time>2026-05-01T11:25:16.598Z</time></trkpt><trkpt lat="45.2835417" lon="10.7115667"><ele>39.0</ele><time>2026-05-01T11:25:17.609Z</time></trkpt><trkpt lat="45.2834617" lon="10.71138"><ele>39.0</ele><time>2026-05-01T11:25:18.622Z</time></trkpt><trkpt lat="45.2832933" lon="10.7109383"><ele>39.0</ele><time>2026-05-01T11:25:20.605Z</time></trkpt><trkpt lat="45.2832283" lon="10.71069"><ele>39.0</ele><time>2026-05-01T11:25:21.609Z</time></trkpt><trkpt lat="45.2831283" lon="10.710435"><ele>39.0</ele><time>2026-05-01T11:25:22.601Z</time></trkpt><trkpt lat="45.283045" lon="10.7101717"><ele>39.0</ele><time>2026-05-01T11:25:23.612Z</time></trkpt><trkpt lat="45.28297" lon="10.7099"><ele>39.0</ele><time>2026-05-01T11:25:24.608Z</time></trkpt><trkpt lat="45.28289" lon="10.7096167"><ele>39.0</ele><time>2026-05-01T11:25:25.605Z</time></trkpt><trkpt lat="45.2828" lon="10.7093533"><ele>39.0</ele><time>2026-05-01T11:25:26.595Z</time></trkpt><trkpt lat="45.2827283" lon="10.709075"><ele>39.0</ele><time>2026-05-01T11:25:27.605Z</time></trkpt><trkpt lat="45.2826383" lon="10.7087983"><ele>39.0</ele><time>2026-05-01T11:25:28.603Z</time></trkpt><trkpt lat="45.28257" lon="10.708525"><ele>39.0</ele><time>2026-05-01T11:25:29.609Z</time></trkpt><trkpt lat="45.2825017" lon="10.7082767"><ele>39.0</ele><time>2026-05-01T11:25:30.618Z</time></trkpt><trkpt lat="45.2824367" lon="10.7080333"><ele>39.0</ele><time>2026-05-01T11:25:31.623Z</time></trkpt><trkpt lat="45.2823667" lon="10.707805"><ele>39.0</ele><time>2026-05-01T11:25:32.603Z</time></trkpt><trkpt lat="45.2823183" lon="10.7075833"><ele>39.0</ele><time>2026-05-01T11:25:33.61Z</time></trkpt><trkpt lat="45.282245" lon="10.7073733"><ele>39.0</ele><time>2026-05-01T11:25:34.613Z</time></trkpt><trkpt lat="45.2821767" lon="10.7071817"><ele>38.75</ele><time>2026-05-01T11:25:35.602Z</time></trkpt><trkpt lat="45.282115" lon="10.70698"><ele>38.5</ele><time>2026-05-01T11:25:36.619Z</time></trkpt><trkpt lat="45.2820767" lon="10.7068017"><ele>38.25</ele><time>2026-05-01T11:25:37.608Z</time></trkpt><trkpt lat="45.28203" lon="10.7066283"><ele>38.0</ele><time>2026-05-01T11:25:38.615Z</time></trkpt><trkpt lat="45.281985" lon="10.7064717"><ele>38.599999999999994</ele><time>2026-05-01T11:25:39.618Z</time></trkpt><trkpt lat="45.2819667" lon="10.7063567"><ele>39.199999999999996</ele><time>2026-05-01T11:25:40.615Z</time></trkpt><trkpt lat="45.2819467" lon="10.7062583"><ele>39.8</ele><time>2026-05-01T11:25:41.61Z</time></trkpt><trkpt lat="45.2819067" lon="10.7061583"><ele>40.4</ele><time>2026-05-01T11:25:43.611Z</time></trkpt><trkpt lat="45.281775" lon="10.7062083"><ele>41.0</ele><time>2026-05-01T11:25:45.593Z</time></trkpt><trkpt lat="45.281685" lon="10.706275"><ele>41.0</ele><time>2026-05-01T11:25:46.603Z</time></trkpt><trkpt lat="45.2815767" lon="10.7063417"><ele>41.0</ele><time>2026-05-01T11:25:47.597Z</time></trkpt><trkpt lat="45.2814683" lon="10.7064283"><ele>41.0</ele><time>2026-05-01T11:25:48.595Z</time></trkpt><trkpt lat="45.2813583" lon="10.7065167"><ele>41.0</ele><time>2026-05-01T11:25:49.611Z</time></trkpt><trkpt lat="45.2812417" lon="10.7065817"><ele>40.75</ele><time>2026-05-01T11:25:50.603Z</time></trkpt><trkpt lat="45.2811083" lon="10.7066667"><ele>40.5</ele><time>2026-05-01T11:25:51.601Z</time></trkpt><trkpt lat="45.280985" lon="10.7067417"><ele>40.25</ele><time>2026-05-01T11:25:52.597Z</time></trkpt><trkpt lat="45.2808633" lon="10.7068017"><ele>40.0</ele><time>2026-05-01T11:25:53.607Z</time></trkpt><trkpt lat="45.2807733" lon="10.7068517"><ele>40.0</ele><time>2026-05-01T11:25:54.599Z</time></trkpt><trkpt lat="45.2806933" lon="10.7068917"><ele>40.0</ele><time>2026-05-01T11:25:55.605Z</time></trkpt><trkpt lat="45.280615" lon="10.7069267"><ele>40.0</ele><time>2026-05-01T11:25:56.601Z</time></trkpt><trkpt lat="45.280525" lon="10.7069667"><ele>40.0</ele><time>2026-05-01T11:25:58.593Z</time></trkpt><trkpt lat="45.2804217" lon="10.7068967"><ele>40.0</ele><time>2026-05-01T11:26:00.597Z</time></trkpt><trkpt lat="45.2803717" lon="10.7068267"><ele>40.0</ele><time>2026-05-01T11:26:01.595Z</time></trkpt><trkpt lat="45.2803167" lon="10.706695"><ele>39.75</ele><time>2026-05-01T11:26:02.608Z</time></trkpt><trkpt lat="45.2802433" lon="10.70654"><ele>39.5</ele><time>2026-05-01T11:26:03.6Z</time></trkpt><trkpt lat="45.2801733" lon="10.7063583"><ele>39.25</ele><time>2026-05-01T11:26:04.592Z</time></trkpt><trkpt lat="45.2800683" lon="10.7061683"><ele>39.0</ele><time>2026-05-01T11:26:05.597Z</time></trkpt><trkpt lat="45.2799533" lon="10.7059633"><ele>38.333333333333336</ele><time>2026-05-01T11:26:06.599Z</time></trkpt><trkpt lat="45.2798217" lon="10.705755"><ele>37.66666666666667</ele><time>2026-05-01T11:26:07.606Z</time></trkpt><trkpt lat="45.2797033" lon="10.7055217"><ele>37.0</ele><time>2026-05-01T11:26:08.601Z</time></trkpt><trkpt lat="45.2795583" lon="10.7052867"><ele>36.66666666666667</ele><time>2026-05-01T11:26:09.604Z</time></trkpt><trkpt lat="45.2794217" lon="10.70505"><ele>36.333333333333336</ele><time>2026-05-01T11:26:10.603Z</time></trkpt><trkpt lat="45.27927" lon="10.704805"><ele>36.0</ele><time>2026-05-01T11:26:11.597Z</time></trkpt><trkpt lat="45.2791183" lon="10.7045583"><ele>36.333333333333336</ele><time>2026-05-01T11:26:12.61Z</time></trkpt><trkpt lat="45.2789683" lon="10.7043433"><ele>36.66666666666667</ele><time>2026-05-01T11:26:13.633Z</time></trkpt><trkpt lat="45.2788317" lon="10.7041533"><ele>37.0</ele><time>2026-05-01T11:26:14.601Z</time></trkpt><trkpt lat="45.2787067" lon="10.70396"><ele>37.0</ele><time>2026-05-01T11:26:15.624Z</time></trkpt><trkpt lat="45.2785783" lon="10.7037667"><ele>37.0</ele><time>2026-05-01T11:26:16.6Z</time></trkpt><trkpt lat="45.2784567" lon="10.7035983"><ele>37.0</ele><time>2026-05-01T11:26:17.607Z</time></trkpt><trkpt lat="45.2783533" lon="10.7034533"><ele>37.0</ele><time>2026-05-01T11:26:18.608Z</time></trkpt><trkpt lat="45.2782583" lon="10.7033433"><ele>37.0</ele><time>2026-05-01T11:26:19.604Z</time></trkpt><trkpt lat="45.278185" lon="10.7032183"><ele>37.0</ele><time>2026-05-01T11:26:20.593Z</time></trkpt><trkpt lat="45.2781117" lon="10.70316"><ele>37.0</ele><time>2026-05-01T11:26:21.601Z</time></trkpt><trkpt lat="45.2780567" lon="10.703045"><ele>37.0</ele><time>2026-05-01T11:26:22.598Z</time></trkpt><trkpt lat="45.2779867" lon="10.7029567"><ele>37.0</ele><time>2026-05-01T11:26:23.604Z</time></trkpt><trkpt lat="45.2779317" lon="10.7028633"><ele>37.0</ele><time>2026-05-01T11:26:24.595Z</time></trkpt><trkpt lat="45.27787" lon="10.70278"><ele>37.0</ele><time>2026-05-01T11:26:25.597Z</time></trkpt><trkpt lat="45.27781" lon="10.702695"><ele>37.0</ele><time>2026-05-01T11:26:26.598Z</time></trkpt><trkpt lat="45.2777483" lon="10.70261"><ele>37.0</ele><time>2026-05-01T11:26:27.605Z</time></trkpt><trkpt lat="45.277685" lon="10.7025233"><ele>37.0</ele><time>2026-05-01T11:26:28.601Z</time></trkpt><trkpt lat="45.2776217" lon="10.7024317"><ele>37.0</ele><time>2026-05-01T11:26:29.607Z</time></trkpt><trkpt lat="45.2775233" lon="10.7023517"><ele>37.0</ele><time>2026-05-01T11:26:30.593Z</time></trkpt><trkpt lat="45.2774467" lon="10.7022717"><ele>37.0</ele><time>2026-05-01T11:26:31.602Z</time></trkpt><trkpt lat="45.2773733" lon="10.702185"><ele>37.0</ele><time>2026-05-01T11:26:32.6Z</time></trkpt><trkpt lat="45.277305" lon="10.7021067"><ele>37.0</ele><time>2026-05-01T11:26:33.594Z</time></trkpt><trkpt lat="45.2772517" lon="10.702015"><ele>37.0</ele><time>2026-05-01T11:26:34.61Z</time></trkpt><trkpt lat="45.2771867" lon="10.70193"><ele>37.0</ele><time>2026-05-01T11:26:35.606Z</time></trkpt><trkpt lat="45.2771217" lon="10.701845"><ele>37.0</ele><time>2026-05-01T11:26:36.613Z</time></trkpt><trkpt lat="45.277055" lon="10.7017633"><ele>37.0</ele><time>2026-05-01T11:26:37.611Z</time></trkpt><trkpt lat="45.2769883" lon="10.7016883"><ele>37.0</ele><time>2026-05-01T11:26:38.603Z</time></trkpt><trkpt lat="45.276925" lon="10.7016217"><ele>37.0</ele><time>2026-05-01T11:26:39.614Z</time></trkpt><trkpt lat="45.2768533" lon="10.70156"><ele>37.5</ele><time>2026-05-01T11:26:40.61Z</time></trkpt><trkpt lat="45.2767733" lon="10.7015067"><ele>38.0</ele><time>2026-05-01T11:26:41.609Z</time></trkpt><trkpt lat="45.276695" lon="10.7014667"><ele>38.5</ele><time>2026-05-01T11:26:42.605Z</time></trkpt><trkpt lat="45.2766217" lon="10.7014333"><ele>39.0</ele><time>2026-05-01T11:26:43.596Z</time></trkpt><trkpt lat="45.2765533" lon="10.7014067"><ele>39.5</ele><time>2026-05-01T11:26:44.611Z</time></trkpt><trkpt lat="45.2764867" lon="10.7013833"><ele>40.0</ele><time>2026-05-01T11:26:45.6Z</time></trkpt><trkpt lat="45.276395" lon="10.70132"><ele>40.16666666666667</ele><time>2026-05-01T11:26:47.611Z</time></trkpt><trkpt lat="45.2763167" lon="10.7012683"><ele>40.333333333333336</ele><time>2026-05-01T11:26:49.594Z</time></trkpt><trkpt lat="45.2762467" lon="10.7012767"><ele>40.5</ele><time>2026-05-01T11:26:52.598Z</time></trkpt><trkpt lat="45.27618" lon="10.701375"><ele>40.666666666666664</ele><time>2026-05-01T11:26:54.603Z</time></trkpt><trkpt lat="45.27609" lon="10.70144"><ele>40.83333333333333</ele><time>2026-05-01T11:26:56.609Z</time></trkpt><trkpt lat="45.276" lon="10.7014183"><ele>41.0</ele><time>2026-05-01T11:26:58.599Z</time></trkpt><trkpt lat="45.2759117" lon="10.7013667"><ele>41.0</ele><time>2026-05-01T11:27:00.628Z</time></trkpt><trkpt lat="45.2758267" lon="10.70132"><ele>41.0</ele><time>2026-05-01T11:27:02.608Z</time></trkpt><trkpt lat="45.275745" lon="10.7012683"><ele>41.0</ele><time>2026-05-01T11:27:04.631Z</time></trkpt><trkpt lat="45.2756383" lon="10.7012"><ele>41.0</ele><time>2026-05-01T11:27:06.604Z</time></trkpt><trkpt lat="45.275565" lon="10.7011"><ele>41.0</ele><time>2026-05-01T11:27:08.606Z</time></trkpt><trkpt lat="45.2755317" lon="10.7009717"><ele>40.83333333333333</ele><time>2026-05-01T11:27:10.61Z</time></trkpt><trkpt lat="45.2755517" lon="10.7008217"><ele>40.666666666666664</ele><time>2026-05-01T11:27:12.605Z</time></trkpt><trkpt lat="45.2755783" lon="10.70074"><ele>40.5</ele><time>2026-05-01T11:27:13.611Z</time></trkpt><trkpt lat="45.2756183" lon="10.7006583"><ele>40.333333333333336</ele><time>2026-05-01T11:27:14.608Z</time></trkpt><trkpt lat="45.2756717" lon="10.7005933"><ele>40.16666666666667</ele><time>2026-05-01T11:27:15.596Z</time></trkpt><trkpt lat="45.2757267" lon="10.70053"><ele>40.0</ele><time>2026-05-01T11:27:16.605Z</time></trkpt><trkpt lat="45.2757833" lon="10.7004667"><ele>40.0</ele><time>2026-05-01T11:27:17.602Z</time></trkpt><trkpt lat="45.2758367" lon="10.7003883"><ele>40.0</ele><time>2026-05-01T11:27:18.618Z</time></trkpt><trkpt lat="45.2758867" lon="10.7002983"><ele>40.0</ele><time>2026-05-01T11:27:19.602Z</time></trkpt><trkpt lat="45.2759433" lon="10.7001867"><ele>40.0</ele><time>2026-05-01T11:27:20.61Z</time></trkpt><trkpt lat="45.27601" lon="10.7000717"><ele>40.0</ele><time>2026-05-01T11:27:21.598Z</time></trkpt><trkpt lat="45.2760833" lon="10.6999183"><ele>39.5</ele><time>2026-05-01T11:27:22.606Z</time></trkpt><trkpt lat="45.276125" lon="10.6997483"><ele>39.0</ele><time>2026-05-01T11:27:23.609Z</time></trkpt><trkpt lat="45.27618" lon="10.6995733"><ele>38.5</ele><time>2026-05-01T11:27:24.599Z</time></trkpt><trkpt lat="45.2762217" lon="10.6993767"><ele>38.0</ele><time>2026-05-01T11:27:25.616Z</time></trkpt><trkpt lat="45.2762883" lon="10.6992183"><ele>37.75</ele><time>2026-05-01T11:27:26.609Z</time></trkpt><trkpt lat="45.2763267" lon="10.6990583"><ele>37.5</ele><time>2026-05-01T11:27:27.618Z</time></trkpt><trkpt lat="45.2763417" lon="10.6989017"><ele>37.25</ele><time>2026-05-01T11:27:28.605Z</time></trkpt><trkpt lat="45.2763433" lon="10.6987267"><ele>37.0</ele><time>2026-05-01T11:27:29.604Z</time></trkpt><trkpt lat="45.276335" lon="10.6985367"><ele>37.0</ele><time>2026-05-01T11:27:30.603Z</time></trkpt><trkpt lat="45.2763233" lon="10.6983717"><ele>37.0</ele><time>2026-05-01T11:27:31.613Z</time></trkpt><trkpt lat="45.2763283" lon="10.698185"><ele>37.0</ele><time>2026-05-01T11:27:32.632Z</time></trkpt><trkpt lat="45.2763117" lon="10.6980033"><ele>37.0</ele><time>2026-05-01T11:27:33.608Z</time></trkpt><trkpt lat="45.2763067" lon="10.6978"><ele>37.0</ele><time>2026-05-01T11:27:34.598Z</time></trkpt><trkpt lat="45.2763067" lon="10.6975967"><ele>37.0</ele><time>2026-05-01T11:27:35.603Z</time></trkpt><trkpt lat="45.2763067" lon="10.6974083"><ele>37.0</ele><time>2026-05-01T11:27:36.614Z</time></trkpt><trkpt lat="45.276305" lon="10.6972567"><ele>37.0</ele><time>2026-05-01T11:27:37.616Z</time></trkpt><trkpt lat="45.2762933" lon="10.69711"><ele>37.0</ele><time>2026-05-01T11:27:38.614Z</time></trkpt><trkpt lat="45.2763017" lon="10.6970083"><ele>37.0</ele><time>2026-05-01T11:27:39.621Z</time></trkpt><trkpt lat="45.2762933" lon="10.6969033"><ele>37.0</ele><time>2026-05-01T11:27:40.602Z</time></trkpt><trkpt lat="45.2762767" lon="10.696765"><ele>37.0</ele><time>2026-05-01T11:27:42.609Z</time></trkpt><trkpt lat="45.2763717" lon="10.6967317"><ele>37.0</ele><time>2026-05-01T11:28:28.613Z</time></trkpt><trkpt lat="45.2764333" lon="10.6967083"><ele>37.0</ele><time>2026-05-01T11:28:29.613Z</time></trkpt><trkpt lat="45.2765267" lon="10.6966667"><ele>37.2</ele><time>2026-05-01T11:28:30.65Z</time></trkpt><trkpt lat="45.27663" lon="10.6966233"><ele>37.400000000000006</ele><time>2026-05-01T11:28:31.621Z</time></trkpt><trkpt lat="45.2767233" lon="10.69657"><ele>37.599999999999994</ele><time>2026-05-01T11:28:32.59Z</time></trkpt><trkpt lat="45.276815" lon="10.69653"><ele>37.8</ele><time>2026-05-01T11:28:33.6Z</time></trkpt><trkpt lat="45.2768917" lon="10.6964983"><ele>38.0</ele><time>2026-05-01T11:28:34.604Z</time></trkpt><trkpt lat="45.2769733" lon="10.6964667"><ele>38.0</ele><time>2026-05-01T11:28:35.612Z</time></trkpt><trkpt lat="45.2770367" lon="10.6964133"><ele>38.0</ele><time>2026-05-01T11:28:36.598Z</time></trkpt><trkpt lat="45.2771" lon="10.6963383"><ele>38.0</ele><time>2026-05-01T11:28:37.601Z</time></trkpt><trkpt lat="45.27716" lon="10.6962467"><ele>38.0</ele><time>2026-05-01T11:28:38.603Z</time></trkpt><trkpt lat="45.2772183" lon="10.6961533"><ele>38.0</ele><time>2026-05-01T11:28:39.62Z</time></trkpt><trkpt lat="45.277275" lon="10.6960667"><ele>38.0</ele><time>2026-05-01T11:28:40.598Z</time></trkpt><trkpt lat="45.27733" lon="10.6959767"><ele>38.599999999999994</ele><time>2026-05-01T11:28:41.612Z</time></trkpt><trkpt lat="45.277385" lon="10.6958833"><ele>39.199999999999996</ele><time>2026-05-01T11:28:42.624Z</time></trkpt><trkpt lat="45.2774367" lon="10.6958017"><ele>39.8</ele><time>2026-05-01T11:28:43.605Z</time></trkpt><trkpt lat="45.2775067" lon="10.6956883"><ele>40.4</ele><time>2026-05-01T11:28:45.6Z</time></trkpt><trkpt lat="45.2775333" lon="10.695585"><ele>41.0</ele><time>2026-05-01T11:28:47.602Z</time></trkpt><trkpt lat="45.27749" lon="10.695425"><ele>41.0</ele><time>2026-05-01T11:28:49.614Z</time></trkpt><trkpt lat="45.2774567" lon="10.69533"><ele>41.0</ele><time>2026-05-01T11:28:50.603Z</time></trkpt><trkpt lat="45.2773967" lon="10.6952183"><ele>41.0</ele><time>2026-05-01T11:28:51.612Z</time></trkpt><trkpt lat="45.2773183" lon="10.6951133"><ele>41.0</ele><time>2026-05-01T11:28:52.601Z</time></trkpt><trkpt lat="45.2772417" lon="10.6949867"><ele>41.0</ele><time>2026-05-01T11:28:53.602Z</time></trkpt><trkpt lat="45.2771567" lon="10.69488"><ele>41.0</ele><time>2026-05-01T11:28:54.601Z</time></trkpt><trkpt lat="45.2770467" lon="10.6948033"><ele>41.0</ele><time>2026-05-01T11:28:55.597Z</time></trkpt><trkpt lat="45.2769367" lon="10.694725"><ele>41.0</ele><time>2026-05-01T11:28:56.609Z</time></trkpt><trkpt lat="45.27682" lon="10.6946383"><ele>41.0</ele><time>2026-05-01T11:28:57.602Z</time></trkpt><trkpt lat="45.27669" lon="10.6945717"><ele>41.0</ele><time>2026-05-01T11:28:58.608Z</time></trkpt><trkpt lat="45.27654" lon="10.6945"><ele>41.0</ele><time>2026-05-01T11:28:59.609Z</time></trkpt><trkpt lat="45.2764133" lon="10.6944017"><ele>41.0</ele><time>2026-05-01T11:29:00.631Z</time></trkpt><trkpt lat="45.2762833" lon="10.6943233"><ele>41.0</ele><time>2026-05-01T11:29:01.608Z</time></trkpt><trkpt lat="45.2761383" lon="10.6942567"><ele>41.25</ele><time>2026-05-01T11:29:02.611Z</time></trkpt><trkpt lat="45.2760267" lon="10.694195"><ele>41.5</ele><time>2026-05-01T11:29:03.608Z</time></trkpt><trkpt lat="45.27591" lon="10.6941133"><ele>41.75</ele><time>2026-05-01T11:29:04.609Z</time></trkpt><trkpt lat="45.2758033" lon="10.6940133"><ele>42.0</ele><time>2026-05-01T11:29:05.605Z</time></trkpt><trkpt lat="45.2756983" lon="10.69389"><ele>42.25</ele><time>2026-05-01T11:29:06.598Z</time></trkpt><trkpt lat="45.27559" lon="10.6937633"><ele>42.5</ele><time>2026-05-01T11:29:07.608Z</time></trkpt><trkpt lat="45.275475" lon="10.6936317"><ele>42.75</ele><time>2026-05-01T11:29:08.604Z</time></trkpt><trkpt lat="45.2753483" lon="10.6934933"><ele>43.0</ele><time>2026-05-01T11:29:09.607Z</time></trkpt><trkpt lat="45.2752083" lon="10.6933433"><ele>43.0</ele><time>2026-05-01T11:29:10.592Z</time></trkpt><trkpt lat="45.2749667" lon="10.6930333"><ele>43.0</ele><time>2026-05-01T11:29:12.603Z</time></trkpt><trkpt lat="45.27485" lon="10.6928867"><ele>42.66666666666667</ele><time>2026-05-01T11:29:13.598Z</time></trkpt><trkpt lat="45.2747317" lon="10.6927383"><ele>42.333333333333336</ele><time>2026-05-01T11:29:14.603Z</time></trkpt><trkpt lat="45.2746233" lon="10.6925917"><ele>42.0</ele><time>2026-05-01T11:29:15.662Z</time></trkpt><trkpt lat="45.2744983" lon="10.692475"><ele>42.0</ele><time>2026-05-01T11:29:16.596Z</time></trkpt><trkpt lat="45.27435" lon="10.69234"><ele>42.0</ele><time>2026-05-01T11:29:17.598Z</time></trkpt><trkpt lat="45.2742233" lon="10.6922417"><ele>42.0</ele><time>2026-05-01T11:29:18.61Z</time></trkpt><trkpt lat="45.2740783" lon="10.6921417"><ele>42.0</ele><time>2026-05-01T11:29:19.597Z</time></trkpt><trkpt lat="45.2739217" lon="10.6920383"><ele>42.0</ele><time>2026-05-01T11:29:20.601Z</time></trkpt><trkpt lat="45.2737633" lon="10.6919183"><ele>42.0</ele><time>2026-05-01T11:29:21.597Z</time></trkpt><trkpt lat="45.2736267" lon="10.691805"><ele>42.0</ele><time>2026-05-01T11:29:22.601Z</time></trkpt><trkpt lat="45.2735" lon="10.6917"><ele>42.0</ele><time>2026-05-01T11:29:23.601Z</time></trkpt><trkpt lat="45.2733917" lon="10.6916083"><ele>42.0</ele><time>2026-05-01T11:29:24.605Z</time></trkpt><trkpt lat="45.2733133" lon="10.6914733"><ele>42.0</ele><time>2026-05-01T11:29:25.596Z</time></trkpt><trkpt lat="45.27321" lon="10.6913133"><ele>42.0</ele><time>2026-05-01T11:29:26.614Z</time></trkpt><trkpt lat="45.273115" lon="10.6911267"><ele>42.0</ele><time>2026-05-01T11:29:27.607Z</time></trkpt><trkpt lat="45.2730083" lon="10.690955"><ele>42.0</ele><time>2026-05-01T11:29:28.611Z</time></trkpt><trkpt lat="45.2729133" lon="10.69075"><ele>42.0</ele><time>2026-05-01T11:29:29.599Z</time></trkpt><trkpt lat="45.272815" lon="10.690555"><ele>42.0</ele><time>2026-05-01T11:29:30.616Z</time></trkpt><trkpt lat="45.2727167" lon="10.6903517"><ele>42.0</ele><time>2026-05-01T11:29:31.606Z</time></trkpt><trkpt lat="45.2726" lon="10.690165"><ele>42.0</ele><time>2026-05-01T11:29:32.612Z</time></trkpt><trkpt lat="45.2724883" lon="10.6899767"><ele>42.0</ele><time>2026-05-01T11:29:33.633Z</time></trkpt><trkpt lat="45.2723983" lon="10.6897933"><ele>42.0</ele><time>2026-05-01T11:29:34.625Z</time></trkpt><trkpt lat="45.27231" lon="10.689605"><ele>42.0</ele><time>2026-05-01T11:29:35.62Z</time></trkpt><trkpt lat="45.2722117" lon="10.68943"><ele>42.0</ele><time>2026-05-01T11:29:36.614Z</time></trkpt><trkpt lat="45.2721233" lon="10.6892417"><ele>42.0</ele><time>2026-05-01T11:29:37.628Z</time></trkpt><trkpt lat="45.2720267" lon="10.68905"><ele>42.0</ele><time>2026-05-01T11:29:38.602Z</time></trkpt><trkpt lat="45.2719183" lon="10.6888483"><ele>42.0</ele><time>2026-05-01T11:29:39.61Z</time></trkpt><trkpt lat="45.27182" lon="10.6886467"><ele>42.0</ele><time>2026-05-01T11:29:40.611Z</time></trkpt><trkpt lat="45.2717033" lon="10.6884433"><ele>42.333333333333336</ele><time>2026-05-01T11:29:41.607Z</time></trkpt><trkpt lat="45.2715883" lon="10.6882467"><ele>42.66666666666667</ele><time>2026-05-01T11:29:42.606Z</time></trkpt><trkpt lat="45.2714783" lon="10.688025"><ele>43.0</ele><time>2026-05-01T11:29:43.608Z</time></trkpt><trkpt lat="45.271365" lon="10.6877933"><ele>43.333333333333336</ele><time>2026-05-01T11:29:44.601Z</time></trkpt><trkpt lat="45.2712583" lon="10.6876"><ele>43.666666666666664</ele><time>2026-05-01T11:29:45.602Z</time></trkpt><trkpt lat="45.2711833" lon="10.6873183"><ele>44.0</ele><time>2026-05-01T11:29:46.6Z</time></trkpt><trkpt lat="45.2711033" lon="10.6871783"><ele>44.0</ele><time>2026-05-01T11:29:47.604Z</time></trkpt><trkpt lat="45.2710333" lon="10.687055"><ele>44.0</ele><time>2026-05-01T11:29:48.602Z</time></trkpt><trkpt lat="45.2709767" lon="10.6869317"><ele>44.0</ele><time>2026-05-01T11:29:49.61Z</time></trkpt><trkpt lat="45.2709133" lon="10.6868383"><ele>44.0</ele><time>2026-05-01T11:29:50.636Z</time></trkpt><trkpt lat="45.2708533" lon="10.6867467"><ele>44.0</ele><time>2026-05-01T11:29:51.607Z</time></trkpt><trkpt lat="45.2708017" lon="10.686635"><ele>44.0</ele><time>2026-05-01T11:29:52.618Z</time></trkpt><trkpt lat="45.2707533" lon="10.686535"><ele>44.0</ele><time>2026-05-01T11:29:53.613Z</time></trkpt><trkpt lat="45.2707067" lon="10.6864567"><ele>44.0</ele><time>2026-05-01T11:29:54.614Z</time></trkpt><trkpt lat="45.2706467" lon="10.6863467"><ele>44.0</ele><time>2026-05-01T11:29:56.609Z</time></trkpt><trkpt lat="45.270575" lon="10.6862317"><ele>44.0</ele><time>2026-05-01T11:29:59.629Z</time></trkpt><trkpt lat="45.2705383" lon="10.6861517"><ele>44.0</ele><time>2026-05-01T11:30:00.607Z</time></trkpt><trkpt lat="45.2704867" lon="10.6860517"><ele>44.25</ele><time>2026-05-01T11:30:01.599Z</time></trkpt><trkpt lat="45.27042" lon="10.685935"><ele>44.5</ele><time>2026-05-01T11:30:02.608Z</time></trkpt><trkpt lat="45.2703317" lon="10.6857917"><ele>44.75</ele><time>2026-05-01T11:30:03.616Z</time></trkpt><trkpt lat="45.2702517" lon="10.6856333"><ele>45.0</ele><time>2026-05-01T11:30:04.605Z</time></trkpt><trkpt lat="45.2701683" lon="10.685455"><ele>45.0</ele><time>2026-05-01T11:30:05.615Z</time></trkpt><trkpt lat="45.270075" lon="10.6852833"><ele>45.0</ele><time>2026-05-01T11:30:06.614Z</time></trkpt><trkpt lat="45.269975" lon="10.68509"><ele>45.0</ele><time>2026-05-01T11:30:07.607Z</time></trkpt><trkpt lat="45.2698767" lon="10.6848767"><ele>45.0</ele><time>2026-05-01T11:30:08.609Z</time></trkpt><trkpt lat="45.269775" lon="10.684675"><ele>45.0</ele><time>2026-05-01T11:30:09.68Z</time></trkpt><trkpt lat="45.269655" lon="10.6844933"><ele>45.0</ele><time>2026-05-01T11:30:10.6Z</time></trkpt><trkpt lat="45.2695683" lon="10.684195"><ele>45.0</ele><time>2026-05-01T11:30:11.61Z</time></trkpt><trkpt lat="45.2694683" lon="10.6840183"><ele>45.0</ele><time>2026-05-01T11:30:12.606Z</time></trkpt><trkpt lat="45.2693767" lon="10.6838167"><ele>45.0</ele><time>2026-05-01T11:30:13.611Z</time></trkpt><trkpt lat="45.2692817" lon="10.6836733"><ele>45.333333333333336</ele><time>2026-05-01T11:30:14.614Z</time></trkpt><trkpt lat="45.2691817" lon="10.683515"><ele>45.66666666666667</ele><time>2026-05-01T11:30:15.616Z</time></trkpt><trkpt lat="45.26907" lon="10.6833133"><ele>46.0</ele><time>2026-05-01T11:30:16.609Z</time></trkpt><trkpt lat="45.2689517" lon="10.6831783"><ele>45.66666666666667</ele><time>2026-05-01T11:30:17.614Z</time></trkpt><trkpt lat="45.2688483" lon="10.6829517"><ele>45.333333333333336</ele><time>2026-05-01T11:30:18.618Z</time></trkpt><trkpt lat="45.2687333" lon="10.6827333"><ele>45.0</ele><time>2026-05-01T11:30:19.613Z</time></trkpt><trkpt lat="45.2686217" lon="10.6825183"><ele>44.666666666666664</ele><time>2026-05-01T11:30:20.609Z</time></trkpt><trkpt lat="45.2685083" lon="10.6822917"><ele>44.33333333333333</ele><time>2026-05-01T11:30:21.609Z</time></trkpt><trkpt lat="45.26839" lon="10.6820583"><ele>44.0</ele><time>2026-05-01T11:30:22.607Z</time></trkpt><trkpt lat="45.268265" lon="10.6817933"><ele>44.0</ele><time>2026-05-01T11:30:23.603Z</time></trkpt><trkpt lat="45.2681467" lon="10.68155"><ele>44.0</ele><time>2026-05-01T11:30:24.61Z</time></trkpt><trkpt lat="45.268015" lon="10.68132"><ele>44.0</ele><time>2026-05-01T11:30:25.621Z</time></trkpt><trkpt lat="45.2678867" lon="10.6810667"><ele>43.0</ele><time>2026-05-01T11:30:26.607Z</time></trkpt><trkpt lat="45.2677683" lon="10.680825"><ele>42.0</ele><time>2026-05-01T11:30:27.615Z</time></trkpt><trkpt lat="45.2676383" lon="10.6805683"><ele>41.0</ele><time>2026-05-01T11:30:28.607Z</time></trkpt><trkpt lat="45.2675133" lon="10.6803583"><ele>40.666666666666664</ele><time>2026-05-01T11:30:29.607Z</time></trkpt><trkpt lat="45.2674" lon="10.6801783"><ele>40.333333333333336</ele><time>2026-05-01T11:30:30.603Z</time></trkpt><trkpt lat="45.2672983" lon="10.679995"><ele>40.0</ele><time>2026-05-01T11:30:31.614Z</time></trkpt><trkpt lat="45.26721" lon="10.6798217"><ele>40.0</ele><time>2026-05-01T11:30:32.604Z</time></trkpt><trkpt lat="45.2671167" lon="10.6796533"><ele>40.0</ele><time>2026-05-01T11:30:33.607Z</time></trkpt><trkpt lat="45.2670367" lon="10.6795233"><ele>40.0</ele><time>2026-05-01T11:30:34.607Z</time></trkpt><trkpt lat="45.2669683" lon="10.6793833"><ele>40.0</ele><time>2026-05-01T11:30:35.6Z</time></trkpt><trkpt lat="45.2669117" lon="10.6792783"><ele>40.4</ele><time>2026-05-01T11:30:36.601Z</time></trkpt><trkpt lat="45.26687" lon="10.67921"><ele>40.8</ele><time>2026-05-01T11:30:37.602Z</time></trkpt><trkpt lat="45.2668183" lon="10.679065"><ele>41.2</ele><time>2026-05-01T11:30:50.607Z</time></trkpt><trkpt lat="45.26677" lon="10.6789633"><ele>41.6</ele><time>2026-05-01T11:30:51.597Z</time></trkpt><trkpt lat="45.266715" lon="10.678845"><ele>42.0</ele><time>2026-05-01T11:30:52.599Z</time></trkpt><trkpt lat="45.2666567" lon="10.6786983"><ele>42.333333333333336</ele><time>2026-05-01T11:30:53.594Z</time></trkpt><trkpt lat="45.266585" lon="10.6785417"><ele>42.66666666666667</ele><time>2026-05-01T11:30:54.595Z</time></trkpt><trkpt lat="45.2664667" lon="10.67835"><ele>43.0</ele><time>2026-05-01T11:30:55.592Z</time></trkpt><trkpt lat="45.26638" lon="10.67813"><ele>43.0</ele><time>2026-05-01T11:30:56.598Z</time></trkpt><trkpt lat="45.2662683" lon="10.6778983"><ele>43.0</ele><time>2026-05-01T11:30:57.6Z</time></trkpt><trkpt lat="45.2661817" lon="10.6776667"><ele>43.0</ele><time>2026-05-01T11:30:58.602Z</time></trkpt><trkpt lat="45.2660733" lon="10.677435"><ele>42.66666666666667</ele><time>2026-05-01T11:30:59.591Z</time></trkpt><trkpt lat="45.265985" lon="10.6772167"><ele>42.333333333333336</ele><time>2026-05-01T11:31:00.602Z</time></trkpt><trkpt lat="45.2659017" lon="10.6770383"><ele>42.0</ele><time>2026-05-01T11:31:01.593Z</time></trkpt><trkpt lat="45.2658083" lon="10.67685"><ele>42.0</ele><time>2026-05-01T11:31:02.597Z</time></trkpt><trkpt lat="45.2657167" lon="10.67663"><ele>42.0</ele><time>2026-05-01T11:31:03.623Z</time></trkpt><trkpt lat="45.2656233" lon="10.6763867"><ele>42.0</ele><time>2026-05-01T11:31:04.597Z</time></trkpt><trkpt lat="45.2655117" lon="10.67616"><ele>41.333333333333336</ele><time>2026-05-01T11:31:05.589Z</time></trkpt><trkpt lat="45.26539" lon="10.6759467"><ele>40.66666666666667</ele><time>2026-05-01T11:31:06.601Z</time></trkpt><trkpt lat="45.2652733" lon="10.6757567"><ele>40.0</ele><time>2026-05-01T11:31:07.605Z</time></trkpt><trkpt lat="45.2651583" lon="10.675565"><ele>40.0</ele><time>2026-05-01T11:31:08.596Z</time></trkpt><trkpt lat="45.2650367" lon="10.675365"><ele>40.0</ele><time>2026-05-01T11:31:09.605Z</time></trkpt><trkpt lat="45.2649183" lon="10.6751467"><ele>40.0</ele><time>2026-05-01T11:31:10.599Z</time></trkpt><trkpt lat="45.2648167" lon="10.6748933"><ele>40.333333333333336</ele><time>2026-05-01T11:31:11.599Z</time></trkpt><trkpt lat="45.2647117" lon="10.6746867"><ele>40.666666666666664</ele><time>2026-05-01T11:31:12.6Z</time></trkpt><trkpt lat="45.2646" lon="10.6744567"><ele>41.0</ele><time>2026-05-01T11:31:13.607Z</time></trkpt><trkpt lat="45.26449" lon="10.67424"><ele>40.33333333333333</ele><time>2026-05-01T11:31:14.594Z</time></trkpt><trkpt lat="45.26436" lon="10.6740017"><ele>39.666666666666664</ele><time>2026-05-01T11:31:15.643Z</time></trkpt><trkpt lat="45.2642367" lon="10.6737467"><ele>39.0</ele><time>2026-05-01T11:31:16.597Z</time></trkpt><trkpt lat="45.2641217" lon="10.673535"><ele>39.0</ele><time>2026-05-01T11:31:17.608Z</time></trkpt><trkpt lat="45.2640283" lon="10.67336"><ele>39.0</ele><time>2026-05-01T11:31:18.601Z</time></trkpt><trkpt lat="45.2639417" lon="10.6731817"><ele>39.0</ele><time>2026-05-01T11:31:19.6Z</time></trkpt><trkpt lat="45.2638633" lon="10.672975"><ele>39.0</ele><time>2026-05-01T11:31:20.601Z</time></trkpt><trkpt lat="45.2637817" lon="10.6728"><ele>39.0</ele><time>2026-05-01T11:31:21.598Z</time></trkpt><trkpt lat="45.26371" lon="10.6726367"><ele>39.0</ele><time>2026-05-01T11:31:22.6Z</time></trkpt><trkpt lat="45.2636517" lon="10.6724933"><ele>39.0</ele><time>2026-05-01T11:31:23.6Z</time></trkpt><trkpt lat="45.2635867" lon="10.6724083"><ele>39.2</ele><time>2026-05-01T11:31:24.603Z</time></trkpt><trkpt lat="45.2635217" lon="10.6722833"><ele>39.4</ele><time>2026-05-01T11:31:26.603Z</time></trkpt><trkpt lat="45.2635017" lon="10.6721817"><ele>39.6</ele><time>2026-05-01T11:31:28.597Z</time></trkpt><trkpt lat="45.2635667" lon="10.6721183"><ele>39.8</ele><time>2026-05-01T11:31:30.594Z</time></trkpt><trkpt lat="45.2636867" lon="10.67208"><ele>40.0</ele><time>2026-05-01T11:31:32.6Z</time></trkpt><trkpt lat="45.263785" lon="10.67207"><ele>40.0</ele><time>2026-05-01T11:31:33.596Z</time></trkpt><trkpt lat="45.2638983" lon="10.67205"><ele>40.0</ele><time>2026-05-01T11:31:34.596Z</time></trkpt><trkpt lat="45.26405" lon="10.6720233"><ele>40.0</ele><time>2026-05-01T11:31:35.6Z</time></trkpt><trkpt lat="45.2642183" lon="10.6719733"><ele>40.0</ele><time>2026-05-01T11:31:36.609Z</time></trkpt><trkpt lat="45.2644083" lon="10.67193"><ele>40.0</ele><time>2026-05-01T11:31:37.596Z</time></trkpt><trkpt lat="45.26461" lon="10.6718767"><ele>40.0</ele><time>2026-05-01T11:31:38.598Z</time></trkpt><trkpt lat="45.2647867" lon="10.671825"><ele>40.0</ele><time>2026-05-01T11:31:39.6Z</time></trkpt><trkpt lat="45.2649483" lon="10.6717817"><ele>40.0</ele><time>2026-05-01T11:31:40.595Z</time></trkpt><trkpt lat="45.26511" lon="10.6717317"><ele>40.0</ele><time>2026-05-01T11:31:41.6Z</time></trkpt><trkpt lat="45.2652883" lon="10.67168"><ele>40.0</ele><time>2026-05-01T11:31:42.602Z</time></trkpt><trkpt lat="45.2654717" lon="10.6716283"><ele>40.333333333333336</ele><time>2026-05-01T11:31:43.6Z</time></trkpt><trkpt lat="45.2656667" lon="10.671565"><ele>40.666666666666664</ele><time>2026-05-01T11:31:44.595Z</time></trkpt><trkpt lat="45.2658233" lon="10.6715033"><ele>41.0</ele><time>2026-05-01T11:31:45.6Z</time></trkpt><trkpt lat="45.265965" lon="10.6714417"><ele>41.0</ele><time>2026-05-01T11:31:46.601Z</time></trkpt><trkpt lat="45.2660917" lon="10.6713783"><ele>41.0</ele><time>2026-05-01T11:31:47.6Z</time></trkpt><trkpt lat="45.266225" lon="10.6713117"><ele>41.0</ele><time>2026-05-01T11:31:48.604Z</time></trkpt><trkpt lat="45.2663517" lon="10.67122"><ele>41.0</ele><time>2026-05-01T11:31:49.603Z</time></trkpt><trkpt lat="45.2664517" lon="10.6711333"><ele>41.0</ele><time>2026-05-01T11:31:50.602Z</time></trkpt><trkpt lat="45.2665467" lon="10.6710633"><ele>41.0</ele><time>2026-05-01T11:31:51.601Z</time></trkpt><trkpt lat="45.2666533" lon="10.670995"><ele>41.0</ele><time>2026-05-01T11:31:52.601Z</time></trkpt><trkpt lat="45.26676" lon="10.6709267"><ele>41.0</ele><time>2026-05-01T11:31:53.599Z</time></trkpt><trkpt lat="45.26686" lon="10.67088"><ele>41.0</ele><time>2026-05-01T11:31:54.599Z</time></trkpt><trkpt lat="45.2669567" lon="10.6708333"><ele>41.0</ele><time>2026-05-01T11:31:55.612Z</time></trkpt><trkpt lat="45.2670317" lon="10.6707817"><ele>41.0</ele><time>2026-05-01T11:31:56.592Z</time></trkpt><trkpt lat="45.2671" lon="10.6707433"><ele>41.0</ele><time>2026-05-01T11:31:57.598Z</time></trkpt><trkpt lat="45.2671967" lon="10.6706517"><ele>41.0</ele><time>2026-05-01T11:31:59.592Z</time></trkpt><trkpt lat="45.2672383" lon="10.6705717"><ele>41.0</ele><time>2026-05-01T11:32:00.595Z</time></trkpt><trkpt lat="45.2672533" lon="10.670465"><ele>41.0</ele><time>2026-05-01T11:32:01.601Z</time></trkpt><trkpt lat="45.2672583" lon="10.670375"><ele>41.0</ele><time>2026-05-01T11:32:02.6Z</time></trkpt><trkpt lat="45.2673167" lon="10.670245"><ele>41.0</ele><time>2026-05-01T11:32:04.599Z</time></trkpt><trkpt lat="45.2673683" lon="10.6701883"><ele>41.0</ele><time>2026-05-01T11:32:05.594Z</time></trkpt><trkpt lat="45.267445" lon="10.6701467"><ele>41.0</ele><time>2026-05-01T11:32:06.613Z</time></trkpt><trkpt lat="45.2675333" lon="10.6701167"><ele>41.0</ele><time>2026-05-01T11:32:07.6Z</time></trkpt><trkpt lat="45.267625" lon="10.6701033"><ele>41.0</ele><time>2026-05-01T11:32:08.61Z</time></trkpt><trkpt lat="45.2677017" lon="10.6700983"><ele>41.0</ele><time>2026-05-01T11:32:09.596Z</time></trkpt><trkpt lat="45.26782" lon="10.670135"><ele>41.0</ele><time>2026-05-01T11:32:11.601Z</time></trkpt><trkpt lat="45.2678767" lon="10.6701933"><ele>41.0</ele><time>2026-05-01T11:32:12.596Z</time></trkpt><trkpt lat="45.2679267" lon="10.6702733"><ele>41.0</ele><time>2026-05-01T11:32:13.609Z</time></trkpt><trkpt lat="45.2679667" lon="10.670375"><ele>41.0</ele><time>2026-05-01T11:32:14.597Z</time></trkpt><trkpt lat="45.2679933" lon="10.6704767"><ele>41.0</ele><time>2026-05-01T11:32:15.602Z</time></trkpt><trkpt lat="45.2680217" lon="10.6705583"><ele>41.199999999999996</ele><time>2026-05-01T11:32:16.596Z</time></trkpt><trkpt lat="45.268105" lon="10.6706583"><ele>41.4</ele><time>2026-05-01T11:32:18.602Z</time></trkpt><trkpt lat="45.26818" lon="10.6706767"><ele>41.6</ele><time>2026-05-01T11:32:19.615Z</time></trkpt><trkpt lat="45.26827" lon="10.6706733"><ele>41.8</ele><time>2026-05-01T11:32:20.601Z</time></trkpt><trkpt lat="45.2683783" lon="10.6706567"><ele>42.0</ele><time>2026-05-01T11:32:21.604Z</time></trkpt><trkpt lat="45.2684983" lon="10.6706367"><ele>42.0</ele><time>2026-05-01T11:32:22.594Z</time></trkpt><trkpt lat="45.26862" lon="10.6706183"><ele>42.0</ele><time>2026-05-01T11:32:23.6Z</time></trkpt><trkpt lat="45.2687333" lon="10.67061"><ele>42.0</ele><time>2026-05-01T11:32:24.593Z</time></trkpt><trkpt lat="45.26883" lon="10.6706067"><ele>42.0</ele><time>2026-05-01T11:32:25.592Z</time></trkpt><trkpt lat="45.2689067" lon="10.6706067"><ele>42.0</ele><time>2026-05-01T11:32:26.598Z</time></trkpt><trkpt lat="45.26902" lon="10.6706133"><ele>42.400000000000006</ele><time>2026-05-01T11:32:28.591Z</time></trkpt><trkpt lat="45.2690933" lon="10.6706117"><ele>42.800000000000004</ele><time>2026-05-01T11:32:31.598Z</time></trkpt><trkpt lat="45.269175" lon="10.6705817"><ele>43.2</ele><time>2026-05-01T11:32:33.599Z</time></trkpt><trkpt lat="45.2692533" lon="10.6705517"><ele>43.6</ele><time>2026-05-01T11:32:34.599Z</time></trkpt><trkpt lat="45.2693467" lon="10.670525"><ele>44.0</ele><time>2026-05-01T11:32:35.589Z</time></trkpt><trkpt lat="45.2694733" lon="10.670505"><ele>44.0</ele><time>2026-05-01T11:32:36.604Z</time></trkpt><trkpt lat="45.26963" lon="10.6704917"><ele>44.0</ele><time>2026-05-01T11:32:37.604Z</time></trkpt><trkpt lat="45.269795" lon="10.670495"><ele>44.0</ele><time>2026-05-01T11:32:38.602Z</time></trkpt><trkpt lat="45.2699733" lon="10.670475"><ele>44.33333333333333</ele><time>2026-05-01T11:32:39.607Z</time></trkpt><trkpt lat="45.2701517" lon="10.670455"><ele>44.666666666666664</ele><time>2026-05-01T11:32:40.598Z</time></trkpt><trkpt lat="45.2703317" lon="10.6704133"><ele>45.0</ele><time>2026-05-01T11:32:41.601Z</time></trkpt><trkpt lat="45.2704867" lon="10.67039"><ele>44.333333333333336</ele><time>2026-05-01T11:32:42.605Z</time></trkpt><trkpt lat="45.2706483" lon="10.6703683"><ele>43.66666666666667</ele><time>2026-05-01T11:32:43.597Z</time></trkpt><trkpt lat="45.2707883" lon="10.6703517"><ele>43.0</ele><time>2026-05-01T11:32:44.598Z</time></trkpt><trkpt lat="45.270955" lon="10.6703217"><ele>43.0</ele><time>2026-05-01T11:32:45.602Z</time></trkpt><trkpt lat="45.2711167" lon="10.6702983"><ele>43.0</ele><time>2026-05-01T11:32:46.597Z</time></trkpt><trkpt lat="45.271265" lon="10.67025"><ele>43.0</ele><time>2026-05-01T11:32:47.609Z</time></trkpt><trkpt lat="45.271425" lon="10.6702083"><ele>43.66666666666667</ele><time>2026-05-01T11:32:48.598Z</time></trkpt><trkpt lat="45.271615" lon="10.6701917"><ele>44.333333333333336</ele><time>2026-05-01T11:32:49.6Z</time></trkpt><trkpt lat="45.271775" lon="10.6701683"><ele>45.0</ele><time>2026-05-01T11:32:50.596Z</time></trkpt><trkpt lat="45.2719167" lon="10.6701483"><ele>45.0</ele><time>2026-05-01T11:32:51.608Z</time></trkpt><trkpt lat="45.2720767" lon="10.670135"><ele>45.0</ele><time>2026-05-01T11:32:52.599Z</time></trkpt><trkpt lat="45.2722433" lon="10.67012"><ele>45.0</ele><time>2026-05-01T11:32:53.6Z</time></trkpt><trkpt lat="45.2724017" lon="10.6701083"><ele>44.333333333333336</ele><time>2026-05-01T11:32:54.599Z</time></trkpt><trkpt lat="45.2725733" lon="10.6700717"><ele>43.66666666666667</ele><time>2026-05-01T11:32:55.612Z</time></trkpt><trkpt lat="45.2727333" lon="10.6700433"><ele>43.0</ele><time>2026-05-01T11:32:56.599Z</time></trkpt><trkpt lat="45.2728967" lon="10.6700167"><ele>43.0</ele><time>2026-05-01T11:32:57.604Z</time></trkpt><trkpt lat="45.2730067" lon="10.6700133"><ele>43.0</ele><time>2026-05-01T11:32:58.603Z</time></trkpt><trkpt lat="45.27316" lon="10.67"><ele>43.0</ele><time>2026-05-01T11:32:59.598Z</time></trkpt><trkpt lat="45.273315" lon="10.6699733"><ele>43.0</ele><time>2026-05-01T11:33:00.599Z</time></trkpt><trkpt lat="45.2734733" lon="10.6699717"><ele>43.333333333333336</ele><time>2026-05-01T11:33:01.601Z</time></trkpt><trkpt lat="45.2736417" lon="10.669935"><ele>43.666666666666664</ele><time>2026-05-01T11:33:02.598Z</time></trkpt><trkpt lat="45.273785" lon="10.6699233"><ele>44.0</ele><time>2026-05-01T11:33:03.595Z</time></trkpt><trkpt lat="45.27393" lon="10.6699117"><ele>44.2</ele><time>2026-05-01T11:33:04.608Z</time></trkpt><trkpt lat="45.2740417" lon="10.6698983"><ele>44.400000000000006</ele><time>2026-05-01T11:33:05.599Z</time></trkpt><trkpt lat="45.2741417" lon="10.6698867"><ele>44.6</ele><time>2026-05-01T11:33:06.61Z</time></trkpt><trkpt lat="45.274225" lon="10.6698817"><ele>44.8</ele><time>2026-05-01T11:33:07.604Z</time></trkpt><trkpt lat="45.2743117" lon="10.6698833"><ele>45.0</ele><time>2026-05-01T11:33:08.604Z</time></trkpt><trkpt lat="45.2744017" lon="10.6698717"><ele>45.0</ele><time>2026-05-01T11:33:09.609Z</time></trkpt><trkpt lat="45.274505" lon="10.6698517"><ele>45.0</ele><time>2026-05-01T11:33:10.6Z</time></trkpt><trkpt lat="45.2746283" lon="10.66984"><ele>45.0</ele><time>2026-05-01T11:33:11.603Z</time></trkpt><trkpt lat="45.2747617" lon="10.6698483"><ele>45.0</ele><time>2026-05-01T11:33:12.602Z</time></trkpt><trkpt lat="45.2748717" lon="10.6698183"><ele>44.5</ele><time>2026-05-01T11:33:13.597Z</time></trkpt><trkpt lat="45.2749867" lon="10.6698283"><ele>44.0</ele><time>2026-05-01T11:33:14.601Z</time></trkpt><trkpt lat="45.2751233" lon="10.66982"><ele>43.5</ele><time>2026-05-01T11:33:15.597Z</time></trkpt><trkpt lat="45.2752717" lon="10.6698117"><ele>43.0</ele><time>2026-05-01T11:33:16.594Z</time></trkpt><trkpt lat="45.2754183" lon="10.6698033"><ele>43.0</ele><time>2026-05-01T11:33:17.603Z</time></trkpt><trkpt lat="45.2755617" lon="10.6697983"><ele>43.0</ele><time>2026-05-01T11:33:18.6Z</time></trkpt><trkpt lat="45.275705" lon="10.6697867"><ele>43.0</ele><time>2026-05-01T11:33:19.595Z</time></trkpt><trkpt lat="45.2758517" lon="10.6697667"><ele>43.0</ele><time>2026-05-01T11:33:20.598Z</time></trkpt><trkpt lat="45.276" lon="10.6697517"><ele>43.66666666666667</ele><time>2026-05-01T11:33:21.607Z</time></trkpt><trkpt lat="45.2761567" lon="10.6697517"><ele>44.333333333333336</ele><time>2026-05-01T11:33:22.595Z</time></trkpt><trkpt lat="45.2763267" lon="10.6697567"><ele>45.0</ele><time>2026-05-01T11:33:23.627Z</time></trkpt><trkpt lat="45.2764983" lon="10.6697367"><ele>45.0</ele><time>2026-05-01T11:33:24.59Z</time></trkpt><trkpt lat="45.2767" lon="10.6696983"><ele>45.0</ele><time>2026-05-01T11:33:25.599Z</time></trkpt><trkpt lat="45.2768767" lon="10.66969"><ele>45.0</ele><time>2026-05-01T11:33:26.596Z</time></trkpt><trkpt lat="45.2770767" lon="10.6696817"><ele>45.0</ele><time>2026-05-01T11:33:27.592Z</time></trkpt><trkpt lat="45.2772633" lon="10.6696467"><ele>45.0</ele><time>2026-05-01T11:33:28.592Z</time></trkpt><trkpt lat="45.2774083" lon="10.6696483"><ele>45.0</ele><time>2026-05-01T11:33:29.604Z</time></trkpt><trkpt lat="45.27758" lon="10.6696083"><ele>45.0</ele><time>2026-05-01T11:33:30.603Z</time></trkpt><trkpt lat="45.2777183" lon="10.66959"><ele>45.0</ele><time>2026-05-01T11:33:31.603Z</time></trkpt><trkpt lat="45.2778567" lon="10.669585"><ele>45.0</ele><time>2026-05-01T11:33:32.636Z</time></trkpt><trkpt lat="45.2780367" lon="10.6695583"><ele>45.0</ele><time>2026-05-01T11:33:33.606Z</time></trkpt><trkpt lat="45.2781933" lon="10.66953"><ele>45.0</ele><time>2026-05-01T11:33:34.605Z</time></trkpt><trkpt lat="45.27834" lon="10.6694817"><ele>45.0</ele><time>2026-05-01T11:33:35.6Z</time></trkpt><trkpt lat="45.27847" lon="10.669455"><ele>45.0</ele><time>2026-05-01T11:33:36.605Z</time></trkpt><trkpt lat="45.2786083" lon="10.6694367"><ele>45.0</ele><time>2026-05-01T11:33:37.617Z</time></trkpt><trkpt lat="45.2787367" lon="10.6693883"><ele>45.0</ele><time>2026-05-01T11:33:38.62Z</time></trkpt><trkpt lat="45.2788467" lon="10.6693467"><ele>45.0</ele><time>2026-05-01T11:33:39.597Z</time></trkpt><trkpt lat="45.2789483" lon="10.669305"><ele>45.0</ele><time>2026-05-01T11:33:40.603Z</time></trkpt><trkpt lat="45.27903" lon="10.66927"><ele>45.0</ele><time>2026-05-01T11:33:41.601Z</time></trkpt><trkpt lat="45.2791217" lon="10.66928"><ele>44.8</ele><time>2026-05-01T11:33:43.602Z</time></trkpt><trkpt lat="45.27919" lon="10.6692667"><ele>44.6</ele><time>2026-05-01T11:33:51.599Z</time></trkpt><trkpt lat="45.2792667" lon="10.6692417"><ele>44.400000000000006</ele><time>2026-05-01T11:33:52.606Z</time></trkpt><trkpt lat="45.2793683" lon="10.6692083"><ele>44.2</ele><time>2026-05-01T11:33:53.602Z</time></trkpt><trkpt lat="45.2794967" lon="10.6691617"><ele>44.0</ele><time>2026-05-01T11:33:54.627Z</time></trkpt><trkpt lat="45.2796567" lon="10.669135"><ele>44.666666666666664</ele><time>2026-05-01T11:33:55.605Z</time></trkpt><trkpt lat="45.2798133" lon="10.669105"><ele>45.333333333333336</ele><time>2026-05-01T11:33:56.607Z</time></trkpt><trkpt lat="45.27998" lon="10.6690717"><ele>46.0</ele><time>2026-05-01T11:33:57.609Z</time></trkpt><trkpt lat="45.28016" lon="10.669035"><ele>46.0</ele><time>2026-05-01T11:33:58.6Z</time></trkpt><trkpt lat="45.2803267" lon="10.6690267"><ele>46.0</ele><time>2026-05-01T11:33:59.599Z</time></trkpt><trkpt lat="45.2805183" lon="10.6689983"><ele>46.0</ele><time>2026-05-01T11:34:00.592Z</time></trkpt><trkpt lat="45.28072" lon="10.6689183"><ele>46.333333333333336</ele><time>2026-05-01T11:34:01.595Z</time></trkpt><trkpt lat="45.28092" lon="10.6688767"><ele>46.666666666666664</ele><time>2026-05-01T11:34:02.605Z</time></trkpt><trkpt lat="45.2810983" lon="10.668845"><ele>47.0</ele><time>2026-05-01T11:34:03.602Z</time></trkpt><trkpt lat="45.2812983" lon="10.6687583"><ele>47.0</ele><time>2026-05-01T11:34:04.6Z</time></trkpt><trkpt lat="45.281495" lon="10.66871"><ele>47.0</ele><time>2026-05-01T11:34:05.605Z</time></trkpt><trkpt lat="45.2817033" lon="10.6686083"><ele>47.0</ele><time>2026-05-01T11:34:06.601Z</time></trkpt><trkpt lat="45.2818783" lon="10.6686267"><ele>46.666666666666664</ele><time>2026-05-01T11:34:07.595Z</time></trkpt><trkpt lat="45.2820567" lon="10.6685417"><ele>46.333333333333336</ele><time>2026-05-01T11:34:08.593Z</time></trkpt><trkpt lat="45.282215" lon="10.6685067"><ele>46.0</ele><time>2026-05-01T11:34:09.591Z</time></trkpt><trkpt lat="45.2823567" lon="10.6685133"><ele>46.0</ele><time>2026-05-01T11:34:10.611Z</time></trkpt><trkpt lat="45.2824967" lon="10.6684867"><ele>46.0</ele><time>2026-05-01T11:34:11.596Z</time></trkpt><trkpt lat="45.28264" lon="10.6684617"><ele>46.0</ele><time>2026-05-01T11:34:12.594Z</time></trkpt><trkpt lat="45.2827917" lon="10.6684283"><ele>46.0</ele><time>2026-05-01T11:34:13.637Z</time></trkpt><trkpt lat="45.2829317" lon="10.6683983"><ele>46.0</ele><time>2026-05-01T11:34:14.598Z</time></trkpt><trkpt lat="45.2830733" lon="10.66836"><ele>46.0</ele><time>2026-05-01T11:34:15.591Z</time></trkpt><trkpt lat="45.2832383" lon="10.6683117"><ele>46.0</ele><time>2026-05-01T11:34:16.598Z</time></trkpt><trkpt lat="45.2833917" lon="10.6682867"><ele>46.333333333333336</ele><time>2026-05-01T11:34:17.596Z</time></trkpt><trkpt lat="45.2835483" lon="10.6682467"><ele>46.666666666666664</ele><time>2026-05-01T11:34:18.615Z</time></trkpt><trkpt lat="45.2837017" lon="10.6682483"><ele>47.0</ele><time>2026-05-01T11:34:19.594Z</time></trkpt><trkpt lat="45.2838633" lon="10.66823"><ele>47.666666666666664</ele><time>2026-05-01T11:34:20.613Z</time></trkpt><trkpt lat="45.284025" lon="10.6682067"><ele>48.33333333333333</ele><time>2026-05-01T11:34:21.602Z</time></trkpt><trkpt lat="45.284195" lon="10.668175"><ele>49.0</ele><time>2026-05-01T11:34:22.599Z</time></trkpt><trkpt lat="45.2843717" lon="10.6681467"><ele>49.0</ele><time>2026-05-01T11:34:23.589Z</time></trkpt><trkpt lat="45.28455" lon="10.6681183"><ele>49.0</ele><time>2026-05-01T11:34:24.595Z</time></trkpt><trkpt lat="45.2847233" lon="10.66809"><ele>49.0</ele><time>2026-05-01T11:34:25.603Z</time></trkpt><trkpt lat="45.2848917" lon="10.668055"><ele>49.0</ele><time>2026-05-01T11:34:26.593Z</time></trkpt><trkpt lat="45.28504" lon="10.668035"><ele>49.0</ele><time>2026-05-01T11:34:27.601Z</time></trkpt><trkpt lat="45.2851717" lon="10.6680367"><ele>49.0</ele><time>2026-05-01T11:34:28.595Z</time></trkpt><trkpt lat="45.2852933" lon="10.6680383"><ele>49.0</ele><time>2026-05-01T11:34:29.607Z</time></trkpt><trkpt lat="45.285385" lon="10.6680367"><ele>48.99999999999999</ele><time>2026-05-01T11:34:30.596Z</time></trkpt><trkpt lat="45.2854533" lon="10.66803"><ele>49.0</ele><time>2026-05-01T11:34:31.601Z</time></trkpt><trkpt lat="45.28553" lon="10.6680117"><ele>49.0</ele><time>2026-05-01T11:34:33.597Z</time></trkpt><trkpt lat="45.2856083" lon="10.667965"><ele>49.0</ele><time>2026-05-01T11:35:21.606Z</time></trkpt><trkpt lat="45.28569" lon="10.6679383"><ele>48.99999999999999</ele><time>2026-05-01T11:35:22.595Z</time></trkpt><trkpt lat="45.28579" lon="10.667905"><ele>49.0</ele><time>2026-05-01T11:35:23.601Z</time></trkpt><trkpt lat="45.2859317" lon="10.6678867"><ele>48.0</ele><time>2026-05-01T11:35:24.606Z</time></trkpt><trkpt lat="45.2860783" lon="10.6678717"><ele>47.0</ele><time>2026-05-01T11:35:25.616Z</time></trkpt><trkpt lat="45.2862517" lon="10.667845"><ele>46.0</ele><time>2026-05-01T11:35:26.602Z</time></trkpt><trkpt lat="45.2864167" lon="10.6678317"><ele>46.333333333333336</ele><time>2026-05-01T11:35:27.593Z</time></trkpt><trkpt lat="45.28659" lon="10.6677983"><ele>46.666666666666664</ele><time>2026-05-01T11:35:28.598Z</time></trkpt><trkpt lat="45.2867717" lon="10.6677517"><ele>47.0</ele><time>2026-05-01T11:35:29.607Z</time></trkpt><trkpt lat="45.2869683" lon="10.6677"><ele>47.0</ele><time>2026-05-01T11:35:30.6Z</time></trkpt><trkpt lat="45.2871683" lon="10.6676583"><ele>47.0</ele><time>2026-05-01T11:35:31.602Z</time></trkpt><trkpt lat="45.287345" lon="10.6676283"><ele>47.0</ele><time>2026-05-01T11:35:32.598Z</time></trkpt><trkpt lat="45.287505" lon="10.66761"><ele>47.0</ele><time>2026-05-01T11:35:33.603Z</time></trkpt><trkpt lat="45.2876467" lon="10.6675767"><ele>47.0</ele><time>2026-05-01T11:35:34.601Z</time></trkpt><trkpt lat="45.2877767" lon="10.667555"><ele>47.0</ele><time>2026-05-01T11:35:35.628Z</time></trkpt><trkpt lat="45.2879067" lon="10.6675183"><ele>47.0</ele><time>2026-05-01T11:35:36.601Z</time></trkpt><trkpt lat="45.2880533" lon="10.6674733"><ele>47.33333333333333</ele><time>2026-05-01T11:35:37.602Z</time></trkpt><trkpt lat="45.2882183" lon="10.667435"><ele>47.666666666666664</ele><time>2026-05-01T11:35:38.596Z</time></trkpt><trkpt lat="45.2883883" lon="10.6674"><ele>48.0</ele><time>2026-05-01T11:35:39.609Z</time></trkpt><trkpt lat="45.288565" lon="10.6673683"><ele>48.0</ele><time>2026-05-01T11:35:40.595Z</time></trkpt><trkpt lat="45.288765" lon="10.6673133"><ele>48.0</ele><time>2026-05-01T11:35:41.596Z</time></trkpt><trkpt lat="45.288965" lon="10.6672633"><ele>48.0</ele><time>2026-05-01T11:35:42.601Z</time></trkpt><trkpt lat="45.289135" lon="10.6672217"><ele>48.0</ele><time>2026-05-01T11:35:43.6Z</time></trkpt><trkpt lat="45.2892833" lon="10.6671717"><ele>48.0</ele><time>2026-05-01T11:35:44.597Z</time></trkpt><trkpt lat="45.28944" lon="10.667135"><ele>48.0</ele><time>2026-05-01T11:35:45.601Z</time></trkpt><trkpt lat="45.2895633" lon="10.6670833"><ele>48.0</ele><time>2026-05-01T11:35:46.619Z</time></trkpt><trkpt lat="45.2896633" lon="10.6670767"><ele>48.166666666666664</ele><time>2026-05-01T11:35:47.598Z</time></trkpt><trkpt lat="45.2897767" lon="10.6670517"><ele>48.33333333333333</ele><time>2026-05-01T11:35:48.603Z</time></trkpt><trkpt lat="45.2898667" lon="10.66703"><ele>48.5</ele><time>2026-05-01T11:35:49.595Z</time></trkpt><trkpt lat="45.2899333" lon="10.6670083"><ele>48.666666666666664</ele><time>2026-05-01T11:35:50.6Z</time></trkpt><trkpt lat="45.2900083" lon="10.6669767"><ele>48.83333333333333</ele><time>2026-05-01T11:35:51.604Z</time></trkpt><trkpt lat="45.2900917" lon="10.6669367"><ele>49.0</ele><time>2026-05-01T11:35:52.608Z</time></trkpt><trkpt lat="45.2901767" lon="10.6668633"><ele>49.0</ele><time>2026-05-01T11:35:53.598Z</time></trkpt><trkpt lat="45.29029" lon="10.666815"><ele>49.0</ele><time>2026-05-01T11:35:54.598Z</time></trkpt><trkpt lat="45.2905533" lon="10.66674"><ele>49.0</ele><time>2026-05-01T11:35:56.599Z</time></trkpt><trkpt lat="45.2907067" lon="10.66668"><ele>49.0</ele><time>2026-05-01T11:35:57.605Z</time></trkpt><trkpt lat="45.2908467" lon="10.6666467"><ele>49.0</ele><time>2026-05-01T11:35:58.605Z</time></trkpt><trkpt lat="45.2909967" lon="10.66663"><ele>49.0</ele><time>2026-05-01T11:35:59.602Z</time></trkpt><trkpt lat="45.2911483" lon="10.6666117"><ele>49.0</ele><time>2026-05-01T11:36:00.599Z</time></trkpt><trkpt lat="45.2912833" lon="10.6665933"><ele>49.33333333333333</ele><time>2026-05-01T11:36:01.613Z</time></trkpt><trkpt lat="45.2914317" lon="10.66654"><ele>49.66666666666667</ele><time>2026-05-01T11:36:02.601Z</time></trkpt><trkpt lat="45.2915967" lon="10.6664967"><ele>50.0</ele><time>2026-05-01T11:36:03.603Z</time></trkpt><trkpt lat="45.2917583" lon="10.6664583"><ele>50.0</ele><time>2026-05-01T11:36:04.603Z</time></trkpt><trkpt lat="45.29192" lon="10.66642"><ele>50.0</ele><time>2026-05-01T11:36:05.598Z</time></trkpt><trkpt lat="45.292065" lon="10.6663733"><ele>50.0</ele><time>2026-05-01T11:36:06.625Z</time></trkpt><trkpt lat="45.2922367" lon="10.6663333"><ele>50.0</ele><time>2026-05-01T11:36:07.597Z</time></trkpt><trkpt lat="45.2923917" lon="10.66629"><ele>50.0</ele><time>2026-05-01T11:36:08.599Z</time></trkpt><trkpt lat="45.2925483" lon="10.6662417"><ele>50.0</ele><time>2026-05-01T11:36:09.599Z</time></trkpt><trkpt lat="45.2927183" lon="10.6662167"><ele>50.0</ele><time>2026-05-01T11:36:10.602Z</time></trkpt><trkpt lat="45.2928733" lon="10.6661667"><ele>50.0</ele><time>2026-05-01T11:36:11.604Z</time></trkpt><trkpt lat="45.2930433" lon="10.6661067"><ele>50.0</ele><time>2026-05-01T11:36:12.596Z</time></trkpt><trkpt lat="45.2932167" lon="10.6660417"><ele>49.66666666666667</ele><time>2026-05-01T11:36:13.593Z</time></trkpt><trkpt lat="45.2933967" lon="10.6659833"><ele>49.33333333333333</ele><time>2026-05-01T11:36:14.599Z</time></trkpt><trkpt lat="45.2935633" lon="10.6659"><ele>49.0</ele><time>2026-05-01T11:36:15.607Z</time></trkpt><trkpt lat="45.29374" lon="10.6658117"><ele>49.0</ele><time>2026-05-01T11:36:16.61Z</time></trkpt><trkpt lat="45.2938967" lon="10.665745"><ele>49.0</ele><time>2026-05-01T11:36:17.607Z</time></trkpt><trkpt lat="45.2940567" lon="10.66571"><ele>49.0</ele><time>2026-05-01T11:36:18.602Z</time></trkpt><trkpt lat="45.2942233" lon="10.6656567"><ele>49.5</ele><time>2026-05-01T11:36:19.596Z</time></trkpt><trkpt lat="45.2943683" lon="10.6656067"><ele>50.0</ele><time>2026-05-01T11:36:20.646Z</time></trkpt><trkpt lat="45.294505" lon="10.66555"><ele>50.5</ele><time>2026-05-01T11:36:21.602Z</time></trkpt><trkpt lat="45.294625" lon="10.6654983"><ele>51.0</ele><time>2026-05-01T11:36:22.616Z</time></trkpt><trkpt lat="45.294745" lon="10.66543"><ele>50.75</ele><time>2026-05-01T11:36:23.61Z</time></trkpt><trkpt lat="45.2948433" lon="10.6654733"><ele>50.5</ele><time>2026-05-01T11:36:24.611Z</time></trkpt><trkpt lat="45.2949517" lon="10.6653383"><ele>50.25</ele><time>2026-05-01T11:36:25.595Z</time></trkpt><trkpt lat="45.2950617" lon="10.6653317"><ele>50.0</ele><time>2026-05-01T11:36:26.607Z</time></trkpt><trkpt lat="45.2951967" lon="10.6652483"><ele>50.0</ele><time>2026-05-01T11:36:27.602Z</time></trkpt><trkpt lat="45.2953333" lon="10.6652133"><ele>50.0</ele><time>2026-05-01T11:36:28.607Z</time></trkpt><trkpt lat="45.2954667" lon="10.66521"><ele>50.0</ele><time>2026-05-01T11:36:29.609Z</time></trkpt><trkpt lat="45.2955983" lon="10.6652617"><ele>50.0</ele><time>2026-05-01T11:36:30.606Z</time></trkpt><trkpt lat="45.2957133" lon="10.66532"><ele>50.0</ele><time>2026-05-01T11:36:31.603Z</time></trkpt><trkpt lat="45.2958717" lon="10.6654017"><ele>50.0</ele><time>2026-05-01T11:36:32.596Z</time></trkpt><trkpt lat="45.2960433" lon="10.6654567"><ele>50.0</ele><time>2026-05-01T11:36:33.631Z</time></trkpt><trkpt lat="45.2961867" lon="10.6654733"><ele>50.0</ele><time>2026-05-01T11:36:34.6Z</time></trkpt><trkpt lat="45.2963417" lon="10.6654717"><ele>50.0</ele><time>2026-05-01T11:36:35.609Z</time></trkpt><trkpt lat="45.296505" lon="10.66539"><ele>50.0</ele><time>2026-05-01T11:36:36.611Z</time></trkpt><trkpt lat="45.2966717" lon="10.665335"><ele>50.4</ele><time>2026-05-01T11:36:37.602Z</time></trkpt><trkpt lat="45.2967967" lon="10.6653067"><ele>50.8</ele><time>2026-05-01T11:36:38.602Z</time></trkpt><trkpt lat="45.296915" lon="10.6652533"><ele>51.2</ele><time>2026-05-01T11:36:39.6Z</time></trkpt><trkpt lat="45.297015" lon="10.665225"><ele>51.6</ele><time>2026-05-01T11:36:40.595Z</time></trkpt><trkpt lat="45.297085" lon="10.6652133"><ele>52.0</ele><time>2026-05-01T11:36:41.595Z</time></trkpt><trkpt lat="45.297205" lon="10.6652283"><ele>51.99999999999999</ele><time>2026-05-01T11:36:43.594Z</time></trkpt><trkpt lat="45.2972867" lon="10.665225"><ele>52.0</ele><time>2026-05-01T11:36:44.599Z</time></trkpt><trkpt lat="45.29737" lon="10.6652167"><ele>52.0</ele><time>2026-05-01T11:36:45.589Z</time></trkpt><trkpt lat="45.297465" lon="10.665205"><ele>52.0</ele><time>2026-05-01T11:36:46.594Z</time></trkpt><trkpt lat="45.297555" lon="10.665195"><ele>51.99999999999999</ele><time>2026-05-01T11:36:47.595Z</time></trkpt><trkpt lat="45.2976417" lon="10.6651783"><ele>52.0</ele><time>2026-05-01T11:36:48.602Z</time></trkpt><trkpt lat="45.2977467" lon="10.6651867"><ele>52.0</ele><time>2026-05-01T11:36:49.596Z</time></trkpt><trkpt lat="45.2978467" lon="10.6651967"><ele>52.0</ele><time>2026-05-01T11:36:50.601Z</time></trkpt><trkpt lat="45.297925" lon="10.6651933"><ele>52.0</ele><time>2026-05-01T11:36:51.596Z</time></trkpt><trkpt lat="45.2980433" lon="10.6651867"><ele>52.0</ele><time>2026-05-01T11:36:52.606Z</time></trkpt><trkpt lat="45.2981867" lon="10.6651717"><ele>52.0</ele><time>2026-05-01T11:36:53.599Z</time></trkpt><trkpt lat="45.2983117" lon="10.6651583"><ele>51.75</ele><time>2026-05-01T11:36:54.601Z</time></trkpt><trkpt lat="45.2984333" lon="10.665125"><ele>51.5</ele><time>2026-05-01T11:36:55.604Z</time></trkpt><trkpt lat="45.2985633" lon="10.6650833"><ele>51.25</ele><time>2026-05-01T11:36:56.601Z</time></trkpt><trkpt lat="45.2986867" lon="10.6650583"><ele>51.0</ele><time>2026-05-01T11:36:57.606Z</time></trkpt><trkpt lat="45.2988267" lon="10.6650567"><ele>51.25</ele><time>2026-05-01T11:36:58.606Z</time></trkpt><trkpt lat="45.2989483" lon="10.665035"><ele>51.5</ele><time>2026-05-01T11:36:59.606Z</time></trkpt><trkpt lat="45.2990983" lon="10.664985"><ele>51.75</ele><time>2026-05-01T11:37:00.598Z</time></trkpt><trkpt lat="45.2992567" lon="10.6649433"><ele>52.0</ele><time>2026-05-01T11:37:01.597Z</time></trkpt><trkpt lat="45.299415" lon="10.664915"><ele>52.0</ele><time>2026-05-01T11:37:02.606Z</time></trkpt><trkpt lat="45.29954" lon="10.6648817"><ele>52.0</ele><time>2026-05-01T11:37:03.597Z</time></trkpt><trkpt lat="45.2996483" lon="10.6648533"><ele>52.0</ele><time>2026-05-01T11:37:04.595Z</time></trkpt><trkpt lat="45.2997333" lon="10.66482"><ele>52.0</ele><time>2026-05-01T11:37:05.594Z</time></trkpt><trkpt lat="45.2997983" lon="10.6648067"><ele>52.0</ele><time>2026-05-01T11:37:06.596Z</time></trkpt><trkpt lat="45.299865" lon="10.6647933"><ele>52.2</ele><time>2026-05-01T11:37:07.602Z</time></trkpt><trkpt lat="45.2999567" lon="10.6647883"><ele>52.400000000000006</ele><time>2026-05-01T11:37:09.604Z</time></trkpt><trkpt lat="45.299985" lon="10.6646517"><ele>52.599999999999994</ele><time>2026-05-01T11:37:19.598Z</time></trkpt><trkpt lat="45.2999783" lon="10.6645433"><ele>52.8</ele><time>2026-05-01T11:37:20.605Z</time></trkpt><trkpt lat="45.2999733" lon="10.664415"><ele>53.0</ele><time>2026-05-01T11:37:21.6Z</time></trkpt><trkpt lat="45.2999617" lon="10.6642683"><ele>53.0</ele><time>2026-05-01T11:37:22.598Z</time></trkpt><trkpt lat="45.2999533" lon="10.6640867"><ele>53.0</ele><time>2026-05-01T11:37:23.592Z</time></trkpt><trkpt lat="45.2999517" lon="10.6639183"><ele>53.0</ele><time>2026-05-01T11:37:24.608Z</time></trkpt><trkpt lat="45.299945" lon="10.6637383"><ele>53.0</ele><time>2026-05-01T11:37:25.595Z</time></trkpt><trkpt lat="45.2999367" lon="10.6635683"><ele>52.599999999999994</ele><time>2026-05-01T11:37:26.597Z</time></trkpt><trkpt lat="45.2999333" lon="10.6634267"><ele>52.199999999999996</ele><time>2026-05-01T11:37:27.599Z</time></trkpt><trkpt lat="45.2999267" lon="10.66326"><ele>51.8</ele><time>2026-05-01T11:37:28.605Z</time></trkpt><trkpt lat="45.2999217" lon="10.663115"><ele>51.4</ele><time>2026-05-01T11:37:29.597Z</time></trkpt><trkpt lat="45.2999217" lon="10.6629633"><ele>51.0</ele><time>2026-05-01T11:37:30.604Z</time></trkpt><trkpt lat="45.2999217" lon="10.6627767"><ele>51.0</ele><time>2026-05-01T11:37:31.603Z</time></trkpt><trkpt lat="45.2999067" lon="10.6625917"><ele>51.0</ele><time>2026-05-01T11:37:32.597Z</time></trkpt><trkpt lat="45.2999" lon="10.6624083"><ele>51.0</ele><time>2026-05-01T11:37:33.608Z</time></trkpt><trkpt lat="45.2998833" lon="10.662225"><ele>51.0</ele><time>2026-05-01T11:37:34.598Z</time></trkpt><trkpt lat="45.2998717" lon="10.6620317"><ele>51.25</ele><time>2026-05-01T11:37:35.592Z</time></trkpt><trkpt lat="45.2998617" lon="10.6618333"><ele>51.5</ele><time>2026-05-01T11:37:36.591Z</time></trkpt><trkpt lat="45.2998517" lon="10.6616333"><ele>51.75</ele><time>2026-05-01T11:37:37.599Z</time></trkpt><trkpt lat="45.2998467" lon="10.6614283"><ele>52.0</ele><time>2026-05-01T11:37:38.594Z</time></trkpt><trkpt lat="45.2998467" lon="10.66124"><ele>51.75</ele><time>2026-05-01T11:37:39.599Z</time></trkpt><trkpt lat="45.2998333" lon="10.6610533"><ele>51.5</ele><time>2026-05-01T11:37:40.597Z</time></trkpt><trkpt lat="45.29982" lon="10.6608817"><ele>51.25</ele><time>2026-05-01T11:37:41.597Z</time></trkpt><trkpt lat="45.299805" lon="10.6607133"><ele>51.0</ele><time>2026-05-01T11:37:42.591Z</time></trkpt><trkpt lat="45.29979" lon="10.6605283"><ele>51.0</ele><time>2026-05-01T11:37:43.598Z</time></trkpt><trkpt lat="45.2997733" lon="10.66034"><ele>51.0</ele><time>2026-05-01T11:37:44.592Z</time></trkpt><trkpt lat="45.2997583" lon="10.6601383"><ele>51.0</ele><time>2026-05-01T11:37:45.594Z</time></trkpt><trkpt lat="45.299745" lon="10.6599417"><ele>51.0</ele><time>2026-05-01T11:37:46.598Z</time></trkpt><trkpt lat="45.2997333" lon="10.6597183"><ele>50.66666666666667</ele><time>2026-05-01T11:37:47.597Z</time></trkpt><trkpt lat="45.29974" lon="10.6594917"><ele>50.333333333333336</ele><time>2026-05-01T11:37:48.594Z</time></trkpt><trkpt lat="45.299705" lon="10.6592717"><ele>50.0</ele><time>2026-05-01T11:37:49.602Z</time></trkpt><trkpt lat="45.2997117" lon="10.6590733"><ele>50.0</ele><time>2026-05-01T11:37:50.602Z</time></trkpt><trkpt lat="45.299705" lon="10.6588883"><ele>50.0</ele><time>2026-05-01T11:37:51.598Z</time></trkpt><trkpt lat="45.2996867" lon="10.6586833"><ele>50.0</ele><time>2026-05-01T11:37:52.602Z</time></trkpt><trkpt lat="45.29968" lon="10.6585317"><ele>50.0</ele><time>2026-05-01T11:37:53.595Z</time></trkpt><trkpt lat="45.299685" lon="10.6584183"><ele>50.00000000000001</ele><time>2026-05-01T11:37:54.604Z</time></trkpt><trkpt lat="45.2996833" lon="10.6582933"><ele>50.0</ele><time>2026-05-01T11:37:55.602Z</time></trkpt><trkpt lat="45.2996767" lon="10.658195"><ele>50.0</ele><time>2026-05-01T11:37:56.6Z</time></trkpt><trkpt lat="45.2996567" lon="10.65803"><ele>50.0</ele><time>2026-05-01T11:37:58.599Z</time></trkpt><trkpt lat="45.29963" lon="10.657945"><ele>50.00000000000001</ele><time>2026-05-01T11:37:59.598Z</time></trkpt><trkpt lat="45.299575" lon="10.6578533"><ele>50.0</ele><time>2026-05-01T11:38:00.599Z</time></trkpt><trkpt lat="45.2995067" lon="10.6577683"><ele>50.25</ele><time>2026-05-01T11:38:01.59Z</time></trkpt><trkpt lat="45.2994167" lon="10.65768"><ele>50.5</ele><time>2026-05-01T11:38:02.592Z</time></trkpt><trkpt lat="45.29933" lon="10.6576117"><ele>50.75</ele><time>2026-05-01T11:38:03.592Z</time></trkpt><trkpt lat="45.299215" lon="10.6575417"><ele>51.0</ele><time>2026-05-01T11:38:04.594Z</time></trkpt><trkpt lat="45.2991" lon="10.6574833"><ele>51.0</ele><time>2026-05-01T11:38:05.598Z</time></trkpt><trkpt lat="45.2989717" lon="10.6574017"><ele>51.0</ele><time>2026-05-01T11:38:06.612Z</time></trkpt><trkpt lat="45.2988533" lon="10.657335"><ele>51.0</ele><time>2026-05-01T11:38:07.592Z</time></trkpt><trkpt lat="45.2987483" lon="10.6572583"><ele>51.0</ele><time>2026-05-01T11:38:08.591Z</time></trkpt><trkpt lat="45.298655" lon="10.6571867"><ele>50.8</ele><time>2026-05-01T11:38:09.599Z</time></trkpt><trkpt lat="45.2985567" lon="10.6571433"><ele>50.599999999999994</ele><time>2026-05-01T11:38:10.595Z</time></trkpt><trkpt lat="45.298485" lon="10.6571033"><ele>50.4</ele><time>2026-05-01T11:38:11.598Z</time></trkpt><trkpt lat="45.29841" lon="10.6569917"><ele>50.2</ele><time>2026-05-01T11:38:13.597Z</time></trkpt><trkpt lat="45.298385" lon="10.6568717"><ele>50.0</ele><time>2026-05-01T11:38:15.606Z</time></trkpt><trkpt lat="45.2984117" lon="10.6566933"><ele>50.0</ele><time>2026-05-01T11:38:17.6Z</time></trkpt><trkpt lat="45.2984517" lon="10.6565633"><ele>50.0</ele><time>2026-05-01T11:38:18.594Z</time></trkpt><trkpt lat="45.2984733" lon="10.65642"><ele>50.0</ele><time>2026-05-01T11:38:19.591Z</time></trkpt><trkpt lat="45.2984967" lon="10.65626"><ele>50.0</ele><time>2026-05-01T11:38:20.596Z</time></trkpt><trkpt lat="45.2985067" lon="10.6560917"><ele>50.0</ele><time>2026-05-01T11:38:21.596Z</time></trkpt><trkpt lat="45.298505" lon="10.655895"><ele>50.0</ele><time>2026-05-01T11:38:22.604Z</time></trkpt><trkpt lat="45.2985" lon="10.6557267"><ele>50.0</ele><time>2026-05-01T11:38:23.593Z</time></trkpt><trkpt lat="45.2984917" lon="10.6555667"><ele>50.0</ele><time>2026-05-01T11:38:24.604Z</time></trkpt><trkpt lat="45.2984883" lon="10.6554067"><ele>50.0</ele><time>2026-05-01T11:38:25.6Z</time></trkpt><trkpt lat="45.298485" lon="10.6552833"><ele>50.0</ele><time>2026-05-01T11:38:26.6Z</time></trkpt><trkpt lat="45.2984967" lon="10.6551667"><ele>50.2</ele><time>2026-05-01T11:38:27.597Z</time></trkpt><trkpt lat="45.2985167" lon="10.6550183"><ele>50.4</ele><time>2026-05-01T11:38:29.596Z</time></trkpt><trkpt lat="45.29858" lon="10.654985"><ele>50.599999999999994</ele><time>2026-05-01T11:38:42.59Z</time></trkpt><trkpt lat="45.298695" lon="10.6550067"><ele>50.8</ele><time>2026-05-01T11:38:44.602Z</time></trkpt><trkpt lat="45.2988133" lon="10.6550167"><ele>51.0</ele><time>2026-05-01T11:38:45.627Z</time></trkpt><trkpt lat="45.298965" lon="10.6550283"><ele>51.0</ele><time>2026-05-01T11:38:46.592Z</time></trkpt><trkpt lat="45.2990917" lon="10.6550233"><ele>51.0</ele><time>2026-05-01T11:38:47.599Z</time></trkpt><trkpt lat="45.2992183" lon="10.6550317"><ele>51.0</ele><time>2026-05-01T11:38:48.593Z</time></trkpt><trkpt lat="45.2993633" lon="10.6550267"><ele>51.0</ele><time>2026-05-01T11:38:49.591Z</time></trkpt><trkpt lat="45.2995367" lon="10.6550333"><ele>51.0</ele><time>2026-05-01T11:38:50.596Z</time></trkpt><trkpt lat="45.2996917" lon="10.6550167"><ele>51.0</ele><time>2026-05-01T11:38:51.599Z</time></trkpt><trkpt lat="45.299855" lon="10.6549883"><ele>51.0</ele><time>2026-05-01T11:38:52.595Z</time></trkpt><trkpt lat="45.30001" lon="10.654985"><ele>50.33333333333333</ele><time>2026-05-01T11:38:53.596Z</time></trkpt><trkpt lat="45.3001767" lon="10.6549767"><ele>49.666666666666664</ele><time>2026-05-01T11:38:54.608Z</time></trkpt><trkpt lat="45.3003517" lon="10.654955"><ele>49.0</ele><time>2026-05-01T11:38:55.594Z</time></trkpt><trkpt lat="45.3005083" lon="10.6549717"><ele>49.666666666666664</ele><time>2026-05-01T11:38:56.601Z</time></trkpt><trkpt lat="45.3006717" lon="10.6549633"><ele>50.33333333333333</ele><time>2026-05-01T11:38:57.633Z</time></trkpt><trkpt lat="45.30083" lon="10.654985"><ele>51.0</ele><time>2026-05-01T11:38:58.601Z</time></trkpt><trkpt lat="45.3009967" lon="10.6550017"><ele>51.0</ele><time>2026-05-01T11:38:59.594Z</time></trkpt><trkpt lat="45.3011383" lon="10.6550283"><ele>51.0</ele><time>2026-05-01T11:39:00.603Z</time></trkpt><trkpt lat="45.3012967" lon="10.6550533"><ele>51.0</ele><time>2026-05-01T11:39:01.588Z</time></trkpt><trkpt lat="45.3014467" lon="10.6550883"><ele>50.66666666666667</ele><time>2026-05-01T11:39:02.6Z</time></trkpt><trkpt lat="45.30161" lon="10.6551217"><ele>50.333333333333336</ele><time>2026-05-01T11:39:03.6Z</time></trkpt><trkpt lat="45.3017867" lon="10.655145"><ele>50.0</ele><time>2026-05-01T11:39:04.596Z</time></trkpt><trkpt lat="45.3019317" lon="10.6551583"><ele>50.0</ele><time>2026-05-01T11:39:05.591Z</time></trkpt><trkpt lat="45.302105" lon="10.6551767"><ele>50.0</ele><time>2026-05-01T11:39:06.598Z</time></trkpt><trkpt lat="45.30226" lon="10.65518"><ele>50.0</ele><time>2026-05-01T11:39:07.596Z</time></trkpt><trkpt lat="45.3024383" lon="10.6551633"><ele>50.0</ele><time>2026-05-01T11:39:08.594Z</time></trkpt><trkpt lat="45.30259" lon="10.6551617"><ele>50.0</ele><time>2026-05-01T11:39:09.598Z</time></trkpt><trkpt lat="45.3027533" lon="10.6551617"><ele>50.0</ele><time>2026-05-01T11:39:10.599Z</time></trkpt><trkpt lat="45.3029267" lon="10.6551667"><ele>49.66666666666667</ele><time>2026-05-01T11:39:11.586Z</time></trkpt><trkpt lat="45.3031217" lon="10.6551583"><ele>49.33333333333333</ele><time>2026-05-01T11:39:12.595Z</time></trkpt><trkpt lat="45.3033133" lon="10.6551567"><ele>49.0</ele><time>2026-05-01T11:39:13.597Z</time></trkpt><trkpt lat="45.3034917" lon="10.6551767"><ele>49.0</ele><time>2026-05-01T11:39:14.59Z</time></trkpt><trkpt lat="45.3036933" lon="10.65518"><ele>49.0</ele><time>2026-05-01T11:39:15.592Z</time></trkpt><trkpt lat="45.303875" lon="10.6552383"><ele>49.0</ele><time>2026-05-01T11:39:16.589Z</time></trkpt><trkpt lat="45.3040717" lon="10.6552817"><ele>49.33333333333333</ele><time>2026-05-01T11:39:17.585Z</time></trkpt><trkpt lat="45.304265" lon="10.6553283"><ele>49.66666666666667</ele><time>2026-05-01T11:39:18.587Z</time></trkpt><trkpt lat="45.3044717" lon="10.6553867"><ele>50.0</ele><time>2026-05-01T11:39:19.599Z</time></trkpt><trkpt lat="45.3046683" lon="10.6554367"><ele>50.66666666666667</ele><time>2026-05-01T11:39:20.605Z</time></trkpt><trkpt lat="45.3048517" lon="10.65549"><ele>51.33333333333333</ele><time>2026-05-01T11:39:21.601Z</time></trkpt><trkpt lat="45.3050267" lon="10.6555367"><ele>52.0</ele><time>2026-05-01T11:39:22.63Z</time></trkpt><trkpt lat="45.3051767" lon="10.655615"><ele>52.0</ele><time>2026-05-01T11:39:23.603Z</time></trkpt><trkpt lat="45.3053267" lon="10.65566"><ele>52.0</ele><time>2026-05-01T11:39:24.603Z</time></trkpt><trkpt lat="45.305475" lon="10.655705"><ele>52.0</ele><time>2026-05-01T11:39:25.603Z</time></trkpt><trkpt lat="45.305595" lon="10.6557333"><ele>52.0</ele><time>2026-05-01T11:39:26.594Z</time></trkpt><trkpt lat="45.3056967" lon="10.6557783"><ele>52.2</ele><time>2026-05-01T11:39:27.602Z</time></trkpt><trkpt lat="45.3057917" lon="10.6558333"><ele>52.400000000000006</ele><time>2026-05-01T11:39:28.623Z</time></trkpt><trkpt lat="45.3059033" lon="10.6558467"><ele>52.599999999999994</ele><time>2026-05-01T11:39:29.599Z</time></trkpt><trkpt lat="45.3059767" lon="10.655865"><ele>52.8</ele><time>2026-05-01T11:39:30.605Z</time></trkpt><trkpt lat="45.3060783" lon="10.6557467"><ele>53.0</ele><time>2026-05-01T11:39:32.6Z</time></trkpt><trkpt lat="45.3061017" lon="10.6556567"><ele>53.0</ele><time>2026-05-01T11:39:33.606Z</time></trkpt><trkpt lat="45.3060883" lon="10.6555067"><ele>53.0</ele><time>2026-05-01T11:39:34.602Z</time></trkpt><trkpt lat="45.3060683" lon="10.6553317"><ele>53.0</ele><time>2026-05-01T11:39:35.601Z</time></trkpt><trkpt lat="45.3060483" lon="10.6551567"><ele>53.0</ele><time>2026-05-01T11:39:36.603Z</time></trkpt><trkpt lat="45.3060483" lon="10.6549567"><ele>53.0</ele><time>2026-05-01T11:39:37.594Z</time></trkpt><trkpt lat="45.306045" lon="10.65477"><ele>53.0</ele><time>2026-05-01T11:39:38.604Z</time></trkpt><trkpt lat="45.30604" lon="10.6545967"><ele>53.0</ele><time>2026-05-01T11:39:39.604Z</time></trkpt><trkpt lat="45.3060417" lon="10.6544383"><ele>53.0</ele><time>2026-05-01T11:39:40.595Z</time></trkpt><trkpt lat="45.30602" lon="10.6543033"><ele>52.75</ele><time>2026-05-01T11:39:41.602Z</time></trkpt><trkpt lat="45.306005" lon="10.6541317"><ele>52.5</ele><time>2026-05-01T11:39:42.601Z</time></trkpt><trkpt lat="45.30598" lon="10.6539517"><ele>52.25</ele><time>2026-05-01T11:39:43.594Z</time></trkpt><trkpt lat="45.3059683" lon="10.6537767"><ele>52.0</ele><time>2026-05-01T11:39:44.594Z</time></trkpt><trkpt lat="45.3059617" lon="10.6536217"><ele>51.75</ele><time>2026-05-01T11:39:45.602Z</time></trkpt><trkpt lat="45.3059667" lon="10.6534517"><ele>51.5</ele><time>2026-05-01T11:39:46.597Z</time></trkpt><trkpt lat="45.3059583" lon="10.6532817"><ele>51.25</ele><time>2026-05-01T11:39:47.606Z</time></trkpt><trkpt lat="45.30595" lon="10.6531033"><ele>51.0</ele><time>2026-05-01T11:39:48.603Z</time></trkpt><trkpt lat="45.3059317" lon="10.652915"><ele>50.5</ele><time>2026-05-01T11:39:49.597Z</time></trkpt><trkpt lat="45.3058983" lon="10.6527133"><ele>50.0</ele><time>2026-05-01T11:39:50.589Z</time></trkpt><trkpt lat="45.3058717" lon="10.6525283"><ele>49.5</ele><time>2026-05-01T11:39:51.591Z</time></trkpt><trkpt lat="45.305845" lon="10.65235"><ele>49.0</ele><time>2026-05-01T11:39:52.584Z</time></trkpt><trkpt lat="45.30582" lon="10.6521867"><ele>49.0</ele><time>2026-05-01T11:39:53.599Z</time></trkpt><trkpt lat="45.3057867" lon="10.65201"><ele>49.0</ele><time>2026-05-01T11:39:54.604Z</time></trkpt><trkpt lat="45.3057283" lon="10.6518117"><ele>49.0</ele><time>2026-05-01T11:39:55.599Z</time></trkpt><trkpt lat="45.3056733" lon="10.6516267"><ele>49.0</ele><time>2026-05-01T11:39:56.603Z</time></trkpt><trkpt lat="45.3055833" lon="10.6514483"><ele>49.25</ele><time>2026-05-01T11:39:57.597Z</time></trkpt><trkpt lat="45.3054967" lon="10.6512783"><ele>49.5</ele><time>2026-05-01T11:39:58.61Z</time></trkpt><trkpt lat="45.30541" lon="10.65113"><ele>49.75</ele><time>2026-05-01T11:39:59.597Z</time></trkpt><trkpt lat="45.3053283" lon="10.65099"><ele>50.0</ele><time>2026-05-01T11:40:00.607Z</time></trkpt><trkpt lat="45.305275" lon="10.6509233"><ele>50.0</ele><time>2026-05-01T11:40:01.6Z</time></trkpt><trkpt lat="45.3052217" lon="10.6508233"><ele>50.0</ele><time>2026-05-01T11:40:03.599Z</time></trkpt><trkpt lat="45.3051517" lon="10.650715"><ele>50.0</ele><time>2026-05-01T11:40:05.593Z</time></trkpt><trkpt lat="45.3050983" lon="10.65063"><ele>50.0</ele><time>2026-05-01T11:40:06.6Z</time></trkpt><trkpt lat="45.3050333" lon="10.6505083"><ele>50.0</ele><time>2026-05-01T11:40:07.595Z</time></trkpt><trkpt lat="45.3049717" lon="10.6503967"><ele>50.00000000000001</ele><time>2026-05-01T11:40:08.6Z</time></trkpt><trkpt lat="45.3049133" lon="10.6503217"><ele>50.0</ele><time>2026-05-01T11:40:09.593Z</time></trkpt><trkpt lat="45.3048683" lon="10.6502583"><ele>50.0</ele><time>2026-05-01T11:40:10.601Z</time></trkpt><trkpt lat="45.304835" lon="10.6501783"><ele>50.0</ele><time>2026-05-01T11:40:12.599Z</time></trkpt><trkpt lat="45.3049067" lon="10.650125"><ele>50.00000000000001</ele><time>2026-05-01T11:40:16.591Z</time></trkpt><trkpt lat="45.3048617" lon="10.6502317"><ele>50.0</ele><time>2026-05-01T11:40:23.606Z</time></trkpt><trkpt lat="45.3048817" lon="10.65034"><ele>50.0</ele><time>2026-05-01T11:40:25.6Z</time></trkpt><trkpt lat="45.304965" lon="10.6504783"><ele>50.0</ele><time>2026-05-01T11:40:27.607Z</time></trkpt><trkpt lat="45.30503" lon="10.650575"><ele>50.0</ele><time>2026-05-01T11:40:28.593Z</time></trkpt><trkpt lat="45.305105" lon="10.650695"><ele>50.0</ele><time>2026-05-01T11:40:29.593Z</time></trkpt><trkpt lat="45.305185" lon="10.6508167"><ele>50.0</ele><time>2026-05-01T11:40:30.596Z</time></trkpt><trkpt lat="45.3052417" lon="10.6509533"><ele>50.0</ele><time>2026-05-01T11:40:31.597Z</time></trkpt><trkpt lat="45.3052967" lon="10.6510117"><ele>50.0</ele><time>2026-05-01T11:40:32.6Z</time></trkpt><trkpt lat="45.3053733" lon="10.6510517"><ele>50.0</ele><time>2026-05-01T11:40:34.607Z</time></trkpt><trkpt lat="45.3054667" lon="10.6509367"><ele>50.0</ele><time>2026-05-01T11:40:36.604Z</time></trkpt><trkpt lat="45.3055333" lon="10.650835"><ele>50.00000000000001</ele><time>2026-05-01T11:40:37.593Z</time></trkpt><trkpt lat="45.3055917" lon="10.6507583"><ele>50.0</ele><time>2026-05-01T11:40:38.602Z</time></trkpt><trkpt lat="45.3056483" lon="10.6506933"><ele>50.0</ele><time>2026-05-01T11:40:39.597Z</time></trkpt><trkpt lat="45.3057083" lon="10.6506533"><ele>50.0</ele><time>2026-05-01T11:40:40.611Z</time></trkpt><trkpt lat="45.3057733" lon="10.6506433"><ele>50.0</ele><time>2026-05-01T11:40:41.596Z</time></trkpt><trkpt lat="45.305845" lon="10.6506633"><ele>50.00000000000001</ele><time>2026-05-01T11:40:42.601Z</time></trkpt><trkpt lat="45.3059217" lon="10.6507183"><ele>50.0</ele><time>2026-05-01T11:40:43.598Z</time></trkpt><trkpt lat="45.3059967" lon="10.65081"><ele>50.0</ele><time>2026-05-01T11:40:44.596Z</time></trkpt><trkpt lat="45.3060917" lon="10.65092"><ele>50.0</ele><time>2026-05-01T11:40:45.597Z</time></trkpt><trkpt lat="45.3061833" lon="10.651045"><ele>50.0</ele><time>2026-05-01T11:40:46.597Z</time></trkpt><trkpt lat="45.3062683" lon="10.6511217"><ele>50.0</ele><time>2026-05-01T11:40:47.593Z</time></trkpt><trkpt lat="45.3063633" lon="10.6512"><ele>50.0</ele><time>2026-05-01T11:40:48.596Z</time></trkpt><trkpt lat="45.306465" lon="10.6512717"><ele>50.0</ele><time>2026-05-01T11:40:49.591Z</time></trkpt><trkpt lat="45.306585" lon="10.6513117"><ele>50.0</ele><time>2026-05-01T11:40:50.592Z</time></trkpt><trkpt lat="45.3067" lon="10.6513667"><ele>50.0</ele><time>2026-05-01T11:40:51.602Z</time></trkpt><trkpt lat="45.30683" lon="10.6514117"><ele>50.0</ele><time>2026-05-01T11:40:52.591Z</time></trkpt><trkpt lat="45.30696" lon="10.6514617"><ele>50.0</ele><time>2026-05-01T11:40:53.594Z</time></trkpt><trkpt lat="45.3070917" lon="10.6515"><ele>50.0</ele><time>2026-05-01T11:40:54.597Z</time></trkpt><trkpt lat="45.3072133" lon="10.6515683"><ele>50.0</ele><time>2026-05-01T11:40:55.593Z</time></trkpt><trkpt lat="45.3073333" lon="10.6516217"><ele>50.25</ele><time>2026-05-01T11:40:56.591Z</time></trkpt><trkpt lat="45.3074617" lon="10.6516533"><ele>50.5</ele><time>2026-05-01T11:40:57.598Z</time></trkpt><trkpt lat="45.3075717" lon="10.6517033"><ele>50.75</ele><time>2026-05-01T11:40:58.595Z</time></trkpt><trkpt lat="45.3076867" lon="10.6517467"><ele>51.0</ele><time>2026-05-01T11:40:59.597Z</time></trkpt><trkpt lat="45.307815" lon="10.6517733"><ele>51.0</ele><time>2026-05-01T11:41:00.594Z</time></trkpt><trkpt lat="45.30794" lon="10.6518433"><ele>51.0</ele><time>2026-05-01T11:41:01.594Z</time></trkpt><trkpt lat="45.3080583" lon="10.6518983"><ele>51.0</ele><time>2026-05-01T11:41:02.599Z</time></trkpt><trkpt lat="45.3081883" lon="10.6519667"><ele>51.0</ele><time>2026-05-01T11:41:03.592Z</time></trkpt><trkpt lat="45.3083283" lon="10.652005"><ele>50.66666666666667</ele><time>2026-05-01T11:41:04.602Z</time></trkpt><trkpt lat="45.3084683" lon="10.6520683"><ele>50.333333333333336</ele><time>2026-05-01T11:41:05.603Z</time></trkpt><trkpt lat="45.308615" lon="10.65211"><ele>50.0</ele><time>2026-05-01T11:41:06.597Z</time></trkpt><trkpt lat="45.3087667" lon="10.652145"><ele>50.75</ele><time>2026-05-01T11:41:07.593Z</time></trkpt><trkpt lat="45.3089183" lon="10.652205"><ele>51.5</ele><time>2026-05-01T11:41:08.599Z</time></trkpt><trkpt lat="45.3090333" lon="10.652245"><ele>52.25</ele><time>2026-05-01T11:41:09.592Z</time></trkpt><trkpt lat="45.309145" lon="10.652285"><ele>53.0</ele><time>2026-05-01T11:41:10.593Z</time></trkpt><trkpt lat="45.3092567" lon="10.652345"><ele>53.0</ele><time>2026-05-01T11:41:11.596Z</time></trkpt><trkpt lat="45.3093817" lon="10.6524"><ele>53.0</ele><time>2026-05-01T11:41:12.6Z</time></trkpt><trkpt lat="45.3095083" lon="10.652465"><ele>53.0</ele><time>2026-05-01T11:41:13.592Z</time></trkpt><trkpt lat="45.309635" lon="10.6525017"><ele>53.0</ele><time>2026-05-01T11:41:14.594Z</time></trkpt><trkpt lat="45.3097717" lon="10.6525567"><ele>53.333333333333336</ele><time>2026-05-01T11:41:15.591Z</time></trkpt><trkpt lat="45.309915" lon="10.6526433"><ele>53.66666666666667</ele><time>2026-05-01T11:41:16.605Z</time></trkpt><trkpt lat="45.31008" lon="10.652705"><ele>54.0</ele><time>2026-05-01T11:41:17.598Z</time></trkpt><trkpt lat="45.3102217" lon="10.6527733"><ele>54.0</ele><time>2026-05-01T11:41:18.596Z</time></trkpt><trkpt lat="45.310355" lon="10.652815"><ele>54.0</ele><time>2026-05-01T11:41:19.595Z</time></trkpt><trkpt lat="45.3104683" lon="10.6528633"><ele>54.0</ele><time>2026-05-01T11:41:20.599Z</time></trkpt><trkpt lat="45.3106117" lon="10.6529283"><ele>54.0</ele><time>2026-05-01T11:41:21.611Z</time></trkpt><trkpt lat="45.3107567" lon="10.652965"><ele>53.66666666666667</ele><time>2026-05-01T11:41:22.601Z</time></trkpt><trkpt lat="45.31091" lon="10.6530333"><ele>53.333333333333336</ele><time>2026-05-01T11:41:23.604Z</time></trkpt><trkpt lat="45.3110467" lon="10.65312"><ele>53.0</ele><time>2026-05-01T11:41:24.601Z</time></trkpt><trkpt lat="45.3111917" lon="10.6531833"><ele>53.0</ele><time>2026-05-01T11:41:25.6Z</time></trkpt><trkpt lat="45.3113317" lon="10.653245"><ele>53.0</ele><time>2026-05-01T11:41:26.601Z</time></trkpt><trkpt lat="45.3114767" lon="10.6533033"><ele>53.0</ele><time>2026-05-01T11:41:27.599Z</time></trkpt><trkpt lat="45.31162" lon="10.6533667"><ele>53.0</ele><time>2026-05-01T11:41:28.6Z</time></trkpt><trkpt lat="45.3117667" lon="10.653425"><ele>53.25</ele><time>2026-05-01T11:41:29.593Z</time></trkpt><trkpt lat="45.311905" lon="10.6534733"><ele>53.5</ele><time>2026-05-01T11:41:30.602Z</time></trkpt><trkpt lat="45.312035" lon="10.6535083"><ele>53.75</ele><time>2026-05-01T11:41:31.596Z</time></trkpt><trkpt lat="45.312185" lon="10.6535417"><ele>54.0</ele><time>2026-05-01T11:41:32.593Z</time></trkpt><trkpt lat="45.31233" lon="10.65359"><ele>54.0</ele><time>2026-05-01T11:41:33.593Z</time></trkpt><trkpt lat="45.3124517" lon="10.6536167"><ele>54.0</ele><time>2026-05-01T11:41:34.592Z</time></trkpt><trkpt lat="45.31259" lon="10.6536567"><ele>54.0</ele><time>2026-05-01T11:41:35.594Z</time></trkpt><trkpt lat="45.3126933" lon="10.6536833"><ele>54.0</ele><time>2026-05-01T11:41:36.601Z</time></trkpt><trkpt lat="45.31278" lon="10.65368"><ele>54.0</ele><time>2026-05-01T11:41:37.598Z</time></trkpt><trkpt lat="45.3129" lon="10.6536467"><ele>54.0</ele><time>2026-05-01T11:41:38.597Z</time></trkpt><trkpt lat="45.3130167" lon="10.6535733"><ele>54.0</ele><time>2026-05-01T11:41:39.596Z</time></trkpt><trkpt lat="45.3131083" lon="10.653575"><ele>54.0</ele><time>2026-05-01T11:41:40.598Z</time></trkpt><trkpt lat="45.3132167" lon="10.6536117"><ele>54.25</ele><time>2026-05-01T11:41:41.591Z</time></trkpt><trkpt lat="45.3133067" lon="10.653645"><ele>54.5</ele><time>2026-05-01T11:41:42.606Z</time></trkpt><trkpt lat="45.313425" lon="10.6537233"><ele>54.75</ele><time>2026-05-01T11:41:43.602Z</time></trkpt><trkpt lat="45.31355" lon="10.6538617"><ele>55.0</ele><time>2026-05-01T11:41:44.6Z</time></trkpt><trkpt lat="45.3136717" lon="10.6539967"><ele>55.0</ele><time>2026-05-01T11:41:45.594Z</time></trkpt><trkpt lat="45.313785" lon="10.6541533"><ele>55.0</ele><time>2026-05-01T11:41:46.598Z</time></trkpt><trkpt lat="45.3139" lon="10.6542683"><ele>55.0</ele><time>2026-05-01T11:41:47.595Z</time></trkpt><trkpt lat="45.313995" lon="10.6543683"><ele>55.0</ele><time>2026-05-01T11:41:48.593Z</time></trkpt><trkpt lat="45.3140633" lon="10.65443"><ele>55.4</ele><time>2026-05-01T11:41:49.595Z</time></trkpt><trkpt lat="45.3141267" lon="10.6544733"><ele>55.8</ele><time>2026-05-01T11:41:50.6Z</time></trkpt><trkpt lat="45.3142283" lon="10.6545167"><ele>56.2</ele><time>2026-05-01T11:41:52.589Z</time></trkpt><trkpt lat="45.3143167" lon="10.65448"><ele>56.6</ele><time>2026-05-01T11:41:55.602Z</time></trkpt><trkpt lat="45.3143817" lon="10.654335"><ele>57.0</ele><time>2026-05-01T11:41:57.602Z</time></trkpt><trkpt lat="45.3144083" lon="10.65424"><ele>57.0</ele><time>2026-05-01T11:41:58.601Z</time></trkpt><trkpt lat="45.31444" lon="10.6541433"><ele>57.0</ele><time>2026-05-01T11:41:59.607Z</time></trkpt><trkpt lat="45.3144733" lon="10.6540433"><ele>57.0</ele><time>2026-05-01T11:42:00.604Z</time></trkpt><trkpt lat="45.3145067" lon="10.6539467"><ele>57.0</ele><time>2026-05-01T11:42:01.586Z</time></trkpt><trkpt lat="45.314535" lon="10.65385"><ele>57.0</ele><time>2026-05-01T11:42:02.595Z</time></trkpt><trkpt lat="45.314575" lon="10.65375"><ele>57.0</ele><time>2026-05-01T11:42:03.599Z</time></trkpt><trkpt lat="45.3146133" lon="10.653645"><ele>56.8</ele><time>2026-05-01T11:42:04.603Z</time></trkpt><trkpt lat="45.3146517" lon="10.6535333"><ele>56.6</ele><time>2026-05-01T11:42:05.598Z</time></trkpt><trkpt lat="45.314685" lon="10.6534233"><ele>56.39999999999999</ele><time>2026-05-01T11:42:06.598Z</time></trkpt><trkpt lat="45.3147233" lon="10.6533"><ele>56.199999999999996</ele><time>2026-05-01T11:42:07.601Z</time></trkpt><trkpt lat="45.3147667" lon="10.6531733"><ele>56.0</ele><time>2026-05-01T11:42:08.592Z</time></trkpt><trkpt lat="45.3148167" lon="10.653035"><ele>57.0</ele><time>2026-05-01T11:42:09.599Z</time></trkpt><trkpt lat="45.3148817" lon="10.6528833"><ele>58.0</ele><time>2026-05-01T11:42:10.601Z</time></trkpt><trkpt lat="45.314945" lon="10.652725"><ele>59.0</ele><time>2026-05-01T11:42:11.587Z</time></trkpt><trkpt lat="45.315005" lon="10.6525833"><ele>60.0</ele><time>2026-05-01T11:42:12.605Z</time></trkpt><trkpt lat="45.31508" lon="10.6524417"><ele>60.0</ele><time>2026-05-01T11:42:13.592Z</time></trkpt><trkpt lat="45.31514" lon="10.6523467"><ele>60.0</ele><time>2026-05-01T11:42:14.598Z</time></trkpt><trkpt lat="45.3151983" lon="10.6522533"><ele>60.0</ele><time>2026-05-01T11:42:15.591Z</time></trkpt><trkpt lat="45.3152467" lon="10.652175"><ele>60.0</ele><time>2026-05-01T11:42:16.603Z</time></trkpt><trkpt lat="45.3152967" lon="10.6521117"><ele>60.0</ele><time>2026-05-01T11:42:17.594Z</time></trkpt><trkpt lat="45.31537" lon="10.6520283"><ele>60.0</ele><time>2026-05-01T11:42:19.599Z</time></trkpt><trkpt lat="45.31544" lon="10.6519733"><ele>60.0</ele><time>2026-05-01T11:42:22.591Z</time></trkpt><trkpt lat="45.31549" lon="10.6520317"><ele>60.0</ele><time>2026-05-01T11:42:30.587Z</time></trkpt><trkpt lat="45.3155317" lon="10.6521033"><ele>60.0</ele><time>2026-05-01T11:42:31.603Z</time></trkpt><trkpt lat="45.3155833" lon="10.6521983"><ele>60.0</ele><time>2026-05-01T11:42:32.594Z</time></trkpt><trkpt lat="45.3156433" lon="10.652305"><ele>60.0</ele><time>2026-05-01T11:42:33.589Z</time></trkpt><trkpt lat="45.3157017" lon="10.6524333"><ele>60.0</ele><time>2026-05-01T11:42:34.585Z</time></trkpt><trkpt lat="45.3157833" lon="10.65256"><ele>60.0</ele><time>2026-05-01T11:42:35.589Z</time></trkpt><trkpt lat="45.31588" lon="10.6526617"><ele>60.0</ele><time>2026-05-01T11:42:36.589Z</time></trkpt><trkpt lat="45.315965" lon="10.6527517"><ele>60.0</ele><time>2026-05-01T11:42:37.591Z</time></trkpt><trkpt lat="45.3160233" lon="10.6528683"><ele>60.0</ele><time>2026-05-01T11:42:38.599Z</time></trkpt><trkpt lat="45.3160867" lon="10.652985"><ele>60.0</ele><time>2026-05-01T11:42:39.594Z</time></trkpt><trkpt lat="45.3161167" lon="10.6531033"><ele>60.0</ele><time>2026-05-01T11:42:40.595Z</time></trkpt><trkpt lat="45.316135" lon="10.65322"><ele>60.0</ele><time>2026-05-01T11:42:41.593Z</time></trkpt><trkpt lat="45.316195" lon="10.6533"><ele>60.0</ele><time>2026-05-01T11:42:42.599Z</time></trkpt><trkpt lat="45.3162733" lon="10.6533417"><ele>60.0</ele><time>2026-05-01T11:42:43.592Z</time></trkpt><trkpt lat="45.31634" lon="10.6532983"><ele>60.0</ele><time>2026-05-01T11:42:44.604Z</time></trkpt><trkpt lat="45.31641" lon="10.65322"><ele>60.0</ele><time>2026-05-01T11:42:45.588Z</time></trkpt><trkpt lat="45.316445" lon="10.6530817"><ele>59.75</ele><time>2026-05-01T11:42:46.597Z</time></trkpt><trkpt lat="45.316465" lon="10.65289"><ele>59.5</ele><time>2026-05-01T11:42:47.594Z</time></trkpt><trkpt lat="45.3164983" lon="10.6526967"><ele>59.25</ele><time>2026-05-01T11:42:48.613Z</time></trkpt><trkpt lat="45.31657" lon="10.652475"><ele>59.0</ele><time>2026-05-01T11:42:49.598Z</time></trkpt><trkpt lat="45.3166867" lon="10.652265"><ele>59.0</ele><time>2026-05-01T11:42:50.592Z</time></trkpt><trkpt lat="45.3168117" lon="10.652085"><ele>59.0</ele><time>2026-05-01T11:42:51.593Z</time></trkpt><trkpt lat="45.3169067" lon="10.6518767"><ele>59.0</ele><time>2026-05-01T11:42:52.591Z</time></trkpt><trkpt lat="45.31701" lon="10.651685"><ele>59.0</ele><time>2026-05-01T11:42:53.596Z</time></trkpt><trkpt lat="45.31707" lon="10.651545"><ele>59.00000000000001</ele><time>2026-05-01T11:42:54.596Z</time></trkpt><trkpt lat="45.3171467" lon="10.6514133"><ele>59.00000000000001</ele><time>2026-05-01T11:42:55.599Z</time></trkpt><trkpt lat="45.31722" lon="10.6512967"><ele>59.0</ele><time>2026-05-01T11:42:56.591Z</time></trkpt><trkpt lat="45.3172667" lon="10.651195"><ele>59.0</ele><time>2026-05-01T11:42:57.6Z</time></trkpt><trkpt lat="45.3173017" lon="10.6510733"><ele>59.0</ele><time>2026-05-01T11:42:58.599Z</time></trkpt><trkpt lat="45.3173667" lon="10.6509417"><ele>59.0</ele><time>2026-05-01T11:42:59.596Z</time></trkpt><trkpt lat="45.3174383" lon="10.6507983"><ele>59.0</ele><time>2026-05-01T11:43:00.597Z</time></trkpt><trkpt lat="45.317505" lon="10.6506633"><ele>59.0</ele><time>2026-05-01T11:43:01.597Z</time></trkpt><trkpt lat="45.3175683" lon="10.6505383"><ele>59.0</ele><time>2026-05-01T11:43:02.594Z</time></trkpt><trkpt lat="45.3176333" lon="10.6504317"><ele>59.00000000000001</ele><time>2026-05-01T11:43:03.597Z</time></trkpt><trkpt lat="45.3176883" lon="10.6503067"><ele>59.00000000000001</ele><time>2026-05-01T11:43:04.597Z</time></trkpt><trkpt lat="45.3177483" lon="10.6501883"><ele>59.0</ele><time>2026-05-01T11:43:05.599Z</time></trkpt><trkpt lat="45.317805" lon="10.650065"><ele>59.0</ele><time>2026-05-01T11:43:06.595Z</time></trkpt><trkpt lat="45.3178433" lon="10.6499417"><ele>58.800000000000004</ele><time>2026-05-01T11:43:07.599Z</time></trkpt><trkpt lat="45.317895" lon="10.64982"><ele>58.60000000000001</ele><time>2026-05-01T11:43:08.589Z</time></trkpt><trkpt lat="45.3179317" lon="10.649695"><ele>58.4</ele><time>2026-05-01T11:43:09.59Z</time></trkpt><trkpt lat="45.3179633" lon="10.6495683"><ele>58.2</ele><time>2026-05-01T11:43:10.595Z</time></trkpt><trkpt lat="45.3179883" lon="10.649435"><ele>58.0</ele><time>2026-05-01T11:43:11.597Z</time></trkpt><trkpt lat="45.3180083" lon="10.6492717"><ele>57.75</ele><time>2026-05-01T11:43:12.592Z</time></trkpt><trkpt lat="45.3180367" lon="10.6491167"><ele>57.5</ele><time>2026-05-01T11:43:13.6Z</time></trkpt><trkpt lat="45.3180667" lon="10.6489567"><ele>57.25</ele><time>2026-05-01T11:43:14.594Z</time></trkpt><trkpt lat="45.3180917" lon="10.6487933"><ele>57.0</ele><time>2026-05-01T11:43:15.589Z</time></trkpt><trkpt lat="45.318085" lon="10.6486083"><ele>57.0</ele><time>2026-05-01T11:43:16.592Z</time></trkpt><trkpt lat="45.3181233" lon="10.6484217"><ele>57.0</ele><time>2026-05-01T11:43:17.591Z</time></trkpt><trkpt lat="45.318165" lon="10.6482467"><ele>57.0</ele><time>2026-05-01T11:43:18.597Z</time></trkpt><trkpt lat="45.318205" lon="10.6480483"><ele>57.0</ele><time>2026-05-01T11:43:19.607Z</time></trkpt><trkpt lat="45.318245" lon="10.647845"><ele>57.0</ele><time>2026-05-01T11:43:20.598Z</time></trkpt><trkpt lat="45.3182883" lon="10.6476333"><ele>57.0</ele><time>2026-05-01T11:43:21.616Z</time></trkpt><trkpt lat="45.318355" lon="10.6474467"><ele>57.0</ele><time>2026-05-01T11:43:22.591Z</time></trkpt><trkpt lat="45.3184" lon="10.64726"><ele>57.0</ele><time>2026-05-01T11:43:23.601Z</time></trkpt><trkpt lat="45.318445" lon="10.64708"><ele>57.0</ele><time>2026-05-01T11:43:24.597Z</time></trkpt><trkpt lat="45.3184783" lon="10.6469217"><ele>57.0</ele><time>2026-05-01T11:43:25.599Z</time></trkpt><trkpt lat="45.318525" lon="10.6467733"><ele>57.0</ele><time>2026-05-01T11:43:26.598Z</time></trkpt><trkpt lat="45.318535" lon="10.64662"><ele>57.0</ele><time>2026-05-01T11:43:27.6Z</time></trkpt><trkpt lat="45.318545" lon="10.64645"><ele>57.0</ele><time>2026-05-01T11:43:28.596Z</time></trkpt><trkpt lat="45.3185617" lon="10.6462817"><ele>57.0</ele><time>2026-05-01T11:43:29.597Z</time></trkpt><trkpt lat="45.3185867" lon="10.64609"><ele>57.0</ele><time>2026-05-01T11:43:30.595Z</time></trkpt><trkpt lat="45.31861" lon="10.6459167"><ele>57.0</ele><time>2026-05-01T11:43:31.595Z</time></trkpt><trkpt lat="45.31865" lon="10.64576"><ele>57.0</ele><time>2026-05-01T11:43:32.599Z</time></trkpt><trkpt lat="45.318675" lon="10.6456133"><ele>57.0</ele><time>2026-05-01T11:43:33.596Z</time></trkpt><trkpt lat="45.3187083" lon="10.6454683"><ele>57.0</ele><time>2026-05-01T11:43:34.593Z</time></trkpt><trkpt lat="45.3187367" lon="10.6453133"><ele>57.0</ele><time>2026-05-01T11:43:35.6Z</time></trkpt><trkpt lat="45.31877" lon="10.6452117"><ele>57.0</ele><time>2026-05-01T11:43:36.591Z</time></trkpt><trkpt lat="45.318795" lon="10.6450817"><ele>57.0</ele><time>2026-05-01T11:43:37.592Z</time></trkpt><trkpt lat="45.3188267" lon="10.6449317"><ele>57.0</ele><time>2026-05-01T11:43:38.591Z</time></trkpt><trkpt lat="45.318865" lon="10.644755"><ele>57.0</ele><time>2026-05-01T11:43:39.601Z</time></trkpt><trkpt lat="45.3189317" lon="10.6445567"><ele>57.0</ele><time>2026-05-01T11:43:40.591Z</time></trkpt><trkpt lat="45.3189967" lon="10.6443333"><ele>57.33333333333333</ele><time>2026-05-01T11:43:41.594Z</time></trkpt><trkpt lat="45.3190617" lon="10.6441117"><ele>57.666666666666664</ele><time>2026-05-01T11:43:42.602Z</time></trkpt><trkpt lat="45.31914" lon="10.6438483"><ele>58.0</ele><time>2026-05-01T11:43:43.596Z</time></trkpt><trkpt lat="45.31921" lon="10.6435683"><ele>58.0</ele><time>2026-05-01T11:43:44.616Z</time></trkpt><trkpt lat="45.3192717" lon="10.64326"><ele>58.0</ele><time>2026-05-01T11:43:45.592Z</time></trkpt><trkpt lat="45.31935" lon="10.6429883"><ele>58.0</ele><time>2026-05-01T11:43:46.598Z</time></trkpt><trkpt lat="45.3194333" lon="10.6427"><ele>57.33333333333333</ele><time>2026-05-01T11:43:47.598Z</time></trkpt><trkpt lat="45.3195317" lon="10.6424067"><ele>56.66666666666667</ele><time>2026-05-01T11:43:48.658Z</time></trkpt><trkpt lat="45.319605" lon="10.64212"><ele>56.0</ele><time>2026-05-01T11:43:49.597Z</time></trkpt><trkpt lat="45.3196633" lon="10.641805"><ele>56.0</ele><time>2026-05-01T11:43:50.614Z</time></trkpt><trkpt lat="45.3197233" lon="10.6414733"><ele>56.0</ele><time>2026-05-01T11:43:51.604Z</time></trkpt><trkpt lat="45.31976" lon="10.641145"><ele>56.0</ele><time>2026-05-01T11:43:52.602Z</time></trkpt><trkpt lat="45.31979" lon="10.6408033"><ele>56.0</ele><time>2026-05-01T11:43:53.593Z</time></trkpt><trkpt lat="45.3197817" lon="10.6404517"><ele>55.5</ele><time>2026-05-01T11:43:54.595Z</time></trkpt><trkpt lat="45.319775" lon="10.6400783"><ele>55.0</ele><time>2026-05-01T11:43:55.603Z</time></trkpt><trkpt lat="45.3197933" lon="10.6397267"><ele>55.666666666666664</ele><time>2026-05-01T11:43:56.593Z</time></trkpt><trkpt lat="45.3197817" lon="10.63941"><ele>56.33333333333333</ele><time>2026-05-01T11:43:57.607Z</time></trkpt><trkpt lat="45.31979" lon="10.6390933"><ele>57.0</ele><time>2026-05-01T11:43:58.589Z</time></trkpt><trkpt lat="45.3197967" lon="10.63885"><ele>57.0</ele><time>2026-05-01T11:43:59.598Z</time></trkpt><trkpt lat="45.3197933" lon="10.6386183"><ele>57.0</ele><time>2026-05-01T11:44:00.593Z</time></trkpt><trkpt lat="45.31979" lon="10.6383867"><ele>57.0</ele><time>2026-05-01T11:44:01.598Z</time></trkpt><trkpt lat="45.3197867" lon="10.63816"><ele>57.0</ele><time>2026-05-01T11:44:02.59Z</time></trkpt><trkpt lat="45.3198133" lon="10.63795"><ele>57.0</ele><time>2026-05-01T11:44:03.596Z</time></trkpt><trkpt lat="45.3198667" lon="10.6377317"><ele>57.0</ele><time>2026-05-01T11:44:04.598Z</time></trkpt><trkpt lat="45.31994" lon="10.6375067"><ele>57.0</ele><time>2026-05-01T11:44:05.599Z</time></trkpt><trkpt lat="45.32004" lon="10.6372433"><ele>57.0</ele><time>2026-05-01T11:44:06.599Z</time></trkpt><trkpt lat="45.32015" lon="10.63695"><ele>57.0</ele><time>2026-05-01T11:44:07.597Z</time></trkpt><trkpt lat="45.32025" lon="10.6366217"><ele>57.5</ele><time>2026-05-01T11:44:08.601Z</time></trkpt><trkpt lat="45.3203833" lon="10.63625"><ele>58.0</ele><time>2026-05-01T11:44:09.601Z</time></trkpt><trkpt lat="45.3205167" lon="10.63589"><ele>59.0</ele><time>2026-05-01T11:44:10.598Z</time></trkpt><trkpt lat="45.3206367" lon="10.6355383"><ele>60.0</ele><time>2026-05-01T11:44:11.599Z</time></trkpt><trkpt lat="45.3207367" lon="10.6351933"><ele>60.0</ele><time>2026-05-01T11:44:12.605Z</time></trkpt><trkpt lat="45.32083" lon="10.6348967"><ele>60.0</ele><time>2026-05-01T11:44:13.615Z</time></trkpt><trkpt lat="45.3209167" lon="10.6346267"><ele>60.0</ele><time>2026-05-01T11:44:14.613Z</time></trkpt><trkpt lat="45.3210133" lon="10.6343533"><ele>60.0</ele><time>2026-05-01T11:44:15.6Z</time></trkpt><trkpt lat="45.3211067" lon="10.634105"><ele>60.0</ele><time>2026-05-01T11:44:16.602Z</time></trkpt><trkpt lat="45.3212217" lon="10.633855"><ele>60.0</ele><time>2026-05-01T11:44:17.599Z</time></trkpt><trkpt lat="45.3212717" lon="10.6336633"><ele>60.0</ele><time>2026-05-01T11:44:18.619Z</time></trkpt><trkpt lat="45.32136" lon="10.6333683"><ele>60.0</ele><time>2026-05-01T11:44:19.601Z</time></trkpt><trkpt lat="45.3214483" lon="10.6331617"><ele>60.0</ele><time>2026-05-01T11:44:20.596Z</time></trkpt><trkpt lat="45.32152" lon="10.632885"><ele>60.25</ele><time>2026-05-01T11:44:21.592Z</time></trkpt><trkpt lat="45.321585" lon="10.6326667"><ele>60.5</ele><time>2026-05-01T11:44:22.597Z</time></trkpt><trkpt lat="45.3216433" lon="10.6324867"><ele>60.75</ele><time>2026-05-01T11:44:23.629Z</time></trkpt><trkpt lat="45.321705" lon="10.6323383"><ele>61.0</ele><time>2026-05-01T11:44:24.609Z</time></trkpt><trkpt lat="45.32179" lon="10.6322133"><ele>61.0</ele><time>2026-05-01T11:44:25.595Z</time></trkpt><trkpt lat="45.3218933" lon="10.6321217"><ele>61.0</ele><time>2026-05-01T11:44:26.597Z</time></trkpt><trkpt lat="45.3220117" lon="10.6320733"><ele>61.0</ele><time>2026-05-01T11:44:27.602Z</time></trkpt><trkpt lat="45.3221467" lon="10.6320383"><ele>61.0</ele><time>2026-05-01T11:44:28.594Z</time></trkpt><trkpt lat="45.3222967" lon="10.6320067"><ele>61.666666666666664</ele><time>2026-05-01T11:44:29.603Z</time></trkpt><trkpt lat="45.3224683" lon="10.6319583"><ele>62.33333333333333</ele><time>2026-05-01T11:44:30.603Z</time></trkpt><trkpt lat="45.322645" lon="10.631855"><ele>63.0</ele><time>2026-05-01T11:44:31.594Z</time></trkpt><trkpt lat="45.322845" lon="10.6317767"><ele>63.0</ele><time>2026-05-01T11:44:32.603Z</time></trkpt><trkpt lat="45.3230483" lon="10.6316983"><ele>63.0</ele><time>2026-05-01T11:44:33.604Z</time></trkpt><trkpt lat="45.323245" lon="10.631625"><ele>63.0</ele><time>2026-05-01T11:44:34.591Z</time></trkpt><trkpt lat="45.3234367" lon="10.6315517"><ele>63.66666666666667</ele><time>2026-05-01T11:44:35.597Z</time></trkpt><trkpt lat="45.32362" lon="10.63151"><ele>64.33333333333334</ele><time>2026-05-01T11:44:36.602Z</time></trkpt><trkpt lat="45.3237833" lon="10.63148"><ele>65.0</ele><time>2026-05-01T11:44:37.669Z</time></trkpt><trkpt lat="45.3239433" lon="10.6313783"><ele>65.0</ele><time>2026-05-01T11:44:38.62Z</time></trkpt><trkpt lat="45.3240617" lon="10.6312983"><ele>65.0</ele><time>2026-05-01T11:44:39.584Z</time></trkpt><trkpt lat="45.324185" lon="10.6311717"><ele>65.0</ele><time>2026-05-01T11:44:40.586Z</time></trkpt><trkpt lat="45.32433" lon="10.631015"><ele>65.0</ele><time>2026-05-01T11:44:41.6Z</time></trkpt><trkpt lat="45.3244733" lon="10.6308367"><ele>65.0</ele><time>2026-05-01T11:44:42.585Z</time></trkpt><trkpt lat="45.32462" lon="10.630675"><ele>65.0</ele><time>2026-05-01T11:44:43.595Z</time></trkpt><trkpt lat="45.32476" lon="10.6305367"><ele>65.0</ele><time>2026-05-01T11:44:44.594Z</time></trkpt><trkpt lat="45.3249067" lon="10.6303617"><ele>65.0</ele><time>2026-05-01T11:44:45.599Z</time></trkpt><trkpt lat="45.3250333" lon="10.6302133"><ele>65.0</ele><time>2026-05-01T11:44:46.599Z</time></trkpt><trkpt lat="45.3251517" lon="10.6300583"><ele>65.25</ele><time>2026-05-01T11:44:47.59Z</time></trkpt><trkpt lat="45.325265" lon="10.6299483"><ele>65.5</ele><time>2026-05-01T11:44:48.6Z</time></trkpt><trkpt lat="45.3253633" lon="10.6298167"><ele>65.75</ele><time>2026-05-01T11:44:49.608Z</time></trkpt><trkpt lat="45.3254717" lon="10.6297017"><ele>66.0</ele><time>2026-05-01T11:44:50.594Z</time></trkpt><trkpt lat="45.3255783" lon="10.629555"><ele>66.66666666666667</ele><time>2026-05-01T11:44:51.589Z</time></trkpt><trkpt lat="45.32569" lon="10.6294133"><ele>67.33333333333334</ele><time>2026-05-01T11:44:52.61Z</time></trkpt><trkpt lat="45.3258033" lon="10.6292667"><ele>68.0</ele><time>2026-05-01T11:44:53.595Z</time></trkpt><trkpt lat="45.3259267" lon="10.629125"><ele>68.0</ele><time>2026-05-01T11:44:54.593Z</time></trkpt><trkpt lat="45.3260383" lon="10.6290067"><ele>68.0</ele><time>2026-05-01T11:44:55.592Z</time></trkpt><trkpt lat="45.3261617" lon="10.6288617"><ele>68.0</ele><time>2026-05-01T11:44:56.603Z</time></trkpt><trkpt lat="45.3262667" lon="10.628735"><ele>68.0</ele><time>2026-05-01T11:44:57.597Z</time></trkpt><trkpt lat="45.3263817" lon="10.62858"><ele>67.66666666666667</ele><time>2026-05-01T11:44:58.599Z</time></trkpt><trkpt lat="45.3265" lon="10.6284217"><ele>67.33333333333333</ele><time>2026-05-01T11:44:59.599Z</time></trkpt><trkpt lat="45.3266133" lon="10.6282967"><ele>67.0</ele><time>2026-05-01T11:45:00.593Z</time></trkpt><trkpt lat="45.3267333" lon="10.628135"><ele>67.0</ele><time>2026-05-01T11:45:01.595Z</time></trkpt><trkpt lat="45.3268517" lon="10.6279817"><ele>67.0</ele><time>2026-05-01T11:45:02.606Z</time></trkpt><trkpt lat="45.3269617" lon="10.627865"><ele>67.0</ele><time>2026-05-01T11:45:03.598Z</time></trkpt><trkpt lat="45.3270383" lon="10.6277567"><ele>67.0</ele><time>2026-05-01T11:45:04.59Z</time></trkpt><trkpt lat="45.3271283" lon="10.6276367"><ele>67.25</ele><time>2026-05-01T11:45:05.597Z</time></trkpt><trkpt lat="45.3272417" lon="10.6275083"><ele>67.5</ele><time>2026-05-01T11:45:06.6Z</time></trkpt><trkpt lat="45.3273483" lon="10.6274"><ele>67.75</ele><time>2026-05-01T11:45:07.602Z</time></trkpt><trkpt lat="45.3274567" lon="10.627265"><ele>68.0</ele><time>2026-05-01T11:45:08.598Z</time></trkpt><trkpt lat="45.32756" lon="10.6271467"><ele>68.0</ele><time>2026-05-01T11:45:09.598Z</time></trkpt><trkpt lat="45.327655" lon="10.6270367"><ele>68.0</ele><time>2026-05-01T11:45:10.591Z</time></trkpt><trkpt lat="45.3277467" lon="10.6269233"><ele>68.0</ele><time>2026-05-01T11:45:11.596Z</time></trkpt><trkpt lat="45.32784" lon="10.626795"><ele>68.0</ele><time>2026-05-01T11:45:12.62Z</time></trkpt><trkpt lat="45.327935" lon="10.626655"><ele>68.0</ele><time>2026-05-01T11:45:13.598Z</time></trkpt><trkpt lat="45.3280217" lon="10.6265033"><ele>68.0</ele><time>2026-05-01T11:45:14.595Z</time></trkpt><trkpt lat="45.3281167" lon="10.6263567"><ele>68.0</ele><time>2026-05-01T11:45:15.6Z</time></trkpt><trkpt lat="45.3282067" lon="10.6261933"><ele>68.0</ele><time>2026-05-01T11:45:16.592Z</time></trkpt><trkpt lat="45.3282917" lon="10.6260433"><ele>68.0</ele><time>2026-05-01T11:45:17.6Z</time></trkpt><trkpt lat="45.3283867" lon="10.6258917"><ele>68.0</ele><time>2026-05-01T11:45:18.608Z</time></trkpt><trkpt lat="45.32848" lon="10.6257517"><ele>68.0</ele><time>2026-05-01T11:45:19.594Z</time></trkpt><trkpt lat="45.3285567" lon="10.625595"><ele>68.0</ele><time>2026-05-01T11:45:20.585Z</time></trkpt><trkpt lat="45.3286467" lon="10.6254233"><ele>67.5</ele><time>2026-05-01T11:45:21.613Z</time></trkpt><trkpt lat="45.3287383" lon="10.6252833"><ele>67.0</ele><time>2026-05-01T11:45:22.597Z</time></trkpt><trkpt lat="45.328825" lon="10.625135"><ele>66.5</ele><time>2026-05-01T11:45:23.591Z</time></trkpt><trkpt lat="45.3289333" lon="10.6250017"><ele>66.0</ele><time>2026-05-01T11:45:24.596Z</time></trkpt><trkpt lat="45.3290533" lon="10.6248417"><ele>66.0</ele><time>2026-05-01T11:45:25.595Z</time></trkpt><trkpt lat="45.329155" lon="10.6246917"><ele>66.0</ele><time>2026-05-01T11:45:26.596Z</time></trkpt><trkpt lat="45.3292367" lon="10.624555"><ele>66.0</ele><time>2026-05-01T11:45:27.597Z</time></trkpt><trkpt lat="45.3293267" lon="10.6243967"><ele>66.0</ele><time>2026-05-01T11:45:28.593Z</time></trkpt><trkpt lat="45.32943" lon="10.6242183"><ele>66.33333333333333</ele><time>2026-05-01T11:45:29.593Z</time></trkpt><trkpt lat="45.3295317" lon="10.6240517"><ele>66.66666666666666</ele><time>2026-05-01T11:45:30.64Z</time></trkpt><trkpt lat="45.329655" lon="10.6239067"><ele>67.0</ele><time>2026-05-01T11:45:31.598Z</time></trkpt><trkpt lat="45.3297433" lon="10.6237417"><ele>67.25</ele><time>2026-05-01T11:45:32.593Z</time></trkpt><trkpt lat="45.32983" lon="10.62357"><ele>67.5</ele><time>2026-05-01T11:45:33.599Z</time></trkpt><trkpt lat="45.3298967" lon="10.6234117"><ele>67.75</ele><time>2026-05-01T11:45:34.594Z</time></trkpt><trkpt lat="45.3299617" lon="10.6232317"><ele>68.0</ele><time>2026-05-01T11:45:35.591Z</time></trkpt><trkpt lat="45.33004" lon="10.623035"><ele>68.0</ele><time>2026-05-01T11:45:36.59Z</time></trkpt><trkpt lat="45.3301067" lon="10.6228533"><ele>68.0</ele><time>2026-05-01T11:45:37.596Z</time></trkpt><trkpt lat="45.33018" lon="10.622665"><ele>68.0</ele><time>2026-05-01T11:45:38.599Z</time></trkpt><trkpt lat="45.3302483" lon="10.6224817"><ele>68.0</ele><time>2026-05-01T11:45:39.595Z</time></trkpt><trkpt lat="45.330315" lon="10.6222833"><ele>68.0</ele><time>2026-05-01T11:45:40.595Z</time></trkpt><trkpt lat="45.33039" lon="10.6221033"><ele>68.0</ele><time>2026-05-01T11:45:41.596Z</time></trkpt><trkpt lat="45.3304633" lon="10.6219167"><ele>68.0</ele><time>2026-05-01T11:45:42.59Z</time></trkpt><trkpt lat="45.3305383" lon="10.621765"><ele>68.0</ele><time>2026-05-01T11:45:43.594Z</time></trkpt><trkpt lat="45.33063" lon="10.621625"><ele>68.25</ele><time>2026-05-01T11:45:44.592Z</time></trkpt><trkpt lat="45.3307233" lon="10.6214717"><ele>68.5</ele><time>2026-05-01T11:45:45.594Z</time></trkpt><trkpt lat="45.3308267" lon="10.621315"><ele>68.75</ele><time>2026-05-01T11:45:46.594Z</time></trkpt><trkpt lat="45.33092" lon="10.621165"><ele>69.0</ele><time>2026-05-01T11:45:47.594Z</time></trkpt><trkpt lat="45.3310183" lon="10.62101"><ele>69.33333333333333</ele><time>2026-05-01T11:45:48.598Z</time></trkpt><trkpt lat="45.3311217" lon="10.6208183"><ele>69.66666666666666</ele><time>2026-05-01T11:45:49.594Z</time></trkpt><trkpt lat="45.331225" lon="10.6206583"><ele>70.0</ele><time>2026-05-01T11:45:50.597Z</time></trkpt><trkpt lat="45.33132" lon="10.6204983"><ele>70.0</ele><time>2026-05-01T11:45:51.597Z</time></trkpt><trkpt lat="45.331425" lon="10.6203233"><ele>70.0</ele><time>2026-05-01T11:45:52.595Z</time></trkpt><trkpt lat="45.3315283" lon="10.6201517"><ele>70.0</ele><time>2026-05-01T11:45:53.595Z</time></trkpt><trkpt lat="45.33163" lon="10.6199767"><ele>70.0</ele><time>2026-05-01T11:45:54.595Z</time></trkpt><trkpt lat="45.33172" lon="10.619795"><ele>70.0</ele><time>2026-05-01T11:45:55.59Z</time></trkpt><trkpt lat="45.3318233" lon="10.619635"><ele>70.0</ele><time>2026-05-01T11:45:56.598Z</time></trkpt><trkpt lat="45.33192" lon="10.6194483"><ele>70.66666666666666</ele><time>2026-05-01T11:45:57.591Z</time></trkpt><trkpt lat="45.332025" lon="10.6192567"><ele>71.33333333333333</ele><time>2026-05-01T11:45:58.598Z</time></trkpt><trkpt lat="45.3321467" lon="10.61909"><ele>72.0</ele><time>2026-05-01T11:45:59.6Z</time></trkpt><trkpt lat="45.33226" lon="10.6189067"><ele>72.0</ele><time>2026-05-01T11:46:00.597Z</time></trkpt><trkpt lat="45.33236" lon="10.6187283"><ele>72.0</ele><time>2026-05-01T11:46:01.592Z</time></trkpt><trkpt lat="45.3324383" lon="10.6185283"><ele>72.0</ele><time>2026-05-01T11:46:02.597Z</time></trkpt><trkpt lat="45.3325333" lon="10.6183083"><ele>71.66666666666667</ele><time>2026-05-01T11:46:03.605Z</time></trkpt><trkpt lat="45.3326467" lon="10.6181133"><ele>71.33333333333334</ele><time>2026-05-01T11:46:04.594Z</time></trkpt><trkpt lat="45.3327583" lon="10.61792"><ele>71.0</ele><time>2026-05-01T11:46:05.597Z</time></trkpt><trkpt lat="45.3328567" lon="10.6177133"><ele>71.66666666666667</ele><time>2026-05-01T11:46:06.598Z</time></trkpt><trkpt lat="45.3329667" lon="10.617535"><ele>72.33333333333333</ele><time>2026-05-01T11:46:07.594Z</time></trkpt><trkpt lat="45.3330783" lon="10.6173533"><ele>73.0</ele><time>2026-05-01T11:46:08.588Z</time></trkpt><trkpt lat="45.3331667" lon="10.61716"><ele>73.25</ele><time>2026-05-01T11:46:09.599Z</time></trkpt><trkpt lat="45.3332567" lon="10.6169933"><ele>73.5</ele><time>2026-05-01T11:46:10.593Z</time></trkpt><trkpt lat="45.3333333" lon="10.6168233"><ele>73.75</ele><time>2026-05-01T11:46:11.597Z</time></trkpt><trkpt lat="45.3333883" lon="10.6166433"><ele>74.0</ele><time>2026-05-01T11:46:12.602Z</time></trkpt><trkpt lat="45.3335133" lon="10.6164683"><ele>74.0</ele><time>2026-05-01T11:46:13.594Z</time></trkpt><trkpt lat="45.333595" lon="10.6163283"><ele>74.0</ele><time>2026-05-01T11:46:14.591Z</time></trkpt><trkpt lat="45.3336683" lon="10.61618"><ele>74.0</ele><time>2026-05-01T11:46:15.597Z</time></trkpt><trkpt lat="45.3337583" lon="10.6160517"><ele>74.0</ele><time>2026-05-01T11:46:16.597Z</time></trkpt><trkpt lat="45.33384" lon="10.6159417"><ele>74.5</ele><time>2026-05-01T11:46:17.614Z</time></trkpt><trkpt lat="45.3339083" lon="10.6158067"><ele>75.0</ele><time>2026-05-01T11:46:18.617Z</time></trkpt><trkpt lat="45.3340017" lon="10.6156833"><ele>75.5</ele><time>2026-05-01T11:46:19.597Z</time></trkpt><trkpt lat="45.3340983" lon="10.6155767"><ele>76.0</ele><time>2026-05-01T11:46:20.601Z</time></trkpt><trkpt lat="45.334165" lon="10.6154367"><ele>75.39999999999999</ele><time>2026-05-01T11:46:21.602Z</time></trkpt><trkpt lat="45.3342033" lon="10.61528"><ele>74.8</ele><time>2026-05-01T11:46:22.593Z</time></trkpt><trkpt lat="45.3342567" lon="10.6151367"><ele>74.19999999999999</ele><time>2026-05-01T11:46:23.593Z</time></trkpt><trkpt lat="45.3342883" lon="10.61503"><ele>73.6</ele><time>2026-05-01T11:46:24.602Z</time></trkpt><trkpt lat="45.33432" lon="10.61495"><ele>73.0</ele><time>2026-05-01T11:46:25.602Z</time></trkpt><trkpt lat="45.3342517" lon="10.6150233"><ele>73.0</ele><time>2026-05-01T11:46:36.593Z</time></trkpt><trkpt lat="45.3342167" lon="10.61512"><ele>73.0</ele><time>2026-05-01T11:46:37.598Z</time></trkpt><trkpt lat="45.3341717" lon="10.6152617"><ele>73.0</ele><time>2026-05-01T11:46:38.623Z</time></trkpt><trkpt lat="45.33412" lon="10.6154217"><ele>73.0</ele><time>2026-05-01T11:46:39.599Z</time></trkpt><trkpt lat="45.334045" lon="10.6155683"><ele>73.0</ele><time>2026-05-01T11:46:40.593Z</time></trkpt><trkpt lat="45.3339533" lon="10.61571"><ele>73.2</ele><time>2026-05-01T11:46:41.594Z</time></trkpt><trkpt lat="45.33389" lon="10.615825"><ele>73.4</ele><time>2026-05-01T11:46:42.601Z</time></trkpt><trkpt lat="45.3338517" lon="10.615925"><ele>73.60000000000001</ele><time>2026-05-01T11:46:43.597Z</time></trkpt><trkpt lat="45.3338467" lon="10.6160783"><ele>73.8</ele><time>2026-05-01T11:46:45.602Z</time></trkpt><trkpt lat="45.333915" lon="10.6162183"><ele>74.0</ele><time>2026-05-01T11:46:47.613Z</time></trkpt><trkpt lat="45.3339733" lon="10.6162817"><ele>74.4</ele><time>2026-05-01T11:46:48.594Z</time></trkpt><trkpt lat="45.3340617" lon="10.616325"><ele>74.80000000000001</ele><time>2026-05-01T11:46:49.593Z</time></trkpt><trkpt lat="45.3341567" lon="10.6163783"><ele>75.19999999999999</ele><time>2026-05-01T11:46:50.595Z</time></trkpt><trkpt lat="45.3342717" lon="10.6164417"><ele>75.6</ele><time>2026-05-01T11:46:51.595Z</time></trkpt><trkpt lat="45.3343767" lon="10.6165"><ele>76.0</ele><time>2026-05-01T11:46:52.593Z</time></trkpt><trkpt lat="45.33447" lon="10.6165583"><ele>76.0</ele><time>2026-05-01T11:46:53.591Z</time></trkpt><trkpt lat="45.3345517" lon="10.6166117"><ele>76.0</ele><time>2026-05-01T11:46:54.595Z</time></trkpt><trkpt lat="45.334635" lon="10.6166583"><ele>76.0</ele><time>2026-05-01T11:46:55.588Z</time></trkpt><trkpt lat="45.3347183" lon="10.6167033"><ele>76.0</ele><time>2026-05-01T11:46:56.596Z</time></trkpt><trkpt lat="45.3348117" lon="10.6167433"><ele>76.0</ele><time>2026-05-01T11:46:57.595Z</time></trkpt><trkpt lat="45.334915" lon="10.6167967"><ele>76.2</ele><time>2026-05-01T11:46:58.602Z</time></trkpt><trkpt lat="45.33501" lon="10.61687"><ele>76.39999999999999</ele><time>2026-05-01T11:46:59.593Z</time></trkpt><trkpt lat="45.3350983" lon="10.6169167"><ele>76.6</ele><time>2026-05-01T11:47:00.597Z</time></trkpt><trkpt lat="45.3351933" lon="10.6169867"><ele>76.8</ele><time>2026-05-01T11:47:01.592Z</time></trkpt><trkpt lat="45.33528" lon="10.6170383"><ele>77.0</ele><time>2026-05-01T11:47:02.599Z</time></trkpt><trkpt lat="45.3353567" lon="10.6171133"><ele>77.0</ele><time>2026-05-01T11:47:03.59Z</time></trkpt><trkpt lat="45.3354417" lon="10.61718"><ele>77.0</ele><time>2026-05-01T11:47:04.597Z</time></trkpt><trkpt lat="45.3355383" lon="10.6172583"><ele>77.0</ele><time>2026-05-01T11:47:05.595Z</time></trkpt><trkpt lat="45.3356317" lon="10.6173183"><ele>77.0</ele><time>2026-05-01T11:47:06.594Z</time></trkpt><trkpt lat="45.335735" lon="10.6173667"><ele>77.0</ele><time>2026-05-01T11:47:07.595Z</time></trkpt><trkpt lat="45.3358367" lon="10.61741"><ele>77.4</ele><time>2026-05-01T11:47:08.593Z</time></trkpt><trkpt lat="45.3359217" lon="10.6174667"><ele>77.80000000000001</ele><time>2026-05-01T11:47:09.593Z</time></trkpt><trkpt lat="45.33603" lon="10.6175233"><ele>78.2</ele><time>2026-05-01T11:47:10.596Z</time></trkpt><trkpt lat="45.3361317" lon="10.6175883"><ele>78.60000000000001</ele><time>2026-05-01T11:47:11.599Z</time></trkpt><trkpt lat="45.3362467" lon="10.617655"><ele>79.0</ele><time>2026-05-01T11:47:12.603Z</time></trkpt><trkpt lat="45.336335" lon="10.6177117"><ele>79.2</ele><time>2026-05-01T11:47:13.591Z</time></trkpt><trkpt lat="45.3364217" lon="10.617785"><ele>79.4</ele><time>2026-05-01T11:47:14.595Z</time></trkpt><trkpt lat="45.3365217" lon="10.6178567"><ele>79.6</ele><time>2026-05-01T11:47:15.594Z</time></trkpt><trkpt lat="45.3366183" lon="10.61793"><ele>79.8</ele><time>2026-05-01T11:47:16.597Z</time></trkpt><trkpt lat="45.3366867" lon="10.61797"><ele>80.0</ele><time>2026-05-01T11:47:17.595Z</time></trkpt><trkpt lat="45.336765" lon="10.61802"><ele>80.33333333333334</ele><time>2026-05-01T11:47:18.601Z</time></trkpt><trkpt lat="45.3368417" lon="10.6180533"><ele>80.66666666666667</ele><time>2026-05-01T11:47:19.598Z</time></trkpt><trkpt lat="45.3369167" lon="10.6180833"><ele>81.0</ele><time>2026-05-01T11:47:20.595Z</time></trkpt><trkpt lat="45.3369883" lon="10.6181183"><ele>81.33333333333333</ele><time>2026-05-01T11:47:21.59Z</time></trkpt><trkpt lat="45.3370683" lon="10.6181533"><ele>81.66666666666666</ele><time>2026-05-01T11:47:22.594Z</time></trkpt><trkpt lat="45.3371533" lon="10.6181883"><ele>82.0</ele><time>2026-05-01T11:47:23.599Z</time></trkpt><trkpt lat="45.337245" lon="10.6182233"><ele>82.19999999999999</ele><time>2026-05-01T11:47:24.602Z</time></trkpt><trkpt lat="45.33734" lon="10.6182517"><ele>82.4</ele><time>2026-05-01T11:47:25.591Z</time></trkpt><trkpt lat="45.3374333" lon="10.61831"><ele>82.6</ele><time>2026-05-01T11:47:26.595Z</time></trkpt><trkpt lat="45.3375233" lon="10.61835"><ele>82.80000000000001</ele><time>2026-05-01T11:47:27.599Z</time></trkpt><trkpt lat="45.3376267" lon="10.6183917"><ele>83.0</ele><time>2026-05-01T11:47:28.593Z</time></trkpt><trkpt lat="45.3377233" lon="10.6184183"><ele>83.0</ele><time>2026-05-01T11:47:29.601Z</time></trkpt><trkpt lat="45.33781" lon="10.6184267"><ele>83.0</ele><time>2026-05-01T11:47:30.593Z</time></trkpt><trkpt lat="45.3379033" lon="10.6184217"><ele>83.0</ele><time>2026-05-01T11:47:31.592Z</time></trkpt><trkpt lat="45.3380017" lon="10.6184133"><ele>83.0</ele><time>2026-05-01T11:47:32.591Z</time></trkpt><trkpt lat="45.3381167" lon="10.6184117"><ele>83.0</ele><time>2026-05-01T11:47:33.593Z</time></trkpt><trkpt lat="45.338225" lon="10.6183767"><ele>83.4</ele><time>2026-05-01T11:47:34.591Z</time></trkpt><trkpt lat="45.3383383" lon="10.6183383"><ele>83.80000000000001</ele><time>2026-05-01T11:47:35.593Z</time></trkpt><trkpt lat="45.3384417" lon="10.6183317"><ele>84.2</ele><time>2026-05-01T11:47:36.596Z</time></trkpt><trkpt lat="45.338555" lon="10.6183417"><ele>84.6</ele><time>2026-05-01T11:47:37.59Z</time></trkpt><trkpt lat="45.3386583" lon="10.618335"><ele>85.0</ele><time>2026-05-01T11:47:38.595Z</time></trkpt><trkpt lat="45.3387583" lon="10.6183217"><ele>85.0</ele><time>2026-05-01T11:47:39.596Z</time></trkpt><trkpt lat="45.33886" lon="10.6183117"><ele>85.0</ele><time>2026-05-01T11:47:40.595Z</time></trkpt><trkpt lat="45.3389617" lon="10.6182983"><ele>85.0</ele><time>2026-05-01T11:47:41.59Z</time></trkpt><trkpt lat="45.3390633" lon="10.61829"><ele>85.0</ele><time>2026-05-01T11:47:42.599Z</time></trkpt><trkpt lat="45.3391733" lon="10.6182783"><ele>85.0</ele><time>2026-05-01T11:47:43.594Z</time></trkpt><trkpt lat="45.339275" lon="10.6182667"><ele>85.5</ele><time>2026-05-01T11:47:44.589Z</time></trkpt><trkpt lat="45.3393883" lon="10.61826"><ele>86.0</ele><time>2026-05-01T11:47:45.595Z</time></trkpt><trkpt lat="45.3394983" lon="10.6182517"><ele>86.5</ele><time>2026-05-01T11:47:46.59Z</time></trkpt><trkpt lat="45.33961" lon="10.6182333"><ele>87.0</ele><time>2026-05-01T11:47:47.593Z</time></trkpt><trkpt lat="45.339725" lon="10.6182083"><ele>87.19999999999999</ele><time>2026-05-01T11:47:48.591Z</time></trkpt><trkpt lat="45.3398367" lon="10.618195"><ele>87.4</ele><time>2026-05-01T11:47:49.592Z</time></trkpt><trkpt lat="45.3399433" lon="10.6181933"><ele>87.6</ele><time>2026-05-01T11:47:50.592Z</time></trkpt><trkpt lat="45.3400567" lon="10.6182083"><ele>87.80000000000001</ele><time>2026-05-01T11:47:51.6Z</time></trkpt><trkpt lat="45.34017" lon="10.6182283"><ele>88.0</ele><time>2026-05-01T11:47:52.583Z</time></trkpt><trkpt lat="45.3402883" lon="10.6182683"><ele>88.0</ele><time>2026-05-01T11:47:53.6Z</time></trkpt><trkpt lat="45.3404017" lon="10.6182817"><ele>88.0</ele><time>2026-05-01T11:47:54.595Z</time></trkpt><trkpt lat="45.340525" lon="10.6183"><ele>88.0</ele><time>2026-05-01T11:47:55.601Z</time></trkpt><trkpt lat="45.3406433" lon="10.6183183"><ele>88.0</ele><time>2026-05-01T11:47:56.594Z</time></trkpt><trkpt lat="45.3407483" lon="10.6183283"><ele>88.33333333333333</ele><time>2026-05-01T11:47:57.592Z</time></trkpt><trkpt lat="45.3408383" lon="10.6183267"><ele>88.66666666666666</ele><time>2026-05-01T11:47:58.601Z</time></trkpt><trkpt lat="45.3409217" lon="10.618305"><ele>89.0</ele><time>2026-05-01T11:47:59.593Z</time></trkpt><trkpt lat="45.3410017" lon="10.618295"><ele>89.33333333333333</ele><time>2026-05-01T11:48:00.601Z</time></trkpt><trkpt lat="45.3410833" lon="10.618285"><ele>89.66666666666667</ele><time>2026-05-01T11:48:01.602Z</time></trkpt><trkpt lat="45.341165" lon="10.61827"><ele>90.0</ele><time>2026-05-01T11:48:02.588Z</time></trkpt><trkpt lat="45.3412283" lon="10.6182583"><ele>90.0</ele><time>2026-05-01T11:48:03.596Z</time></trkpt><trkpt lat="45.3412917" lon="10.6182533"><ele>90.0</ele><time>2026-05-01T11:48:04.592Z</time></trkpt><trkpt lat="45.34136" lon="10.6182467"><ele>90.0</ele><time>2026-05-01T11:48:05.59Z</time></trkpt><trkpt lat="45.3414333" lon="10.61824"><ele>90.0</ele><time>2026-05-01T11:48:06.599Z</time></trkpt><trkpt lat="45.34152" lon="10.6182267"><ele>90.0</ele><time>2026-05-01T11:48:07.596Z</time></trkpt><trkpt lat="45.3416117" lon="10.6182167"><ele>90.0</ele><time>2026-05-01T11:48:08.603Z</time></trkpt><trkpt lat="45.341715" lon="10.6182017"><ele>90.33333333333333</ele><time>2026-05-01T11:48:09.596Z</time></trkpt><trkpt lat="45.34179" lon="10.618215"><ele>90.66666666666667</ele><time>2026-05-01T11:48:10.594Z</time></trkpt><trkpt lat="45.3418533" lon="10.618215"><ele>91.0</ele><time>2026-05-01T11:48:11.6Z</time></trkpt><trkpt lat="45.34197" lon="10.6182367"><ele>91.33333333333334</ele><time>2026-05-01T11:48:13.604Z</time></trkpt><trkpt lat="45.3420383" lon="10.61819"><ele>91.66666666666667</ele><time>2026-05-01T11:48:14.6Z</time></trkpt><trkpt lat="45.342095" lon="10.6181133"><ele>92.0</ele><time>2026-05-01T11:48:15.594Z</time></trkpt><trkpt lat="45.34216" lon="10.6180217"><ele>92.33333333333334</ele><time>2026-05-01T11:48:16.592Z</time></trkpt><trkpt lat="45.342225" lon="10.6179217"><ele>92.66666666666667</ele><time>2026-05-01T11:48:17.595Z</time></trkpt><trkpt lat="45.342285" lon="10.6178367"><ele>93.0</ele><time>2026-05-01T11:48:18.595Z</time></trkpt><trkpt lat="45.3423317" lon="10.6177617"><ele>93.33333333333333</ele><time>2026-05-01T11:48:19.594Z</time></trkpt><trkpt lat="45.3424017" lon="10.6176567"><ele>93.66666666666666</ele><time>2026-05-01T11:48:21.592Z</time></trkpt><trkpt lat="45.3424717" lon="10.6177133"><ele>94.0</ele><time>2026-05-01T11:48:28.593Z</time></trkpt><trkpt lat="45.3425033" lon="10.6177967"><ele>94.0</ele><time>2026-05-01T11:48:29.591Z</time></trkpt><trkpt lat="45.3425433" lon="10.6179033"><ele>94.0</ele><time>2026-05-01T11:48:30.604Z</time></trkpt><trkpt lat="45.3425917" lon="10.618015"><ele>94.0</ele><time>2026-05-01T11:48:31.598Z</time></trkpt><trkpt lat="45.3426483" lon="10.6181433"><ele>94.0</ele><time>2026-05-01T11:48:32.595Z</time></trkpt><trkpt lat="45.3427433" lon="10.618265"><ele>94.0</ele><time>2026-05-01T11:48:33.592Z</time></trkpt><trkpt lat="45.3428367" lon="10.61839"><ele>94.0</ele><time>2026-05-01T11:48:34.589Z</time></trkpt><trkpt lat="45.34292" lon="10.6185467"><ele>94.0</ele><time>2026-05-01T11:48:35.593Z</time></trkpt><trkpt lat="45.3430217" lon="10.6186933"><ele>94.0</ele><time>2026-05-01T11:48:36.604Z</time></trkpt><trkpt lat="45.343135" lon="10.6188033"><ele>94.0</ele><time>2026-05-01T11:48:37.6Z</time></trkpt><trkpt lat="45.3432417" lon="10.618945"><ele>96.0</ele><time>2026-05-01T11:48:38.595Z</time></trkpt><trkpt lat="45.343365" lon="10.6190767"><ele>98.0</ele><time>2026-05-01T11:48:39.597Z</time></trkpt><trkpt lat="45.34349" lon="10.619235"><ele>100.0</ele><time>2026-05-01T11:48:40.597Z</time></trkpt><trkpt lat="45.3435933" lon="10.6193767"><ele>99.0</ele><time>2026-05-01T11:48:41.59Z</time></trkpt><trkpt lat="45.3437083" lon="10.61951"><ele>98.0</ele><time>2026-05-01T11:48:42.596Z</time></trkpt><trkpt lat="45.3438083" lon="10.619655"><ele>97.0</ele><time>2026-05-01T11:48:43.599Z</time></trkpt><trkpt lat="45.3439133" lon="10.6198067"><ele>96.0</ele><time>2026-05-01T11:48:44.629Z</time></trkpt><trkpt lat="45.3440333" lon="10.6199267"><ele>98.0</ele><time>2026-05-01T11:48:45.589Z</time></trkpt><trkpt lat="45.3441" lon="10.6200283"><ele>100.0</ele><time>2026-05-01T11:48:46.593Z</time></trkpt><trkpt lat="45.3441633" lon="10.6202333"><ele>102.0</ele><time>2026-05-01T11:48:47.594Z</time></trkpt><trkpt lat="45.3442333" lon="10.62037"><ele>104.0</ele><time>2026-05-01T11:48:48.593Z</time></trkpt><trkpt lat="45.3443" lon="10.620535"><ele>104.0</ele><time>2026-05-01T11:48:49.601Z</time></trkpt><trkpt lat="45.34438" lon="10.6206117"><ele>104.0</ele><time>2026-05-01T11:48:50.588Z</time></trkpt><trkpt lat="45.34448" lon="10.620715"><ele>104.0</ele><time>2026-05-01T11:48:51.603Z</time></trkpt><trkpt lat="45.34459" lon="10.62078"><ele>104.0</ele><time>2026-05-01T11:48:52.601Z</time></trkpt><trkpt lat="45.3446783" lon="10.620825"><ele>104.0</ele><time>2026-05-01T11:48:53.595Z</time></trkpt><trkpt lat="45.34477" lon="10.6208333"><ele>106.16666666666666</ele><time>2026-05-01T11:48:54.593Z</time></trkpt><trkpt lat="45.3448583" lon="10.6208583"><ele>108.33333333333333</ele><time>2026-05-01T11:48:56.593Z</time></trkpt><trkpt lat="45.3449183" lon="10.6208233"><ele>110.5</ele><time>2026-05-01T11:48:57.593Z</time></trkpt><trkpt lat="45.34496" lon="10.6207483"><ele>112.66666666666666</ele><time>2026-05-01T11:48:58.598Z</time></trkpt><trkpt lat="45.3449933" lon="10.6206583"><ele>114.83333333333333</ele><time>2026-05-01T11:48:59.597Z</time></trkpt><trkpt lat="45.3450383" lon="10.6205033"><ele>117.0</ele><time>2026-05-01T11:49:00.609Z</time></trkpt><trkpt lat="45.345075" lon="10.6203217"><ele>117.5</ele><time>2026-05-01T11:49:01.601Z</time></trkpt><trkpt lat="45.345105" lon="10.620135"><ele>118.0</ele><time>2026-05-01T11:49:02.593Z</time></trkpt><trkpt lat="45.3451417" lon="10.61995"><ele>118.5</ele><time>2026-05-01T11:49:03.6Z</time></trkpt><trkpt lat="45.34518" lon="10.61976"><ele>119.0</ele><time>2026-05-01T11:49:04.602Z</time></trkpt><trkpt lat="45.345225" lon="10.61956"><ele>118.75</ele><time>2026-05-01T11:49:05.607Z</time></trkpt><trkpt lat="45.3452733" lon="10.6193533"><ele>118.5</ele><time>2026-05-01T11:49:06.594Z</time></trkpt><trkpt lat="45.3453183" lon="10.61917"><ele>118.25</ele><time>2026-05-01T11:49:07.593Z</time></trkpt><trkpt lat="45.3453717" lon="10.6190017"><ele>118.0</ele><time>2026-05-01T11:49:08.601Z</time></trkpt><trkpt lat="45.3454483" lon="10.6188217"><ele>118.0</ele><time>2026-05-01T11:49:09.593Z</time></trkpt><trkpt lat="45.3455233" lon="10.61869"><ele>118.0</ele><time>2026-05-01T11:49:10.591Z</time></trkpt><trkpt lat="45.3456017" lon="10.6185333"><ele>118.0</ele><time>2026-05-01T11:49:11.602Z</time></trkpt><trkpt lat="45.34568" lon="10.61837"><ele>118.0</ele><time>2026-05-01T11:49:12.595Z</time></trkpt><trkpt lat="45.3457583" lon="10.6181817"><ele>118.0</ele><time>2026-05-01T11:49:13.593Z</time></trkpt><trkpt lat="45.3458483" lon="10.6179867"><ele>118.0</ele><time>2026-05-01T11:49:14.599Z</time></trkpt><trkpt lat="45.345935" lon="10.6178033"><ele>118.0</ele><time>2026-05-01T11:49:15.591Z</time></trkpt><trkpt lat="45.3460133" lon="10.617635"><ele>118.0</ele><time>2026-05-01T11:49:16.589Z</time></trkpt><trkpt lat="45.3461033" lon="10.61747"><ele>118.0</ele><time>2026-05-01T11:49:17.606Z</time></trkpt><trkpt lat="45.346185" lon="10.6173083"><ele>118.0</ele><time>2026-05-01T11:49:18.596Z</time></trkpt><trkpt lat="45.3462783" lon="10.617165"><ele>118.0</ele><time>2026-05-01T11:49:19.593Z</time></trkpt><trkpt lat="45.3463633" lon="10.6170183"><ele>119.0</ele><time>2026-05-01T11:49:20.61Z</time></trkpt><trkpt lat="45.3464483" lon="10.6168733"><ele>120.0</ele><time>2026-05-01T11:49:21.597Z</time></trkpt><trkpt lat="45.34653" lon="10.6167367"><ele>121.0</ele><time>2026-05-01T11:49:22.601Z</time></trkpt><trkpt lat="45.346605" lon="10.6165983"><ele>122.0</ele><time>2026-05-01T11:49:23.598Z</time></trkpt><trkpt lat="45.3466783" lon="10.6164733"><ele>122.0</ele><time>2026-05-01T11:49:24.597Z</time></trkpt><trkpt lat="45.346755" lon="10.6163317"><ele>122.0</ele><time>2026-05-01T11:49:25.596Z</time></trkpt><trkpt lat="45.3468367" lon="10.6161583"><ele>122.0</ele><time>2026-05-01T11:49:26.592Z</time></trkpt><trkpt lat="45.346915" lon="10.61601"><ele>122.0</ele><time>2026-05-01T11:49:27.6Z</time></trkpt><trkpt lat="45.3469883" lon="10.6158483"><ele>121.5</ele><time>2026-05-01T11:49:28.591Z</time></trkpt><trkpt lat="45.3470617" lon="10.6156683"><ele>121.0</ele><time>2026-05-01T11:49:29.589Z</time></trkpt><trkpt lat="45.3471217" lon="10.6155033"><ele>120.5</ele><time>2026-05-01T11:49:30.598Z</time></trkpt><trkpt lat="45.3471733" lon="10.6153367"><ele>120.0</ele><time>2026-05-01T11:49:31.596Z</time></trkpt><trkpt lat="45.3472167" lon="10.6151317"><ele>121.25</ele><time>2026-05-01T11:49:32.59Z</time></trkpt><trkpt lat="45.3472617" lon="10.614945"><ele>122.5</ele><time>2026-05-01T11:49:33.595Z</time></trkpt><trkpt lat="45.347315" lon="10.61477"><ele>123.75</ele><time>2026-05-01T11:49:34.593Z</time></trkpt><trkpt lat="45.347365" lon="10.6146017"><ele>125.0</ele><time>2026-05-01T11:49:35.603Z</time></trkpt><trkpt lat="45.3474283" lon="10.6144233"><ele>125.66666666666666</ele><time>2026-05-01T11:49:36.593Z</time></trkpt><trkpt lat="45.3474633" lon="10.6142"><ele>126.33333333333334</ele><time>2026-05-01T11:49:37.588Z</time></trkpt><trkpt lat="45.34749" lon="10.61392"><ele>127.0</ele><time>2026-05-01T11:49:38.601Z</time></trkpt><trkpt lat="45.347535" lon="10.6136783"><ele>128.5</ele><time>2026-05-01T11:49:39.603Z</time></trkpt><trkpt lat="45.3475883" lon="10.6134833"><ele>130.0</ele><time>2026-05-01T11:49:40.598Z</time></trkpt><trkpt lat="45.34764" lon="10.6132933"><ele>131.5</ele><time>2026-05-01T11:49:41.591Z</time></trkpt><trkpt lat="45.347695" lon="10.61312"><ele>133.0</ele><time>2026-05-01T11:49:42.589Z</time></trkpt><trkpt lat="45.3477583" lon="10.6129617"><ele>134.75</ele><time>2026-05-01T11:49:43.591Z</time></trkpt><trkpt lat="45.34782" lon="10.61279"><ele>136.5</ele><time>2026-05-01T11:49:44.599Z</time></trkpt><trkpt lat="45.347895" lon="10.6126433"><ele>138.25</ele><time>2026-05-01T11:49:45.596Z</time></trkpt><trkpt lat="45.3479533" lon="10.612495"><ele>140.0</ele><time>2026-05-01T11:49:46.603Z</time></trkpt><trkpt lat="45.3480233" lon="10.6123583"><ele>142.5</ele><time>2026-05-01T11:49:47.597Z</time></trkpt><trkpt lat="45.3480933" lon="10.6122233"><ele>145.0</ele><time>2026-05-01T11:49:48.591Z</time></trkpt><trkpt lat="45.3481967" lon="10.6120617"><ele>147.5</ele><time>2026-05-01T11:49:49.6Z</time></trkpt><trkpt lat="45.3482733" lon="10.6119317"><ele>150.0</ele><time>2026-05-01T11:49:50.591Z</time></trkpt><trkpt lat="45.3483417" lon="10.6117867"><ele>151.25</ele><time>2026-05-01T11:49:51.594Z</time></trkpt><trkpt lat="45.3484083" lon="10.6116283"><ele>152.5</ele><time>2026-05-01T11:49:52.608Z</time></trkpt><trkpt lat="45.3484383" lon="10.611435"><ele>153.75</ele><time>2026-05-01T11:49:53.598Z</time></trkpt><trkpt lat="45.3484733" lon="10.6112883"><ele>155.0</ele><time>2026-05-01T11:49:54.62Z</time></trkpt><trkpt lat="45.3484683" lon="10.6111617"><ele>155.2</ele><time>2026-05-01T11:49:55.6Z</time></trkpt><trkpt lat="45.3484117" lon="10.6110133"><ele>155.4</ele><time>2026-05-01T11:49:56.599Z</time></trkpt><trkpt lat="45.3483667" lon="10.6108833"><ele>155.6</ele><time>2026-05-01T11:49:57.6Z</time></trkpt><trkpt lat="45.3482917" lon="10.610755"><ele>155.8</ele><time>2026-05-01T11:49:58.595Z</time></trkpt><trkpt lat="45.348255" lon="10.6106417"><ele>156.0</ele><time>2026-05-01T11:49:59.598Z</time></trkpt><trkpt lat="45.34822" lon="10.6105033"><ele>156.0</ele><time>2026-05-01T11:50:00.593Z</time></trkpt><trkpt lat="45.3481833" lon="10.61033"><ele>156.0</ele><time>2026-05-01T11:50:01.599Z</time></trkpt><trkpt lat="45.34816" lon="10.61016"><ele>156.0</ele><time>2026-05-01T11:50:02.588Z</time></trkpt><trkpt lat="45.348115" lon="10.6099633"><ele>156.0</ele><time>2026-05-01T11:50:03.597Z</time></trkpt><trkpt lat="45.3481033" lon="10.6097683"><ele>155.75</ele><time>2026-05-01T11:50:04.62Z</time></trkpt><trkpt lat="45.3481133" lon="10.6096"><ele>155.5</ele><time>2026-05-01T11:50:05.593Z</time></trkpt><trkpt lat="45.348145" lon="10.60943"><ele>155.25</ele><time>2026-05-01T11:50:06.599Z</time></trkpt><trkpt lat="45.3481767" lon="10.6092667"><ele>155.0</ele><time>2026-05-01T11:50:07.598Z</time></trkpt><trkpt lat="45.3481983" lon="10.60908"><ele>155.0</ele><time>2026-05-01T11:50:08.598Z</time></trkpt><trkpt lat="45.3482217" lon="10.608895"><ele>155.0</ele><time>2026-05-01T11:50:09.598Z</time></trkpt><trkpt lat="45.34824" lon="10.6087167"><ele>155.0</ele><time>2026-05-01T11:50:10.591Z</time></trkpt><trkpt lat="45.3482667" lon="10.6085817"><ele>155.0</ele><time>2026-05-01T11:50:11.593Z</time></trkpt><trkpt lat="45.3482917" lon="10.6084817"><ele>155.0</ele><time>2026-05-01T11:50:12.596Z</time></trkpt><trkpt lat="45.3483" lon="10.608385"><ele>155.33333333333331</ele><time>2026-05-01T11:50:13.598Z</time></trkpt><trkpt lat="45.3483683" lon="10.60832"><ele>155.66666666666666</ele><time>2026-05-01T11:50:15.601Z</time></trkpt><trkpt lat="45.34849" lon="10.60832"><ele>156.0</ele><time>2026-05-01T11:50:17.59Z</time></trkpt><trkpt lat="45.3485567" lon="10.60835"><ele>156.33333333333334</ele><time>2026-05-01T11:50:18.596Z</time></trkpt><trkpt lat="45.34863" lon="10.6083483"><ele>156.66666666666669</ele><time>2026-05-01T11:50:19.594Z</time></trkpt><trkpt lat="45.3487083" lon="10.6083433"><ele>157.0</ele><time>2026-05-01T11:50:20.589Z</time></trkpt><trkpt lat="45.3487933" lon="10.6083267"><ele>157.0</ele><time>2026-05-01T11:50:21.595Z</time></trkpt><trkpt lat="45.348875" lon="10.6083083"><ele>157.0</ele><time>2026-05-01T11:50:22.6Z</time></trkpt><trkpt lat="45.3489617" lon="10.6082817"><ele>157.0</ele><time>2026-05-01T11:50:23.59Z</time></trkpt><trkpt lat="45.34905" lon="10.60825"><ele>157.0</ele><time>2026-05-01T11:50:24.591Z</time></trkpt><trkpt lat="45.349135" lon="10.6082217"><ele>157.0</ele><time>2026-05-01T11:50:25.594Z</time></trkpt><trkpt lat="45.3492167" lon="10.608195"><ele>157.0</ele><time>2026-05-01T11:50:26.593Z</time></trkpt><trkpt lat="45.3493033" lon="10.6081683"><ele>159.0</ele><time>2026-05-01T11:50:27.591Z</time></trkpt><trkpt lat="45.3493883" lon="10.608135"><ele>161.0</ele><time>2026-05-01T11:50:28.6Z</time></trkpt><trkpt lat="45.3494767" lon="10.608105"><ele>163.0</ele><time>2026-05-01T11:50:29.599Z</time></trkpt><trkpt lat="45.34956" lon="10.6080833"><ele>165.0</ele><time>2026-05-01T11:50:30.588Z</time></trkpt><trkpt lat="45.3496333" lon="10.6080683"><ele>167.0</ele><time>2026-05-01T11:50:31.593Z</time></trkpt><trkpt lat="45.3497017" lon="10.6080567"><ele>169.0</ele><time>2026-05-01T11:50:32.582Z</time></trkpt><trkpt lat="45.3497883" lon="10.6080433"><ele>171.0</ele><time>2026-05-01T11:50:34.599Z</time></trkpt><trkpt lat="45.3499017" lon="10.6081617"><ele>173.0</ele><time>2026-05-01T11:50:36.588Z</time></trkpt><trkpt lat="45.3500017" lon="10.608255"><ele>175.0</ele><time>2026-05-01T11:50:37.592Z</time></trkpt><trkpt lat="45.3501033" lon="10.6083617"><ele>177.0</ele><time>2026-05-01T11:50:38.622Z</time></trkpt><trkpt lat="45.350195" lon="10.6084633"><ele>177.0</ele><time>2026-05-01T11:50:39.604Z</time></trkpt><trkpt lat="45.3502767" lon="10.60856"><ele>177.0</ele><time>2026-05-01T11:50:40.591Z</time></trkpt><trkpt lat="45.35033" lon="10.6086233"><ele>177.0</ele><time>2026-05-01T11:50:41.602Z</time></trkpt><trkpt lat="45.3503883" lon="10.6085617"><ele>177.0</ele><time>2026-05-01T11:50:44.599Z</time></trkpt><trkpt lat="45.3504417" lon="10.608665"><ele>177.0</ele><time>2026-05-01T11:50:47.593Z</time></trkpt><trkpt lat="45.350505" lon="10.60882"><ele>177.0</ele><time>2026-05-01T11:50:49.59Z</time></trkpt><trkpt lat="45.35054" lon="10.6089283"><ele>177.0</ele><time>2026-05-01T11:50:50.595Z</time></trkpt><trkpt lat="45.350585" lon="10.6090367"><ele>177.0</ele><time>2026-05-01T11:50:51.594Z</time></trkpt><trkpt lat="45.3506317" lon="10.6091367"><ele>177.0</ele><time>2026-05-01T11:50:52.594Z</time></trkpt><trkpt lat="45.350685" lon="10.609215"><ele>177.0</ele><time>2026-05-01T11:50:53.592Z</time></trkpt><trkpt lat="45.3507383" lon="10.60929"><ele>177.0</ele><time>2026-05-01T11:50:54.597Z</time></trkpt><trkpt lat="45.3507917" lon="10.60936"><ele>176.83333333333334</ele><time>2026-05-01T11:50:55.6Z</time></trkpt><trkpt lat="45.3508367" lon="10.6094267"><ele>176.66666666666666</ele><time>2026-05-01T11:50:56.59Z</time></trkpt><trkpt lat="45.35091" lon="10.60951"><ele>176.5</ele><time>2026-05-01T11:50:57.595Z</time></trkpt><trkpt lat="45.35098" lon="10.6096"><ele>176.33333333333331</ele><time>2026-05-01T11:50:58.594Z</time></trkpt><trkpt lat="45.35103" lon="10.6097017"><ele>176.16666666666666</ele><time>2026-05-01T11:50:59.594Z</time></trkpt><trkpt lat="45.3510833" lon="10.6097983"><ele>176.0</ele><time>2026-05-01T11:51:00.596Z</time></trkpt><trkpt lat="45.3511367" lon="10.609895"><ele>176.0</ele><time>2026-05-01T11:51:01.605Z</time></trkpt><trkpt lat="45.3511717" lon="10.6099883"><ele>176.0</ele><time>2026-05-01T11:51:02.6Z</time></trkpt><trkpt lat="45.3512133" lon="10.6100783"><ele>176.0</ele><time>2026-05-01T11:51:03.59Z</time></trkpt><trkpt lat="45.35127" lon="10.6101617"><ele>176.0</ele><time>2026-05-01T11:51:04.593Z</time></trkpt><trkpt lat="45.35132" lon="10.61023"><ele>176.0</ele><time>2026-05-01T11:51:05.589Z</time></trkpt><trkpt lat="45.3513783" lon="10.610295"><ele>176.0</ele><time>2026-05-01T11:51:06.611Z</time></trkpt><trkpt lat="45.35144" lon="10.6103667"><ele>172.60000000000002</ele><time>2026-05-01T11:51:07.6Z</time></trkpt><trkpt lat="45.351525" lon="10.6104267"><ele>169.20000000000002</ele><time>2026-05-01T11:51:08.599Z</time></trkpt><trkpt lat="45.3516033" lon="10.6104717"><ele>165.8</ele><time>2026-05-01T11:51:09.593Z</time></trkpt><trkpt lat="45.3516767" lon="10.6105217"><ele>162.4</ele><time>2026-05-01T11:51:10.594Z</time></trkpt><trkpt lat="45.3517433" lon="10.6105667"><ele>159.0</ele><time>2026-05-01T11:51:11.608Z</time></trkpt><trkpt lat="45.351825" lon="10.6106883"><ele>159.0</ele><time>2026-05-01T11:51:13.595Z</time></trkpt><trkpt lat="45.3518533" lon="10.6107867"><ele>159.0</ele><time>2026-05-01T11:51:14.594Z</time></trkpt><trkpt lat="45.351885" lon="10.6109033"><ele>159.0</ele><time>2026-05-01T11:51:15.597Z</time></trkpt><trkpt lat="45.3519067" lon="10.6110217"><ele>159.0</ele><time>2026-05-01T11:51:16.598Z</time></trkpt><trkpt lat="45.3519217" lon="10.61114"><ele>159.0</ele><time>2026-05-01T11:51:17.594Z</time></trkpt><trkpt lat="45.35193" lon="10.61125"><ele>159.0</ele><time>2026-05-01T11:51:18.613Z</time></trkpt><trkpt lat="45.35193" lon="10.6113567"><ele>161.16666666666666</ele><time>2026-05-01T11:51:19.594Z</time></trkpt><trkpt lat="45.3519083" lon="10.6114717"><ele>163.33333333333334</ele><time>2026-05-01T11:51:20.597Z</time></trkpt><trkpt lat="45.351875" lon="10.6115967"><ele>165.5</ele><time>2026-05-01T11:51:21.595Z</time></trkpt><trkpt lat="45.3518567" lon="10.611715"><ele>167.66666666666669</ele><time>2026-05-01T11:51:22.593Z</time></trkpt><trkpt lat="45.3518433" lon="10.6118333"><ele>169.83333333333334</ele><time>2026-05-01T11:51:23.591Z</time></trkpt><trkpt lat="45.3518417" lon="10.6119567"><ele>172.0</ele><time>2026-05-01T11:51:24.59Z</time></trkpt><trkpt lat="45.351855" lon="10.6120883"><ele>173.5</ele><time>2026-05-01T11:51:25.593Z</time></trkpt><trkpt lat="45.35187" lon="10.612215"><ele>175.0</ele><time>2026-05-01T11:51:26.593Z</time></trkpt><trkpt lat="45.3518767" lon="10.61238"><ele>176.5</ele><time>2026-05-01T11:51:27.59Z</time></trkpt><trkpt lat="45.3518783" lon="10.61257"><ele>178.0</ele><time>2026-05-01T11:51:28.593Z</time></trkpt><trkpt lat="45.3518883" lon="10.6127533"><ele>179.0</ele><time>2026-05-01T11:51:29.592Z</time></trkpt><trkpt lat="45.3518883" lon="10.6129417"><ele>180.0</ele><time>2026-05-01T11:51:30.59Z</time></trkpt><trkpt lat="45.3518983" lon="10.6131117"><ele>181.0</ele><time>2026-05-01T11:51:31.602Z</time></trkpt><trkpt lat="45.35192" lon="10.6132783"><ele>182.0</ele><time>2026-05-01T11:51:32.596Z</time></trkpt><trkpt lat="45.3519867" lon="10.6134"><ele>182.0</ele><time>2026-05-01T11:51:33.597Z</time></trkpt><trkpt lat="45.35199" lon="10.6135083"><ele>182.0</ele><time>2026-05-01T11:51:34.603Z</time></trkpt><trkpt lat="45.3519983" lon="10.61369"><ele>182.0</ele><time>2026-05-01T11:51:36.588Z</time></trkpt><trkpt lat="45.3520183" lon="10.6138183"><ele>182.0</ele><time>2026-05-01T11:51:37.598Z</time></trkpt><trkpt lat="45.3520483" lon="10.613905"><ele>182.0</ele><time>2026-05-01T11:51:38.598Z</time></trkpt><trkpt lat="45.352095" lon="10.6140317"><ele>183.2</ele><time>2026-05-01T11:51:39.598Z</time></trkpt><trkpt lat="45.3521367" lon="10.6141483"><ele>184.39999999999998</ele><time>2026-05-01T11:51:40.593Z</time></trkpt><trkpt lat="45.3521633" lon="10.614255"><ele>185.60000000000002</ele><time>2026-05-01T11:51:41.592Z</time></trkpt><trkpt lat="45.3521817" lon="10.6143817"><ele>186.8</ele><time>2026-05-01T11:51:42.599Z</time></trkpt><trkpt lat="45.3521983" lon="10.6145183"><ele>188.0</ele><time>2026-05-01T11:51:43.584Z</time></trkpt><trkpt lat="45.3521983" lon="10.61467"><ele>188.0</ele><time>2026-05-01T11:51:44.597Z</time></trkpt><trkpt lat="45.3521833" lon="10.6147933"><ele>188.0</ele><time>2026-05-01T11:51:45.6Z</time></trkpt><trkpt lat="45.3521667" lon="10.6148883"><ele>188.0</ele><time>2026-05-01T11:51:46.596Z</time></trkpt><trkpt lat="45.35215" lon="10.614975"><ele>188.0</ele><time>2026-05-01T11:51:47.591Z</time></trkpt><trkpt lat="45.352115" lon="10.61507"><ele>188.0</ele><time>2026-05-01T11:51:48.592Z</time></trkpt><trkpt lat="45.35208" lon="10.6151733"><ele>188.0</ele><time>2026-05-01T11:51:49.591Z</time></trkpt><trkpt lat="45.3520467" lon="10.615285"><ele>186.16666666666666</ele><time>2026-05-01T11:51:50.591Z</time></trkpt><trkpt lat="45.3520167" lon="10.615405"><ele>184.33333333333331</ele><time>2026-05-01T11:51:51.598Z</time></trkpt><trkpt lat="45.351985" lon="10.615505"><ele>182.5</ele><time>2026-05-01T11:51:52.596Z</time></trkpt><trkpt lat="45.3519483" lon="10.615615"><ele>180.66666666666666</ele><time>2026-05-01T11:51:53.597Z</time></trkpt><trkpt lat="45.3519067" lon="10.6157333"><ele>178.83333333333334</ele><time>2026-05-01T11:51:54.601Z</time></trkpt><trkpt lat="45.351865" lon="10.615845"><ele>177.0</ele><time>2026-05-01T11:51:55.595Z</time></trkpt><trkpt lat="45.351815" lon="10.6159917"><ele>177.0</ele><time>2026-05-01T11:51:57.591Z</time></trkpt><trkpt lat="45.3517867" lon="10.6160833"><ele>177.0</ele><time>2026-05-01T11:51:58.591Z</time></trkpt><trkpt lat="45.351755" lon="10.6161817"><ele>177.0</ele><time>2026-05-01T11:51:59.588Z</time></trkpt><trkpt lat="45.35172" lon="10.616285"><ele>177.0</ele><time>2026-05-01T11:52:00.59Z</time></trkpt><trkpt lat="45.3516717" lon="10.6163883"><ele>177.0</ele><time>2026-05-01T11:52:01.595Z</time></trkpt><trkpt lat="45.3516133" lon="10.616495"><ele>177.0</ele><time>2026-05-01T11:52:02.587Z</time></trkpt><trkpt lat="45.3515383" lon="10.616605"><ele>177.6</ele><time>2026-05-01T11:52:03.6Z</time></trkpt><trkpt lat="45.3514617" lon="10.6167417"><ele>178.2</ele><time>2026-05-01T11:52:04.594Z</time></trkpt><trkpt lat="45.3514033" lon="10.6168633"><ele>178.8</ele><time>2026-05-01T11:52:05.589Z</time></trkpt><trkpt lat="45.3513717" lon="10.6169833"><ele>179.4</ele><time>2026-05-01T11:52:06.602Z</time></trkpt><trkpt lat="45.35132" lon="10.6170667"><ele>180.0</ele><time>2026-05-01T11:52:07.587Z</time></trkpt><trkpt lat="45.3512817" lon="10.6171433"><ele>180.0</ele><time>2026-05-01T11:52:08.583Z</time></trkpt><trkpt lat="45.35125" lon="10.6172333"><ele>180.0</ele><time>2026-05-01T11:52:09.593Z</time></trkpt><trkpt lat="45.351215" lon="10.617365"><ele>180.0</ele><time>2026-05-01T11:52:10.6Z</time></trkpt><trkpt lat="45.35118" lon="10.6174667"><ele>180.0</ele><time>2026-05-01T11:52:11.591Z</time></trkpt><trkpt lat="45.35113" lon="10.6175817"><ele>180.0</ele><time>2026-05-01T11:52:12.589Z</time></trkpt><trkpt lat="45.351105" lon="10.6176883"><ele>180.0</ele><time>2026-05-01T11:52:13.587Z</time></trkpt><trkpt lat="45.3510817" lon="10.617805"><ele>179.33333333333334</ele><time>2026-05-01T11:52:14.599Z</time></trkpt><trkpt lat="45.35107" lon="10.617955"><ele>178.66666666666666</ele><time>2026-05-01T11:52:15.588Z</time></trkpt><trkpt lat="45.3510617" lon="10.61807"><ele>178.0</ele><time>2026-05-01T11:52:16.595Z</time></trkpt><trkpt lat="45.351045" lon="10.6182033"><ele>177.33333333333331</ele><time>2026-05-01T11:52:17.588Z</time></trkpt><trkpt lat="45.35103" lon="10.6183283"><ele>176.66666666666666</ele><time>2026-05-01T11:52:18.593Z</time></trkpt><trkpt lat="45.35103" lon="10.6184333"><ele>176.0</ele><time>2026-05-01T11:52:19.589Z</time></trkpt><trkpt lat="45.3510483" lon="10.618535"><ele>175.5</ele><time>2026-05-01T11:52:20.594Z</time></trkpt><trkpt lat="45.351035" lon="10.61873"><ele>175.0</ele><time>2026-05-01T11:52:21.589Z</time></trkpt><trkpt lat="45.35103" lon="10.61887"><ele>174.5</ele><time>2026-05-01T11:52:22.589Z</time></trkpt><trkpt lat="45.3510283" lon="10.6189983"><ele>174.0</ele><time>2026-05-01T11:52:23.598Z</time></trkpt><trkpt lat="45.3510333" lon="10.6191783"><ele>174.0</ele><time>2026-05-01T11:52:24.598Z</time></trkpt><trkpt lat="45.3510267" lon="10.61931"><ele>174.0</ele><time>2026-05-01T11:52:25.591Z</time></trkpt><trkpt lat="45.3510283" lon="10.61943"><ele>174.0</ele><time>2026-05-01T11:52:26.591Z</time></trkpt><trkpt lat="45.3510183" lon="10.6195433"><ele>174.0</ele><time>2026-05-01T11:52:27.593Z</time></trkpt><trkpt lat="45.35101" lon="10.6196533"><ele>174.0</ele><time>2026-05-01T11:52:28.59Z</time></trkpt><trkpt lat="45.3509817" lon="10.6197617"><ele>174.0</ele><time>2026-05-01T11:52:29.59Z</time></trkpt><trkpt lat="45.3509417" lon="10.6198767"><ele>174.0</ele><time>2026-05-01T11:52:30.594Z</time></trkpt><trkpt lat="45.3509167" lon="10.6199783"><ele>174.0</ele><time>2026-05-01T11:52:31.592Z</time></trkpt><trkpt lat="45.3509017" lon="10.62009"><ele>174.0</ele><time>2026-05-01T11:52:32.589Z</time></trkpt><trkpt lat="45.3509017" lon="10.620195"><ele>174.0</ele><time>2026-05-01T11:52:33.599Z</time></trkpt><trkpt lat="45.350905" lon="10.6202967"><ele>174.0</ele><time>2026-05-01T11:52:34.603Z</time></trkpt><trkpt lat="45.3509217" lon="10.6203983"><ele>174.0</ele><time>2026-05-01T11:52:35.592Z</time></trkpt><trkpt lat="45.3509617" lon="10.6204817"><ele>174.0</ele><time>2026-05-01T11:52:36.592Z</time></trkpt><trkpt lat="45.3510117" lon="10.6206483"><ele>174.0</ele><time>2026-05-01T11:52:38.587Z</time></trkpt><trkpt lat="45.3510483" lon="10.6208133"><ele>174.0</ele><time>2026-05-01T11:52:40.589Z</time></trkpt><trkpt lat="45.3510733" lon="10.6209283"><ele>174.0</ele><time>2026-05-01T11:52:41.589Z</time></trkpt><trkpt lat="45.3510867" lon="10.6210333"><ele>174.0</ele><time>2026-05-01T11:52:42.59Z</time></trkpt><trkpt lat="45.351115" lon="10.621125"><ele>174.0</ele><time>2026-05-01T11:52:43.594Z</time></trkpt><trkpt lat="45.3511383" lon="10.6212333"><ele>174.0</ele><time>2026-05-01T11:52:44.592Z</time></trkpt><trkpt lat="45.35116" lon="10.621355"><ele>173.33333333333334</ele><time>2026-05-01T11:52:45.601Z</time></trkpt><trkpt lat="45.3511783" lon="10.621475"><ele>172.66666666666666</ele><time>2026-05-01T11:52:46.595Z</time></trkpt><trkpt lat="45.3512133" lon="10.6215833"><ele>172.0</ele><time>2026-05-01T11:52:47.591Z</time></trkpt><trkpt lat="45.3512483" lon="10.6216833"><ele>171.33333333333331</ele><time>2026-05-01T11:52:48.596Z</time></trkpt><trkpt lat="45.3512833" lon="10.62178"><ele>170.66666666666666</ele><time>2026-05-01T11:52:49.593Z</time></trkpt><trkpt lat="45.3512783" lon="10.6219483"><ele>170.0</ele><time>2026-05-01T11:52:51.588Z</time></trkpt><trkpt lat="45.351245" lon="10.6220283"><ele>169.6</ele><time>2026-05-01T11:52:52.593Z</time></trkpt><trkpt lat="45.35119" lon="10.6221017"><ele>169.2</ele><time>2026-05-01T11:52:53.594Z</time></trkpt><trkpt lat="45.3511183" lon="10.62218"><ele>168.8</ele><time>2026-05-01T11:52:54.588Z</time></trkpt><trkpt lat="45.3510383" lon="10.6222533"><ele>168.4</ele><time>2026-05-01T11:52:55.593Z</time></trkpt><trkpt lat="45.3509517" lon="10.62233"><ele>168.0</ele><time>2026-05-01T11:52:56.589Z</time></trkpt><trkpt lat="45.350875" lon="10.6223883"><ele>168.0</ele><time>2026-05-01T11:52:57.591Z</time></trkpt><trkpt lat="45.3508183" lon="10.62244"><ele>168.0</ele><time>2026-05-01T11:52:58.602Z</time></trkpt><trkpt lat="45.35076" lon="10.622555"><ele>168.0</ele><time>2026-05-01T11:53:00.589Z</time></trkpt><trkpt lat="45.35079" lon="10.62264"><ele>168.0</ele><time>2026-05-01T11:53:01.599Z</time></trkpt><trkpt lat="45.35083" lon="10.6227483"><ele>168.0</ele><time>2026-05-01T11:53:02.599Z</time></trkpt><trkpt lat="45.3508817" lon="10.622865"><ele>168.0</ele><time>2026-05-01T11:53:03.588Z</time></trkpt><trkpt lat="45.3509433" lon="10.6229983"><ele>167.8</ele><time>2026-05-01T11:53:04.59Z</time></trkpt><trkpt lat="45.3509883" lon="10.6231033"><ele>167.60000000000002</ele><time>2026-05-01T11:53:05.598Z</time></trkpt><trkpt lat="45.3510317" lon="10.6232117"><ele>167.39999999999998</ele><time>2026-05-01T11:53:06.601Z</time></trkpt><trkpt lat="45.3510733" lon="10.623315"><ele>167.2</ele><time>2026-05-01T11:53:07.591Z</time></trkpt><trkpt lat="45.351105" lon="10.6234183"><ele>167.0</ele><time>2026-05-01T11:53:08.59Z</time></trkpt><trkpt lat="45.3512" lon="10.62355"><ele>167.0</ele><time>2026-05-01T11:53:10.586Z</time></trkpt><trkpt lat="45.3512417" lon="10.62363"><ele>167.0</ele><time>2026-05-01T11:53:11.598Z</time></trkpt><trkpt lat="45.3512817" lon="10.6237433"><ele>167.0</ele><time>2026-05-01T11:53:13.594Z</time></trkpt><trkpt lat="45.3512733" lon="10.6238417"><ele>167.0</ele><time>2026-05-01T11:53:15.597Z</time></trkpt><trkpt lat="45.3512967" lon="10.6239483"><ele>167.0</ele><time>2026-05-01T11:53:17.584Z</time></trkpt><trkpt lat="45.3513233" lon="10.6240367"><ele>167.0</ele><time>2026-05-01T11:53:18.614Z</time></trkpt><trkpt lat="45.3513533" lon="10.6241317"><ele>167.0</ele><time>2026-05-01T11:53:19.59Z</time></trkpt><trkpt lat="45.3513833" lon="10.624225"><ele>163.6</ele><time>2026-05-01T11:53:20.6Z</time></trkpt><trkpt lat="45.3514117" lon="10.62431"><ele>160.2</ele><time>2026-05-01T11:53:21.591Z</time></trkpt><trkpt lat="45.35145" lon="10.62445"><ele>156.8</ele><time>2026-05-01T11:53:23.591Z</time></trkpt><trkpt lat="45.351505" lon="10.62456"><ele>153.4</ele><time>2026-05-01T11:53:25.589Z</time></trkpt><trkpt lat="45.3515983" lon="10.6246083"><ele>150.0</ele><time>2026-05-01T11:53:27.595Z</time></trkpt><trkpt lat="45.3517017" lon="10.6245917"><ele>150.0</ele><time>2026-05-01T11:53:29.587Z</time></trkpt><trkpt lat="45.3517567" lon="10.6245467"><ele>150.0</ele><time>2026-05-01T11:53:30.605Z</time></trkpt><trkpt lat="45.3518233" lon="10.6244917"><ele>150.0</ele><time>2026-05-01T11:53:31.604Z</time></trkpt><trkpt lat="45.3518783" lon="10.62442"><ele>150.0</ele><time>2026-05-01T11:53:32.589Z</time></trkpt><trkpt lat="45.3519383" lon="10.624355"><ele>150.0</ele><time>2026-05-01T11:53:33.594Z</time></trkpt><trkpt lat="45.3520183" lon="10.6242767"><ele>150.0</ele><time>2026-05-01T11:53:34.6Z</time></trkpt><trkpt lat="45.3520683" lon="10.6242183"><ele>150.0</ele><time>2026-05-01T11:53:35.591Z</time></trkpt><trkpt lat="45.352125" lon="10.6241567"><ele>150.0</ele><time>2026-05-01T11:53:36.588Z</time></trkpt><trkpt lat="45.3521983" lon="10.6240867"><ele>150.0</ele><time>2026-05-01T11:53:37.593Z</time></trkpt><trkpt lat="45.3522783" lon="10.6240167"><ele>150.0</ele><time>2026-05-01T11:53:38.585Z</time></trkpt><trkpt lat="45.3523533" lon="10.6239433"><ele>150.0</ele><time>2026-05-01T11:53:39.604Z</time></trkpt><trkpt lat="45.3524167" lon="10.623885"><ele>150.0</ele><time>2026-05-01T11:53:40.592Z</time></trkpt><trkpt lat="45.3524833" lon="10.6238317"><ele>149.5</ele><time>2026-05-01T11:53:41.603Z</time></trkpt><trkpt lat="45.35255" lon="10.623785"><ele>149.0</ele><time>2026-05-01T11:53:42.596Z</time></trkpt><trkpt lat="45.3526067" lon="10.6237417"><ele>148.5</ele><time>2026-05-01T11:53:43.597Z</time></trkpt><trkpt lat="45.352705" lon="10.6236867"><ele>148.0</ele><time>2026-05-01T11:53:45.594Z</time></trkpt><trkpt lat="45.3527667" lon="10.6236517"><ele>147.5</ele><time>2026-05-01T11:53:47.601Z</time></trkpt><trkpt lat="45.3528083" lon="10.62357"><ele>147.0</ele><time>2026-05-01T11:53:50.601Z</time></trkpt><trkpt lat="45.3528683" lon="10.6235017"><ele>147.0</ele><time>2026-05-01T11:53:52.594Z</time></trkpt><trkpt lat="45.35298" lon="10.623345"><ele>147.0</ele><time>2026-05-01T11:53:54.586Z</time></trkpt><trkpt lat="45.35303" lon="10.623225"><ele>147.0</ele><time>2026-05-01T11:53:55.62Z</time></trkpt><trkpt lat="45.35309" lon="10.6230983"><ele>147.0</ele><time>2026-05-01T11:53:56.597Z</time></trkpt><trkpt lat="45.3531483" lon="10.6229417"><ele>146.25</ele><time>2026-05-01T11:53:57.58Z</time></trkpt><trkpt lat="45.3532183" lon="10.6228017"><ele>145.5</ele><time>2026-05-01T11:53:58.595Z</time></trkpt><trkpt lat="45.3532917" lon="10.622675"><ele>144.75</ele><time>2026-05-01T11:53:59.6Z</time></trkpt><trkpt lat="45.35335" lon="10.6225267"><ele>144.0</ele><time>2026-05-01T11:54:00.592Z</time></trkpt><trkpt lat="45.3534083" lon="10.622365"><ele>144.0</ele><time>2026-05-01T11:54:01.592Z</time></trkpt><trkpt lat="45.35344" lon="10.62219"><ele>144.0</ele><time>2026-05-01T11:54:02.597Z</time></trkpt><trkpt lat="45.3534667" lon="10.6220183"><ele>144.0</ele><time>2026-05-01T11:54:03.6Z</time></trkpt><trkpt lat="45.3534917" lon="10.621865"><ele>144.0</ele><time>2026-05-01T11:54:04.594Z</time></trkpt><trkpt lat="45.35352" lon="10.621735"><ele>143.2</ele><time>2026-05-01T11:54:05.589Z</time></trkpt><trkpt lat="45.353545" lon="10.621625"><ele>142.4</ele><time>2026-05-01T11:54:06.592Z</time></trkpt><trkpt lat="45.3535817" lon="10.6215083"><ele>141.6</ele><time>2026-05-01T11:54:07.592Z</time></trkpt><trkpt lat="45.3536283" lon="10.6213883"><ele>140.8</ele><time>2026-05-01T11:54:08.589Z</time></trkpt><trkpt lat="45.35368" lon="10.6212717"><ele>140.0</ele><time>2026-05-01T11:54:09.594Z</time></trkpt><trkpt lat="45.35373" lon="10.621165"><ele>139.0</ele><time>2026-05-01T11:54:10.595Z</time></trkpt><trkpt lat="45.3537717" lon="10.6210717"><ele>138.0</ele><time>2026-05-01T11:54:11.592Z</time></trkpt><trkpt lat="45.3538083" lon="10.6209867"><ele>137.0</ele><time>2026-05-01T11:54:12.601Z</time></trkpt><trkpt lat="45.35385" lon="10.6208683"><ele>136.0</ele><time>2026-05-01T11:54:14.594Z</time></trkpt><trkpt lat="45.3538167" lon="10.6207217"><ele>135.0</ele><time>2026-05-01T11:54:31.607Z</time></trkpt><trkpt lat="45.3537417" lon="10.620595"><ele>135.0</ele><time>2026-05-01T11:54:32.629Z</time></trkpt><trkpt lat="45.35363" lon="10.6204033"><ele>135.0</ele><time>2026-05-01T11:54:33.589Z</time></trkpt><trkpt lat="45.353515" lon="10.620235"><ele>135.0</ele><time>2026-05-01T11:54:34.595Z</time></trkpt><trkpt lat="45.3534517" lon="10.6200833"><ele>135.0</ele><time>2026-05-01T11:54:35.593Z</time></trkpt><trkpt lat="45.3533867" lon="10.6199533"><ele>135.0</ele><time>2026-05-01T11:54:36.588Z</time></trkpt><trkpt lat="45.35333" lon="10.6197817"><ele>135.0</ele><time>2026-05-01T11:54:37.598Z</time></trkpt><trkpt lat="45.3532617" lon="10.61962"><ele>135.0</ele><time>2026-05-01T11:54:38.589Z</time></trkpt><trkpt lat="45.3532383" lon="10.6194233"><ele>135.33333333333334</ele><time>2026-05-01T11:54:39.587Z</time></trkpt><trkpt lat="45.3532367" lon="10.6192183"><ele>135.66666666666669</ele><time>2026-05-01T11:54:40.588Z</time></trkpt><trkpt lat="45.35322" lon="10.619005"><ele>136.0</ele><time>2026-05-01T11:54:41.587Z</time></trkpt><trkpt lat="45.3531817" lon="10.61879"><ele>135.33333333333334</ele><time>2026-05-01T11:54:42.59Z</time></trkpt><trkpt lat="45.3531383" lon="10.6185117"><ele>134.66666666666666</ele><time>2026-05-01T11:54:43.592Z</time></trkpt><trkpt lat="45.3530917" lon="10.618205"><ele>134.0</ele><time>2026-05-01T11:54:44.591Z</time></trkpt><trkpt lat="45.3530867" lon="10.617895"><ele>133.5</ele><time>2026-05-01T11:54:45.593Z</time></trkpt><trkpt lat="45.3530933" lon="10.6175833"><ele>133.0</ele><time>2026-05-01T11:54:46.59Z</time></trkpt><trkpt lat="45.3530817" lon="10.61725"><ele>132.5</ele><time>2026-05-01T11:54:47.592Z</time></trkpt><trkpt lat="45.3530833" lon="10.6169183"><ele>132.0</ele><time>2026-05-01T11:54:48.599Z</time></trkpt><trkpt lat="45.3531" lon="10.6166033"><ele>132.0</ele><time>2026-05-01T11:54:49.594Z</time></trkpt><trkpt lat="45.3531233" lon="10.6163417"><ele>132.0</ele><time>2026-05-01T11:54:50.597Z</time></trkpt><trkpt lat="45.353165" lon="10.6160733"><ele>132.0</ele><time>2026-05-01T11:54:51.601Z</time></trkpt><trkpt lat="45.3531967" lon="10.6158233"><ele>132.0</ele><time>2026-05-01T11:54:52.589Z</time></trkpt><trkpt lat="45.3532367" lon="10.6155867"><ele>132.0</ele><time>2026-05-01T11:54:53.58Z</time></trkpt><trkpt lat="45.3532717" lon="10.6153317"><ele>132.0</ele><time>2026-05-01T11:54:54.587Z</time></trkpt><trkpt lat="45.35331" lon="10.6150783"><ele>132.33333333333334</ele><time>2026-05-01T11:54:55.591Z</time></trkpt><trkpt lat="45.3533483" lon="10.6148017"><ele>132.66666666666669</ele><time>2026-05-01T11:54:56.591Z</time></trkpt><trkpt lat="45.3533683" lon="10.6145333"><ele>133.0</ele><time>2026-05-01T11:54:57.593Z</time></trkpt><trkpt lat="45.3533983" lon="10.6142483"><ele>133.33333333333334</ele><time>2026-05-01T11:54:58.589Z</time></trkpt><trkpt lat="45.353405" lon="10.614"><ele>133.66666666666666</ele><time>2026-05-01T11:54:59.587Z</time></trkpt><trkpt lat="45.353385" lon="10.6137567"><ele>134.0</ele><time>2026-05-01T11:55:00.601Z</time></trkpt><trkpt lat="45.3533283" lon="10.61348"><ele>132.66666666666666</ele><time>2026-05-01T11:55:01.591Z</time></trkpt><trkpt lat="45.35325" lon="10.6132"><ele>131.33333333333334</ele><time>2026-05-01T11:55:02.588Z</time></trkpt><trkpt lat="45.3531833" lon="10.6129217"><ele>130.0</ele><time>2026-05-01T11:55:03.592Z</time></trkpt><trkpt lat="45.353165" lon="10.6126933"><ele>129.75</ele><time>2026-05-01T11:55:04.602Z</time></trkpt><trkpt lat="45.3531383" lon="10.6124583"><ele>129.5</ele><time>2026-05-01T11:55:05.59Z</time></trkpt><trkpt lat="45.35315" lon="10.61226"><ele>129.25</ele><time>2026-05-01T11:55:06.59Z</time></trkpt><trkpt lat="45.35314" lon="10.6120817"><ele>129.0</ele><time>2026-05-01T11:55:07.591Z</time></trkpt><trkpt lat="45.3531333" lon="10.6119"><ele>129.0</ele><time>2026-05-01T11:55:08.586Z</time></trkpt><trkpt lat="45.3531333" lon="10.61173"><ele>129.0</ele><time>2026-05-01T11:55:09.596Z</time></trkpt><trkpt lat="45.3531267" lon="10.611585"><ele>129.0</ele><time>2026-05-01T11:55:10.592Z</time></trkpt><trkpt lat="45.353115" lon="10.6114567"><ele>129.0</ele><time>2026-05-01T11:55:11.585Z</time></trkpt><trkpt lat="45.3530933" lon="10.6113033"><ele>129.0</ele><time>2026-05-01T11:55:12.584Z</time></trkpt><trkpt lat="45.3530033" lon="10.6111267"><ele>133.33333333333334</ele><time>2026-05-01T11:55:13.596Z</time></trkpt><trkpt lat="45.35293" lon="10.6109217"><ele>137.66666666666669</ele><time>2026-05-01T11:55:14.59Z</time></trkpt><trkpt lat="45.352885" lon="10.6107033"><ele>142.0</ele><time>2026-05-01T11:55:15.595Z</time></trkpt><trkpt lat="45.3528417" lon="10.6104667"><ele>141.0</ele><time>2026-05-01T11:55:16.59Z</time></trkpt><trkpt lat="45.352795" lon="10.610235"><ele>140.0</ele><time>2026-05-01T11:55:17.591Z</time></trkpt><trkpt lat="45.352765" lon="10.60997"><ele>139.0</ele><time>2026-05-01T11:55:18.581Z</time></trkpt><trkpt lat="45.352785" lon="10.6096817"><ele>138.33333333333334</ele><time>2026-05-01T11:55:19.591Z</time></trkpt><trkpt lat="45.3528067" lon="10.6093933"><ele>137.66666666666666</ele><time>2026-05-01T11:55:20.591Z</time></trkpt><trkpt lat="45.3528317" lon="10.6091183"><ele>137.0</ele><time>2026-05-01T11:55:21.593Z</time></trkpt><trkpt lat="45.3528667" lon="10.6088633"><ele>136.66666666666666</ele><time>2026-05-01T11:55:22.59Z</time></trkpt><trkpt lat="45.3529117" lon="10.6086367"><ele>136.33333333333334</ele><time>2026-05-01T11:55:23.609Z</time></trkpt><trkpt lat="45.3529433" lon="10.6084167"><ele>136.0</ele><time>2026-05-01T11:55:24.594Z</time></trkpt><trkpt lat="45.352975" lon="10.6082417"><ele>136.0</ele><time>2026-05-01T11:55:25.598Z</time></trkpt><trkpt lat="45.35298" lon="10.608065"><ele>136.0</ele><time>2026-05-01T11:55:26.591Z</time></trkpt><trkpt lat="45.3529917" lon="10.6079"><ele>136.0</ele><time>2026-05-01T11:55:27.599Z</time></trkpt><trkpt lat="45.3529967" lon="10.60775"><ele>136.0</ele><time>2026-05-01T11:55:28.585Z</time></trkpt><trkpt lat="45.3530383" lon="10.6075933"><ele>134.0</ele><time>2026-05-01T11:55:30.594Z</time></trkpt><trkpt lat="45.3531017" lon="10.6075783"><ele>132.0</ele><time>2026-05-01T11:55:31.595Z</time></trkpt><trkpt lat="45.3531867" lon="10.6074933"><ele>130.0</ele><time>2026-05-01T11:55:33.589Z</time></trkpt><trkpt lat="45.3532033" lon="10.607405"><ele>128.0</ele><time>2026-05-01T11:55:34.586Z</time></trkpt><trkpt lat="45.35321" lon="10.607295"><ele>126.00000000000001</ele><time>2026-05-01T11:55:35.597Z</time></trkpt><trkpt lat="45.3532133" lon="10.6071533"><ele>124.0</ele><time>2026-05-01T11:55:36.593Z</time></trkpt><trkpt lat="45.3532383" lon="10.606965"><ele>124.0</ele><time>2026-05-01T11:55:37.59Z</time></trkpt><trkpt lat="45.3532433" lon="10.6067633"><ele>124.0</ele><time>2026-05-01T11:55:38.59Z</time></trkpt><trkpt lat="45.353255" lon="10.60655"><ele>124.0</ele><time>2026-05-01T11:55:39.593Z</time></trkpt><trkpt lat="45.35326" lon="10.6063517"><ele>124.0</ele><time>2026-05-01T11:55:40.589Z</time></trkpt><trkpt lat="45.353265" lon="10.6061767"><ele>124.2</ele><time>2026-05-01T11:55:41.597Z</time></trkpt><trkpt lat="45.3532667" lon="10.6059967"><ele>124.4</ele><time>2026-05-01T11:55:42.6Z</time></trkpt><trkpt lat="45.3532767" lon="10.605835"><ele>124.6</ele><time>2026-05-01T11:55:43.591Z</time></trkpt><trkpt lat="45.3532767" lon="10.6056933"><ele>124.8</ele><time>2026-05-01T11:55:44.587Z</time></trkpt><trkpt lat="45.3532867" lon="10.6055767"><ele>125.0</ele><time>2026-05-01T11:55:45.594Z</time></trkpt><trkpt lat="45.3532917" lon="10.6054817"><ele>125.0</ele><time>2026-05-01T11:55:46.593Z</time></trkpt><trkpt lat="45.3532783" lon="10.6053383"><ele>125.0</ele><time>2026-05-01T11:55:48.589Z</time></trkpt><trkpt lat="45.3532633" lon="10.6052367"><ele>125.0</ele><time>2026-05-01T11:55:51.593Z</time></trkpt><trkpt lat="45.35319" lon="10.6051333"><ele>125.0</ele><time>2026-05-01T11:55:54.592Z</time></trkpt><trkpt lat="45.3531767" lon="10.6049683"><ele>125.0</ele><time>2026-05-01T11:55:56.586Z</time></trkpt><trkpt lat="45.353185" lon="10.60485"><ele>125.0</ele><time>2026-05-01T11:55:57.592Z</time></trkpt><trkpt lat="45.35319" lon="10.6047217"><ele>125.0</ele><time>2026-05-01T11:55:58.599Z</time></trkpt><trkpt lat="45.3532083" lon="10.604585"><ele>125.0</ele><time>2026-05-01T11:55:59.589Z</time></trkpt><trkpt lat="45.3532417" lon="10.6044083"><ele>125.0</ele><time>2026-05-01T11:56:00.592Z</time></trkpt><trkpt lat="45.3532017" lon="10.6042717"><ele>125.0</ele><time>2026-05-01T11:56:01.59Z</time></trkpt><trkpt lat="45.3531983" lon="10.6041517"><ele>125.2</ele><time>2026-05-01T11:56:02.599Z</time></trkpt><trkpt lat="45.353215" lon="10.6040233"><ele>125.4</ele><time>2026-05-01T11:56:03.602Z</time></trkpt><trkpt lat="45.353235" lon="10.6038967"><ele>125.6</ele><time>2026-05-01T11:56:04.59Z</time></trkpt><trkpt lat="45.3532417" lon="10.6037667"><ele>125.8</ele><time>2026-05-01T11:56:05.587Z</time></trkpt><trkpt lat="45.353255" lon="10.6036433"><ele>126.0</ele><time>2026-05-01T11:56:06.588Z</time></trkpt><trkpt lat="45.3532883" lon="10.6035117"><ele>126.4</ele><time>2026-05-01T11:56:07.587Z</time></trkpt><trkpt lat="45.3533" lon="10.603385"><ele>126.8</ele><time>2026-05-01T11:56:08.593Z</time></trkpt><trkpt lat="45.3533117" lon="10.6032567"><ele>127.20000000000002</ele><time>2026-05-01T11:56:09.583Z</time></trkpt><trkpt lat="45.35334" lon="10.6031067"><ele>127.60000000000001</ele><time>2026-05-01T11:56:10.596Z</time></trkpt><trkpt lat="45.3533983" lon="10.6029783"><ele>128.0</ele><time>2026-05-01T11:56:11.592Z</time></trkpt><trkpt lat="45.35343" lon="10.6028667"><ele>128.83333333333331</ele><time>2026-05-01T11:56:12.591Z</time></trkpt><trkpt lat="45.3534033" lon="10.6027617"><ele>129.66666666666666</ele><time>2026-05-01T11:56:13.593Z</time></trkpt><trkpt lat="45.3534467" lon="10.6026633"><ele>130.5</ele><time>2026-05-01T11:56:14.598Z</time></trkpt><trkpt lat="45.353495" lon="10.6025533"><ele>131.33333333333334</ele><time>2026-05-01T11:56:15.582Z</time></trkpt><trkpt lat="45.3535333" lon="10.602415"><ele>132.16666666666669</ele><time>2026-05-01T11:56:16.594Z</time></trkpt><trkpt lat="45.3535967" lon="10.6023183"><ele>133.0</ele><time>2026-05-01T11:56:17.593Z</time></trkpt><trkpt lat="45.353665" lon="10.6022517"><ele>133.0</ele><time>2026-05-01T11:56:18.587Z</time></trkpt><trkpt lat="45.3537117" lon="10.6021533"><ele>133.0</ele><time>2026-05-01T11:56:19.589Z</time></trkpt><trkpt lat="45.3537367" lon="10.6020417"><ele>133.0</ele><time>2026-05-01T11:56:20.593Z</time></trkpt><trkpt lat="45.3537483" lon="10.6019283"><ele>133.0</ele><time>2026-05-01T11:56:21.593Z</time></trkpt><trkpt lat="45.3537467" lon="10.6018083"><ele>133.0</ele><time>2026-05-01T11:56:22.588Z</time></trkpt><trkpt lat="45.3537333" lon="10.60168"><ele>133.0</ele><time>2026-05-01T11:56:23.595Z</time></trkpt><trkpt lat="45.3537117" lon="10.60153"><ele>133.5</ele><time>2026-05-01T11:56:24.589Z</time></trkpt><trkpt lat="45.35369" lon="10.6014267"><ele>134.0</ele><time>2026-05-01T11:56:25.588Z</time></trkpt><trkpt lat="45.3536467" lon="10.6013433"><ele>134.5</ele><time>2026-05-01T11:56:26.589Z</time></trkpt><trkpt lat="45.3536217" lon="10.601255"><ele>135.0</ele><time>2026-05-01T11:56:27.591Z</time></trkpt><trkpt lat="45.3536133" lon="10.6011417"><ele>135.5</ele><time>2026-05-01T11:56:28.588Z</time></trkpt><trkpt lat="45.3535983" lon="10.6010167"><ele>136.0</ele><time>2026-05-01T11:56:29.586Z</time></trkpt><trkpt lat="45.3535917" lon="10.6008433"><ele>136.0</ele><time>2026-05-01T11:56:30.596Z</time></trkpt><trkpt lat="45.3535933" lon="10.600715"><ele>136.0</ele><time>2026-05-01T11:56:31.591Z</time></trkpt><trkpt lat="45.3536083" lon="10.60062"><ele>136.0</ele><time>2026-05-01T11:56:32.595Z</time></trkpt><trkpt lat="45.3536233" lon="10.6005283"><ele>136.0</ele><time>2026-05-01T11:56:33.592Z</time></trkpt><trkpt lat="45.3536367" lon="10.6004317"><ele>136.0</ele><time>2026-05-01T11:56:34.598Z</time></trkpt><trkpt lat="45.3536467" lon="10.60027"><ele>136.0</ele><time>2026-05-01T11:56:36.591Z</time></trkpt><trkpt lat="45.353665" lon="10.6000733"><ele>136.33333333333334</ele><time>2026-05-01T11:56:38.586Z</time></trkpt><trkpt lat="45.3536967" lon="10.599965"><ele>136.66666666666669</ele><time>2026-05-01T11:56:39.598Z</time></trkpt><trkpt lat="45.3537283" lon="10.5998567"><ele>137.0</ele><time>2026-05-01T11:56:40.593Z</time></trkpt><trkpt lat="45.3537467" lon="10.5997517"><ele>137.33333333333334</ele><time>2026-05-01T11:56:41.591Z</time></trkpt><trkpt lat="45.3537567" lon="10.5996367"><ele>137.66666666666666</ele><time>2026-05-01T11:56:42.591Z</time></trkpt><trkpt lat="45.3537567" lon="10.599515"><ele>138.0</ele><time>2026-05-01T11:56:43.59Z</time></trkpt><trkpt lat="45.3537483" lon="10.599385"><ele>138.5</ele><time>2026-05-01T11:56:44.598Z</time></trkpt><trkpt lat="45.3537383" lon="10.5992483"><ele>139.0</ele><time>2026-05-01T11:56:45.589Z</time></trkpt><trkpt lat="45.3537217" lon="10.5990883"><ele>139.5</ele><time>2026-05-01T11:56:46.601Z</time></trkpt><trkpt lat="45.353745" lon="10.5989167"><ele>140.0</ele><time>2026-05-01T11:56:47.591Z</time></trkpt><trkpt lat="45.3537583" lon="10.5987483"><ele>140.2</ele><time>2026-05-01T11:56:48.598Z</time></trkpt><trkpt lat="45.3537817" lon="10.5986017"><ele>140.4</ele><time>2026-05-01T11:56:49.593Z</time></trkpt><trkpt lat="45.3538067" lon="10.5984417"><ele>140.6</ele><time>2026-05-01T11:56:50.586Z</time></trkpt><trkpt lat="45.3538317" lon="10.598325"><ele>140.8</ele><time>2026-05-01T11:56:51.597Z</time></trkpt><trkpt lat="45.353865" lon="10.5982167"><ele>141.0</ele><time>2026-05-01T11:56:52.591Z</time></trkpt><trkpt lat="45.35388" lon="10.5980933"><ele>139.2</ele><time>2026-05-01T11:56:53.594Z</time></trkpt><trkpt lat="45.3539" lon="10.59797"><ele>137.39999999999998</ele><time>2026-05-01T11:56:54.591Z</time></trkpt><trkpt lat="45.35388" lon="10.5978817"><ele>135.6</ele><time>2026-05-01T11:56:55.593Z</time></trkpt><trkpt lat="45.3538833" lon="10.5977733"><ele>133.79999999999998</ele><time>2026-05-01T11:56:57.597Z</time></trkpt><trkpt lat="45.35392" lon="10.597695"><ele>132.0</ele><time>2026-05-01T11:57:00.628Z</time></trkpt><trkpt lat="45.3540667" lon="10.5976183"><ele>132.0</ele><time>2026-05-01T11:57:02.587Z</time></trkpt><trkpt lat="45.3541883" lon="10.5975667"><ele>132.0</ele><time>2026-05-01T11:57:03.587Z</time></trkpt><trkpt lat="45.3543267" lon="10.5975167"><ele>132.0</ele><time>2026-05-01T11:57:04.625Z</time></trkpt><trkpt lat="45.3544733" lon="10.5974783"><ele>132.0</ele><time>2026-05-01T11:57:05.581Z</time></trkpt><trkpt lat="45.35463" lon="10.5974383"><ele>130.33333333333334</ele><time>2026-05-01T11:57:06.593Z</time></trkpt><trkpt lat="45.3548" lon="10.5974033"><ele>128.66666666666669</ele><time>2026-05-01T11:57:07.602Z</time></trkpt><trkpt lat="45.3549617" lon="10.597355"><ele>127.0</ele><time>2026-05-01T11:57:08.627Z</time></trkpt><trkpt lat="45.3550783" lon="10.5973883"><ele>127.0</ele><time>2026-05-01T11:57:09.587Z</time></trkpt><trkpt lat="45.3552283" lon="10.5974367"><ele>127.0</ele><time>2026-05-01T11:57:10.591Z</time></trkpt><trkpt lat="45.3553783" lon="10.59749"><ele>127.0</ele><time>2026-05-01T11:57:11.596Z</time></trkpt><trkpt lat="45.3555467" lon="10.5975967"><ele>127.75</ele><time>2026-05-01T11:57:12.595Z</time></trkpt><trkpt lat="45.3556967" lon="10.5976567"><ele>128.5</ele><time>2026-05-01T11:57:13.592Z</time></trkpt><trkpt lat="45.355855" lon="10.5977467"><ele>129.25</ele><time>2026-05-01T11:57:14.59Z</time></trkpt><trkpt lat="45.355975" lon="10.5977417"><ele>130.0</ele><time>2026-05-01T11:57:15.589Z</time></trkpt><trkpt lat="45.3560783" lon="10.59773"><ele>130.0</ele><time>2026-05-01T11:57:16.588Z</time></trkpt><trkpt lat="45.3561967" lon="10.59771"><ele>130.0</ele><time>2026-05-01T11:57:17.595Z</time></trkpt><trkpt lat="45.3562917" lon="10.5976783"><ele>130.0</ele><time>2026-05-01T11:57:18.595Z</time></trkpt><trkpt lat="45.3563867" lon="10.5976567"><ele>130.0</ele><time>2026-05-01T11:57:19.594Z</time></trkpt><trkpt lat="45.35645" lon="10.5976517"><ele>130.0</ele><time>2026-05-01T11:57:20.586Z</time></trkpt><trkpt lat="45.3565133" lon="10.5976233"><ele>130.0</ele><time>2026-05-01T11:57:21.596Z</time></trkpt><trkpt lat="45.35656" lon="10.597465"><ele>130.16666666666669</ele><time>2026-05-01T11:57:23.594Z</time></trkpt><trkpt lat="45.356595" lon="10.597345"><ele>130.33333333333334</ele><time>2026-05-01T11:57:24.598Z</time></trkpt><trkpt lat="45.35664" lon="10.5972333"><ele>130.5</ele><time>2026-05-01T11:57:25.594Z</time></trkpt><trkpt lat="45.3566933" lon="10.59714"><ele>130.66666666666666</ele><time>2026-05-01T11:57:26.589Z</time></trkpt><trkpt lat="45.3567367" lon="10.5970367"><ele>130.83333333333331</ele><time>2026-05-01T11:57:27.593Z</time></trkpt><trkpt lat="45.356765" lon="10.5969167"><ele>131.0</ele><time>2026-05-01T11:57:28.583Z</time></trkpt><trkpt lat="45.3567933" lon="10.5967883"><ele>131.5</ele><time>2026-05-01T11:57:29.596Z</time></trkpt><trkpt lat="45.3568017" lon="10.5966267"><ele>132.0</ele><time>2026-05-01T11:57:30.593Z</time></trkpt><trkpt lat="45.356825" lon="10.5964717"><ele>132.5</ele><time>2026-05-01T11:57:31.592Z</time></trkpt><trkpt lat="45.3568017" lon="10.59631"><ele>133.0</ele><time>2026-05-01T11:57:32.596Z</time></trkpt><trkpt lat="45.3567217" lon="10.5961767"><ele>133.33333333333334</ele><time>2026-05-01T11:57:33.593Z</time></trkpt><trkpt lat="45.3566817" lon="10.5960517"><ele>133.66666666666669</ele><time>2026-05-01T11:57:34.589Z</time></trkpt><trkpt lat="45.3566617" lon="10.595955"><ele>134.0</ele><time>2026-05-01T11:57:35.591Z</time></trkpt><trkpt lat="45.3566533" lon="10.5958283"><ele>134.33333333333334</ele><time>2026-05-01T11:57:37.596Z</time></trkpt><trkpt lat="45.3567317" lon="10.595805"><ele>134.66666666666666</ele><time>2026-05-01T11:57:41.59Z</time></trkpt><trkpt lat="45.3568133" lon="10.59577"><ele>135.0</ele><time>2026-05-01T11:57:44.595Z</time></trkpt><trkpt lat="45.3568633" lon="10.5956533"><ele>135.0</ele><time>2026-05-01T11:57:46.596Z</time></trkpt><trkpt lat="45.3568883" lon="10.5955683"><ele>135.0</ele><time>2026-05-01T11:57:47.589Z</time></trkpt><trkpt lat="45.3569333" lon="10.5954733"><ele>135.0</ele><time>2026-05-01T11:57:48.586Z</time></trkpt><trkpt lat="45.3569967" lon="10.595385"><ele>135.0</ele><time>2026-05-01T11:57:49.591Z</time></trkpt><trkpt lat="45.3570933" lon="10.5953067"><ele>135.0</ele><time>2026-05-01T11:57:50.591Z</time></trkpt><trkpt lat="45.35721" lon="10.5952233"><ele>135.5</ele><time>2026-05-01T11:57:51.596Z</time></trkpt><trkpt lat="45.35732" lon="10.595105"><ele>136.0</ele><time>2026-05-01T11:57:52.59Z</time></trkpt><trkpt lat="45.3574333" lon="10.59501"><ele>136.5</ele><time>2026-05-01T11:57:53.589Z</time></trkpt><trkpt lat="45.3575417" lon="10.5949217"><ele>137.0</ele><time>2026-05-01T11:57:54.587Z</time></trkpt><trkpt lat="45.35766" lon="10.5947983"><ele>137.0</ele><time>2026-05-01T11:57:55.591Z</time></trkpt><trkpt lat="45.3578017" lon="10.5946967"><ele>137.0</ele><time>2026-05-01T11:57:56.589Z</time></trkpt><trkpt lat="45.3579467" lon="10.5945767"><ele>137.0</ele><time>2026-05-01T11:57:57.599Z</time></trkpt><trkpt lat="45.3580817" lon="10.59445"><ele>139.25</ele><time>2026-05-01T11:57:58.591Z</time></trkpt><trkpt lat="45.3582033" lon="10.5943333"><ele>141.5</ele><time>2026-05-01T11:57:59.592Z</time></trkpt><trkpt lat="45.3582667" lon="10.5942317"><ele>143.75</ele><time>2026-05-01T11:58:00.586Z</time></trkpt><trkpt lat="45.358335" lon="10.5940817"><ele>146.0</ele><time>2026-05-01T11:58:01.593Z</time></trkpt><trkpt lat="45.358435" lon="10.5939167"><ele>146.0</ele><time>2026-05-01T11:58:02.594Z</time></trkpt><trkpt lat="45.3584983" lon="10.5937583"><ele>146.0</ele><time>2026-05-01T11:58:03.594Z</time></trkpt><trkpt lat="45.3585567" lon="10.5936"><ele>146.0</ele><time>2026-05-01T11:58:04.585Z</time></trkpt><trkpt lat="45.3587183" lon="10.59351"><ele>146.0</ele><time>2026-05-01T11:58:05.583Z</time></trkpt><trkpt lat="45.3588267" lon="10.59337"><ele>148.2</ele><time>2026-05-01T11:58:06.595Z</time></trkpt><trkpt lat="45.3589017" lon="10.5932683"><ele>150.39999999999998</ele><time>2026-05-01T11:58:07.589Z</time></trkpt><trkpt lat="45.3589817" lon="10.5931967"><ele>152.6</ele><time>2026-05-01T11:58:08.59Z</time></trkpt><trkpt lat="45.3590417" lon="10.593145"><ele>154.79999999999998</ele><time>2026-05-01T11:58:09.587Z</time></trkpt><trkpt lat="45.359145" lon="10.5930417"><ele>157.0</ele><time>2026-05-01T11:58:10.591Z</time></trkpt><trkpt lat="45.3592467" lon="10.5929367"><ele>158.25</ele><time>2026-05-01T11:58:11.591Z</time></trkpt><trkpt lat="45.35935" lon="10.5928017"><ele>159.5</ele><time>2026-05-01T11:58:12.589Z</time></trkpt><trkpt lat="45.3594767" lon="10.5926883"><ele>160.75</ele><time>2026-05-01T11:58:13.59Z</time></trkpt><trkpt lat="45.3596033" lon="10.5926233"><ele>162.0</ele><time>2026-05-01T11:58:14.595Z</time></trkpt><trkpt lat="45.3597283" lon="10.5925317"><ele>162.0</ele><time>2026-05-01T11:58:15.599Z</time></trkpt><trkpt lat="45.3598433" lon="10.5924533"><ele>162.0</ele><time>2026-05-01T11:58:16.585Z</time></trkpt><trkpt lat="45.35995" lon="10.5923483"><ele>162.0</ele><time>2026-05-01T11:58:17.586Z</time></trkpt><trkpt lat="45.36003" lon="10.5922117"><ele>162.0</ele><time>2026-05-01T11:58:18.593Z</time></trkpt><trkpt lat="45.360075" lon="10.5920717"><ele>162.0</ele><time>2026-05-01T11:58:19.592Z</time></trkpt><trkpt lat="45.360155" lon="10.5919517"><ele>162.0</ele><time>2026-05-01T11:58:20.587Z</time></trkpt><trkpt lat="45.3602467" lon="10.5918267"><ele>162.0</ele><time>2026-05-01T11:58:21.589Z</time></trkpt><trkpt lat="45.360345" lon="10.5916917"><ele>162.0</ele><time>2026-05-01T11:58:22.599Z</time></trkpt><trkpt lat="45.3604433" lon="10.59156"><ele>162.0</ele><time>2026-05-01T11:58:23.592Z</time></trkpt><trkpt lat="45.3605267" lon="10.5914233"><ele>162.0</ele><time>2026-05-01T11:58:24.591Z</time></trkpt><trkpt lat="45.3605917" lon="10.5912783"><ele>162.0</ele><time>2026-05-01T11:58:25.597Z</time></trkpt><trkpt lat="45.3606517" lon="10.5911067"><ele>162.0</ele><time>2026-05-01T11:58:26.589Z</time></trkpt><trkpt lat="45.3607017" lon="10.59092"><ele>161.0</ele><time>2026-05-01T11:58:27.592Z</time></trkpt><trkpt lat="45.3607317" lon="10.590755"><ele>160.0</ele><time>2026-05-01T11:58:28.597Z</time></trkpt><trkpt lat="45.3607683" lon="10.59059"><ele>159.0</ele><time>2026-05-01T11:58:29.6Z</time></trkpt><trkpt lat="45.36081" lon="10.5904"><ele>158.0</ele><time>2026-05-01T11:58:30.589Z</time></trkpt><trkpt lat="45.3608383" lon="10.5902017"><ele>156.75</ele><time>2026-05-01T11:58:31.597Z</time></trkpt><trkpt lat="45.3608783" lon="10.5900517"><ele>155.5</ele><time>2026-05-01T11:58:32.603Z</time></trkpt><trkpt lat="45.360955" lon="10.5898833"><ele>154.25</ele><time>2026-05-01T11:58:33.597Z</time></trkpt><trkpt lat="45.3610417" lon="10.5897317"><ele>153.0</ele><time>2026-05-01T11:58:34.6Z</time></trkpt><trkpt lat="45.3611317" lon="10.589585"><ele>151.66666666666666</ele><time>2026-05-01T11:58:35.597Z</time></trkpt><trkpt lat="45.36118" lon="10.589405"><ele>150.33333333333331</ele><time>2026-05-01T11:58:36.614Z</time></trkpt><trkpt lat="45.3612933" lon="10.589175"><ele>149.0</ele><time>2026-05-01T11:58:37.593Z</time></trkpt><trkpt lat="45.3613517" lon="10.5890217"><ele>150.0</ele><time>2026-05-01T11:58:38.594Z</time></trkpt><trkpt lat="45.3614083" lon="10.5888467"><ele>151.0</ele><time>2026-05-01T11:58:39.588Z</time></trkpt><trkpt lat="45.3614533" lon="10.5886983"><ele>152.0</ele><time>2026-05-01T11:58:40.601Z</time></trkpt><trkpt lat="45.3614767" lon="10.5885917"><ele>153.0</ele><time>2026-05-01T11:58:41.599Z</time></trkpt><trkpt lat="45.3614717" lon="10.5884817"><ele>154.0</ele><time>2026-05-01T11:58:42.599Z</time></trkpt><trkpt lat="45.3614467" lon="10.588345"><ele>154.75</ele><time>2026-05-01T11:58:43.593Z</time></trkpt><trkpt lat="45.36143" lon="10.588195"><ele>155.5</ele><time>2026-05-01T11:58:44.598Z</time></trkpt><trkpt lat="45.3613833" lon="10.5880167"><ele>156.25</ele><time>2026-05-01T11:58:45.594Z</time></trkpt><trkpt lat="45.36133" lon="10.5878683"><ele>157.0</ele><time>2026-05-01T11:58:46.586Z</time></trkpt><trkpt lat="45.3612567" lon="10.5877867"><ele>155.5</ele><time>2026-05-01T11:58:47.592Z</time></trkpt><trkpt lat="45.3612133" lon="10.5876083"><ele>154.0</ele><time>2026-05-01T11:58:48.589Z</time></trkpt><trkpt lat="45.361195" lon="10.5874233"><ele>152.5</ele><time>2026-05-01T11:58:49.583Z</time></trkpt><trkpt lat="45.3611583" lon="10.587205"><ele>151.0</ele><time>2026-05-01T11:58:50.592Z</time></trkpt><trkpt lat="45.3611217" lon="10.58696"><ele>151.0</ele><time>2026-05-01T11:58:51.59Z</time></trkpt><trkpt lat="45.3610883" lon="10.5867567"><ele>151.0</ele><time>2026-05-01T11:58:52.591Z</time></trkpt><trkpt lat="45.3610683" lon="10.58659"><ele>151.0</ele><time>2026-05-01T11:58:53.595Z</time></trkpt><trkpt lat="45.36105" lon="10.586425"><ele>151.0</ele><time>2026-05-01T11:58:54.598Z</time></trkpt><trkpt lat="45.361035" lon="10.5862767"><ele>152.25</ele><time>2026-05-01T11:58:55.596Z</time></trkpt><trkpt lat="45.3610383" lon="10.5861317"><ele>153.5</ele><time>2026-05-01T11:58:56.593Z</time></trkpt><trkpt lat="45.3610483" lon="10.5859683"><ele>154.75</ele><time>2026-05-01T11:58:57.608Z</time></trkpt><trkpt lat="45.3611" lon="10.5857667"><ele>156.0</ele><time>2026-05-01T11:58:58.593Z</time></trkpt><trkpt lat="45.3611133" lon="10.5856117"><ele>156.0</ele><time>2026-05-01T11:58:59.612Z</time></trkpt><trkpt lat="45.3611417" lon="10.585455"><ele>156.0</ele><time>2026-05-01T11:59:00.604Z</time></trkpt><trkpt lat="45.3611" lon="10.58531"><ele>156.0</ele><time>2026-05-01T11:59:01.592Z</time></trkpt><trkpt lat="45.3610383" lon="10.5851867"><ele>156.0</ele><time>2026-05-01T11:59:03.593Z</time></trkpt><trkpt lat="45.3609467" lon="10.58515"><ele>156.0</ele><time>2026-05-01T11:59:04.586Z</time></trkpt><trkpt lat="45.3608117" lon="10.5850767"><ele>156.33333333333334</ele><time>2026-05-01T11:59:05.599Z</time></trkpt><trkpt lat="45.3607067" lon="10.585075"><ele>156.66666666666666</ele><time>2026-05-01T11:59:06.602Z</time></trkpt><trkpt lat="45.3606283" lon="10.58507"><ele>157.0</ele><time>2026-05-01T11:59:07.595Z</time></trkpt><trkpt lat="45.3605683" lon="10.5850383"><ele>157.33333333333331</ele><time>2026-05-01T11:59:09.594Z</time></trkpt><trkpt lat="45.3606017" lon="10.584955"><ele>157.66666666666666</ele><time>2026-05-01T11:59:10.595Z</time></trkpt><trkpt lat="45.3606333" lon="10.5848617"><ele>158.0</ele><time>2026-05-01T11:59:11.58Z</time></trkpt><trkpt lat="45.3606783" lon="10.5847367"><ele>158.0</ele><time>2026-05-01T11:59:12.601Z</time></trkpt><trkpt lat="45.360755" lon="10.5845317"><ele>158.0</ele><time>2026-05-01T11:59:13.591Z</time></trkpt><trkpt lat="45.3607967" lon="10.5843317"><ele>158.0</ele><time>2026-05-01T11:59:14.611Z</time></trkpt><trkpt lat="45.3608083" lon="10.584135"><ele>158.0</ele><time>2026-05-01T11:59:15.599Z</time></trkpt><trkpt lat="45.3607917" lon="10.5839133"><ele>158.0</ele><time>2026-05-01T11:59:16.601Z</time></trkpt><trkpt lat="45.3607983" lon="10.58373"><ele>158.0</ele><time>2026-05-01T11:59:17.597Z</time></trkpt><trkpt lat="45.3608117" lon="10.583555"><ele>158.0</ele><time>2026-05-01T11:59:18.598Z</time></trkpt><trkpt lat="45.36082" lon="10.5833983"><ele>158.0</ele><time>2026-05-01T11:59:19.59Z</time></trkpt><trkpt lat="45.3608067" lon="10.583265"><ele>157.8</ele><time>2026-05-01T11:59:20.589Z</time></trkpt><trkpt lat="45.3607567" lon="10.5831983"><ele>157.60000000000002</ele><time>2026-05-01T11:59:21.597Z</time></trkpt><trkpt lat="45.36067" lon="10.583125"><ele>157.39999999999998</ele><time>2026-05-01T11:59:22.593Z</time></trkpt><trkpt lat="45.3605717" lon="10.5830767"><ele>157.2</ele><time>2026-05-01T11:59:23.594Z</time></trkpt><trkpt lat="45.3604733" lon="10.5830317"><ele>157.0</ele><time>2026-05-01T11:59:24.591Z</time></trkpt><trkpt lat="45.3603783" lon="10.58297"><ele>155.16666666666669</ele><time>2026-05-01T11:59:25.599Z</time></trkpt><trkpt lat="45.3603133" lon="10.5829083"><ele>153.33333333333334</ele><time>2026-05-01T11:59:26.592Z</time></trkpt><trkpt lat="45.360265" lon="10.5828383"><ele>151.5</ele><time>2026-05-01T11:59:27.588Z</time></trkpt><trkpt lat="45.3602533" lon="10.582735"><ele>149.66666666666666</ele><time>2026-05-01T11:59:28.581Z</time></trkpt><trkpt lat="45.3602467" lon="10.5826167"><ele>147.83333333333331</ele><time>2026-05-01T11:59:29.59Z</time></trkpt><trkpt lat="45.360235" lon="10.5825033"><ele>146.0</ele><time>2026-05-01T11:59:30.593Z</time></trkpt><trkpt lat="45.3602417" lon="10.5823967"><ele>146.0</ele><time>2026-05-01T11:59:31.592Z</time></trkpt><trkpt lat="45.3602933" lon="10.5823033"><ele>146.0</ele><time>2026-05-01T11:59:32.589Z</time></trkpt><trkpt lat="45.360365" lon="10.5821983"><ele>146.0</ele><time>2026-05-01T11:59:33.596Z</time></trkpt><trkpt lat="45.3604367" lon="10.5820767"><ele>146.0</ele><time>2026-05-01T11:59:34.584Z</time></trkpt><trkpt lat="45.3605617" lon="10.5819517"><ele>146.5</ele><time>2026-05-01T11:59:35.593Z</time></trkpt><trkpt lat="45.3606667" lon="10.5818167"><ele>147.0</ele><time>2026-05-01T11:59:36.589Z</time></trkpt><trkpt lat="45.3607533" lon="10.5816983"><ele>147.5</ele><time>2026-05-01T11:59:37.592Z</time></trkpt><trkpt lat="45.3608017" lon="10.5815317"><ele>148.0</ele><time>2026-05-01T11:59:38.595Z</time></trkpt><trkpt lat="45.360855" lon="10.5813833"><ele>148.0</ele><time>2026-05-01T11:59:39.611Z</time></trkpt><trkpt lat="45.3608733" lon="10.5812467"><ele>148.0</ele><time>2026-05-01T11:59:40.593Z</time></trkpt><trkpt lat="45.3608533" lon="10.5811433"><ele>148.0</ele><time>2026-05-01T11:59:41.595Z</time></trkpt><trkpt lat="45.360855" lon="10.58104"><ele>148.0</ele><time>2026-05-01T11:59:42.593Z</time></trkpt><trkpt lat="45.36087" lon="10.5809267"><ele>148.0</ele><time>2026-05-01T11:59:43.594Z</time></trkpt><trkpt lat="45.3608817" lon="10.5808233"><ele>148.0</ele><time>2026-05-01T11:59:44.593Z</time></trkpt><trkpt lat="45.3608817" lon="10.5806867"><ele>148.0</ele><time>2026-05-01T11:59:45.598Z</time></trkpt><trkpt lat="45.3608683" lon="10.5805867"><ele>148.0</ele><time>2026-05-01T11:59:46.591Z</time></trkpt><trkpt lat="45.360865" lon="10.5804933"><ele>148.0</ele><time>2026-05-01T11:59:47.596Z</time></trkpt><trkpt lat="45.36087" lon="10.5803983"><ele>148.0</ele><time>2026-05-01T11:59:48.595Z</time></trkpt><trkpt lat="45.36088" lon="10.5803"><ele>148.0</ele><time>2026-05-01T11:59:49.598Z</time></trkpt><trkpt lat="45.3609067" lon="10.5801817"><ele>148.0</ele><time>2026-05-01T11:59:50.594Z</time></trkpt><trkpt lat="45.360945" lon="10.580095"><ele>148.0</ele><time>2026-05-01T11:59:51.606Z</time></trkpt><trkpt lat="45.3610433" lon="10.58004"><ele>148.0</ele><time>2026-05-01T11:59:53.591Z</time></trkpt><trkpt lat="45.3611767" lon="10.5801"><ele>148.0</ele><time>2026-05-01T11:59:55.593Z</time></trkpt><trkpt lat="45.36125" lon="10.5801817"><ele>148.0</ele><time>2026-05-01T11:59:56.581Z</time></trkpt><trkpt lat="45.3613217" lon="10.5802817"><ele>148.0</ele><time>2026-05-01T11:59:57.591Z</time></trkpt><trkpt lat="45.3613683" lon="10.580375"><ele>148.0</ele><time>2026-05-01T11:59:58.605Z</time></trkpt><trkpt lat="45.361405" lon="10.5804567"><ele>148.8</ele><time>2026-05-01T11:59:59.594Z</time></trkpt><trkpt lat="45.3614633" lon="10.5806033"><ele>149.60000000000002</ele><time>2026-05-01T12:00:01.598Z</time></trkpt><trkpt lat="45.3615033" lon="10.5806917"><ele>150.39999999999998</ele><time>2026-05-01T12:00:02.583Z</time></trkpt><trkpt lat="45.3615483" lon="10.5807767"><ele>151.2</ele><time>2026-05-01T12:00:03.59Z</time></trkpt><trkpt lat="45.36161" lon="10.5808633"><ele>152.0</ele><time>2026-05-01T12:00:04.597Z</time></trkpt><trkpt lat="45.3616883" lon="10.580945"><ele>152.0</ele><time>2026-05-01T12:00:05.593Z</time></trkpt><trkpt lat="45.3617767" lon="10.5810267"><ele>152.0</ele><time>2026-05-01T12:00:06.592Z</time></trkpt><trkpt lat="45.3618733" lon="10.5811117"><ele>152.0</ele><time>2026-05-01T12:00:07.593Z</time></trkpt><trkpt lat="45.3619433" lon="10.5812083"><ele>152.0</ele><time>2026-05-01T12:00:08.581Z</time></trkpt><trkpt lat="45.362015" lon="10.5813133"><ele>152.0</ele><time>2026-05-01T12:00:09.588Z</time></trkpt><trkpt lat="45.3620717" lon="10.5814083"><ele>152.79999999999998</ele><time>2026-05-01T12:00:10.597Z</time></trkpt><trkpt lat="45.3621217" lon="10.581495"><ele>153.6</ele><time>2026-05-01T12:00:11.591Z</time></trkpt><trkpt lat="45.3621233" lon="10.581635"><ele>154.39999999999998</ele><time>2026-05-01T12:00:12.591Z</time></trkpt><trkpt lat="45.36213" lon="10.581805"><ele>155.2</ele><time>2026-05-01T12:00:13.592Z</time></trkpt><trkpt lat="45.3621533" lon="10.5819733"><ele>156.0</ele><time>2026-05-01T12:00:14.59Z</time></trkpt><trkpt lat="45.3621533" lon="10.58218"><ele>156.75</ele><time>2026-05-01T12:00:15.599Z</time></trkpt><trkpt lat="45.3621533" lon="10.5824017"><ele>157.5</ele><time>2026-05-01T12:00:16.619Z</time></trkpt><trkpt lat="45.362175" lon="10.5826117"><ele>158.25</ele><time>2026-05-01T12:00:17.598Z</time></trkpt><trkpt lat="45.3621917" lon="10.582805"><ele>159.0</ele><time>2026-05-01T12:00:18.588Z</time></trkpt><trkpt lat="45.3622167" lon="10.5830333"><ele>156.0</ele><time>2026-05-01T12:00:19.597Z</time></trkpt><trkpt lat="45.3622533" lon="10.5832417"><ele>153.0</ele><time>2026-05-01T12:00:20.596Z</time></trkpt><trkpt lat="45.362285" lon="10.5834567"><ele>150.0</ele><time>2026-05-01T12:00:21.592Z</time></trkpt><trkpt lat="45.3623217" lon="10.583665"><ele>150.75</ele><time>2026-05-01T12:00:22.588Z</time></trkpt><trkpt lat="45.3623733" lon="10.5838567"><ele>151.5</ele><time>2026-05-01T12:00:23.592Z</time></trkpt><trkpt lat="45.3624233" lon="10.5839717"><ele>152.25</ele><time>2026-05-01T12:00:24.593Z</time></trkpt><trkpt lat="45.3624367" lon="10.584135"><ele>153.0</ele><time>2026-05-01T12:00:25.585Z</time></trkpt><trkpt lat="45.3624517" lon="10.5842967"><ele>153.0</ele><time>2026-05-01T12:00:26.6Z</time></trkpt><trkpt lat="45.3624767" lon="10.5844417"><ele>153.0</ele><time>2026-05-01T12:00:27.591Z</time></trkpt><trkpt lat="45.3625117" lon="10.5845633"><ele>153.0</ele><time>2026-05-01T12:00:28.592Z</time></trkpt><trkpt lat="45.362575" lon="10.5846683"><ele>153.0</ele><time>2026-05-01T12:00:29.589Z</time></trkpt><trkpt lat="45.3626183" lon="10.58479"><ele>153.0</ele><time>2026-05-01T12:00:30.593Z</time></trkpt><trkpt lat="45.36265" lon="10.584905"><ele>153.0</ele><time>2026-05-01T12:00:31.587Z</time></trkpt><trkpt lat="45.36267" lon="10.5850217"><ele>153.0</ele><time>2026-05-01T12:00:32.594Z</time></trkpt><trkpt lat="45.362655" lon="10.5851467"><ele>153.0</ele><time>2026-05-01T12:00:33.594Z</time></trkpt><trkpt lat="45.3625867" lon="10.5852883"><ele>153.0</ele><time>2026-05-01T12:00:34.593Z</time></trkpt><trkpt lat="45.36253" lon="10.585455"><ele>153.0</ele><time>2026-05-01T12:00:35.601Z</time></trkpt><trkpt lat="45.3625" lon="10.5855817"><ele>153.0</ele><time>2026-05-01T12:00:36.598Z</time></trkpt><trkpt lat="45.3624933" lon="10.58572"><ele>153.0</ele><time>2026-05-01T12:00:37.592Z</time></trkpt><trkpt lat="45.3624917" lon="10.5858467"><ele>153.0</ele><time>2026-05-01T12:00:38.589Z</time></trkpt><trkpt lat="45.3625167" lon="10.5859983"><ele>153.0</ele><time>2026-05-01T12:00:39.599Z</time></trkpt><trkpt lat="45.3625333" lon="10.5861117"><ele>153.0</ele><time>2026-05-01T12:00:40.596Z</time></trkpt><trkpt lat="45.3625667" lon="10.5862317"><ele>153.4</ele><time>2026-05-01T12:00:41.591Z</time></trkpt><trkpt lat="45.3625833" lon="10.58637"><ele>153.8</ele><time>2026-05-01T12:00:42.596Z</time></trkpt><trkpt lat="45.3626083" lon="10.5865767"><ele>154.2</ele><time>2026-05-01T12:00:43.591Z</time></trkpt><trkpt lat="45.3626133" lon="10.5866833"><ele>154.6</ele><time>2026-05-01T12:00:44.591Z</time></trkpt><trkpt lat="45.362655" lon="10.5868333"><ele>155.0</ele><time>2026-05-01T12:00:46.593Z</time></trkpt><trkpt lat="45.3628083" lon="10.5869067"><ele>155.0</ele><time>2026-05-01T12:00:48.6Z</time></trkpt><trkpt lat="45.362915" lon="10.5869133"><ele>155.0</ele><time>2026-05-01T12:00:49.598Z</time></trkpt><trkpt lat="45.36303" lon="10.5868967"><ele>155.0</ele><time>2026-05-01T12:00:50.593Z</time></trkpt><trkpt lat="45.3631767" lon="10.5868617"><ele>155.0</ele><time>2026-05-01T12:00:51.59Z</time></trkpt><trkpt lat="45.3632967" lon="10.586835"><ele>154.33333333333331</ele><time>2026-05-01T12:00:52.589Z</time></trkpt><trkpt lat="45.3633633" lon="10.5868583"><ele>153.66666666666666</ele><time>2026-05-01T12:00:53.592Z</time></trkpt><trkpt lat="45.363475" lon="10.58691"><ele>153.0</ele><time>2026-05-01T12:00:55.585Z</time></trkpt><trkpt lat="45.3635183" lon="10.5869833"><ele>152.33333333333334</ele><time>2026-05-01T12:00:56.591Z</time></trkpt><trkpt lat="45.3635467" lon="10.5870917"><ele>151.66666666666669</ele><time>2026-05-01T12:00:57.585Z</time></trkpt><trkpt lat="45.3635667" lon="10.5872033"><ele>151.0</ele><time>2026-05-01T12:00:58.602Z</time></trkpt><trkpt lat="45.36358" lon="10.5873183"><ele>151.0</ele><time>2026-05-01T12:00:59.589Z</time></trkpt><trkpt lat="45.36359" lon="10.5874417"><ele>151.0</ele><time>2026-05-01T12:01:00.59Z</time></trkpt><trkpt lat="45.3636117" lon="10.587555"><ele>151.0</ele><time>2026-05-01T12:01:01.591Z</time></trkpt><trkpt lat="45.3636433" lon="10.5876717"><ele>151.0</ele><time>2026-05-01T12:01:02.596Z</time></trkpt><trkpt lat="45.3637183" lon="10.58777"><ele>151.0</ele><time>2026-05-01T12:01:03.592Z</time></trkpt><trkpt lat="45.3637967" lon="10.5878733"><ele>147.75</ele><time>2026-05-01T12:01:04.584Z</time></trkpt><trkpt lat="45.3639333" lon="10.5879633"><ele>144.5</ele><time>2026-05-01T12:01:05.59Z</time></trkpt><trkpt lat="45.3640633" lon="10.5880217"><ele>141.25</ele><time>2026-05-01T12:01:06.582Z</time></trkpt><trkpt lat="45.364175" lon="10.5880567"><ele>138.0</ele><time>2026-05-01T12:01:07.598Z</time></trkpt><trkpt lat="45.3642633" lon="10.5881033"><ele>138.0</ele><time>2026-05-01T12:01:08.59Z</time></trkpt><trkpt lat="45.3643467" lon="10.5881317"><ele>138.0</ele><time>2026-05-01T12:01:09.588Z</time></trkpt><trkpt lat="45.3644283" lon="10.5881767"><ele>138.0</ele><time>2026-05-01T12:01:10.601Z</time></trkpt><trkpt lat="45.36453" lon="10.5882333"><ele>138.0</ele><time>2026-05-01T12:01:11.59Z</time></trkpt><trkpt lat="45.3646433" lon="10.588285"><ele>138.0</ele><time>2026-05-01T12:01:12.59Z</time></trkpt><trkpt lat="45.3647517" lon="10.588335"><ele>138.5</ele><time>2026-05-01T12:01:13.589Z</time></trkpt><trkpt lat="45.3648617" lon="10.5883633"><ele>139.0</ele><time>2026-05-01T12:01:14.591Z</time></trkpt><trkpt lat="45.364975" lon="10.5883983"><ele>139.5</ele><time>2026-05-01T12:01:15.588Z</time></trkpt><trkpt lat="45.3650983" lon="10.5884167"><ele>140.0</ele><time>2026-05-01T12:01:16.588Z</time></trkpt><trkpt lat="45.3652417" lon="10.5884167"><ele>140.0</ele><time>2026-05-01T12:01:17.584Z</time></trkpt><trkpt lat="45.3653683" lon="10.58842"><ele>140.0</ele><time>2026-05-01T12:01:18.591Z</time></trkpt><trkpt lat="45.36551" lon="10.5883817"><ele>140.0</ele><time>2026-05-01T12:01:19.586Z</time></trkpt><trkpt lat="45.36564" lon="10.5883717"><ele>140.0</ele><time>2026-05-01T12:01:20.609Z</time></trkpt><trkpt lat="45.36575" lon="10.58838"><ele>140.5</ele><time>2026-05-01T12:01:21.592Z</time></trkpt><trkpt lat="45.3658483" lon="10.588415"><ele>141.0</ele><time>2026-05-01T12:01:22.589Z</time></trkpt><trkpt lat="45.3659433" lon="10.5884633"><ele>141.5</ele><time>2026-05-01T12:01:23.597Z</time></trkpt><trkpt lat="45.3660117" lon="10.5884867"><ele>142.0</ele><time>2026-05-01T12:01:24.595Z</time></trkpt><trkpt lat="45.3660767" lon="10.5885167"><ele>142.5</ele><time>2026-05-01T12:01:25.591Z</time></trkpt><trkpt lat="45.3661583" lon="10.5885983"><ele>143.0</ele><time>2026-05-01T12:01:27.59Z</time></trkpt><trkpt lat="45.3661433" lon="10.5886983"><ele>143.25</ele><time>2026-05-01T12:01:28.59Z</time></trkpt><trkpt lat="45.3661117" lon="10.58882"><ele>143.5</ele><time>2026-05-01T12:01:29.588Z</time></trkpt><trkpt lat="45.366045" lon="10.588985"><ele>143.75</ele><time>2026-05-01T12:01:30.591Z</time></trkpt><trkpt lat="45.3660117" lon="10.589185"><ele>144.0</ele><time>2026-05-01T12:01:31.591Z</time></trkpt><trkpt lat="45.3659717" lon="10.5893767"><ele>144.0</ele><time>2026-05-01T12:01:32.589Z</time></trkpt><trkpt lat="45.3659167" lon="10.5895667"><ele>144.0</ele><time>2026-05-01T12:01:33.59Z</time></trkpt><trkpt lat="45.365885" lon="10.589705"><ele>144.0</ele><time>2026-05-01T12:01:34.593Z</time></trkpt><trkpt lat="45.365885" lon="10.5898"><ele>144.0</ele><time>2026-05-01T12:01:35.587Z</time></trkpt><trkpt lat="45.3658933" lon="10.58989"><ele>144.0</ele><time>2026-05-01T12:01:36.589Z</time></trkpt><trkpt lat="45.3659217" lon="10.5900233"><ele>144.0</ele><time>2026-05-01T12:01:38.591Z</time></trkpt><trkpt lat="45.36596" lon="10.59013"><ele>144.0</ele><time>2026-05-01T12:01:41.592Z</time></trkpt><trkpt lat="45.3659783" lon="10.5902183"><ele>144.0</ele><time>2026-05-01T12:01:43.589Z</time></trkpt><trkpt lat="45.3660317" lon="10.5903467"><ele>144.0</ele><time>2026-05-01T12:01:49.593Z</time></trkpt><trkpt lat="45.3661333" lon="10.590345"><ele>144.0</ele><time>2026-05-01T12:01:52.59Z</time></trkpt><trkpt lat="45.3661667" lon="10.5902667"><ele>144.0</ele><time>2026-05-01T12:01:53.587Z</time></trkpt><trkpt lat="45.3662" lon="10.5901867"><ele>144.0</ele><time>2026-05-01T12:01:54.6Z</time></trkpt><trkpt lat="45.3662567" lon="10.590025"><ele>144.0</ele><time>2026-05-01T12:01:56.593Z</time></trkpt><trkpt lat="45.3663617" lon="10.5899533"><ele>144.0</ele><time>2026-05-01T12:01:58.582Z</time></trkpt><trkpt lat="45.366465" lon="10.5899517"><ele>144.0</ele><time>2026-05-01T12:01:59.587Z</time></trkpt><trkpt lat="45.36657" lon="10.5899683"><ele>144.75</ele><time>2026-05-01T12:02:00.593Z</time></trkpt><trkpt lat="45.36671" lon="10.5899967"><ele>145.5</ele><time>2026-05-01T12:02:01.59Z</time></trkpt><trkpt lat="45.3668617" lon="10.5900183"><ele>146.25</ele><time>2026-05-01T12:02:02.593Z</time></trkpt><trkpt lat="45.3670067" lon="10.5900717"><ele>147.0</ele><time>2026-05-01T12:02:03.584Z</time></trkpt><trkpt lat="45.3671567" lon="10.5901233"><ele>147.4</ele><time>2026-05-01T12:02:04.591Z</time></trkpt><trkpt lat="45.3672783" lon="10.5901417"><ele>147.79999999999998</ele><time>2026-05-01T12:02:05.593Z</time></trkpt><trkpt lat="45.3673867" lon="10.5901633"><ele>148.2</ele><time>2026-05-01T12:02:06.598Z</time></trkpt><trkpt lat="45.36748" lon="10.5901733"><ele>148.6</ele><time>2026-05-01T12:02:07.59Z</time></trkpt><trkpt lat="45.3675617" lon="10.5901883"><ele>149.0</ele><time>2026-05-01T12:02:08.587Z</time></trkpt><trkpt lat="45.3676367" lon="10.5902183"><ele>149.0</ele><time>2026-05-01T12:02:09.592Z</time></trkpt><trkpt lat="45.3677017" lon="10.590275"><ele>149.0</ele><time>2026-05-01T12:02:10.592Z</time></trkpt><trkpt lat="45.3677617" lon="10.590355"><ele>149.0</ele><time>2026-05-01T12:02:11.595Z</time></trkpt><trkpt lat="45.36781" lon="10.59042"><ele>149.0</ele><time>2026-05-01T12:02:12.594Z</time></trkpt><trkpt lat="45.367915" lon="10.5905167"><ele>149.0</ele><time>2026-05-01T12:02:14.592Z</time></trkpt><trkpt lat="45.3680183" lon="10.5904833"><ele>148.5</ele><time>2026-05-01T12:02:15.598Z</time></trkpt><trkpt lat="45.3681083" lon="10.59047"><ele>148.0</ele><time>2026-05-01T12:02:16.591Z</time></trkpt><trkpt lat="45.3681883" lon="10.5904717"><ele>147.5</ele><time>2026-05-01T12:02:17.584Z</time></trkpt><trkpt lat="45.3682683" lon="10.5904767"><ele>147.0</ele><time>2026-05-01T12:02:18.596Z</time></trkpt><trkpt lat="45.3683783" lon="10.5905017"><ele>146.5</ele><time>2026-05-01T12:02:20.583Z</time></trkpt><trkpt lat="45.3684317" lon="10.5905817"><ele>146.0</ele><time>2026-05-01T12:02:22.597Z</time></trkpt><trkpt lat="45.368445" lon="10.5907167"><ele>146.0</ele><time>2026-05-01T12:02:24.592Z</time></trkpt><trkpt lat="45.3684183" lon="10.5908233"><ele>146.0</ele><time>2026-05-01T12:02:25.592Z</time></trkpt><trkpt lat="45.3683967" lon="10.5909567"><ele>146.0</ele><time>2026-05-01T12:02:26.594Z</time></trkpt><trkpt lat="45.3683583" lon="10.591145"><ele>146.0</ele><time>2026-05-01T12:02:27.591Z</time></trkpt><trkpt lat="45.368305" lon="10.5913517"><ele>146.33333333333331</ele><time>2026-05-01T12:02:28.594Z</time></trkpt><trkpt lat="45.3682517" lon="10.5916067"><ele>146.66666666666666</ele><time>2026-05-01T12:02:29.587Z</time></trkpt><trkpt lat="45.36821" lon="10.5918183"><ele>147.0</ele><time>2026-05-01T12:02:30.591Z</time></trkpt><trkpt lat="45.368175" lon="10.5920267"><ele>147.5</ele><time>2026-05-01T12:02:31.594Z</time></trkpt><trkpt lat="45.3681417" lon="10.592205"><ele>148.0</ele><time>2026-05-01T12:02:32.595Z</time></trkpt><trkpt lat="45.3681217" lon="10.5923717"><ele>148.5</ele><time>2026-05-01T12:02:33.588Z</time></trkpt><trkpt lat="45.36809" lon="10.59257"><ele>149.0</ele><time>2026-05-01T12:02:34.597Z</time></trkpt><trkpt lat="45.36807" lon="10.5927367"><ele>148.6</ele><time>2026-05-01T12:02:35.6Z</time></trkpt><trkpt lat="45.3680633" lon="10.5928833"><ele>148.2</ele><time>2026-05-01T12:02:36.596Z</time></trkpt><trkpt lat="45.3680567" lon="10.5930183"><ele>147.79999999999998</ele><time>2026-05-01T12:02:37.594Z</time></trkpt><trkpt lat="45.3680617" lon="10.593125"><ele>147.4</ele><time>2026-05-01T12:02:38.597Z</time></trkpt><trkpt lat="45.368125" lon="10.5932733"><ele>147.0</ele><time>2026-05-01T12:02:40.586Z</time></trkpt><trkpt lat="45.3682533" lon="10.59331"><ele>147.0</ele><time>2026-05-01T12:02:42.591Z</time></trkpt><trkpt lat="45.368335" lon="10.5933"><ele>147.0</ele><time>2026-05-01T12:02:43.596Z</time></trkpt><trkpt lat="45.368425" lon="10.5932933"><ele>147.0</ele><time>2026-05-01T12:02:44.597Z</time></trkpt><trkpt lat="45.368495" lon="10.5933083"><ele>147.0</ele><time>2026-05-01T12:02:45.599Z</time></trkpt><trkpt lat="45.3685633" lon="10.5933617"><ele>147.0</ele><time>2026-05-01T12:02:46.58Z</time></trkpt><trkpt lat="45.3686283" lon="10.593455"><ele>147.0</ele><time>2026-05-01T12:02:47.589Z</time></trkpt><trkpt lat="45.3686917" lon="10.5935617"><ele>147.5</ele><time>2026-05-01T12:02:48.592Z</time></trkpt><trkpt lat="45.3687633" lon="10.59373"><ele>148.0</ele><time>2026-05-01T12:02:49.588Z</time></trkpt><trkpt lat="45.3688517" lon="10.5939033"><ele>148.5</ele><time>2026-05-01T12:02:50.597Z</time></trkpt><trkpt lat="45.3689267" lon="10.5940567"><ele>149.0</ele><time>2026-05-01T12:02:51.592Z</time></trkpt><trkpt lat="45.3689917" lon="10.5941933"><ele>144.0</ele><time>2026-05-01T12:02:52.587Z</time></trkpt><trkpt lat="45.36904" lon="10.5943233"><ele>139.0</ele><time>2026-05-01T12:02:53.591Z</time></trkpt><trkpt lat="45.36908" lon="10.594495"><ele>134.0</ele><time>2026-05-01T12:02:54.6Z</time></trkpt><trkpt lat="45.3689533" lon="10.594785"><ele>133.5</ele><time>2026-05-01T12:02:55.581Z</time></trkpt><trkpt lat="45.3689383" lon="10.59499"><ele>133.0</ele><time>2026-05-01T12:02:56.591Z</time></trkpt><trkpt lat="45.3689233" lon="10.595195"><ele>132.5</ele><time>2026-05-01T12:02:57.589Z</time></trkpt><trkpt lat="45.3689117" lon="10.5953983"><ele>132.0</ele><time>2026-05-01T12:02:58.588Z</time></trkpt><trkpt lat="45.3689183" lon="10.595565"><ele>132.0</ele><time>2026-05-01T12:02:59.59Z</time></trkpt><trkpt lat="45.3689467" lon="10.5957133"><ele>132.0</ele><time>2026-05-01T12:03:00.589Z</time></trkpt><trkpt lat="45.369015" lon="10.5958617"><ele>132.0</ele><time>2026-05-01T12:03:01.585Z</time></trkpt><trkpt lat="45.3690917" lon="10.596015"><ele>132.0</ele><time>2026-05-01T12:03:02.585Z</time></trkpt><trkpt lat="45.3691733" lon="10.5961483"><ele>131.2</ele><time>2026-05-01T12:03:03.61Z</time></trkpt><trkpt lat="45.3692183" lon="10.59629"><ele>130.39999999999998</ele><time>2026-05-01T12:03:04.605Z</time></trkpt><trkpt lat="45.3692717" lon="10.596415"><ele>129.60000000000002</ele><time>2026-05-01T12:03:06.602Z</time></trkpt><trkpt lat="45.36935" lon="10.596435"><ele>128.8</ele><time>2026-05-01T12:03:08.588Z</time></trkpt><trkpt lat="45.369415" lon="10.596415"><ele>128.0</ele><time>2026-05-01T12:03:09.603Z</time></trkpt><trkpt lat="45.3695117" lon="10.59639"><ele>128.0</ele><time>2026-05-01T12:03:11.614Z</time></trkpt><trkpt lat="45.3696183" lon="10.5963033"><ele>128.0</ele><time>2026-05-01T12:03:18.592Z</time></trkpt><trkpt lat="45.36972" lon="10.5962667"><ele>128.0</ele><time>2026-05-01T12:03:19.613Z</time></trkpt><trkpt lat="45.36985" lon="10.596205"><ele>128.0</ele><time>2026-05-01T12:03:20.598Z</time></trkpt><trkpt lat="45.3699667" lon="10.5961583"><ele>126.4</ele><time>2026-05-01T12:03:21.584Z</time></trkpt><trkpt lat="45.3700317" lon="10.5960733"><ele>124.80000000000001</ele><time>2026-05-01T12:03:22.587Z</time></trkpt><trkpt lat="45.3700917" lon="10.5959733"><ele>123.2</ele><time>2026-05-01T12:03:24.595Z</time></trkpt><trkpt lat="45.370105" lon="10.5958833"><ele>121.6</ele><time>2026-05-01T12:03:25.587Z</time></trkpt><trkpt lat="45.3701117" lon="10.5957617"><ele>120.0</ele><time>2026-05-01T12:03:26.6Z</time></trkpt><trkpt lat="45.37013" lon="10.5955783"><ele>120.0</ele><time>2026-05-01T12:03:27.585Z</time></trkpt><trkpt lat="45.370155" lon="10.5953567"><ele>120.0</ele><time>2026-05-01T12:03:28.591Z</time></trkpt><trkpt lat="45.37017" lon="10.5950883"><ele>120.0</ele><time>2026-05-01T12:03:29.583Z</time></trkpt><trkpt lat="45.37019" lon="10.5948383"><ele>120.33333333333334</ele><time>2026-05-01T12:03:30.589Z</time></trkpt><trkpt lat="45.3701817" lon="10.5945617"><ele>120.66666666666667</ele><time>2026-05-01T12:03:31.59Z</time></trkpt><trkpt lat="45.3701733" lon="10.594335"><ele>121.0</ele><time>2026-05-01T12:03:32.588Z</time></trkpt><trkpt lat="45.37016" lon="10.59415"><ele>121.4</ele><time>2026-05-01T12:03:33.588Z</time></trkpt><trkpt lat="45.3701533" lon="10.5939717"><ele>121.8</ele><time>2026-05-01T12:03:34.59Z</time></trkpt><trkpt lat="45.3700983" lon="10.5938517"><ele>122.20000000000002</ele><time>2026-05-01T12:03:35.598Z</time></trkpt><trkpt lat="45.3700733" lon="10.59373"><ele>122.60000000000001</ele><time>2026-05-01T12:03:36.594Z</time></trkpt><trkpt lat="45.3700633" lon="10.5936317"><ele>123.0</ele><time>2026-05-01T12:03:37.583Z</time></trkpt><trkpt lat="45.3700733" lon="10.5935167"><ele>123.2</ele><time>2026-05-01T12:03:38.597Z</time></trkpt><trkpt lat="45.3700883" lon="10.5933833"><ele>123.4</ele><time>2026-05-01T12:03:39.593Z</time></trkpt><trkpt lat="45.37011" lon="10.5932517"><ele>123.60000000000001</ele><time>2026-05-01T12:03:40.588Z</time></trkpt><trkpt lat="45.3701683" lon="10.5930967"><ele>123.80000000000001</ele><time>2026-05-01T12:03:41.6Z</time></trkpt><trkpt lat="45.3702333" lon="10.5929567"><ele>124.0</ele><time>2026-05-01T12:03:42.595Z</time></trkpt><trkpt lat="45.3702967" lon="10.5928017"><ele>125.0</ele><time>2026-05-01T12:03:43.584Z</time></trkpt><trkpt lat="45.3703733" lon="10.5926433"><ele>126.0</ele><time>2026-05-01T12:03:44.589Z</time></trkpt><trkpt lat="45.3704533" lon="10.592455"><ele>127.0</ele><time>2026-05-01T12:03:45.593Z</time></trkpt><trkpt lat="45.3705267" lon="10.5922633"><ele>128.0</ele><time>2026-05-01T12:03:46.595Z</time></trkpt><trkpt lat="45.3705967" lon="10.59209"><ele>124.5</ele><time>2026-05-01T12:03:47.589Z</time></trkpt><trkpt lat="45.3706567" lon="10.591915"><ele>121.0</ele><time>2026-05-01T12:03:48.596Z</time></trkpt><trkpt lat="45.3707017" lon="10.59174"><ele>117.5</ele><time>2026-05-01T12:03:49.59Z</time></trkpt><trkpt lat="45.37074" lon="10.59155"><ele>114.0</ele><time>2026-05-01T12:03:50.597Z</time></trkpt><trkpt lat="45.3707883" lon="10.591375"><ele>114.0</ele><time>2026-05-01T12:03:51.599Z</time></trkpt><trkpt lat="45.3708133" lon="10.59119"><ele>114.0</ele><time>2026-05-01T12:03:52.638Z</time></trkpt><trkpt lat="45.3708183" lon="10.5910467"><ele>114.0</ele><time>2026-05-01T12:03:53.587Z</time></trkpt><trkpt lat="45.3707933" lon="10.5909467"><ele>114.0</ele><time>2026-05-01T12:03:54.588Z</time></trkpt><trkpt lat="45.3707567" lon="10.5908217"><ele>114.0</ele><time>2026-05-01T12:03:55.591Z</time></trkpt><trkpt lat="45.3706883" lon="10.5906883"><ele>113.5</ele><time>2026-05-01T12:03:56.586Z</time></trkpt><trkpt lat="45.3706267" lon="10.59053"><ele>113.0</ele><time>2026-05-01T12:03:57.589Z</time></trkpt><trkpt lat="45.37048" lon="10.5904033"><ele>112.5</ele><time>2026-05-01T12:03:58.594Z</time></trkpt><trkpt lat="45.3703783" lon="10.5902883"><ele>112.0</ele><time>2026-05-01T12:03:59.587Z</time></trkpt><trkpt lat="45.3703067" lon="10.5901567"><ele>113.83333333333334</ele><time>2026-05-01T12:04:00.59Z</time></trkpt><trkpt lat="45.3702567" lon="10.590035"><ele>115.66666666666667</ele><time>2026-05-01T12:04:01.599Z</time></trkpt><trkpt lat="45.370225" lon="10.5898983"><ele>117.5</ele><time>2026-05-01T12:04:02.593Z</time></trkpt><trkpt lat="45.3702017" lon="10.5897817"><ele>119.33333333333334</ele><time>2026-05-01T12:04:03.592Z</time></trkpt><trkpt lat="45.3701617" lon="10.589665"><ele>121.16666666666667</ele><time>2026-05-01T12:04:04.594Z</time></trkpt><trkpt lat="45.3701267" lon="10.5895833"><ele>123.0</ele><time>2026-05-01T12:04:05.593Z</time></trkpt><trkpt lat="45.3700567" lon="10.5895283"><ele>123.2</ele><time>2026-05-01T12:04:06.583Z</time></trkpt><trkpt lat="45.3699867" lon="10.5894683"><ele>123.4</ele><time>2026-05-01T12:04:07.593Z</time></trkpt><trkpt lat="45.3699117" lon="10.589415"><ele>123.60000000000001</ele><time>2026-05-01T12:04:08.594Z</time></trkpt><trkpt lat="45.3698083" lon="10.5893583"><ele>123.80000000000001</ele><time>2026-05-01T12:04:09.592Z</time></trkpt><trkpt lat="45.3696817" lon="10.5893083"><ele>124.0</ele><time>2026-05-01T12:04:10.59Z</time></trkpt><trkpt lat="45.3695783" lon="10.5892283"><ele>124.0</ele><time>2026-05-01T12:04:11.602Z</time></trkpt><trkpt lat="45.3694883" lon="10.5891517"><ele>124.0</ele><time>2026-05-01T12:04:12.592Z</time></trkpt><trkpt lat="45.3694217" lon="10.5890517"><ele>124.0</ele><time>2026-05-01T12:04:13.594Z</time></trkpt><trkpt lat="45.3693583" lon="10.5889317"><ele>124.0</ele><time>2026-05-01T12:04:14.592Z</time></trkpt><trkpt lat="45.3692733" lon="10.5888083"><ele>124.0</ele><time>2026-05-01T12:04:15.587Z</time></trkpt><trkpt lat="45.369195" lon="10.5886567"><ele>122.6</ele><time>2026-05-01T12:04:16.591Z</time></trkpt><trkpt lat="45.3691283" lon="10.5885033"><ele>121.2</ele><time>2026-05-01T12:04:17.592Z</time></trkpt><trkpt lat="45.369075" lon="10.588335"><ele>119.79999999999998</ele><time>2026-05-01T12:04:18.588Z</time></trkpt><trkpt lat="45.3690117" lon="10.5882367"><ele>118.39999999999999</ele><time>2026-05-01T12:04:19.591Z</time></trkpt><trkpt lat="45.3689483" lon="10.588165"><ele>117.0</ele><time>2026-05-01T12:04:20.594Z</time></trkpt><trkpt lat="45.3688733" lon="10.5881083"><ele>118.16666666666667</ele><time>2026-05-01T12:04:21.589Z</time></trkpt><trkpt lat="45.3687967" lon="10.5880433"><ele>119.33333333333334</ele><time>2026-05-01T12:04:22.585Z</time></trkpt><trkpt lat="45.3687167" lon="10.5879833"><ele>120.5</ele><time>2026-05-01T12:04:23.595Z</time></trkpt><trkpt lat="45.368655" lon="10.5879367"><ele>121.66666666666667</ele><time>2026-05-01T12:04:24.582Z</time></trkpt><trkpt lat="45.36859" lon="10.58787"><ele>122.83333333333334</ele><time>2026-05-01T12:04:25.596Z</time></trkpt><trkpt lat="45.3685333" lon="10.5877883"><ele>124.0</ele><time>2026-05-01T12:04:26.594Z</time></trkpt><trkpt lat="45.3684633" lon="10.5876967"><ele>124.0</ele><time>2026-05-01T12:04:27.589Z</time></trkpt><trkpt lat="45.3683917" lon="10.5875967"><ele>124.0</ele><time>2026-05-01T12:04:28.598Z</time></trkpt><trkpt lat="45.3683383" lon="10.5874833"><ele>124.0</ele><time>2026-05-01T12:04:29.587Z</time></trkpt><trkpt lat="45.3683483" lon="10.5873383"><ele>124.0</ele><time>2026-05-01T12:04:30.592Z</time></trkpt><trkpt lat="45.36831" lon="10.5872417"><ele>124.0</ele><time>2026-05-01T12:04:31.585Z</time></trkpt><trkpt lat="45.3682583" lon="10.58715"><ele>124.0</ele><time>2026-05-01T12:04:32.593Z</time></trkpt><trkpt lat="45.368195" lon="10.5870517"><ele>124.0</ele><time>2026-05-01T12:04:33.606Z</time></trkpt><trkpt lat="45.368145" lon="10.586935"><ele>124.0</ele><time>2026-05-01T12:04:34.599Z</time></trkpt><trkpt lat="45.3680867" lon="10.586815"><ele>124.0</ele><time>2026-05-01T12:04:35.596Z</time></trkpt><trkpt lat="45.367975" lon="10.5866517"><ele>123.25</ele><time>2026-05-01T12:04:36.608Z</time></trkpt><trkpt lat="45.36787" lon="10.5865133"><ele>122.5</ele><time>2026-05-01T12:04:37.579Z</time></trkpt><trkpt lat="45.3677883" lon="10.5863783"><ele>121.75</ele><time>2026-05-01T12:04:38.588Z</time></trkpt><trkpt lat="45.36769" lon="10.586225"><ele>121.0</ele><time>2026-05-01T12:04:39.594Z</time></trkpt><trkpt lat="45.3676033" lon="10.586045"><ele>121.0</ele><time>2026-05-01T12:04:40.591Z</time></trkpt><trkpt lat="45.3675133" lon="10.5859067"><ele>121.0</ele><time>2026-05-01T12:04:41.588Z</time></trkpt><trkpt lat="45.367455" lon="10.5857433"><ele>121.0</ele><time>2026-05-01T12:04:42.592Z</time></trkpt><trkpt lat="45.3673733" lon="10.5855783"><ele>121.0</ele><time>2026-05-01T12:04:43.594Z</time></trkpt><trkpt lat="45.3672917" lon="10.585445"><ele>121.00000000000001</ele><time>2026-05-01T12:04:44.584Z</time></trkpt><trkpt lat="45.3672533" lon="10.5853617"><ele>121.0</ele><time>2026-05-01T12:04:45.589Z</time></trkpt><trkpt lat="45.3672117" lon="10.5852167"><ele>121.0</ele><time>2026-05-01T12:04:47.588Z</time></trkpt><trkpt lat="45.3672067" lon="10.5851233"><ele>121.0</ele><time>2026-05-01T12:04:48.587Z</time></trkpt><trkpt lat="45.367225" lon="10.5850167"><ele>121.00000000000001</ele><time>2026-05-01T12:04:49.591Z</time></trkpt><trkpt lat="45.3672667" lon="10.5849133"><ele>121.0</ele><time>2026-05-01T12:04:50.58Z</time></trkpt><trkpt lat="45.3673033" lon="10.584805"><ele>121.19999999999999</ele><time>2026-05-01T12:04:51.59Z</time></trkpt><trkpt lat="45.3673417" lon="10.5846917"><ele>121.39999999999999</ele><time>2026-05-01T12:04:52.59Z</time></trkpt><trkpt lat="45.3673833" lon="10.5845983"><ele>121.6</ele><time>2026-05-01T12:04:53.588Z</time></trkpt><trkpt lat="45.36744" lon="10.584485"><ele>121.8</ele><time>2026-05-01T12:04:54.587Z</time></trkpt><trkpt lat="45.3675083" lon="10.584345"><ele>122.0</ele><time>2026-05-01T12:04:55.588Z</time></trkpt><trkpt lat="45.3675967" lon="10.5842383"><ele>123.0</ele><time>2026-05-01T12:04:56.583Z</time></trkpt><trkpt lat="45.3676483" lon="10.58408"><ele>123.99999999999999</ele><time>2026-05-01T12:04:57.592Z</time></trkpt><trkpt lat="45.3676867" lon="10.5839467"><ele>124.99999999999999</ele><time>2026-05-01T12:04:58.596Z</time></trkpt><trkpt lat="45.3677167" lon="10.5838117"><ele>126.0</ele><time>2026-05-01T12:04:59.587Z</time></trkpt><trkpt lat="45.3677683" lon="10.5836567"><ele>127.0</ele><time>2026-05-01T12:05:00.588Z</time></trkpt><trkpt lat="45.36783" lon="10.5834917"><ele>127.5</ele><time>2026-05-01T12:05:01.587Z</time></trkpt><trkpt lat="45.3678717" lon="10.583315"><ele>128.0</ele><time>2026-05-01T12:05:02.59Z</time></trkpt><trkpt lat="45.36784" lon="10.5831317"><ele>128.5</ele><time>2026-05-01T12:05:03.584Z</time></trkpt><trkpt lat="45.36787" lon="10.582955"><ele>129.0</ele><time>2026-05-01T12:05:04.596Z</time></trkpt><trkpt lat="45.3679133" lon="10.5827383"><ele>129.0</ele><time>2026-05-01T12:05:05.594Z</time></trkpt><trkpt lat="45.36798" lon="10.5825567"><ele>129.0</ele><time>2026-05-01T12:05:06.602Z</time></trkpt><trkpt lat="45.3680233" lon="10.5823983"><ele>129.0</ele><time>2026-05-01T12:05:07.586Z</time></trkpt><trkpt lat="45.36805" lon="10.5822667"><ele>129.0</ele><time>2026-05-01T12:05:08.594Z</time></trkpt><trkpt lat="45.36811" lon="10.5821283"><ele>125.6</ele><time>2026-05-01T12:05:09.597Z</time></trkpt><trkpt lat="45.3681567" lon="10.5820183"><ele>122.2</ele><time>2026-05-01T12:05:10.612Z</time></trkpt><trkpt lat="45.3682067" lon="10.5819267"><ele>118.79999999999998</ele><time>2026-05-01T12:05:11.59Z</time></trkpt><trkpt lat="45.36829" lon="10.5818433"><ele>115.39999999999999</ele><time>2026-05-01T12:05:12.612Z</time></trkpt><trkpt lat="45.3683817" lon="10.581795"><ele>112.0</ele><time>2026-05-01T12:05:13.601Z</time></trkpt><trkpt lat="45.368505" lon="10.581775"><ele>112.0</ele><time>2026-05-01T12:05:14.595Z</time></trkpt><trkpt lat="45.36863" lon="10.5817617"><ele>112.0</ele><time>2026-05-01T12:05:15.591Z</time></trkpt><trkpt lat="45.36876" lon="10.5817317"><ele>112.0</ele><time>2026-05-01T12:05:16.592Z</time></trkpt><trkpt lat="45.36891" lon="10.581665"><ele>112.0</ele><time>2026-05-01T12:05:17.599Z</time></trkpt><trkpt lat="45.3690483" lon="10.581595"><ele>111.8</ele><time>2026-05-01T12:05:18.604Z</time></trkpt><trkpt lat="45.3691783" lon="10.581535"><ele>111.6</ele><time>2026-05-01T12:05:19.596Z</time></trkpt><trkpt lat="45.3692833" lon="10.5814883"><ele>111.39999999999999</ele><time>2026-05-01T12:05:20.591Z</time></trkpt><trkpt lat="45.3693483" lon="10.5814617"><ele>111.19999999999999</ele><time>2026-05-01T12:05:21.594Z</time></trkpt><trkpt lat="45.369425" lon="10.5813633"><ele>111.0</ele><time>2026-05-01T12:05:23.595Z</time></trkpt><trkpt lat="45.369435" lon="10.5812733"><ele>111.0</ele><time>2026-05-01T12:05:25.592Z</time></trkpt><trkpt lat="45.3693183" lon="10.5812283"><ele>111.0</ele><time>2026-05-01T12:05:36.619Z</time></trkpt><trkpt lat="45.369235" lon="10.581255"><ele>111.0</ele><time>2026-05-01T12:05:37.605Z</time></trkpt><trkpt lat="45.3691283" lon="10.5813"><ele>111.0</ele><time>2026-05-01T12:05:38.608Z</time></trkpt><trkpt lat="45.368975" lon="10.5813267"><ele>111.33333333333334</ele><time>2026-05-01T12:05:39.581Z</time></trkpt><trkpt lat="45.3687933" lon="10.5813667"><ele>111.66666666666667</ele><time>2026-05-01T12:05:40.6Z</time></trkpt><trkpt lat="45.3685833" lon="10.5814117"><ele>112.0</ele><time>2026-05-01T12:05:41.585Z</time></trkpt><trkpt lat="45.3683817" lon="10.5814483"><ele>112.0</ele><time>2026-05-01T12:05:42.591Z</time></trkpt><trkpt lat="45.3681817" lon="10.5814667"><ele>112.0</ele><time>2026-05-01T12:05:43.594Z</time></trkpt><trkpt lat="45.36796" lon="10.5815283"><ele>112.0</ele><time>2026-05-01T12:05:44.597Z</time></trkpt><trkpt lat="45.3677267" lon="10.5815483"><ele>116.0</ele><time>2026-05-01T12:05:45.589Z</time></trkpt><trkpt lat="45.3675067" lon="10.58158"><ele>120.0</ele><time>2026-05-01T12:05:46.594Z</time></trkpt><trkpt lat="45.3673" lon="10.5816083"><ele>124.0</ele><time>2026-05-01T12:05:47.593Z</time></trkpt><trkpt lat="45.36711" lon="10.58163"><ele>125.66666666666667</ele><time>2026-05-01T12:05:48.588Z</time></trkpt><trkpt lat="45.366945" lon="10.581665"><ele>127.33333333333334</ele><time>2026-05-01T12:05:49.588Z</time></trkpt><trkpt lat="45.3667983" lon="10.5816767"><ele>129.0</ele><time>2026-05-01T12:05:50.587Z</time></trkpt><trkpt lat="45.3666483" lon="10.5816983"><ele>129.0</ele><time>2026-05-01T12:05:51.597Z</time></trkpt><trkpt lat="45.3664883" lon="10.5817083"><ele>129.0</ele><time>2026-05-01T12:05:52.587Z</time></trkpt><trkpt lat="45.366345" lon="10.5816867"><ele>129.0</ele><time>2026-05-01T12:05:53.591Z</time></trkpt><trkpt lat="45.3662217" lon="10.5816667"><ele>129.0</ele><time>2026-05-01T12:05:54.596Z</time></trkpt><trkpt lat="45.3661017" lon="10.5816517"><ele>129.5</ele><time>2026-05-01T12:05:55.589Z</time></trkpt><trkpt lat="45.3660067" lon="10.5816383"><ele>130.0</ele><time>2026-05-01T12:05:56.586Z</time></trkpt><trkpt lat="45.3659167" lon="10.5815733"><ele>130.5</ele><time>2026-05-01T12:05:58.588Z</time></trkpt><trkpt lat="45.365865" lon="10.5815033"><ele>131.0</ele><time>2026-05-01T12:06:01.588Z</time></trkpt><trkpt lat="45.3657883" lon="10.581415"><ele>131.5</ele><time>2026-05-01T12:06:03.596Z</time></trkpt><trkpt lat="45.3657283" lon="10.58134"><ele>132.0</ele><time>2026-05-01T12:06:04.592Z</time></trkpt><trkpt lat="45.3656617" lon="10.5812317"><ele>132.0</ele><time>2026-05-01T12:06:05.59Z</time></trkpt><trkpt lat="45.3655833" lon="10.5810833"><ele>132.0</ele><time>2026-05-01T12:06:06.601Z</time></trkpt><trkpt lat="45.3655167" lon="10.5808967"><ele>132.0</ele><time>2026-05-01T12:06:07.599Z</time></trkpt><trkpt lat="45.3654317" lon="10.58071"><ele>132.0</ele><time>2026-05-01T12:06:08.589Z</time></trkpt><trkpt lat="45.365385" lon="10.5804567"><ele>133.0</ele><time>2026-05-01T12:06:09.594Z</time></trkpt><trkpt lat="45.365355" lon="10.5801783"><ele>134.0</ele><time>2026-05-01T12:06:10.595Z</time></trkpt><trkpt lat="45.3653233" lon="10.5799017"><ele>135.0</ele><time>2026-05-01T12:06:11.584Z</time></trkpt><trkpt lat="45.3652717" lon="10.5796183"><ele>136.66666666666666</ele><time>2026-05-01T12:06:12.593Z</time></trkpt><trkpt lat="45.3651967" lon="10.57934"><ele>138.33333333333331</ele><time>2026-05-01T12:06:13.587Z</time></trkpt><trkpt lat="45.3651683" lon="10.579005"><ele>140.0</ele><time>2026-05-01T12:06:14.589Z</time></trkpt><trkpt lat="45.365165" lon="10.5786683"><ele>142.5</ele><time>2026-05-01T12:06:15.595Z</time></trkpt><trkpt lat="45.365145" lon="10.5783083"><ele>145.0</ele><time>2026-05-01T12:06:16.593Z</time></trkpt><trkpt lat="45.3651517" lon="10.5779617"><ele>143.5</ele><time>2026-05-01T12:06:17.595Z</time></trkpt><trkpt lat="45.365145" lon="10.5775983"><ele>142.0</ele><time>2026-05-01T12:06:18.59Z</time></trkpt><trkpt lat="45.3651517" lon="10.5772483"><ele>141.5</ele><time>2026-05-01T12:06:19.586Z</time></trkpt><trkpt lat="45.3652017" lon="10.57689"><ele>141.0</ele><time>2026-05-01T12:06:20.586Z</time></trkpt><trkpt lat="45.3652533" lon="10.57653"><ele>141.0</ele><time>2026-05-01T12:06:21.585Z</time></trkpt><trkpt lat="45.3653217" lon="10.5761933"><ele>141.0</ele><time>2026-05-01T12:06:22.583Z</time></trkpt><trkpt lat="45.3653733" lon="10.5758967"><ele>140.0</ele><time>2026-05-01T12:06:23.591Z</time></trkpt><trkpt lat="45.3654033" lon="10.5756133"><ele>139.0</ele><time>2026-05-01T12:06:24.589Z</time></trkpt><trkpt lat="45.3654367" lon="10.5753783"><ele>138.0</ele><time>2026-05-01T12:06:25.588Z</time></trkpt><trkpt lat="45.3654717" lon="10.57513"><ele>137.66666666666666</ele><time>2026-05-01T12:06:26.585Z</time></trkpt><trkpt lat="45.365495" lon="10.574895"><ele>137.33333333333331</ele><time>2026-05-01T12:06:27.591Z</time></trkpt><trkpt lat="45.36551" lon="10.5746467"><ele>137.0</ele><time>2026-05-01T12:06:28.602Z</time></trkpt><trkpt lat="45.3656117" lon="10.5744433"><ele>134.66666666666666</ele><time>2026-05-01T12:06:29.587Z</time></trkpt><trkpt lat="45.3657067" lon="10.574255"><ele>132.33333333333334</ele><time>2026-05-01T12:06:30.581Z</time></trkpt><trkpt lat="45.36575" lon="10.5740417"><ele>130.0</ele><time>2026-05-01T12:06:31.586Z</time></trkpt><trkpt lat="45.3657967" lon="10.573825"><ele>130.0</ele><time>2026-05-01T12:06:32.581Z</time></trkpt><trkpt lat="45.3657933" lon="10.5735917"><ele>130.0</ele><time>2026-05-01T12:06:33.596Z</time></trkpt><trkpt lat="45.3657817" lon="10.5733783"><ele>130.0</ele><time>2026-05-01T12:06:34.596Z</time></trkpt><trkpt lat="45.3657767" lon="10.5731967"><ele>130.0</ele><time>2026-05-01T12:06:35.589Z</time></trkpt><trkpt lat="45.3657767" lon="10.573045"><ele>130.0</ele><time>2026-05-01T12:06:36.587Z</time></trkpt><trkpt lat="45.3658" lon="10.5729533"><ele>130.0</ele><time>2026-05-01T12:06:37.586Z</time></trkpt><trkpt lat="45.3658333" lon="10.5728533"><ele>130.0</ele><time>2026-05-01T12:06:38.592Z</time></trkpt><trkpt lat="45.365875" lon="10.5727083"><ele>130.0</ele><time>2026-05-01T12:06:40.588Z</time></trkpt><trkpt lat="45.3659733" lon="10.5727067"><ele>130.0</ele><time>2026-05-01T12:06:42.592Z</time></trkpt><trkpt lat="45.3660433" lon="10.572755"><ele>130.0</ele><time>2026-05-01T12:06:43.581Z</time></trkpt><trkpt lat="45.3661183" lon="10.572805"><ele>130.0</ele><time>2026-05-01T12:06:44.584Z</time></trkpt><trkpt lat="45.36619" lon="10.572855"><ele>130.0</ele><time>2026-05-01T12:06:45.586Z</time></trkpt><trkpt lat="45.36626" lon="10.5728967"><ele>130.0</ele><time>2026-05-01T12:06:46.586Z</time></trkpt><trkpt lat="45.36633" lon="10.57294"><ele>130.0</ele><time>2026-05-01T12:06:47.586Z</time></trkpt><trkpt lat="45.3664" lon="10.57299"><ele>130.0</ele><time>2026-05-01T12:06:48.587Z</time></trkpt><trkpt lat="45.3664683" lon="10.5730383"><ele>130.0</ele><time>2026-05-01T12:06:49.59Z</time></trkpt><trkpt lat="45.3665333" lon="10.5730883"><ele>130.66666666666669</ele><time>2026-05-01T12:06:50.586Z</time></trkpt><trkpt lat="45.3666017" lon="10.573125"><ele>131.33333333333334</ele><time>2026-05-01T12:06:51.592Z</time></trkpt><trkpt lat="45.3666683" lon="10.5731633"><ele>132.0</ele><time>2026-05-01T12:06:52.582Z</time></trkpt><trkpt lat="45.3667383" lon="10.5731917"><ele>132.66666666666666</ele><time>2026-05-01T12:06:53.588Z</time></trkpt><trkpt lat="45.3668017" lon="10.5732183"><ele>133.33333333333331</ele><time>2026-05-01T12:06:54.588Z</time></trkpt><trkpt lat="45.3668783" lon="10.57321"><ele>134.0</ele><time>2026-05-01T12:06:55.581Z</time></trkpt><trkpt lat="45.36699" lon="10.57322"><ele>134.0</ele><time>2026-05-01T12:06:57.592Z</time></trkpt><trkpt lat="45.3670633" lon="10.57321"><ele>134.0</ele><time>2026-05-01T12:06:58.588Z</time></trkpt><trkpt lat="45.3671417" lon="10.5731733"><ele>134.0</ele><time>2026-05-01T12:06:59.588Z</time></trkpt><trkpt lat="45.3672317" lon="10.573095"><ele>134.0</ele><time>2026-05-01T12:07:00.589Z</time></trkpt><trkpt lat="45.3673517" lon="10.57291"><ele>134.0</ele><time>2026-05-01T12:07:01.585Z</time></trkpt><trkpt lat="45.3674483" lon="10.57279"><ele>133.75</ele><time>2026-05-01T12:07:02.586Z</time></trkpt><trkpt lat="45.3675167" lon="10.5727383"><ele>133.5</ele><time>2026-05-01T12:07:03.587Z</time></trkpt><trkpt lat="45.36761" lon="10.5726117"><ele>133.25</ele><time>2026-05-01T12:07:04.587Z</time></trkpt><trkpt lat="45.36772" lon="10.5724633"><ele>133.0</ele><time>2026-05-01T12:07:05.584Z</time></trkpt><trkpt lat="45.3678267" lon="10.57232"><ele>133.0</ele><time>2026-05-01T12:07:06.595Z</time></trkpt><trkpt lat="45.3679417" lon="10.5721933"><ele>133.0</ele><time>2026-05-01T12:07:07.59Z</time></trkpt><trkpt lat="45.368045" lon="10.5720317"><ele>133.0</ele><time>2026-05-01T12:07:08.588Z</time></trkpt><trkpt lat="45.368165" lon="10.5718333"><ele>128.66666666666669</ele><time>2026-05-01T12:07:09.587Z</time></trkpt><trkpt lat="45.368265" lon="10.57168"><ele>124.33333333333334</ele><time>2026-05-01T12:07:10.594Z</time></trkpt><trkpt lat="45.368375" lon="10.5715417"><ele>120.0</ele><time>2026-05-01T12:07:11.595Z</time></trkpt><trkpt lat="45.3685117" lon="10.5714267"><ele>120.0</ele><time>2026-05-01T12:07:12.6Z</time></trkpt><trkpt lat="45.3686317" lon="10.571405"><ele>120.0</ele><time>2026-05-01T12:07:13.595Z</time></trkpt><trkpt lat="45.3687467" lon="10.5713583"><ele>120.0</ele><time>2026-05-01T12:07:14.602Z</time></trkpt><trkpt lat="45.3688417" lon="10.5713033"><ele>120.0</ele><time>2026-05-01T12:07:15.583Z</time></trkpt><trkpt lat="45.3689183" lon="10.57123"><ele>120.0</ele><time>2026-05-01T12:07:16.595Z</time></trkpt><trkpt lat="45.3689933" lon="10.5711317"><ele>118.2</ele><time>2026-05-01T12:07:17.584Z</time></trkpt><trkpt lat="45.3690667" lon="10.57102"><ele>116.4</ele><time>2026-05-01T12:07:18.588Z</time></trkpt><trkpt lat="45.3691317" lon="10.5709083"><ele>114.6</ele><time>2026-05-01T12:07:19.591Z</time></trkpt><trkpt lat="45.3691983" lon="10.5707867"><ele>112.8</ele><time>2026-05-01T12:07:20.586Z</time></trkpt><trkpt lat="45.36926" lon="10.57065"><ele>111.0</ele><time>2026-05-01T12:07:21.59Z</time></trkpt><trkpt lat="45.3693233" lon="10.5704983"><ele>112.25</ele><time>2026-05-01T12:07:22.591Z</time></trkpt><trkpt lat="45.3693867" lon="10.5703467"><ele>113.5</ele><time>2026-05-01T12:07:23.584Z</time></trkpt><trkpt lat="45.3694617" lon="10.5702033"><ele>114.75</ele><time>2026-05-01T12:07:24.587Z</time></trkpt><trkpt lat="45.36955" lon="10.570075"><ele>116.0</ele><time>2026-05-01T12:07:25.588Z</time></trkpt><trkpt lat="45.3696283" lon="10.5699367"><ele>115.0</ele><time>2026-05-01T12:07:26.596Z</time></trkpt><trkpt lat="45.3697133" lon="10.56976"><ele>114.0</ele><time>2026-05-01T12:07:27.588Z</time></trkpt><trkpt lat="45.3698017" lon="10.5695833"><ele>113.0</ele><time>2026-05-01T12:07:28.586Z</time></trkpt><trkpt lat="45.3698917" lon="10.5694333"><ele>112.0</ele><time>2026-05-01T12:07:29.6Z</time></trkpt><trkpt lat="45.3699717" lon="10.5692867"><ele>112.0</ele><time>2026-05-01T12:07:30.581Z</time></trkpt><trkpt lat="45.37007" lon="10.5691383"><ele>112.0</ele><time>2026-05-01T12:07:31.592Z</time></trkpt><trkpt lat="45.3701617" lon="10.569025"><ele>112.0</ele><time>2026-05-01T12:07:32.59Z</time></trkpt><trkpt lat="45.37026" lon="10.5689017"><ele>112.0</ele><time>2026-05-01T12:07:33.591Z</time></trkpt><trkpt lat="45.370375" lon="10.5687883"><ele>112.75</ele><time>2026-05-01T12:07:34.585Z</time></trkpt><trkpt lat="45.3704933" lon="10.5686617"><ele>113.5</ele><time>2026-05-01T12:07:35.588Z</time></trkpt><trkpt lat="45.37062" lon="10.568525"><ele>114.25</ele><time>2026-05-01T12:07:36.581Z</time></trkpt><trkpt lat="45.37074" lon="10.5684183"><ele>115.0</ele><time>2026-05-01T12:07:37.586Z</time></trkpt><trkpt lat="45.370845" lon="10.5683017"><ele>115.0</ele><time>2026-05-01T12:07:38.592Z</time></trkpt><trkpt lat="45.37096" lon="10.5681633"><ele>115.0</ele><time>2026-05-01T12:07:39.587Z</time></trkpt><trkpt lat="45.3710833" lon="10.568035"><ele>115.0</ele><time>2026-05-01T12:07:40.592Z</time></trkpt><trkpt lat="45.371205" lon="10.5678983"><ele>115.75</ele><time>2026-05-01T12:07:41.582Z</time></trkpt><trkpt lat="45.37131" lon="10.5677517"><ele>116.5</ele><time>2026-05-01T12:07:42.591Z</time></trkpt><trkpt lat="45.3714217" lon="10.56763"><ele>117.25</ele><time>2026-05-01T12:07:43.585Z</time></trkpt><trkpt lat="45.371485" lon="10.5675383"><ele>118.0</ele><time>2026-05-01T12:07:44.62Z</time></trkpt><trkpt lat="45.3715733" lon="10.56743"><ele>118.80000000000001</ele><time>2026-05-01T12:07:45.594Z</time></trkpt><trkpt lat="45.3716217" lon="10.5673233"><ele>119.60000000000001</ele><time>2026-05-01T12:07:46.602Z</time></trkpt><trkpt lat="45.371675" lon="10.567225"><ele>120.39999999999999</ele><time>2026-05-01T12:07:47.607Z</time></trkpt><trkpt lat="45.37172" lon="10.5671033"><ele>121.19999999999999</ele><time>2026-05-01T12:07:48.587Z</time></trkpt><trkpt lat="45.3717917" lon="10.566985"><ele>122.0</ele><time>2026-05-01T12:07:49.588Z</time></trkpt><trkpt lat="45.3718333" lon="10.5668433"><ele>123.39999999999999</ele><time>2026-05-01T12:07:50.59Z</time></trkpt><trkpt lat="45.3718683" lon="10.5667633"><ele>124.79999999999998</ele><time>2026-05-01T12:07:51.594Z</time></trkpt><trkpt lat="45.3719083" lon="10.56662"><ele>126.2</ele><time>2026-05-01T12:07:53.588Z</time></trkpt><trkpt lat="45.37196" lon="10.5665667"><ele>127.6</ele><time>2026-05-01T12:07:54.581Z</time></trkpt><trkpt lat="45.372095" lon="10.5665883"><ele>129.0</ele><time>2026-05-01T12:07:56.582Z</time></trkpt><trkpt lat="45.3721867" lon="10.56661"><ele>130.5</ele><time>2026-05-01T12:07:57.596Z</time></trkpt><trkpt lat="45.3722717" lon="10.5666133"><ele>132.0</ele><time>2026-05-01T12:07:58.607Z</time></trkpt><trkpt lat="45.3723867" lon="10.566645"><ele>133.5</ele><time>2026-05-01T12:07:59.585Z</time></trkpt><trkpt lat="45.37255" lon="10.5666583"><ele>135.0</ele><time>2026-05-01T12:08:00.593Z</time></trkpt><trkpt lat="45.3726983" lon="10.5666317"><ele>135.0</ele><time>2026-05-01T12:08:01.59Z</time></trkpt><trkpt lat="45.3728417" lon="10.5665983"><ele>135.0</ele><time>2026-05-01T12:08:02.594Z</time></trkpt><trkpt lat="45.3729783" lon="10.566525"><ele>135.0</ele><time>2026-05-01T12:08:03.612Z</time></trkpt><trkpt lat="45.3731067" lon="10.5664567"><ele>135.0</ele><time>2026-05-01T12:08:04.596Z</time></trkpt><trkpt lat="45.3732117" lon="10.5663617"><ele>136.0</ele><time>2026-05-01T12:08:05.588Z</time></trkpt><trkpt lat="45.3733733" lon="10.5663117"><ele>137.0</ele><time>2026-05-01T12:08:06.578Z</time></trkpt><trkpt lat="45.3734767" lon="10.566235"><ele>138.0</ele><time>2026-05-01T12:08:07.59Z</time></trkpt><trkpt lat="45.3735967" lon="10.5661167"><ele>139.0</ele><time>2026-05-01T12:08:08.582Z</time></trkpt><trkpt lat="45.3736817" lon="10.5659783"><ele>139.5</ele><time>2026-05-01T12:08:09.587Z</time></trkpt><trkpt lat="45.37372" lon="10.5657867"><ele>140.0</ele><time>2026-05-01T12:08:10.591Z</time></trkpt><trkpt lat="45.37376" lon="10.5655833"><ele>140.5</ele><time>2026-05-01T12:08:11.593Z</time></trkpt><trkpt lat="45.3738167" lon="10.56541"><ele>141.0</ele><time>2026-05-01T12:08:12.584Z</time></trkpt><trkpt lat="45.3739183" lon="10.5652183"><ele>141.0</ele><time>2026-05-01T12:08:13.584Z</time></trkpt><trkpt lat="45.3739783" lon="10.5650367"><ele>141.0</ele><time>2026-05-01T12:08:14.596Z</time></trkpt><trkpt lat="45.3740517" lon="10.5648633"><ele>141.0</ele><time>2026-05-01T12:08:15.587Z</time></trkpt><trkpt lat="45.3741267" lon="10.5646833"><ele>141.0</ele><time>2026-05-01T12:08:16.589Z</time></trkpt><trkpt lat="45.3741983" lon="10.5644833"><ele>142.33333333333334</ele><time>2026-05-01T12:08:17.585Z</time></trkpt><trkpt lat="45.3742733" lon="10.5642967"><ele>143.66666666666669</ele><time>2026-05-01T12:08:18.59Z</time></trkpt><trkpt lat="45.3743417" lon="10.564105"><ele>145.0</ele><time>2026-05-01T12:08:19.59Z</time></trkpt><trkpt lat="45.3744217" lon="10.5639283"><ele>145.0</ele><time>2026-05-01T12:08:20.59Z</time></trkpt><trkpt lat="45.374495" lon="10.56376"><ele>145.0</ele><time>2026-05-01T12:08:21.58Z</time></trkpt><trkpt lat="45.3745883" lon="10.5636017"><ele>145.0</ele><time>2026-05-01T12:08:22.656Z</time></trkpt><trkpt lat="45.3746767" lon="10.5634367"><ele>145.0</ele><time>2026-05-01T12:08:23.622Z</time></trkpt><trkpt lat="45.3747783" lon="10.5632767"><ele>144.66666666666669</ele><time>2026-05-01T12:08:24.593Z</time></trkpt><trkpt lat="45.3748767" lon="10.5631133"><ele>144.33333333333334</ele><time>2026-05-01T12:08:25.586Z</time></trkpt><trkpt lat="45.37498" lon="10.5629417"><ele>144.0</ele><time>2026-05-01T12:08:26.582Z</time></trkpt><trkpt lat="45.3750867" lon="10.56276"><ele>146.0</ele><time>2026-05-01T12:08:27.592Z</time></trkpt><trkpt lat="45.3751917" lon="10.562555"><ele>148.0</ele><time>2026-05-01T12:08:28.586Z</time></trkpt><trkpt lat="45.37531" lon="10.562365"><ele>150.0</ele><time>2026-05-01T12:08:29.589Z</time></trkpt><trkpt lat="45.3754317" lon="10.562165"><ele>148.33333333333334</ele><time>2026-05-01T12:08:30.583Z</time></trkpt><trkpt lat="45.375555" lon="10.5619583"><ele>146.66666666666669</ele><time>2026-05-01T12:08:31.581Z</time></trkpt><trkpt lat="45.37565" lon="10.5617317"><ele>145.0</ele><time>2026-05-01T12:08:32.581Z</time></trkpt><trkpt lat="45.3757533" lon="10.5615167"><ele>145.0</ele><time>2026-05-01T12:08:33.587Z</time></trkpt><trkpt lat="45.3758483" lon="10.5613117"><ele>145.0</ele><time>2026-05-01T12:08:34.587Z</time></trkpt><trkpt lat="45.3759567" lon="10.5611317"><ele>145.0</ele><time>2026-05-01T12:08:35.598Z</time></trkpt><trkpt lat="45.37605" lon="10.56099"><ele>144.0</ele><time>2026-05-01T12:08:36.586Z</time></trkpt><trkpt lat="45.3761567" lon="10.560855"><ele>143.0</ele><time>2026-05-01T12:08:37.588Z</time></trkpt><trkpt lat="45.376275" lon="10.5607683"><ele>142.0</ele><time>2026-05-01T12:08:38.605Z</time></trkpt><trkpt lat="45.3763733" lon="10.5606633"><ele>141.0</ele><time>2026-05-01T12:08:39.588Z</time></trkpt><trkpt lat="45.3764833" lon="10.5605433"><ele>141.0</ele><time>2026-05-01T12:08:40.604Z</time></trkpt><trkpt lat="45.3766233" lon="10.5604317"><ele>141.0</ele><time>2026-05-01T12:08:41.588Z</time></trkpt><trkpt lat="45.3767767" lon="10.560355"><ele>141.0</ele><time>2026-05-01T12:08:42.588Z</time></trkpt><trkpt lat="45.376915" lon="10.5602833"><ele>140.75</ele><time>2026-05-01T12:08:43.599Z</time></trkpt><trkpt lat="45.3770233" lon="10.5601833"><ele>140.5</ele><time>2026-05-01T12:08:44.588Z</time></trkpt><trkpt lat="45.3770567" lon="10.5600833"><ele>140.25</ele><time>2026-05-01T12:08:45.586Z</time></trkpt><trkpt lat="45.37718" lon="10.5599717"><ele>140.0</ele><time>2026-05-01T12:08:46.589Z</time></trkpt><trkpt lat="45.3773183" lon="10.5597633"><ele>139.33333333333331</ele><time>2026-05-01T12:08:47.611Z</time></trkpt><trkpt lat="45.3774483" lon="10.5595733"><ele>138.66666666666666</ele><time>2026-05-01T12:08:48.592Z</time></trkpt><trkpt lat="45.3775867" lon="10.5594383"><ele>138.0</ele><time>2026-05-01T12:08:49.601Z</time></trkpt><trkpt lat="45.3777283" lon="10.55922"><ele>136.66666666666666</ele><time>2026-05-01T12:08:50.591Z</time></trkpt><trkpt lat="45.3778717" lon="10.55909"><ele>135.33333333333331</ele><time>2026-05-01T12:08:51.588Z</time></trkpt><trkpt lat="45.377995" lon="10.55896"><ele>134.0</ele><time>2026-05-01T12:08:52.595Z</time></trkpt><trkpt lat="45.3781233" lon="10.55882"><ele>133.5</ele><time>2026-05-01T12:08:53.584Z</time></trkpt><trkpt lat="45.3782367" lon="10.5587017"><ele>133.0</ele><time>2026-05-01T12:08:54.668Z</time></trkpt><trkpt lat="45.37836" lon="10.5586117"><ele>132.5</ele><time>2026-05-01T12:08:55.604Z</time></trkpt><trkpt lat="45.3784467" lon="10.5585633"><ele>132.0</ele><time>2026-05-01T12:08:56.592Z</time></trkpt><trkpt lat="45.378555" lon="10.5584567"><ele>131.75</ele><time>2026-05-01T12:08:58.601Z</time></trkpt><trkpt lat="45.3786267" lon="10.5583783"><ele>131.5</ele><time>2026-05-01T12:08:59.594Z</time></trkpt><trkpt lat="45.3786967" lon="10.5582717"><ele>131.25</ele><time>2026-05-01T12:09:00.595Z</time></trkpt><trkpt lat="45.3787733" lon="10.55809"><ele>131.0</ele><time>2026-05-01T12:09:01.59Z</time></trkpt><trkpt lat="45.378835" lon="10.5579133"><ele>130.5</ele><time>2026-05-01T12:09:02.597Z</time></trkpt><trkpt lat="45.37888" lon="10.55773"><ele>130.0</ele><time>2026-05-01T12:09:03.584Z</time></trkpt><trkpt lat="45.3789017" lon="10.5575217"><ele>129.5</ele><time>2026-05-01T12:09:04.582Z</time></trkpt><trkpt lat="45.3789783" lon="10.5573283"><ele>129.0</ele><time>2026-05-01T12:09:05.589Z</time></trkpt><trkpt lat="45.37906" lon="10.557085"><ele>128.66666666666666</ele><time>2026-05-01T12:09:06.584Z</time></trkpt><trkpt lat="45.379145" lon="10.556895"><ele>128.33333333333331</ele><time>2026-05-01T12:09:07.607Z</time></trkpt><trkpt lat="45.3792817" lon="10.5567283"><ele>128.0</ele><time>2026-05-01T12:09:08.588Z</time></trkpt><trkpt lat="45.3794317" lon="10.5565333"><ele>128.0</ele><time>2026-05-01T12:09:09.6Z</time></trkpt><trkpt lat="45.379605" lon="10.5563767"><ele>128.0</ele><time>2026-05-01T12:09:10.584Z</time></trkpt><trkpt lat="45.3797667" lon="10.5562517"><ele>128.0</ele><time>2026-05-01T12:09:11.605Z</time></trkpt><trkpt lat="45.3798817" lon="10.5561367"><ele>128.0</ele><time>2026-05-01T12:09:12.588Z</time></trkpt><trkpt lat="45.37998" lon="10.5560167"><ele>128.0</ele><time>2026-05-01T12:09:13.593Z</time></trkpt><trkpt lat="45.38005" lon="10.5559267"><ele>128.0</ele><time>2026-05-01T12:09:14.593Z</time></trkpt><trkpt lat="45.380125" lon="10.5558183"><ele>128.0</ele><time>2026-05-01T12:09:15.608Z</time></trkpt><trkpt lat="45.38019" lon="10.555705"><ele>128.0</ele><time>2026-05-01T12:09:16.583Z</time></trkpt><trkpt lat="45.3802467" lon="10.5555633"><ele>128.0</ele><time>2026-05-01T12:09:17.589Z</time></trkpt><trkpt lat="45.3803133" lon="10.55538"><ele>128.0</ele><time>2026-05-01T12:09:18.611Z</time></trkpt><trkpt lat="45.380385" lon="10.555175"><ele>128.0</ele><time>2026-05-01T12:09:19.585Z</time></trkpt><trkpt lat="45.3804467" lon="10.55497"><ele>127.5</ele><time>2026-05-01T12:09:20.598Z</time></trkpt><trkpt lat="45.3805333" lon="10.5547883"><ele>127.0</ele><time>2026-05-01T12:09:21.596Z</time></trkpt><trkpt lat="45.3806217" lon="10.5546433"><ele>126.5</ele><time>2026-05-01T12:09:22.596Z</time></trkpt><trkpt lat="45.3806933" lon="10.554515"><ele>126.0</ele><time>2026-05-01T12:09:23.583Z</time></trkpt><trkpt lat="45.3807633" lon="10.5543633"><ele>125.8</ele><time>2026-05-01T12:09:24.599Z</time></trkpt><trkpt lat="45.3808017" lon="10.55421"><ele>125.6</ele><time>2026-05-01T12:09:25.582Z</time></trkpt><trkpt lat="45.380815" lon="10.5540967"><ele>125.4</ele><time>2026-05-01T12:09:26.589Z</time></trkpt><trkpt lat="45.3807983" lon="10.5539333"><ele>125.2</ele><time>2026-05-01T12:09:27.595Z</time></trkpt><trkpt lat="45.3807617" lon="10.5537933"><ele>125.0</ele><time>2026-05-01T12:09:28.59Z</time></trkpt><trkpt lat="45.3806917" lon="10.5536367"><ele>124.99999999999999</ele><time>2026-05-01T12:09:29.587Z</time></trkpt><trkpt lat="45.3805683" lon="10.5535383"><ele>125.0</ele><time>2026-05-01T12:09:30.6Z</time></trkpt><trkpt lat="45.3805083" lon="10.5534633"><ele>125.0</ele><time>2026-05-01T12:09:31.591Z</time></trkpt><trkpt lat="45.3804717" lon="10.553375"><ele>125.0</ele><time>2026-05-01T12:09:32.601Z</time></trkpt><trkpt lat="45.3804367" lon="10.5532833"><ele>124.99999999999999</ele><time>2026-05-01T12:09:33.599Z</time></trkpt><trkpt lat="45.38039" lon="10.5531933"><ele>125.0</ele><time>2026-05-01T12:09:34.597Z</time></trkpt><trkpt lat="45.38037" lon="10.553075"><ele>124.6</ele><time>2026-05-01T12:09:35.599Z</time></trkpt><trkpt lat="45.3803567" lon="10.55293"><ele>124.2</ele><time>2026-05-01T12:09:36.597Z</time></trkpt><trkpt lat="45.3803583" lon="10.5527867"><ele>123.80000000000001</ele><time>2026-05-01T12:09:37.6Z</time></trkpt><trkpt lat="45.3803767" lon="10.5526517"><ele>123.4</ele><time>2026-05-01T12:09:38.588Z</time></trkpt><trkpt lat="45.3804183" lon="10.55253"><ele>123.0</ele><time>2026-05-01T12:09:39.588Z</time></trkpt><trkpt lat="45.3804817" lon="10.5524167"><ele>123.25</ele><time>2026-05-01T12:09:40.591Z</time></trkpt><trkpt lat="45.380575" lon="10.552315"><ele>123.5</ele><time>2026-05-01T12:09:41.591Z</time></trkpt><trkpt lat="45.3806683" lon="10.5522467"><ele>123.75</ele><time>2026-05-01T12:09:42.586Z</time></trkpt><trkpt lat="45.38081" lon="10.5521533"><ele>124.0</ele><time>2026-05-01T12:09:43.593Z</time></trkpt><trkpt lat="45.3809183" lon="10.552065"><ele>124.33333333333334</ele><time>2026-05-01T12:09:44.584Z</time></trkpt><trkpt lat="45.38106" lon="10.55197"><ele>124.66666666666666</ele><time>2026-05-01T12:09:45.59Z</time></trkpt><trkpt lat="45.3812117" lon="10.5518467"><ele>125.0</ele><time>2026-05-01T12:09:46.589Z</time></trkpt><trkpt lat="45.381385" lon="10.5517333"><ele>125.0</ele><time>2026-05-01T12:09:47.593Z</time></trkpt><trkpt lat="45.381565" lon="10.55162"><ele>125.0</ele><time>2026-05-01T12:09:48.587Z</time></trkpt><trkpt lat="45.381715" lon="10.5515267"><ele>125.0</ele><time>2026-05-01T12:09:49.584Z</time></trkpt><trkpt lat="45.381915" lon="10.5514183"><ele>125.0</ele><time>2026-05-01T12:09:50.583Z</time></trkpt><trkpt lat="45.3820783" lon="10.55135"><ele>125.0</ele><time>2026-05-01T12:09:51.584Z</time></trkpt><trkpt lat="45.3822217" lon="10.5513017"><ele>125.0</ele><time>2026-05-01T12:09:52.584Z</time></trkpt><trkpt lat="45.3823767" lon="10.5512233"><ele>125.66666666666666</ele><time>2026-05-01T12:09:53.622Z</time></trkpt><trkpt lat="45.38253" lon="10.5511317"><ele>126.33333333333334</ele><time>2026-05-01T12:09:54.614Z</time></trkpt><trkpt lat="45.3826783" lon="10.5510617"><ele>127.0</ele><time>2026-05-01T12:09:55.594Z</time></trkpt><trkpt lat="45.3828183" lon="10.5509583"><ele>127.66666666666667</ele><time>2026-05-01T12:09:56.586Z</time></trkpt><trkpt lat="45.3830733" lon="10.5507033"><ele>128.33333333333334</ele><time>2026-05-01T12:09:58.594Z</time></trkpt><trkpt lat="45.383185" lon="10.550595"><ele>129.0</ele><time>2026-05-01T12:09:59.589Z</time></trkpt><trkpt lat="45.3833117" lon="10.5504967"><ele>129.0</ele><time>2026-05-01T12:10:00.592Z</time></trkpt><trkpt lat="45.3834233" lon="10.55042"><ele>129.0</ele><time>2026-05-01T12:10:01.592Z</time></trkpt><trkpt lat="45.3835233" lon="10.5503417"><ele>129.0</ele><time>2026-05-01T12:10:02.598Z</time></trkpt><trkpt lat="45.3836433" lon="10.5502517"><ele>129.0</ele><time>2026-05-01T12:10:03.593Z</time></trkpt><trkpt lat="45.3837417" lon="10.5501733"><ele>130.25</ele><time>2026-05-01T12:10:04.593Z</time></trkpt><trkpt lat="45.3838517" lon="10.5501033"><ele>131.5</ele><time>2026-05-01T12:10:05.593Z</time></trkpt><trkpt lat="45.38398" lon="10.5500283"><ele>132.75</ele><time>2026-05-01T12:10:06.592Z</time></trkpt><trkpt lat="45.3840967" lon="10.5499817"><ele>134.0</ele><time>2026-05-01T12:10:07.586Z</time></trkpt><trkpt lat="45.3842233" lon="10.549925"><ele>134.0</ele><time>2026-05-01T12:10:08.587Z</time></trkpt><trkpt lat="45.384325" lon="10.54987"><ele>134.0</ele><time>2026-05-01T12:10:09.59Z</time></trkpt><trkpt lat="45.3844533" lon="10.5498067"><ele>134.0</ele><time>2026-05-01T12:10:10.597Z</time></trkpt><trkpt lat="45.3845617" lon="10.54974"><ele>134.0</ele><time>2026-05-01T12:10:11.59Z</time></trkpt><trkpt lat="45.3846367" lon="10.5497"><ele>134.0</ele><time>2026-05-01T12:10:12.592Z</time></trkpt><trkpt lat="45.384725" lon="10.5496467"><ele>133.5</ele><time>2026-05-01T12:10:13.587Z</time></trkpt><trkpt lat="45.384815" lon="10.5495683"><ele>133.0</ele><time>2026-05-01T12:10:14.6Z</time></trkpt><trkpt lat="45.3849083" lon="10.5494767"><ele>132.5</ele><time>2026-05-01T12:10:15.596Z</time></trkpt><trkpt lat="45.3850117" lon="10.5493767"><ele>132.0</ele><time>2026-05-01T12:10:16.591Z</time></trkpt><trkpt lat="45.385095" lon="10.5492767"><ele>131.0</ele><time>2026-05-01T12:10:17.582Z</time></trkpt><trkpt lat="45.38522" lon="10.549135"><ele>130.0</ele><time>2026-05-01T12:10:18.588Z</time></trkpt><trkpt lat="45.3853283" lon="10.5489867"><ele>129.0</ele><time>2026-05-01T12:10:19.598Z</time></trkpt><trkpt lat="45.3854467" lon="10.5488383"><ele>128.0</ele><time>2026-05-01T12:10:20.598Z</time></trkpt><trkpt lat="45.38554" lon="10.54868"><ele>127.0</ele><time>2026-05-01T12:10:21.583Z</time></trkpt><trkpt lat="45.38563" lon="10.5485217"><ele>126.0</ele><time>2026-05-01T12:10:22.589Z</time></trkpt><trkpt lat="45.3857233" lon="10.5484017"><ele>125.0</ele><time>2026-05-01T12:10:23.587Z</time></trkpt><trkpt lat="45.3858283" lon="10.5483033"><ele>125.0</ele><time>2026-05-01T12:10:24.593Z</time></trkpt><trkpt lat="45.3859583" lon="10.5482133"><ele>125.0</ele><time>2026-05-01T12:10:25.594Z</time></trkpt><trkpt lat="45.3860867" lon="10.5481517"><ele>125.0</ele><time>2026-05-01T12:10:26.593Z</time></trkpt><trkpt lat="45.3862033" lon="10.5480467"><ele>125.0</ele><time>2026-05-01T12:10:27.583Z</time></trkpt><trkpt lat="45.386315" lon="10.5479483"><ele>125.0</ele><time>2026-05-01T12:10:28.59Z</time></trkpt><trkpt lat="45.3864467" lon="10.547785"><ele>125.0</ele><time>2026-05-01T12:10:29.586Z</time></trkpt><trkpt lat="45.3865767" lon="10.5476317"><ele>125.0</ele><time>2026-05-01T12:10:30.585Z</time></trkpt><trkpt lat="45.386725" lon="10.5474683"><ele>125.0</ele><time>2026-05-01T12:10:31.593Z</time></trkpt><trkpt lat="45.3868967" lon="10.5472967"><ele>125.0</ele><time>2026-05-01T12:10:32.588Z</time></trkpt><trkpt lat="45.387055" lon="10.54714"><ele>125.0</ele><time>2026-05-01T12:10:33.586Z</time></trkpt><trkpt lat="45.3872133" lon="10.5469667"><ele>124.66666666666666</ele><time>2026-05-01T12:10:34.605Z</time></trkpt><trkpt lat="45.3873983" lon="10.5467967"><ele>124.33333333333334</ele><time>2026-05-01T12:10:35.596Z</time></trkpt><trkpt lat="45.3875633" lon="10.5466767"><ele>124.0</ele><time>2026-05-01T12:10:36.583Z</time></trkpt><trkpt lat="45.3876917" lon="10.5465317"><ele>124.0</ele><time>2026-05-01T12:10:37.588Z</time></trkpt><trkpt lat="45.3878333" lon="10.5463867"><ele>124.0</ele><time>2026-05-01T12:10:38.593Z</time></trkpt><trkpt lat="45.3879583" lon="10.5462683"><ele>124.0</ele><time>2026-05-01T12:10:39.59Z</time></trkpt><trkpt lat="45.3880933" lon="10.5461167"><ele>123.66666666666667</ele><time>2026-05-01T12:10:40.581Z</time></trkpt><trkpt lat="45.3882233" lon="10.5459883"><ele>123.33333333333334</ele><time>2026-05-01T12:10:41.587Z</time></trkpt><trkpt lat="45.3883417" lon="10.545835"><ele>123.0</ele><time>2026-05-01T12:10:42.586Z</time></trkpt><trkpt lat="45.388485" lon="10.5456667"><ele>123.0</ele><time>2026-05-01T12:10:43.588Z</time></trkpt><trkpt lat="45.38861" lon="10.5454717"><ele>123.0</ele><time>2026-05-01T12:10:44.581Z</time></trkpt><trkpt lat="45.38872" lon="10.54528"><ele>123.0</ele><time>2026-05-01T12:10:45.585Z</time></trkpt><trkpt lat="45.3888217" lon="10.545125"><ele>124.4</ele><time>2026-05-01T12:10:46.581Z</time></trkpt><trkpt lat="45.3889" lon="10.5450133"><ele>125.80000000000001</ele><time>2026-05-01T12:10:47.584Z</time></trkpt><trkpt lat="45.3889717" lon="10.5449117"><ele>127.2</ele><time>2026-05-01T12:10:48.582Z</time></trkpt><trkpt lat="45.389025" lon="10.5447983"><ele>128.6</ele><time>2026-05-01T12:10:49.584Z</time></trkpt><trkpt lat="45.3890867" lon="10.5446383"><ele>130.0</ele><time>2026-05-01T12:10:50.585Z</time></trkpt><trkpt lat="45.38914" lon="10.54447"><ele>130.0</ele><time>2026-05-01T12:10:51.594Z</time></trkpt><trkpt lat="45.3892033" lon="10.5443317"><ele>130.0</ele><time>2026-05-01T12:10:52.585Z</time></trkpt><trkpt lat="45.3893067" lon="10.5442033"><ele>130.0</ele><time>2026-05-01T12:10:53.583Z</time></trkpt><trkpt lat="45.3894317" lon="10.544105"><ele>130.0</ele><time>2026-05-01T12:10:54.595Z</time></trkpt><trkpt lat="45.3895633" lon="10.5440333"><ele>130.0</ele><time>2026-05-01T12:10:55.59Z</time></trkpt><trkpt lat="45.389685" lon="10.5439517"><ele>130.0</ele><time>2026-05-01T12:10:56.6Z</time></trkpt><trkpt lat="45.38979" lon="10.5438283"><ele>130.0</ele><time>2026-05-01T12:10:57.59Z</time></trkpt><trkpt lat="45.3898333" lon="10.5436983"><ele>130.0</ele><time>2026-05-01T12:10:58.59Z</time></trkpt><trkpt lat="45.3899183" lon="10.54358"><ele>130.0</ele><time>2026-05-01T12:10:59.601Z</time></trkpt><trkpt lat="45.3899917" lon="10.5435133"><ele>130.0</ele><time>2026-05-01T12:11:00.588Z</time></trkpt><trkpt lat="45.3900967" lon="10.54353"><ele>130.0</ele><time>2026-05-01T12:11:01.595Z</time></trkpt><trkpt lat="45.3902083" lon="10.5435817"><ele>130.0</ele><time>2026-05-01T12:11:02.587Z</time></trkpt><trkpt lat="45.39035" lon="10.5436567"><ele>130.0</ele><time>2026-05-01T12:11:03.596Z</time></trkpt><trkpt lat="45.390495" lon="10.5437333"><ele>130.0</ele><time>2026-05-01T12:11:04.593Z</time></trkpt><trkpt lat="45.3906667" lon="10.5438083"><ele>130.0</ele><time>2026-05-01T12:11:05.587Z</time></trkpt><trkpt lat="45.3908317" lon="10.5438483"><ele>129.5</ele><time>2026-05-01T12:11:06.591Z</time></trkpt><trkpt lat="45.3909967" lon="10.5438833"><ele>129.0</ele><time>2026-05-01T12:11:07.591Z</time></trkpt><trkpt lat="45.39113" lon="10.5439033"><ele>128.5</ele><time>2026-05-01T12:11:08.583Z</time></trkpt><trkpt lat="45.3912733" lon="10.5439167"><ele>128.0</ele><time>2026-05-01T12:11:09.587Z</time></trkpt><trkpt lat="45.3914133" lon="10.5438667"><ele>128.0</ele><time>2026-05-01T12:11:10.589Z</time></trkpt><trkpt lat="45.3915317" lon="10.54381"><ele>128.0</ele><time>2026-05-01T12:11:11.605Z</time></trkpt><trkpt lat="45.3916567" lon="10.543695"><ele>128.0</ele><time>2026-05-01T12:11:12.584Z</time></trkpt><trkpt lat="45.391815" lon="10.5435383"><ele>128.0</ele><time>2026-05-01T12:11:13.589Z</time></trkpt><trkpt lat="45.3919767" lon="10.5433933"><ele>128.0</ele><time>2026-05-01T12:11:14.584Z</time></trkpt><trkpt lat="45.3921083" lon="10.543265"><ele>128.0</ele><time>2026-05-01T12:11:15.593Z</time></trkpt><trkpt lat="45.3922833" lon="10.5431083"><ele>128.33333333333331</ele><time>2026-05-01T12:11:16.585Z</time></trkpt><trkpt lat="45.3924333" lon="10.5429717"><ele>128.66666666666666</ele><time>2026-05-01T12:11:17.594Z</time></trkpt><trkpt lat="45.3925317" lon="10.54281"><ele>129.0</ele><time>2026-05-01T12:11:18.586Z</time></trkpt><trkpt lat="45.3927417" lon="10.5424417"><ele>129.33333333333334</ele><time>2026-05-01T12:11:20.6Z</time></trkpt><trkpt lat="45.3928233" lon="10.542185"><ele>129.66666666666669</ele><time>2026-05-01T12:11:21.586Z</time></trkpt><trkpt lat="45.3928633" lon="10.5419317"><ele>130.0</ele><time>2026-05-01T12:11:22.586Z</time></trkpt><trkpt lat="45.3929333" lon="10.5416867"><ele>131.25</ele><time>2026-05-01T12:11:23.591Z</time></trkpt><trkpt lat="45.3930133" lon="10.5414617"><ele>132.5</ele><time>2026-05-01T12:11:24.585Z</time></trkpt><trkpt lat="45.3930917" lon="10.5412883"><ele>133.75</ele><time>2026-05-01T12:11:25.584Z</time></trkpt><trkpt lat="45.3931383" lon="10.5411917"><ele>135.0</ele><time>2026-05-01T12:11:26.592Z</time></trkpt><trkpt lat="45.3931833" lon="10.5411217"><ele>135.0</ele><time>2026-05-01T12:11:27.591Z</time></trkpt><trkpt lat="45.3932583" lon="10.541"><ele>135.0</ele><time>2026-05-01T12:11:29.585Z</time></trkpt><trkpt lat="45.393335" lon="10.5408833"><ele>135.0</ele><time>2026-05-01T12:11:31.586Z</time></trkpt><trkpt lat="45.3933883" lon="10.5407883"><ele>135.0</ele><time>2026-05-01T12:11:33.586Z</time></trkpt><trkpt lat="45.3934367" lon="10.54068"><ele>135.0</ele><time>2026-05-01T12:11:35.59Z</time></trkpt><trkpt lat="45.3935167" lon="10.5405417"><ele>135.0</ele><time>2026-05-01T12:11:37.588Z</time></trkpt><trkpt lat="45.3935533" lon="10.5404583"><ele>135.0</ele><time>2026-05-01T12:11:38.586Z</time></trkpt><trkpt lat="45.3935883" lon="10.5403833"><ele>135.0</ele><time>2026-05-01T12:11:39.589Z</time></trkpt><trkpt lat="45.39361" lon="10.5402467"><ele>135.0</ele><time>2026-05-01T12:11:41.59Z</time></trkpt><trkpt lat="45.3935683" lon="10.5401467"><ele>135.0</ele><time>2026-05-01T12:11:43.586Z</time></trkpt><trkpt lat="45.3934533" lon="10.54005"><ele>135.0</ele><time>2026-05-01T12:11:45.588Z</time></trkpt><trkpt lat="45.3933833" lon="10.5400017"><ele>134.5</ele><time>2026-05-01T12:11:46.586Z</time></trkpt><trkpt lat="45.3933067" lon="10.5399467"><ele>134.0</ele><time>2026-05-01T12:11:47.595Z</time></trkpt><trkpt lat="45.393215" lon="10.5398833"><ele>133.5</ele><time>2026-05-01T12:11:48.59Z</time></trkpt><trkpt lat="45.39312" lon="10.5398183"><ele>133.0</ele><time>2026-05-01T12:11:49.583Z</time></trkpt><trkpt lat="45.3929633" lon="10.5397217"><ele>132.75</ele><time>2026-05-01T12:11:50.587Z</time></trkpt><trkpt lat="45.3928017" lon="10.53961"><ele>132.5</ele><time>2026-05-01T12:11:51.593Z</time></trkpt><trkpt lat="45.3926617" lon="10.539525"><ele>132.25</ele><time>2026-05-01T12:11:52.586Z</time></trkpt><trkpt lat="45.3925917" lon="10.5394733"><ele>132.0</ele><time>2026-05-01T12:11:53.587Z</time></trkpt><trkpt lat="45.3925133" lon="10.53936"><ele>132.0</ele><time>2026-05-01T12:11:54.595Z</time></trkpt><trkpt lat="45.3924617" lon="10.539275"><ele>132.0</ele><time>2026-05-01T12:11:55.589Z</time></trkpt><trkpt lat="45.392405" lon="10.5392083"><ele>132.0</ele><time>2026-05-01T12:11:56.586Z</time></trkpt><trkpt lat="45.3924267" lon="10.5390533"><ele>132.0</ele><time>2026-05-01T12:11:58.589Z</time></trkpt><trkpt lat="45.3924767" lon="10.5389683"><ele>132.0</ele><time>2026-05-01T12:11:59.59Z</time></trkpt><trkpt lat="45.3925483" lon="10.5388717"><ele>132.0</ele><time>2026-05-01T12:12:00.592Z</time></trkpt><trkpt lat="45.3926617" lon="10.538755"><ele>133.0</ele><time>2026-05-01T12:12:01.59Z</time></trkpt><trkpt lat="45.3927767" lon="10.5386467"><ele>134.0</ele><time>2026-05-01T12:12:02.588Z</time></trkpt><trkpt lat="45.3928817" lon="10.5385"><ele>135.0</ele><time>2026-05-01T12:12:03.583Z</time></trkpt><trkpt lat="45.393005" lon="10.538335"><ele>134.66666666666666</ele><time>2026-05-01T12:12:04.592Z</time></trkpt><trkpt lat="45.3931233" lon="10.538165"><ele>134.33333333333331</ele><time>2026-05-01T12:12:05.596Z</time></trkpt><trkpt lat="45.3932833" lon="10.537985"><ele>134.0</ele><time>2026-05-01T12:12:06.58Z</time></trkpt><trkpt lat="45.3934417" lon="10.5378017"><ele>134.0</ele><time>2026-05-01T12:12:07.601Z</time></trkpt><trkpt lat="45.3935933" lon="10.53761"><ele>134.0</ele><time>2026-05-01T12:12:08.585Z</time></trkpt><trkpt lat="45.393745" lon="10.537435"><ele>134.0</ele><time>2026-05-01T12:12:09.589Z</time></trkpt><trkpt lat="45.39388" lon="10.5372767"><ele>134.0</ele><time>2026-05-01T12:12:10.588Z</time></trkpt><trkpt lat="45.394015" lon="10.5371567"><ele>134.0</ele><time>2026-05-01T12:12:11.597Z</time></trkpt><trkpt lat="45.394155" lon="10.5370417"><ele>134.0</ele><time>2026-05-01T12:12:12.619Z</time></trkpt><trkpt lat="45.3943283" lon="10.5369517"><ele>133.66666666666666</ele><time>2026-05-01T12:12:13.581Z</time></trkpt><trkpt lat="45.3944883" lon="10.536845"><ele>133.33333333333334</ele><time>2026-05-01T12:12:14.588Z</time></trkpt><trkpt lat="45.3946433" lon="10.5367367"><ele>133.0</ele><time>2026-05-01T12:12:15.588Z</time></trkpt><trkpt lat="45.3948083" lon="10.5366133"><ele>133.0</ele><time>2026-05-01T12:12:16.582Z</time></trkpt><trkpt lat="45.3949667" lon="10.5365017"><ele>133.0</ele><time>2026-05-01T12:12:17.588Z</time></trkpt><trkpt lat="45.3951083" lon="10.536415"><ele>133.0</ele><time>2026-05-01T12:12:18.582Z</time></trkpt><trkpt lat="45.395225" lon="10.5363467"><ele>133.0</ele><time>2026-05-01T12:12:19.594Z</time></trkpt><trkpt lat="45.395315" lon="10.5363083"><ele>133.0</ele><time>2026-05-01T12:12:20.588Z</time></trkpt><trkpt lat="45.395385" lon="10.536295"><ele>133.0</ele><time>2026-05-01T12:12:21.593Z</time></trkpt><trkpt lat="45.3954483" lon="10.5363267"><ele>133.0</ele><time>2026-05-01T12:12:22.583Z</time></trkpt><trkpt lat="45.3955083" lon="10.5363783"><ele>133.0</ele><time>2026-05-01T12:12:23.591Z</time></trkpt><trkpt lat="45.3955717" lon="10.5364483"><ele>133.0</ele><time>2026-05-01T12:12:24.587Z</time></trkpt><trkpt lat="45.3956417" lon="10.5365283"><ele>132.4</ele><time>2026-05-01T12:12:25.586Z</time></trkpt><trkpt lat="45.3957117" lon="10.5366"><ele>131.8</ele><time>2026-05-01T12:12:26.586Z</time></trkpt><trkpt lat="45.39579" lon="10.53669"><ele>131.2</ele><time>2026-05-01T12:12:27.587Z</time></trkpt><trkpt lat="45.39588" lon="10.536755"><ele>130.6</ele><time>2026-05-01T12:12:28.584Z</time></trkpt><trkpt lat="45.3959667" lon="10.5368167"><ele>130.0</ele><time>2026-05-01T12:12:29.583Z</time></trkpt><trkpt lat="45.3960483" lon="10.5369"><ele>130.0</ele><time>2026-05-01T12:12:30.592Z</time></trkpt><trkpt lat="45.3961283" lon="10.5369717"><ele>130.0</ele><time>2026-05-01T12:12:31.589Z</time></trkpt><trkpt lat="45.3962167" lon="10.5370667"><ele>130.0</ele><time>2026-05-01T12:12:32.592Z</time></trkpt><trkpt lat="45.3963117" lon="10.5371433"><ele>130.0</ele><time>2026-05-01T12:12:33.59Z</time></trkpt><trkpt lat="45.3964" lon="10.5371783"><ele>130.0</ele><time>2026-05-01T12:12:34.587Z</time></trkpt><trkpt lat="45.3965017" lon="10.5371933"><ele>130.0</ele><time>2026-05-01T12:12:35.584Z</time></trkpt><trkpt lat="45.3966317" lon="10.5371717"><ele>130.0</ele><time>2026-05-01T12:12:36.589Z</time></trkpt><trkpt lat="45.39675" lon="10.5371317"><ele>130.0</ele><time>2026-05-01T12:12:37.597Z</time></trkpt><trkpt lat="45.3968733" lon="10.5370733"><ele>130.0</ele><time>2026-05-01T12:12:38.587Z</time></trkpt><trkpt lat="45.3970033" lon="10.5370167"><ele>130.0</ele><time>2026-05-01T12:12:39.596Z</time></trkpt><trkpt lat="45.3971217" lon="10.53696"><ele>130.0</ele><time>2026-05-01T12:12:40.59Z</time></trkpt><trkpt lat="45.3972317" lon="10.5368967"><ele>130.0</ele><time>2026-05-01T12:12:41.582Z</time></trkpt><trkpt lat="45.39727" lon="10.5368167"><ele>130.0</ele><time>2026-05-01T12:12:42.591Z</time></trkpt><trkpt lat="45.3973617" lon="10.5367367"><ele>130.0</ele><time>2026-05-01T12:12:43.592Z</time></trkpt><trkpt lat="45.3974233" lon="10.5366517"><ele>131.0</ele><time>2026-05-01T12:12:44.581Z</time></trkpt><trkpt lat="45.397505" lon="10.5365883"><ele>132.0</ele><time>2026-05-01T12:12:45.589Z</time></trkpt><trkpt lat="45.39756" lon="10.5365"><ele>133.0</ele><time>2026-05-01T12:12:46.587Z</time></trkpt><trkpt lat="45.39762" lon="10.5364267"><ele>134.0</ele><time>2026-05-01T12:12:47.588Z</time></trkpt><trkpt lat="45.3976717" lon="10.5363583"><ele>135.0</ele><time>2026-05-01T12:12:48.587Z</time></trkpt><trkpt lat="45.397725" lon="10.5362833"><ele>136.0</ele><time>2026-05-01T12:12:49.589Z</time></trkpt><trkpt lat="45.397775" lon="10.5362117"><ele>136.0</ele><time>2026-05-01T12:12:50.58Z</time></trkpt><trkpt lat="45.397835" lon="10.536135"><ele>136.0</ele><time>2026-05-01T12:12:51.59Z</time></trkpt><trkpt lat="45.3978967" lon="10.5360633"><ele>136.0</ele><time>2026-05-01T12:12:52.587Z</time></trkpt><trkpt lat="45.39796" lon="10.5360217"><ele>136.0</ele><time>2026-05-01T12:12:53.585Z</time></trkpt><trkpt lat="45.3980183" lon="10.5359033"><ele>136.0</ele><time>2026-05-01T12:12:55.581Z</time></trkpt><trkpt lat="45.39807" lon="10.5357683"><ele>136.0</ele><time>2026-05-01T12:12:57.588Z</time></trkpt><trkpt lat="45.39809" lon="10.535675"><ele>135.83333333333334</ele><time>2026-05-01T12:12:58.587Z</time></trkpt><trkpt lat="45.3981" lon="10.5355617"><ele>135.66666666666669</ele><time>2026-05-01T12:12:59.583Z</time></trkpt><trkpt lat="45.39811" lon="10.5354517"><ele>135.5</ele><time>2026-05-01T12:13:00.6Z</time></trkpt><trkpt lat="45.398125" lon="10.53533"><ele>135.33333333333334</ele><time>2026-05-01T12:13:01.585Z</time></trkpt><trkpt lat="45.3981383" lon="10.5352083"><ele>135.16666666666666</ele><time>2026-05-01T12:13:02.585Z</time></trkpt><trkpt lat="45.3981583" lon="10.535085"><ele>135.0</ele><time>2026-05-01T12:13:03.585Z</time></trkpt><trkpt lat="45.398185" lon="10.5349617"><ele>135.0</ele><time>2026-05-01T12:13:04.58Z</time></trkpt><trkpt lat="45.3982067" lon="10.5348467"><ele>135.0</ele><time>2026-05-01T12:13:05.598Z</time></trkpt><trkpt lat="45.3982283" lon="10.5347217"><ele>135.0</ele><time>2026-05-01T12:13:06.589Z</time></trkpt><trkpt lat="45.398245" lon="10.53459"><ele>135.0</ele><time>2026-05-01T12:13:07.589Z</time></trkpt><trkpt lat="45.3982633" lon="10.5344533"><ele>135.0</ele><time>2026-05-01T12:13:08.589Z</time></trkpt><trkpt lat="45.398285" lon="10.5342967"><ele>134.0</ele><time>2026-05-01T12:13:09.584Z</time></trkpt><trkpt lat="45.3983133" lon="10.5341267"><ele>133.0</ele><time>2026-05-01T12:13:10.59Z</time></trkpt><trkpt lat="45.3983333" lon="10.5339817"><ele>132.0</ele><time>2026-05-01T12:13:11.593Z</time></trkpt><trkpt lat="45.3983717" lon="10.5337983"><ele>131.0</ele><time>2026-05-01T12:13:12.592Z</time></trkpt><trkpt lat="45.3983933" lon="10.5336383"><ele>130.5</ele><time>2026-05-01T12:13:13.583Z</time></trkpt><trkpt lat="45.3984" lon="10.533485"><ele>130.0</ele><time>2026-05-01T12:13:14.592Z</time></trkpt><trkpt lat="45.3984167" lon="10.533375"><ele>129.5</ele><time>2026-05-01T12:13:15.595Z</time></trkpt><trkpt lat="45.39843" lon="10.53323"><ele>129.0</ele><time>2026-05-01T12:13:16.583Z</time></trkpt><trkpt lat="45.3984367" lon="10.533115"><ele>128.5</ele><time>2026-05-01T12:13:17.61Z</time></trkpt><trkpt lat="45.39843" lon="10.5330167"><ele>128.0</ele><time>2026-05-01T12:13:18.602Z</time></trkpt><trkpt lat="45.39841" lon="10.532905"><ele>128.0</ele><time>2026-05-01T12:13:19.579Z</time></trkpt><trkpt lat="45.3983883" lon="10.5327983"><ele>128.0</ele><time>2026-05-01T12:13:20.589Z</time></trkpt><trkpt lat="45.3983717" lon="10.5327083"><ele>128.0</ele><time>2026-05-01T12:13:21.592Z</time></trkpt><trkpt lat="45.398375" lon="10.5325683"><ele>128.0</ele><time>2026-05-01T12:13:23.585Z</time></trkpt><trkpt lat="45.3984533" lon="10.532435"><ele>128.0</ele><time>2026-05-01T12:13:25.588Z</time></trkpt><trkpt lat="45.3985217" lon="10.532355"><ele>128.0</ele><time>2026-05-01T12:13:26.59Z</time></trkpt><trkpt lat="45.398615" lon="10.5322467"><ele>128.0</ele><time>2026-05-01T12:13:27.585Z</time></trkpt><trkpt lat="45.3986983" lon="10.5321183"><ele>128.0</ele><time>2026-05-01T12:13:28.583Z</time></trkpt><trkpt lat="45.39879" lon="10.5320083"><ele>128.0</ele><time>2026-05-01T12:13:29.59Z</time></trkpt><trkpt lat="45.3988933" lon="10.5319067"><ele>129.0</ele><time>2026-05-01T12:13:30.593Z</time></trkpt><trkpt lat="45.3989717" lon="10.53179"><ele>130.0</ele><time>2026-05-01T12:13:31.601Z</time></trkpt><trkpt lat="45.3990667" lon="10.531645"><ele>131.0</ele><time>2026-05-01T12:13:32.586Z</time></trkpt><trkpt lat="45.3991433" lon="10.5315083"><ele>132.0</ele><time>2026-05-01T12:13:33.581Z</time></trkpt><trkpt lat="45.3992233" lon="10.5313417"><ele>131.5</ele><time>2026-05-01T12:13:34.589Z</time></trkpt><trkpt lat="45.3992983" lon="10.531185"><ele>131.0</ele><time>2026-05-01T12:13:35.593Z</time></trkpt><trkpt lat="45.3993683" lon="10.53105"><ele>130.5</ele><time>2026-05-01T12:13:36.587Z</time></trkpt><trkpt lat="45.3994567" lon="10.5309133"><ele>130.0</ele><time>2026-05-01T12:13:37.587Z</time></trkpt><trkpt lat="45.3995433" lon="10.5307933"><ele>130.0</ele><time>2026-05-01T12:13:38.588Z</time></trkpt><trkpt lat="45.3996483" lon="10.53069"><ele>130.0</ele><time>2026-05-01T12:13:39.583Z</time></trkpt><trkpt lat="45.3997583" lon="10.5305517"><ele>130.0</ele><time>2026-05-01T12:13:40.588Z</time></trkpt><trkpt lat="45.3998733" lon="10.5304183"><ele>130.0</ele><time>2026-05-01T12:13:41.584Z</time></trkpt><trkpt lat="45.4" lon="10.53031"><ele>132.33333333333334</ele><time>2026-05-01T12:13:42.586Z</time></trkpt><trkpt lat="45.4001383" lon="10.530185"><ele>134.66666666666666</ele><time>2026-05-01T12:13:43.594Z</time></trkpt><trkpt lat="45.40027" lon="10.5300483"><ele>137.0</ele><time>2026-05-01T12:13:44.587Z</time></trkpt><trkpt lat="45.400425" lon="10.529935"><ele>136.33333333333331</ele><time>2026-05-01T12:13:45.583Z</time></trkpt><trkpt lat="45.4005617" lon="10.5298217"><ele>135.66666666666666</ele><time>2026-05-01T12:13:46.594Z</time></trkpt><trkpt lat="45.4007083" lon="10.5297"><ele>135.0</ele><time>2026-05-01T12:13:47.585Z</time></trkpt><trkpt lat="45.40085" lon="10.52959"><ele>135.33333333333334</ele><time>2026-05-01T12:13:48.605Z</time></trkpt><trkpt lat="45.40098" lon="10.529445"><ele>135.66666666666669</ele><time>2026-05-01T12:13:49.588Z</time></trkpt><trkpt lat="45.4011483" lon="10.529305"><ele>136.0</ele><time>2026-05-01T12:13:50.594Z</time></trkpt><trkpt lat="45.4013283" lon="10.5291817"><ele>136.33333333333334</ele><time>2026-05-01T12:13:51.591Z</time></trkpt><trkpt lat="45.4014917" lon="10.52903"><ele>136.66666666666666</ele><time>2026-05-01T12:13:52.587Z</time></trkpt><trkpt lat="45.4016733" lon="10.5288967"><ele>137.0</ele><time>2026-05-01T12:13:53.588Z</time></trkpt><trkpt lat="45.4018233" lon="10.5287867"><ele>137.33333333333331</ele><time>2026-05-01T12:13:54.586Z</time></trkpt><trkpt lat="45.4019617" lon="10.5286583"><ele>137.66666666666666</ele><time>2026-05-01T12:13:55.615Z</time></trkpt><trkpt lat="45.402115" lon="10.528525"><ele>138.0</ele><time>2026-05-01T12:13:56.596Z</time></trkpt><trkpt lat="45.4022733" lon="10.5283867"><ele>138.0</ele><time>2026-05-01T12:13:57.604Z</time></trkpt><trkpt lat="45.4024233" lon="10.52825"><ele>138.0</ele><time>2026-05-01T12:13:58.588Z</time></trkpt><trkpt lat="45.402545" lon="10.5281317"><ele>138.0</ele><time>2026-05-01T12:13:59.593Z</time></trkpt><trkpt lat="45.4026517" lon="10.5280383"><ele>138.0</ele><time>2026-05-01T12:14:00.577Z</time></trkpt><trkpt lat="45.40274" lon="10.5279533"><ele>138.0</ele><time>2026-05-01T12:14:01.579Z</time></trkpt><trkpt lat="45.40285" lon="10.5279"><ele>138.0</ele><time>2026-05-01T12:14:02.597Z</time></trkpt><trkpt lat="45.40295" lon="10.5278733"><ele>138.0</ele><time>2026-05-01T12:14:03.593Z</time></trkpt><trkpt lat="45.4031017" lon="10.5278467"><ele>137.0</ele><time>2026-05-01T12:14:04.588Z</time></trkpt><trkpt lat="45.4032467" lon="10.5278033"><ele>136.0</ele><time>2026-05-01T12:14:05.588Z</time></trkpt><trkpt lat="45.4034367" lon="10.5277817"><ele>135.0</ele><time>2026-05-01T12:14:06.59Z</time></trkpt><trkpt lat="45.4035717" lon="10.52772"><ele>135.0</ele><time>2026-05-01T12:14:07.576Z</time></trkpt><trkpt lat="45.403715" lon="10.5276983"><ele>135.0</ele><time>2026-05-01T12:14:08.578Z</time></trkpt><trkpt lat="45.4039583" lon="10.527705"><ele>135.0</ele><time>2026-05-01T12:14:10.583Z</time></trkpt><trkpt lat="45.404055" lon="10.5276883"><ele>134.5</ele><time>2026-05-01T12:14:11.582Z</time></trkpt><trkpt lat="45.404165" lon="10.5276317"><ele>134.0</ele><time>2026-05-01T12:14:12.588Z</time></trkpt><trkpt lat="45.404265" lon="10.5274817"><ele>133.5</ele><time>2026-05-01T12:14:13.583Z</time></trkpt><trkpt lat="45.4043667" lon="10.5272667"><ele>133.0</ele><time>2026-05-01T12:14:14.587Z</time></trkpt><trkpt lat="45.404505" lon="10.5270983"><ele>132.66666666666669</ele><time>2026-05-01T12:14:15.585Z</time></trkpt><trkpt lat="45.4046483" lon="10.5268933"><ele>132.33333333333334</ele><time>2026-05-01T12:14:16.584Z</time></trkpt><trkpt lat="45.4047933" lon="10.526695"><ele>132.0</ele><time>2026-05-01T12:14:17.588Z</time></trkpt><trkpt lat="45.4049233" lon="10.52651"><ele>132.0</ele><time>2026-05-01T12:14:18.591Z</time></trkpt><trkpt lat="45.4050367" lon="10.526365"><ele>132.0</ele><time>2026-05-01T12:14:19.588Z</time></trkpt><trkpt lat="45.4051167" lon="10.52622"><ele>132.0</ele><time>2026-05-01T12:14:20.587Z</time></trkpt><trkpt lat="45.40524" lon="10.5260967"><ele>132.0</ele><time>2026-05-01T12:14:21.587Z</time></trkpt><trkpt lat="45.40532" lon="10.5259567"><ele>132.25</ele><time>2026-05-01T12:14:22.589Z</time></trkpt><trkpt lat="45.4054217" lon="10.5258667"><ele>132.5</ele><time>2026-05-01T12:14:23.581Z</time></trkpt><trkpt lat="45.4055117" lon="10.5256817"><ele>132.75</ele><time>2026-05-01T12:14:24.586Z</time></trkpt><trkpt lat="45.405615" lon="10.5255"><ele>133.0</ele><time>2026-05-01T12:14:25.593Z</time></trkpt><trkpt lat="45.4057367" lon="10.5253267"><ele>132.0</ele><time>2026-05-01T12:14:26.588Z</time></trkpt><trkpt lat="45.405895" lon="10.52514"><ele>131.0</ele><time>2026-05-01T12:14:27.588Z</time></trkpt><trkpt lat="45.4060267" lon="10.524985"><ele>130.0</ele><time>2026-05-01T12:14:28.603Z</time></trkpt><trkpt lat="45.4061333" lon="10.52485"><ele>130.0</ele><time>2026-05-01T12:14:29.588Z</time></trkpt><trkpt lat="45.40625" lon="10.5247367"><ele>130.0</ele><time>2026-05-01T12:14:30.592Z</time></trkpt><trkpt lat="45.406325" lon="10.5246583"><ele>130.0</ele><time>2026-05-01T12:14:31.589Z</time></trkpt><trkpt lat="45.40642" lon="10.5245683"><ele>130.0</ele><time>2026-05-01T12:14:32.583Z</time></trkpt><trkpt lat="45.4065183" lon="10.5245067"><ele>131.0</ele><time>2026-05-01T12:14:33.583Z</time></trkpt><trkpt lat="45.4066417" lon="10.5244067"><ele>132.0</ele><time>2026-05-01T12:14:34.587Z</time></trkpt><trkpt lat="45.40676" lon="10.52433"><ele>133.0</ele><time>2026-05-01T12:14:35.601Z</time></trkpt><trkpt lat="45.406885" lon="10.5242333"><ele>134.0</ele><time>2026-05-01T12:14:36.591Z</time></trkpt><trkpt lat="45.4070433" lon="10.5241167"><ele>132.66666666666666</ele><time>2026-05-01T12:14:37.589Z</time></trkpt><trkpt lat="45.40719" lon="10.5239783"><ele>131.33333333333334</ele><time>2026-05-01T12:14:38.587Z</time></trkpt><trkpt lat="45.4073517" lon="10.52388"><ele>130.0</ele><time>2026-05-01T12:14:39.59Z</time></trkpt><trkpt lat="45.4074933" lon="10.5237583"><ele>129.75</ele><time>2026-05-01T12:14:40.587Z</time></trkpt><trkpt lat="45.4076267" lon="10.5236433"><ele>129.5</ele><time>2026-05-01T12:14:41.595Z</time></trkpt><trkpt lat="45.4077433" lon="10.5235267"><ele>129.25</ele><time>2026-05-01T12:14:42.59Z</time></trkpt><trkpt lat="45.4078533" lon="10.5234267"><ele>129.0</ele><time>2026-05-01T12:14:43.599Z</time></trkpt><trkpt lat="45.40795" lon="10.523355"><ele>128.66666666666666</ele><time>2026-05-01T12:14:44.582Z</time></trkpt><trkpt lat="45.4080383" lon="10.52327"><ele>128.33333333333334</ele><time>2026-05-01T12:14:45.577Z</time></trkpt><trkpt lat="45.4081117" lon="10.5232217"><ele>128.0</ele><time>2026-05-01T12:14:46.587Z</time></trkpt><trkpt lat="45.40818" lon="10.523175"><ele>127.66666666666667</ele><time>2026-05-01T12:14:47.594Z</time></trkpt><trkpt lat="45.4082383" lon="10.5231233"><ele>127.33333333333334</ele><time>2026-05-01T12:14:48.595Z</time></trkpt><trkpt lat="45.4083017" lon="10.5230833"><ele>127.0</ele><time>2026-05-01T12:14:49.591Z</time></trkpt><trkpt lat="45.4083617" lon="10.5230533"><ele>127.0</ele><time>2026-05-01T12:14:50.594Z</time></trkpt><trkpt lat="45.408435" lon="10.52304"><ele>126.99999999999999</ele><time>2026-05-01T12:14:51.587Z</time></trkpt><trkpt lat="45.40851" lon="10.5230133"><ele>126.99999999999999</ele><time>2026-05-01T12:14:52.593Z</time></trkpt><trkpt lat="45.408595" lon="10.52299"><ele>127.0</ele><time>2026-05-01T12:14:53.59Z</time></trkpt><trkpt lat="45.4086933" lon="10.5229433"><ele>127.0</ele><time>2026-05-01T12:14:54.592Z</time></trkpt><trkpt lat="45.40881" lon="10.5228883"><ele>126.33333333333334</ele><time>2026-05-01T12:14:55.584Z</time></trkpt><trkpt lat="45.4089517" lon="10.5228117"><ele>125.66666666666666</ele><time>2026-05-01T12:14:56.591Z</time></trkpt><trkpt lat="45.4091233" lon="10.522715"><ele>125.0</ele><time>2026-05-01T12:14:57.594Z</time></trkpt><trkpt lat="45.4093333" lon="10.5226433"><ele>125.0</ele><time>2026-05-01T12:14:58.588Z</time></trkpt><trkpt lat="45.4095333" lon="10.5225583"><ele>125.0</ele><time>2026-05-01T12:14:59.589Z</time></trkpt><trkpt lat="45.40974" lon="10.52249"><ele>125.0</ele><time>2026-05-01T12:15:00.588Z</time></trkpt><trkpt lat="45.4099467" lon="10.5224183"><ele>123.33333333333333</ele><time>2026-05-01T12:15:01.589Z</time></trkpt><trkpt lat="45.410175" lon="10.5223117"><ele>121.66666666666666</ele><time>2026-05-01T12:15:02.583Z</time></trkpt><trkpt lat="45.41037" lon="10.5222317"><ele>120.0</ele><time>2026-05-01T12:15:03.589Z</time></trkpt><trkpt lat="45.410565" lon="10.522135"><ele>119.33333333333334</ele><time>2026-05-01T12:15:04.589Z</time></trkpt><trkpt lat="45.410755" lon="10.5220633"><ele>118.66666666666667</ele><time>2026-05-01T12:15:05.589Z</time></trkpt><trkpt lat="45.4109017" lon="10.5219967"><ele>118.0</ele><time>2026-05-01T12:15:06.593Z</time></trkpt><trkpt lat="45.4110633" lon="10.5219367"><ele>118.0</ele><time>2026-05-01T12:15:07.598Z</time></trkpt><trkpt lat="45.4112333" lon="10.5219033"><ele>118.0</ele><time>2026-05-01T12:15:08.587Z</time></trkpt><trkpt lat="45.4113683" lon="10.5218833"><ele>118.0</ele><time>2026-05-01T12:15:09.582Z</time></trkpt><trkpt lat="45.411505" lon="10.5219167"><ele>118.0</ele><time>2026-05-01T12:15:10.582Z</time></trkpt><trkpt lat="45.4116317" lon="10.52197"><ele>117.66666666666667</ele><time>2026-05-01T12:15:11.589Z</time></trkpt><trkpt lat="45.411805" lon="10.522055"><ele>117.33333333333334</ele><time>2026-05-01T12:15:12.588Z</time></trkpt><trkpt lat="45.4119717" lon="10.522155"><ele>117.0</ele><time>2026-05-01T12:15:13.597Z</time></trkpt><trkpt lat="45.4121233" lon="10.5222683"><ele>118.0</ele><time>2026-05-01T12:15:14.603Z</time></trkpt><trkpt lat="45.412295" lon="10.5223733"><ele>119.0</ele><time>2026-05-01T12:15:15.586Z</time></trkpt><trkpt lat="45.41248" lon="10.522475"><ele>120.0</ele><time>2026-05-01T12:15:16.583Z</time></trkpt><trkpt lat="45.412655" lon="10.5225483"><ele>120.0</ele><time>2026-05-01T12:15:17.583Z</time></trkpt><trkpt lat="45.41282" lon="10.5226267"><ele>120.0</ele><time>2026-05-01T12:15:18.582Z</time></trkpt><trkpt lat="45.4129533" lon="10.5227083"><ele>120.0</ele><time>2026-05-01T12:15:19.586Z</time></trkpt><trkpt lat="45.4130817" lon="10.5227483"><ele>120.0</ele><time>2026-05-01T12:15:20.598Z</time></trkpt><trkpt lat="45.4132117" lon="10.5228267"><ele>120.0</ele><time>2026-05-01T12:15:21.591Z</time></trkpt><trkpt lat="45.4133633" lon="10.5228767"><ele>120.0</ele><time>2026-05-01T12:15:22.587Z</time></trkpt><trkpt lat="45.41351" lon="10.5229433"><ele>119.33333333333334</ele><time>2026-05-01T12:15:23.592Z</time></trkpt><trkpt lat="45.4136733" lon="10.5229817"><ele>118.66666666666667</ele><time>2026-05-01T12:15:24.589Z</time></trkpt><trkpt lat="45.41383" lon="10.5230167"><ele>118.0</ele><time>2026-05-01T12:15:25.589Z</time></trkpt><trkpt lat="45.41396" lon="10.52304"><ele>117.50000000000001</ele><time>2026-05-01T12:15:26.591Z</time></trkpt><trkpt lat="45.4140617" lon="10.523055"><ele>117.0</ele><time>2026-05-01T12:15:27.588Z</time></trkpt><trkpt lat="45.4141467" lon="10.5230633"><ele>116.5</ele><time>2026-05-01T12:15:28.585Z</time></trkpt><trkpt lat="45.4142083" lon="10.5230883"><ele>116.0</ele><time>2026-05-01T12:15:29.591Z</time></trkpt><trkpt lat="45.4142817" lon="10.52319"><ele>115.50000000000001</ele><time>2026-05-01T12:15:31.595Z</time></trkpt><trkpt lat="45.4142883" lon="10.5232867"><ele>115.0</ele><time>2026-05-01T12:15:32.591Z</time></trkpt><trkpt lat="45.4142483" lon="10.5234517"><ele>115.0</ele><time>2026-05-01T12:15:33.589Z</time></trkpt><trkpt lat="45.4141983" lon="10.5236167"><ele>115.0</ele><time>2026-05-01T12:15:34.589Z</time></trkpt><trkpt lat="45.4141517" lon="10.52379"><ele>115.0</ele><time>2026-05-01T12:15:35.589Z</time></trkpt><trkpt lat="45.4140967" lon="10.52398"><ele>115.0</ele><time>2026-05-01T12:15:36.589Z</time></trkpt><trkpt lat="45.4140717" lon="10.5240983"><ele>115.0</ele><time>2026-05-01T12:15:37.6Z</time></trkpt><trkpt lat="45.4140983" lon="10.524265"><ele>115.0</ele><time>2026-05-01T12:15:39.604Z</time></trkpt><trkpt lat="45.4141617" lon="10.5243433"><ele>115.0</ele><time>2026-05-01T12:15:40.59Z</time></trkpt><trkpt lat="45.4142533" lon="10.5244067"><ele>115.0</ele><time>2026-05-01T12:15:41.585Z</time></trkpt><trkpt lat="45.4143583" lon="10.5244933"><ele>115.0</ele><time>2026-05-01T12:15:42.593Z</time></trkpt><trkpt lat="45.4144933" lon="10.5245683"><ele>115.0</ele><time>2026-05-01T12:15:43.592Z</time></trkpt><trkpt lat="45.4146217" lon="10.52469"><ele>115.0</ele><time>2026-05-01T12:15:44.591Z</time></trkpt><trkpt lat="45.41476" lon="10.5248067"><ele>115.0</ele><time>2026-05-01T12:15:45.602Z</time></trkpt><trkpt lat="45.4149317" lon="10.5249367"><ele>115.33333333333334</ele><time>2026-05-01T12:15:46.6Z</time></trkpt><trkpt lat="45.415095" lon="10.5251033"><ele>115.66666666666666</ele><time>2026-05-01T12:15:47.597Z</time></trkpt><trkpt lat="45.41529" lon="10.5252583"><ele>116.0</ele><time>2026-05-01T12:15:48.584Z</time></trkpt><trkpt lat="45.41548" lon="10.525445"><ele>115.5</ele><time>2026-05-01T12:15:49.593Z</time></trkpt><trkpt lat="45.4156767" lon="10.5256317"><ele>115.0</ele><time>2026-05-01T12:15:50.588Z</time></trkpt><trkpt lat="45.4158783" lon="10.52581"><ele>115.0</ele><time>2026-05-01T12:15:51.589Z</time></trkpt><trkpt lat="45.4160767" lon="10.525975"><ele>115.0</ele><time>2026-05-01T12:15:52.617Z</time></trkpt><trkpt lat="45.4162933" lon="10.5262117"><ele>114.0</ele><time>2026-05-01T12:15:53.584Z</time></trkpt><trkpt lat="45.41652" lon="10.5263783"><ele>113.0</ele><time>2026-05-01T12:15:54.592Z</time></trkpt><trkpt lat="45.4167417" lon="10.52653"><ele>113.0</ele><time>2026-05-01T12:15:55.584Z</time></trkpt><trkpt lat="45.4169283" lon="10.5266483"><ele>113.0</ele><time>2026-05-01T12:15:56.585Z</time></trkpt><trkpt lat="45.4171317" lon="10.5267783"><ele>113.0</ele><time>2026-05-01T12:15:57.594Z</time></trkpt><trkpt lat="45.417335" lon="10.5269217"><ele>114.0</ele><time>2026-05-01T12:15:58.586Z</time></trkpt><trkpt lat="45.4175583" lon="10.5270633"><ele>115.0</ele><time>2026-05-01T12:15:59.585Z</time></trkpt><trkpt lat="45.4177917" lon="10.5271767"><ele>116.5</ele><time>2026-05-01T12:16:00.592Z</time></trkpt><trkpt lat="45.4180083" lon="10.5273167"><ele>118.0</ele><time>2026-05-01T12:16:01.593Z</time></trkpt><trkpt lat="45.4182083" lon="10.5274733"><ele>118.0</ele><time>2026-05-01T12:16:02.577Z</time></trkpt><trkpt lat="45.418435" lon="10.5276267"><ele>118.0</ele><time>2026-05-01T12:16:03.592Z</time></trkpt><trkpt lat="45.4186317" lon="10.5277533"><ele>118.0</ele><time>2026-05-01T12:16:04.594Z</time></trkpt><trkpt lat="45.4187983" lon="10.52786"><ele>118.0</ele><time>2026-05-01T12:16:05.591Z</time></trkpt><trkpt lat="45.4189333" lon="10.5279517"><ele>118.0</ele><time>2026-05-01T12:16:06.577Z</time></trkpt><trkpt lat="45.41902" lon="10.528015"><ele>118.0</ele><time>2026-05-01T12:16:07.594Z</time></trkpt><trkpt lat="45.419115" lon="10.528075"><ele>118.0</ele><time>2026-05-01T12:16:08.582Z</time></trkpt><trkpt lat="45.4192" lon="10.52817"><ele>118.0</ele><time>2026-05-01T12:16:09.587Z</time></trkpt><trkpt lat="45.4193133" lon="10.5282483"><ele>118.0</ele><time>2026-05-01T12:16:10.604Z</time></trkpt><trkpt lat="45.4193917" lon="10.528385"><ele>118.0</ele><time>2026-05-01T12:16:11.595Z</time></trkpt><trkpt lat="45.4194783" lon="10.5284833"><ele>118.0</ele><time>2026-05-01T12:16:12.587Z</time></trkpt><trkpt lat="45.4195667" lon="10.5285733"><ele>118.0</ele><time>2026-05-01T12:16:13.588Z</time></trkpt><trkpt lat="45.4197" lon="10.5286633"><ele>118.0</ele><time>2026-05-01T12:16:14.589Z</time></trkpt><trkpt lat="45.4198367" lon="10.5287817"><ele>118.0</ele><time>2026-05-01T12:16:15.591Z</time></trkpt><trkpt lat="45.4199567" lon="10.5288767"><ele>118.75</ele><time>2026-05-01T12:16:16.6Z</time></trkpt><trkpt lat="45.4200583" lon="10.52897"><ele>119.5</ele><time>2026-05-01T12:16:17.591Z</time></trkpt><trkpt lat="45.4201383" lon="10.5291233"><ele>120.25</ele><time>2026-05-01T12:16:18.591Z</time></trkpt><trkpt lat="45.420255" lon="10.5292967"><ele>121.0</ele><time>2026-05-01T12:16:19.585Z</time></trkpt><trkpt lat="45.4203733" lon="10.5294883"><ele>121.33333333333334</ele><time>2026-05-01T12:16:20.589Z</time></trkpt><trkpt lat="45.4204983" lon="10.5296733"><ele>121.66666666666666</ele><time>2026-05-01T12:16:21.591Z</time></trkpt><trkpt lat="45.4206133" lon="10.52985"><ele>122.0</ele><time>2026-05-01T12:16:22.587Z</time></trkpt><trkpt lat="45.4207117" lon="10.5300033"><ele>121.99999999999999</ele><time>2026-05-01T12:16:23.592Z</time></trkpt><trkpt lat="45.4208" lon="10.530125"><ele>122.0</ele><time>2026-05-01T12:16:24.59Z</time></trkpt><trkpt lat="45.420855" lon="10.5301967"><ele>122.0</ele><time>2026-05-01T12:16:25.587Z</time></trkpt><trkpt lat="45.4209233" lon="10.530265"><ele>122.0</ele><time>2026-05-01T12:16:26.594Z</time></trkpt><trkpt lat="45.42098" lon="10.53031"><ele>121.99999999999999</ele><time>2026-05-01T12:16:27.592Z</time></trkpt><trkpt lat="45.42106" lon="10.5303667"><ele>122.0</ele><time>2026-05-01T12:16:28.616Z</time></trkpt><trkpt lat="45.4211467" lon="10.5304167"><ele>122.25</ele><time>2026-05-01T12:16:29.586Z</time></trkpt><trkpt lat="45.4212717" lon="10.5304383"><ele>122.5</ele><time>2026-05-01T12:16:30.59Z</time></trkpt><trkpt lat="45.4214117" lon="10.5304267"><ele>122.75</ele><time>2026-05-01T12:16:31.591Z</time></trkpt><trkpt lat="45.4215483" lon="10.5304417"><ele>123.0</ele><time>2026-05-01T12:16:32.58Z</time></trkpt><trkpt lat="45.4217" lon="10.5304817"><ele>124.25</ele><time>2026-05-01T12:16:33.593Z</time></trkpt><trkpt lat="45.42181" lon="10.5305617"><ele>125.5</ele><time>2026-05-01T12:16:34.582Z</time></trkpt><trkpt lat="45.42191" lon="10.5306633"><ele>126.75</ele><time>2026-05-01T12:16:35.602Z</time></trkpt><trkpt lat="45.422" lon="10.5308117"><ele>128.0</ele><time>2026-05-01T12:16:36.599Z</time></trkpt><trkpt lat="45.422085" lon="10.5309783"><ele>128.0</ele><time>2026-05-01T12:16:37.598Z</time></trkpt><trkpt lat="45.4221233" lon="10.531165"><ele>128.0</ele><time>2026-05-01T12:16:38.588Z</time></trkpt><trkpt lat="45.422105" lon="10.5313417"><ele>128.0</ele><time>2026-05-01T12:16:39.599Z</time></trkpt><trkpt lat="45.4221167" lon="10.5314867"><ele>128.0</ele><time>2026-05-01T12:16:40.586Z</time></trkpt><trkpt lat="45.4221517" lon="10.5316017"><ele>129.0</ele><time>2026-05-01T12:16:42.601Z</time></trkpt><trkpt lat="45.422255" lon="10.531515"><ele>130.0</ele><time>2026-05-01T12:16:46.584Z</time></trkpt><trkpt lat="45.42232" lon="10.5314283"><ele>131.0</ele><time>2026-05-01T12:16:47.583Z</time></trkpt><trkpt lat="45.422405" lon="10.5313267"><ele>132.0</ele><time>2026-05-01T12:16:48.596Z</time></trkpt><trkpt lat="45.4225267" lon="10.5312017"><ele>132.0</ele><time>2026-05-01T12:16:49.583Z</time></trkpt><trkpt lat="45.4226483" lon="10.5311117"><ele>132.0</ele><time>2026-05-01T12:16:50.582Z</time></trkpt><trkpt lat="45.42283" lon="10.53102"><ele>132.0</ele><time>2026-05-01T12:16:51.591Z</time></trkpt><trkpt lat="45.4229883" lon="10.5309033"><ele>133.33333333333334</ele><time>2026-05-01T12:16:52.588Z</time></trkpt><trkpt lat="45.4231567" lon="10.5308033"><ele>134.66666666666669</ele><time>2026-05-01T12:16:53.59Z</time></trkpt><trkpt lat="45.4232817" lon="10.53066"><ele>136.0</ele><time>2026-05-01T12:16:54.593Z</time></trkpt><trkpt lat="45.4233967" lon="10.53052"><ele>134.25</ele><time>2026-05-01T12:16:55.593Z</time></trkpt><trkpt lat="45.423495" lon="10.5303467"><ele>132.5</ele><time>2026-05-01T12:16:56.589Z</time></trkpt><trkpt lat="45.4235967" lon="10.530195"><ele>130.75</ele><time>2026-05-01T12:16:57.583Z</time></trkpt><trkpt lat="45.4236717" lon="10.53006"><ele>129.0</ele><time>2026-05-01T12:16:58.587Z</time></trkpt><trkpt lat="45.423755" lon="10.529925"><ele>128.75</ele><time>2026-05-01T12:16:59.584Z</time></trkpt><trkpt lat="45.423865" lon="10.52982"><ele>128.5</ele><time>2026-05-01T12:17:00.593Z</time></trkpt><trkpt lat="45.4239467" lon="10.529695"><ele>128.25</ele><time>2026-05-01T12:17:01.582Z</time></trkpt><trkpt lat="45.4240417" lon="10.5295817"><ele>128.0</ele><time>2026-05-01T12:17:02.589Z</time></trkpt><trkpt lat="45.4241317" lon="10.5294783"><ele>128.0</ele><time>2026-05-01T12:17:03.581Z</time></trkpt><trkpt lat="45.4242117" lon="10.5293717"><ele>128.0</ele><time>2026-05-01T12:17:04.592Z</time></trkpt><trkpt lat="45.4243133" lon="10.5292767"><ele>128.0</ele><time>2026-05-01T12:17:05.595Z</time></trkpt><trkpt lat="45.4243933" lon="10.5291817"><ele>128.0</ele><time>2026-05-01T12:17:06.585Z</time></trkpt><trkpt lat="45.4244717" lon="10.5290733"><ele>128.0</ele><time>2026-05-01T12:17:07.586Z</time></trkpt><trkpt lat="45.424555" lon="10.5289467"><ele>128.0</ele><time>2026-05-01T12:17:08.591Z</time></trkpt><trkpt lat="45.42465" lon="10.5288383"><ele>128.0</ele><time>2026-05-01T12:17:09.605Z</time></trkpt><trkpt lat="45.4247717" lon="10.528665"><ele>128.0</ele><time>2026-05-01T12:17:10.59Z</time></trkpt><trkpt lat="45.4248583" lon="10.528485"><ele>128.0</ele><time>2026-05-01T12:17:11.591Z</time></trkpt><trkpt lat="45.4250233" lon="10.5282933"><ele>128.0</ele><time>2026-05-01T12:17:12.587Z</time></trkpt><trkpt lat="45.42518" lon="10.5280667"><ele>128.0</ele><time>2026-05-01T12:17:13.587Z</time></trkpt><trkpt lat="45.4253467" lon="10.5278467"><ele>128.0</ele><time>2026-05-01T12:17:14.588Z</time></trkpt><trkpt lat="45.4255283" lon="10.52762"><ele>128.0</ele><time>2026-05-01T12:17:15.594Z</time></trkpt><trkpt lat="45.4257067" lon="10.5273483"><ele>128.0</ele><time>2026-05-01T12:17:16.591Z</time></trkpt><trkpt lat="45.425895" lon="10.52711"><ele>128.0</ele><time>2026-05-01T12:17:17.589Z</time></trkpt><trkpt lat="45.4260917" lon="10.52684"><ele>127.0</ele><time>2026-05-01T12:17:18.593Z</time></trkpt><trkpt lat="45.4263017" lon="10.5265833"><ele>126.0</ele><time>2026-05-01T12:17:19.586Z</time></trkpt><trkpt lat="45.4265367" lon="10.5263217"><ele>125.0</ele><time>2026-05-01T12:17:20.583Z</time></trkpt><trkpt lat="45.4267617" lon="10.5260383"><ele>124.0</ele><time>2026-05-01T12:17:21.586Z</time></trkpt><trkpt lat="45.4270033" lon="10.5257333"><ele>125.0</ele><time>2026-05-01T12:17:22.591Z</time></trkpt><trkpt lat="45.4272233" lon="10.5254617"><ele>126.0</ele><time>2026-05-01T12:17:23.578Z</time></trkpt><trkpt lat="45.4274333" lon="10.525155"><ele>124.0</ele><time>2026-05-01T12:17:24.585Z</time></trkpt><trkpt lat="45.42766" lon="10.5248917"><ele>122.0</ele><time>2026-05-01T12:17:25.582Z</time></trkpt><trkpt lat="45.427875" lon="10.52462"><ele>123.0</ele><time>2026-05-01T12:17:26.582Z</time></trkpt><trkpt lat="45.42809" lon="10.5243367"><ele>124.0</ele><time>2026-05-01T12:17:27.588Z</time></trkpt><trkpt lat="45.428305" lon="10.5240617"><ele>124.0</ele><time>2026-05-01T12:17:28.585Z</time></trkpt><trkpt lat="45.4285167" lon="10.523765"><ele>124.0</ele><time>2026-05-01T12:17:29.597Z</time></trkpt><trkpt lat="45.4287483" lon="10.5234783"><ele>124.0</ele><time>2026-05-01T12:17:30.587Z</time></trkpt><trkpt lat="45.4289733" lon="10.523195"><ele>124.0</ele><time>2026-05-01T12:17:31.591Z</time></trkpt><trkpt lat="45.429205" lon="10.5229083"><ele>123.0</ele><time>2026-05-01T12:17:32.588Z</time></trkpt><trkpt lat="45.4294167" lon="10.522635"><ele>122.0</ele><time>2026-05-01T12:17:33.589Z</time></trkpt><trkpt lat="45.4296083" lon="10.5223783"><ele>122.0</ele><time>2026-05-01T12:17:34.595Z</time></trkpt><trkpt lat="45.42979" lon="10.5221333"><ele>122.0</ele><time>2026-05-01T12:17:35.581Z</time></trkpt><trkpt lat="45.4299533" lon="10.5219183"><ele>122.0</ele><time>2026-05-01T12:17:36.586Z</time></trkpt><trkpt lat="45.4301133" lon="10.5217183"><ele>122.0</ele><time>2026-05-01T12:17:37.589Z</time></trkpt><trkpt lat="45.430285" lon="10.5215467"><ele>122.0</ele><time>2026-05-01T12:17:38.582Z</time></trkpt><trkpt lat="45.43046" lon="10.52139"><ele>121.33333333333333</ele><time>2026-05-01T12:17:39.589Z</time></trkpt><trkpt lat="45.4306433" lon="10.52125"><ele>120.66666666666666</ele><time>2026-05-01T12:17:40.586Z</time></trkpt><trkpt lat="45.430855" lon="10.521195"><ele>120.0</ele><time>2026-05-01T12:17:41.584Z</time></trkpt><trkpt lat="45.43104" lon="10.5210567"><ele>120.33333333333334</ele><time>2026-05-01T12:17:42.592Z</time></trkpt><trkpt lat="45.4311533" lon="10.520905"><ele>120.66666666666667</ele><time>2026-05-01T12:17:43.591Z</time></trkpt><trkpt lat="45.431305" lon="10.5207017"><ele>121.0</ele><time>2026-05-01T12:17:44.582Z</time></trkpt><trkpt lat="45.431455" lon="10.5205417"><ele>121.4</ele><time>2026-05-01T12:17:45.589Z</time></trkpt><trkpt lat="45.4315283" lon="10.5203817"><ele>121.8</ele><time>2026-05-01T12:17:46.593Z</time></trkpt><trkpt lat="45.4315883" lon="10.5202433"><ele>122.20000000000002</ele><time>2026-05-01T12:17:47.59Z</time></trkpt><trkpt lat="45.4316267" lon="10.520135"><ele>122.60000000000001</ele><time>2026-05-01T12:17:48.579Z</time></trkpt><trkpt lat="45.43167" lon="10.5200333"><ele>123.0</ele><time>2026-05-01T12:17:49.59Z</time></trkpt><trkpt lat="45.431695" lon="10.51993"><ele>123.0</ele><time>2026-05-01T12:17:50.596Z</time></trkpt><trkpt lat="45.4317033" lon="10.51981"><ele>123.00000000000001</ele><time>2026-05-01T12:17:51.61Z</time></trkpt><trkpt lat="45.4317217" lon="10.519665"><ele>123.00000000000001</ele><time>2026-05-01T12:17:52.584Z</time></trkpt><trkpt lat="45.431725" lon="10.519505"><ele>123.0</ele><time>2026-05-01T12:17:53.601Z</time></trkpt><trkpt lat="45.43174" lon="10.51937"><ele>123.0</ele><time>2026-05-01T12:17:54.592Z</time></trkpt><trkpt lat="45.43169" lon="10.519265"><ele>123.2</ele><time>2026-05-01T12:17:55.597Z</time></trkpt><trkpt lat="45.4315983" lon="10.5191967"><ele>123.4</ele><time>2026-05-01T12:17:56.596Z</time></trkpt><trkpt lat="45.4315" lon="10.5191667"><ele>123.60000000000001</ele><time>2026-05-01T12:17:57.593Z</time></trkpt><trkpt lat="45.4314167" lon="10.5192333"><ele>123.80000000000001</ele><time>2026-05-01T12:17:58.597Z</time></trkpt><trkpt lat="45.4313517" lon="10.5193183"><ele>124.0</ele><time>2026-05-01T12:17:59.594Z</time></trkpt><trkpt lat="45.4313367" lon="10.51946"><ele>123.80000000000001</ele><time>2026-05-01T12:18:00.584Z</time></trkpt><trkpt lat="45.431345" lon="10.5196133"><ele>123.60000000000001</ele><time>2026-05-01T12:18:01.582Z</time></trkpt><trkpt lat="45.4314" lon="10.5197283"><ele>123.4</ele><time>2026-05-01T12:18:02.588Z</time></trkpt><trkpt lat="45.431455" lon="10.5198083"><ele>123.2</ele><time>2026-05-01T12:18:03.711Z</time></trkpt><trkpt lat="45.4315833" lon="10.51992"><ele>123.0</ele><time>2026-05-01T12:18:05.593Z</time></trkpt><trkpt lat="45.4316433" lon="10.51999"><ele>123.0</ele><time>2026-05-01T12:18:06.585Z</time></trkpt><trkpt lat="45.4316017" lon="10.520185"><ele>123.0</ele><time>2026-05-01T12:18:08.605Z</time></trkpt><trkpt lat="45.4315233" lon="10.5203167"><ele>123.0</ele><time>2026-05-01T12:18:09.608Z</time></trkpt><trkpt lat="45.43141" lon="10.5204783"><ele>123.0</ele><time>2026-05-01T12:18:10.59Z</time></trkpt><trkpt lat="45.43131" lon="10.5206617"><ele>123.33333333333334</ele><time>2026-05-01T12:18:11.604Z</time></trkpt><trkpt lat="45.4311567" lon="10.52084"><ele>123.66666666666667</ele><time>2026-05-01T12:18:12.593Z</time></trkpt><trkpt lat="45.431005" lon="10.52104"><ele>124.0</ele><time>2026-05-01T12:18:13.594Z</time></trkpt><trkpt lat="45.4308183" lon="10.5211933"><ele>123.0</ele><time>2026-05-01T12:18:14.583Z</time></trkpt><trkpt lat="45.4305767" lon="10.521325"><ele>122.0</ele><time>2026-05-01T12:18:15.593Z</time></trkpt><trkpt lat="45.430355" lon="10.5214467"><ele>122.0</ele><time>2026-05-01T12:18:16.591Z</time></trkpt><trkpt lat="45.4301683" lon="10.5215567"><ele>122.0</ele><time>2026-05-01T12:18:17.604Z</time></trkpt><trkpt lat="45.429975" lon="10.521755"><ele>122.0</ele><time>2026-05-01T12:18:18.611Z</time></trkpt><trkpt lat="45.4297717" lon="10.5220333"><ele>122.0</ele><time>2026-05-01T12:18:19.592Z</time></trkpt><trkpt lat="45.4295917" lon="10.5223433"><ele>122.0</ele><time>2026-05-01T12:18:20.579Z</time></trkpt><trkpt lat="45.4293933" lon="10.5226217"><ele>123.0</ele><time>2026-05-01T12:18:21.602Z</time></trkpt><trkpt lat="45.4291833" lon="10.5228983"><ele>124.0</ele><time>2026-05-01T12:18:22.589Z</time></trkpt><trkpt lat="45.4289667" lon="10.5231683"><ele>124.0</ele><time>2026-05-01T12:18:23.58Z</time></trkpt><trkpt lat="45.428755" lon="10.5234667"><ele>124.0</ele><time>2026-05-01T12:18:24.6Z</time></trkpt><trkpt lat="45.4285483" lon="10.5237883"><ele>124.0</ele><time>2026-05-01T12:18:25.586Z</time></trkpt><trkpt lat="45.42831" lon="10.5240783"><ele>124.0</ele><time>2026-05-01T12:18:26.581Z</time></trkpt><trkpt lat="45.428075" lon="10.5243567"><ele>123.0</ele><time>2026-05-01T12:18:27.587Z</time></trkpt><trkpt lat="45.4278433" lon="10.5246433"><ele>122.0</ele><time>2026-05-01T12:18:28.603Z</time></trkpt><trkpt lat="45.4276133" lon="10.5249467"><ele>122.0</ele><time>2026-05-01T12:18:29.582Z</time></trkpt><trkpt lat="45.427395" lon="10.5252533"><ele>122.0</ele><time>2026-05-01T12:18:30.589Z</time></trkpt><trkpt lat="45.4271567" lon="10.5255267"><ele>123.0</ele><time>2026-05-01T12:18:31.6Z</time></trkpt><trkpt lat="45.426945" lon="10.5257767"><ele>124.0</ele><time>2026-05-01T12:18:32.59Z</time></trkpt><trkpt lat="45.4267417" lon="10.5260283"><ele>127.0</ele><time>2026-05-01T12:18:33.585Z</time></trkpt><trkpt lat="45.4265483" lon="10.5262817"><ele>130.0</ele><time>2026-05-01T12:18:34.61Z</time></trkpt><trkpt lat="45.4263533" lon="10.52654"><ele>129.0</ele><time>2026-05-01T12:18:35.597Z</time></trkpt><trkpt lat="45.4261417" lon="10.5268167"><ele>128.0</ele><time>2026-05-01T12:18:36.591Z</time></trkpt><trkpt lat="45.425915" lon="10.5270967"><ele>128.0</ele><time>2026-05-01T12:18:37.604Z</time></trkpt><trkpt lat="45.425675" lon="10.52736"><ele>128.0</ele><time>2026-05-01T12:18:38.592Z</time></trkpt><trkpt lat="45.4254433" lon="10.52767"><ele>128.0</ele><time>2026-05-01T12:18:39.586Z</time></trkpt><trkpt lat="45.425215" lon="10.52798"><ele>128.0</ele><time>2026-05-01T12:18:40.587Z</time></trkpt><trkpt lat="45.4249867" lon="10.528275"><ele>128.0</ele><time>2026-05-01T12:18:41.595Z</time></trkpt><trkpt lat="45.4247883" lon="10.5285833"><ele>128.0</ele><time>2026-05-01T12:18:42.583Z</time></trkpt><trkpt lat="45.4245883" lon="10.5288567"><ele>128.0</ele><time>2026-05-01T12:18:43.593Z</time></trkpt><trkpt lat="45.4244033" lon="10.52913"><ele>128.0</ele><time>2026-05-01T12:18:44.589Z</time></trkpt><trkpt lat="45.4241983" lon="10.52939"><ele>130.0</ele><time>2026-05-01T12:18:45.594Z</time></trkpt><trkpt lat="45.4239983" lon="10.5296467"><ele>132.0</ele><time>2026-05-01T12:18:46.586Z</time></trkpt><trkpt lat="45.42382" lon="10.52988"><ele>131.0</ele><time>2026-05-01T12:18:47.588Z</time></trkpt><trkpt lat="45.423655" lon="10.5301067"><ele>130.0</ele><time>2026-05-01T12:18:48.587Z</time></trkpt><trkpt lat="45.4234917" lon="10.5303033"><ele>129.0</ele><time>2026-05-01T12:18:49.591Z</time></trkpt><trkpt lat="45.42336" lon="10.530485"><ele>130.0</ele><time>2026-05-01T12:18:50.584Z</time></trkpt><trkpt lat="45.4231817" lon="10.5306733"><ele>131.0</ele><time>2026-05-01T12:18:51.587Z</time></trkpt><trkpt lat="45.423" lon="10.530855"><ele>132.0</ele><time>2026-05-01T12:18:52.586Z</time></trkpt><trkpt lat="45.4227983" lon="10.5310233"><ele>132.0</ele><time>2026-05-01T12:18:53.584Z</time></trkpt><trkpt lat="45.4226367" lon="10.5311733"><ele>132.0</ele><time>2026-05-01T12:18:54.589Z</time></trkpt><trkpt lat="45.4224717" lon="10.5312917"><ele>132.0</ele><time>2026-05-01T12:18:55.591Z</time></trkpt><trkpt lat="45.4223083" lon="10.5314517"><ele>132.33333333333334</ele><time>2026-05-01T12:18:56.588Z</time></trkpt><trkpt lat="45.4221567" lon="10.531565"><ele>132.66666666666669</ele><time>2026-05-01T12:18:57.59Z</time></trkpt><trkpt lat="45.422035" lon="10.5317017"><ele>133.0</ele><time>2026-05-01T12:18:58.589Z</time></trkpt><trkpt lat="45.4219717" lon="10.531895"><ele>134.33333333333334</ele><time>2026-05-01T12:18:59.592Z</time></trkpt><trkpt lat="45.421885" lon="10.5321"><ele>135.66666666666666</ele><time>2026-05-01T12:19:00.596Z</time></trkpt><trkpt lat="45.421805" lon="10.5322883"><ele>137.0</ele><time>2026-05-01T12:19:01.583Z</time></trkpt><trkpt lat="45.4217417" lon="10.5324667"><ele>137.0</ele><time>2026-05-01T12:19:02.589Z</time></trkpt><trkpt lat="45.4216383" lon="10.532585"><ele>137.0</ele><time>2026-05-01T12:19:03.607Z</time></trkpt><trkpt lat="45.4215317" lon="10.5326933"><ele>137.0</ele><time>2026-05-01T12:19:04.592Z</time></trkpt><trkpt lat="45.4213833" lon="10.5327783"><ele>137.0</ele><time>2026-05-01T12:19:05.595Z</time></trkpt><trkpt lat="45.4212033" lon="10.5328683"><ele>137.33333333333331</ele><time>2026-05-01T12:19:06.592Z</time></trkpt><trkpt lat="45.421005" lon="10.5329233"><ele>137.66666666666666</ele><time>2026-05-01T12:19:07.596Z</time></trkpt><trkpt lat="45.4208333" lon="10.5330533"><ele>138.0</ele><time>2026-05-01T12:19:08.584Z</time></trkpt><trkpt lat="45.4206033" lon="10.5331867"><ele>134.0</ele><time>2026-05-01T12:19:09.593Z</time></trkpt><trkpt lat="45.4203883" lon="10.5333333"><ele>130.0</ele><time>2026-05-01T12:19:10.589Z</time></trkpt><trkpt lat="45.4201717" lon="10.533505"><ele>130.0</ele><time>2026-05-01T12:19:11.589Z</time></trkpt><trkpt lat="45.419925" lon="10.533685"><ele>130.0</ele><time>2026-05-01T12:19:12.595Z</time></trkpt><trkpt lat="45.4196667" lon="10.533885"><ele>131.0</ele><time>2026-05-01T12:19:13.595Z</time></trkpt><trkpt lat="45.419435" lon="10.53408"><ele>132.0</ele><time>2026-05-01T12:19:14.596Z</time></trkpt><trkpt lat="45.4192283" lon="10.534275"><ele>132.0</ele><time>2026-05-01T12:19:15.591Z</time></trkpt><trkpt lat="45.4190317" lon="10.534425"><ele>132.0</ele><time>2026-05-01T12:19:16.585Z</time></trkpt><trkpt lat="45.4188433" lon="10.5345317"><ele>132.0</ele><time>2026-05-01T12:19:17.592Z</time></trkpt><trkpt lat="45.4186317" lon="10.534635"><ele>130.5</ele><time>2026-05-01T12:19:18.589Z</time></trkpt><trkpt lat="45.4184083" lon="10.5347317"><ele>129.0</ele><time>2026-05-01T12:19:19.585Z</time></trkpt><trkpt lat="45.41819" lon="10.5348267"><ele>129.0</ele><time>2026-05-01T12:19:20.583Z</time></trkpt><trkpt lat="45.4180167" lon="10.53494"><ele>129.0</ele><time>2026-05-01T12:19:21.585Z</time></trkpt><trkpt lat="45.4178233" lon="10.535035"><ele>129.0</ele><time>2026-05-01T12:19:22.582Z</time></trkpt><trkpt lat="45.4176483" lon="10.5351767"><ele>128.66666666666666</ele><time>2026-05-01T12:19:23.594Z</time></trkpt><trkpt lat="45.4174883" lon="10.5353567"><ele>128.33333333333331</ele><time>2026-05-01T12:19:24.587Z</time></trkpt><trkpt lat="45.41732" lon="10.5355133"><ele>128.0</ele><time>2026-05-01T12:19:25.581Z</time></trkpt><trkpt lat="45.4171217" lon="10.5356217"><ele>127.33333333333333</ele><time>2026-05-01T12:19:26.59Z</time></trkpt><trkpt lat="45.416915" lon="10.5357067"><ele>126.66666666666666</ele><time>2026-05-01T12:19:27.586Z</time></trkpt><trkpt lat="45.4166967" lon="10.53577"><ele>126.0</ele><time>2026-05-01T12:19:28.596Z</time></trkpt><trkpt lat="45.416505" lon="10.5358633"><ele>126.0</ele><time>2026-05-01T12:19:29.582Z</time></trkpt><trkpt lat="45.4163267" lon="10.535925"><ele>126.0</ele><time>2026-05-01T12:19:30.595Z</time></trkpt><trkpt lat="45.4161483" lon="10.535995"><ele>126.0</ele><time>2026-05-01T12:19:31.592Z</time></trkpt><trkpt lat="45.41597" lon="10.5361917"><ele>126.33333333333334</ele><time>2026-05-01T12:19:32.587Z</time></trkpt><trkpt lat="45.4158" lon="10.5363733"><ele>126.66666666666667</ele><time>2026-05-01T12:19:33.584Z</time></trkpt><trkpt lat="45.4156483" lon="10.5365783"><ele>127.0</ele><time>2026-05-01T12:19:34.586Z</time></trkpt><trkpt lat="45.4155083" lon="10.53681"><ele>126.5</ele><time>2026-05-01T12:19:35.593Z</time></trkpt><trkpt lat="45.415365" lon="10.537065"><ele>126.0</ele><time>2026-05-01T12:19:36.593Z</time></trkpt><trkpt lat="45.4152467" lon="10.537395"><ele>126.0</ele><time>2026-05-01T12:19:37.578Z</time></trkpt><trkpt lat="45.41511" lon="10.5376467"><ele>126.0</ele><time>2026-05-01T12:19:38.584Z</time></trkpt><trkpt lat="45.414975" lon="10.537915"><ele>125.5</ele><time>2026-05-01T12:19:39.585Z</time></trkpt><trkpt lat="45.41482" lon="10.5381683"><ele>125.0</ele><time>2026-05-01T12:19:40.585Z</time></trkpt><trkpt lat="45.414625" lon="10.5383867"><ele>125.0</ele><time>2026-05-01T12:19:41.585Z</time></trkpt><trkpt lat="45.41441" lon="10.5386117"><ele>125.0</ele><time>2026-05-01T12:19:42.585Z</time></trkpt><trkpt lat="45.414165" lon="10.5388317"><ele>125.0</ele><time>2026-05-01T12:19:43.586Z</time></trkpt><trkpt lat="45.413905" lon="10.53904"><ele>125.0</ele><time>2026-05-01T12:19:44.589Z</time></trkpt><trkpt lat="45.41364" lon="10.5392533"><ele>125.0</ele><time>2026-05-01T12:19:45.589Z</time></trkpt><trkpt lat="45.413415" lon="10.5394583"><ele>125.0</ele><time>2026-05-01T12:19:46.582Z</time></trkpt><trkpt lat="45.413205" lon="10.539635"><ele>125.33333333333333</ele><time>2026-05-01T12:19:47.585Z</time></trkpt><trkpt lat="45.412995" lon="10.5397617"><ele>125.66666666666666</ele><time>2026-05-01T12:19:48.586Z</time></trkpt><trkpt lat="45.4128267" lon="10.5398917"><ele>126.0</ele><time>2026-05-01T12:19:49.581Z</time></trkpt><trkpt lat="45.4126967" lon="10.5400467"><ele>126.0</ele><time>2026-05-01T12:19:50.573Z</time></trkpt><trkpt lat="45.41258" lon="10.54023"><ele>126.0</ele><time>2026-05-01T12:19:51.588Z</time></trkpt><trkpt lat="45.41249" lon="10.54046"><ele>126.0</ele><time>2026-05-01T12:19:52.588Z</time></trkpt><trkpt lat="45.41241" lon="10.5406567"><ele>126.75</ele><time>2026-05-01T12:19:53.587Z</time></trkpt><trkpt lat="45.4123433" lon="10.540845"><ele>127.5</ele><time>2026-05-01T12:19:54.586Z</time></trkpt><trkpt lat="45.4122883" lon="10.5409867"><ele>128.25</ele><time>2026-05-01T12:19:55.586Z</time></trkpt><trkpt lat="45.412225" lon="10.54109"><ele>129.0</ele><time>2026-05-01T12:19:56.585Z</time></trkpt><trkpt lat="45.4121267" lon="10.5411817"><ele>129.0</ele><time>2026-05-01T12:19:58.584Z</time></trkpt><trkpt lat="45.4120567" lon="10.541085"><ele>129.0</ele><time>2026-05-01T12:19:59.584Z</time></trkpt><trkpt lat="45.4119867" lon="10.5409867"><ele>129.0</ele><time>2026-05-01T12:20:00.63Z</time></trkpt><trkpt lat="45.4119233" lon="10.54087"><ele>129.0</ele><time>2026-05-01T12:20:01.603Z</time></trkpt><trkpt lat="45.4118283" lon="10.540735"><ele>129.0</ele><time>2026-05-01T12:20:02.614Z</time></trkpt><trkpt lat="45.4118017" lon="10.54059"><ele>129.0</ele><time>2026-05-01T12:20:03.577Z</time></trkpt><trkpt lat="45.4117267" lon="10.5404167"><ele>129.0</ele><time>2026-05-01T12:20:04.594Z</time></trkpt><trkpt lat="45.41162" lon="10.5402067"><ele>129.0</ele><time>2026-05-01T12:20:05.587Z</time></trkpt><trkpt lat="45.4115483" lon="10.54"><ele>128.2</ele><time>2026-05-01T12:20:06.584Z</time></trkpt><trkpt lat="45.4114917" lon="10.5398533"><ele>127.4</ele><time>2026-05-01T12:20:07.587Z</time></trkpt><trkpt lat="45.41139" lon="10.5397517"><ele>126.6</ele><time>2026-05-01T12:20:08.582Z</time></trkpt><trkpt lat="45.4113283" lon="10.5396917"><ele>125.8</ele><time>2026-05-01T12:20:09.581Z</time></trkpt><trkpt lat="45.411205" lon="10.5396517"><ele>125.0</ele><time>2026-05-01T12:20:10.592Z</time></trkpt><trkpt lat="45.41106" lon="10.5395967"><ele>125.66666666666666</ele><time>2026-05-01T12:20:11.629Z</time></trkpt><trkpt lat="45.4109067" lon="10.5395133"><ele>126.33333333333334</ele><time>2026-05-01T12:20:12.581Z</time></trkpt><trkpt lat="45.4107383" lon="10.5394417"><ele>127.0</ele><time>2026-05-01T12:20:13.589Z</time></trkpt><trkpt lat="45.4105683" lon="10.5393967"><ele>129.0</ele><time>2026-05-01T12:20:14.59Z</time></trkpt><trkpt lat="45.4104133" lon="10.53934"><ele>131.0</ele><time>2026-05-01T12:20:15.597Z</time></trkpt><trkpt lat="45.4102817" lon="10.53932"><ele>133.0</ele><time>2026-05-01T12:20:16.591Z</time></trkpt><trkpt lat="45.4101067" lon="10.539275"><ele>133.0</ele><time>2026-05-01T12:20:17.589Z</time></trkpt><trkpt lat="45.4099067" lon="10.5392367"><ele>133.0</ele><time>2026-05-01T12:20:18.587Z</time></trkpt><trkpt lat="45.4097217" lon="10.5392183"><ele>133.0</ele><time>2026-05-01T12:20:19.604Z</time></trkpt><trkpt lat="45.40956" lon="10.5391867"><ele>132.20000000000002</ele><time>2026-05-01T12:20:20.594Z</time></trkpt><trkpt lat="45.409445" lon="10.53916"><ele>131.4</ele><time>2026-05-01T12:20:21.591Z</time></trkpt><trkpt lat="45.4093233" lon="10.53912"><ele>130.60000000000002</ele><time>2026-05-01T12:20:22.589Z</time></trkpt><trkpt lat="45.40923" lon="10.539095"><ele>129.8</ele><time>2026-05-01T12:20:23.588Z</time></trkpt><trkpt lat="45.4091433" lon="10.53909"><ele>129.0</ele><time>2026-05-01T12:20:24.586Z</time></trkpt><trkpt lat="45.4090733" lon="10.539055"><ele>129.0</ele><time>2026-05-01T12:20:25.58Z</time></trkpt><trkpt lat="45.4089867" lon="10.5390317"><ele>129.0</ele><time>2026-05-01T12:20:26.584Z</time></trkpt><trkpt lat="45.4089083" lon="10.5390067"><ele>129.0</ele><time>2026-05-01T12:20:27.596Z</time></trkpt><trkpt lat="45.40884" lon="10.539"><ele>129.0</ele><time>2026-05-01T12:20:28.579Z</time></trkpt><trkpt lat="45.4087483" lon="10.5390383"><ele>129.0</ele><time>2026-05-01T12:20:30.583Z</time></trkpt><trkpt lat="45.40871" lon="10.53911"><ele>129.0</ele><time>2026-05-01T12:20:32.58Z</time></trkpt><trkpt lat="45.408375" lon="10.53871"><ele>119.0</ele><time>2026-05-01T12:22:55.585Z</time></trkpt><trkpt lat="45.4084167" lon="10.5388083"><ele>121.0</ele><time>2026-05-01T12:22:56.582Z</time></trkpt><trkpt lat="45.4084633" lon="10.5389333"><ele>121.0</ele><time>2026-05-01T12:22:57.59Z</time></trkpt></trkseg></trk></gpx>